<?xml version='1.0' encoding='UTF-8'?><gpx version="1.1" creator="JPX - https://github.com/jenetics/jpx" xmlns="http://www.topografix.com/GPX/1/1"><trk><trkseg><trkpt lat="53.3567395" lon="14.6110761"><ele>87.39999999999999</ele><time>2026-03-28T09:41:23.13Z</time></trkpt><trkpt lat="53.3566938" lon="14.6112446"><ele>87.8</ele><time>2026-03-28T09:41:25.128Z</time></trkpt><trkpt lat="53.3566778" lon="14.6113768"><ele>88.2</ele><time>2026-03-28T09:41:27.128Z</time></trkpt><trkpt lat="53.3566745" lon="14.6115261"><ele>88.6</ele><time>2026-03-28T09:41:28.149Z</time></trkpt><trkpt lat="53.3566611" lon="14.6117098"><ele>89.0</ele><time>2026-03-28T09:41:29.13Z</time></trkpt><trkpt lat="53.3566361" lon="14.6118713"><ele>89.66666666666667</ele><time>2026-03-28T09:41:30.148Z</time></trkpt><trkpt lat="53.3566026" lon="14.612004"><ele>90.33333333333334</ele><time>2026-03-28T09:41:31.133Z</time></trkpt><trkpt lat="53.3565633" lon="14.6121289"><ele>91.0</ele><time>2026-03-28T09:41:32.126Z</time></trkpt><trkpt lat="53.3565208" lon="14.6122619"><ele>91.66666666666667</ele><time>2026-03-28T09:41:33.135Z</time></trkpt><trkpt lat="53.3564853" lon="14.6124065"><ele>92.33333333333333</ele><time>2026-03-28T09:41:34.134Z</time></trkpt><trkpt lat="53.3564601" lon="14.612551"><ele>93.0</ele><time>2026-03-28T09:41:35.13Z</time></trkpt><trkpt lat="53.3564443" lon="14.6126945"><ele>93.5</ele><time>2026-03-28T09:41:36.131Z</time></trkpt><trkpt lat="53.3564398" lon="14.61283"><ele>94.0</ele><time>2026-03-28T09:41:37.134Z</time></trkpt><trkpt lat="53.3564454" lon="14.6129483"><ele>94.5</ele><time>2026-03-28T09:41:38.132Z</time></trkpt><trkpt lat="53.3564634" lon="14.6130536"><ele>95.0</ele><time>2026-03-28T09:41:39.129Z</time></trkpt><trkpt lat="53.3565021" lon="14.6131614"><ele>95.5</ele><time>2026-03-28T09:41:40.123Z</time></trkpt><trkpt lat="53.3565604" lon="14.613276"><ele>96.0</ele><time>2026-03-28T09:41:41.131Z</time></trkpt><trkpt lat="53.3566149" lon="14.6133843"><ele>96.0</ele><time>2026-03-28T09:41:42.128Z</time></trkpt><trkpt lat="53.3566613" lon="14.6134906"><ele>96.0</ele><time>2026-03-28T09:41:43.131Z</time></trkpt><trkpt lat="53.3566826" lon="14.6135973"><ele>96.0</ele><time>2026-03-28T09:41:44.136Z</time></trkpt><trkpt lat="53.3566918" lon="14.6137132"><ele>96.0</ele><time>2026-03-28T09:41:45.135Z</time></trkpt><trkpt lat="53.3566959" lon="14.6138437"><ele>96.0</ele><time>2026-03-28T09:41:46.128Z</time></trkpt><trkpt lat="53.356705" lon="14.6139817"><ele>96.0</ele><time>2026-03-28T09:41:47.136Z</time></trkpt><trkpt lat="53.3567172" lon="14.6141122"><ele>96.5</ele><time>2026-03-28T09:41:48.133Z</time></trkpt><trkpt lat="53.3567334" lon="14.6142358"><ele>97.0</ele><time>2026-03-28T09:41:49.134Z</time></trkpt><trkpt lat="53.3567505" lon="14.6143499"><ele>97.5</ele><time>2026-03-28T09:41:50.133Z</time></trkpt><trkpt lat="53.3567672" lon="14.6144688"><ele>98.0</ele><time>2026-03-28T09:41:51.13Z</time></trkpt><trkpt lat="53.3567854" lon="14.6145935"><ele>98.5</ele><time>2026-03-28T09:41:52.136Z</time></trkpt><trkpt lat="53.3568064" lon="14.6147243"><ele>99.0</ele><time>2026-03-28T09:41:53.136Z</time></trkpt><trkpt lat="53.3568303" lon="14.6148565"><ele>99.66666666666667</ele><time>2026-03-28T09:41:54.135Z</time></trkpt><trkpt lat="53.3568455" lon="14.6149952"><ele>100.33333333333334</ele><time>2026-03-28T09:41:55.122Z</time></trkpt><trkpt lat="53.3568529" lon="14.6151442"><ele>101.0</ele><time>2026-03-28T09:41:56.131Z</time></trkpt><trkpt lat="53.3568533" lon="14.6152858"><ele>101.66666666666667</ele><time>2026-03-28T09:41:57.136Z</time></trkpt><trkpt lat="53.3568518" lon="14.6154058"><ele>102.33333333333334</ele><time>2026-03-28T09:41:58.128Z</time></trkpt><trkpt lat="53.356853" lon="14.6155115"><ele>103.0</ele><time>2026-03-28T09:41:59.133Z</time></trkpt><trkpt lat="53.356858" lon="14.6156182"><ele>103.83333333333334</ele><time>2026-03-28T09:42:00.135Z</time></trkpt><trkpt lat="53.3568599" lon="14.6157963"><ele>104.66666666666667</ele><time>2026-03-28T09:42:02.138Z</time></trkpt><trkpt lat="53.3568265" lon="14.6158896"><ele>105.5</ele><time>2026-03-28T09:42:05.132Z</time></trkpt><trkpt lat="53.3569157" lon="14.615858"><ele>106.33333333333334</ele><time>2026-03-28T09:42:29.131Z</time></trkpt><trkpt lat="53.3569773" lon="14.6159058"><ele>107.16666666666667</ele><time>2026-03-28T09:43:28.128Z</time></trkpt><trkpt lat="53.3570749" lon="14.6160178"><ele>108.0</ele><time>2026-03-28T09:43:30.132Z</time></trkpt><trkpt lat="53.3571231" lon="14.6162128"><ele>108.5</ele><time>2026-03-28T09:43:32.129Z</time></trkpt><trkpt lat="53.3571086" lon="14.6163612"><ele>109.0</ele><time>2026-03-28T09:43:33.129Z</time></trkpt><trkpt lat="53.3570818" lon="14.6165104"><ele>109.5</ele><time>2026-03-28T09:43:34.134Z</time></trkpt><trkpt lat="53.3570585" lon="14.6166493"><ele>110.0</ele><time>2026-03-28T09:43:35.133Z</time></trkpt><trkpt lat="53.3570433" lon="14.616772"><ele>110.5</ele><time>2026-03-28T09:43:36.126Z</time></trkpt><trkpt lat="53.3570334" lon="14.6168853"><ele>111.0</ele><time>2026-03-28T09:43:37.133Z</time></trkpt><trkpt lat="53.357036" lon="14.6169991"><ele>111.28571428571428</ele><time>2026-03-28T09:43:38.133Z</time></trkpt><trkpt lat="53.3570424" lon="14.617118"><ele>111.57142857142858</ele><time>2026-03-28T09:43:39.131Z</time></trkpt><trkpt lat="53.3570401" lon="14.6172426"><ele>111.85714285714286</ele><time>2026-03-28T09:43:40.137Z</time></trkpt><trkpt lat="53.3570381" lon="14.6173618"><ele>112.14285714285714</ele><time>2026-03-28T09:43:41.122Z</time></trkpt><trkpt lat="53.3570483" lon="14.6174697"><ele>112.42857142857142</ele><time>2026-03-28T09:43:42.13Z</time></trkpt><trkpt lat="53.3571146" lon="14.6175878"><ele>112.71428571428572</ele><time>2026-03-28T09:43:44.128Z</time></trkpt><trkpt lat="53.3571834" lon="14.6176146"><ele>113.0</ele><time>2026-03-28T09:43:46.134Z</time></trkpt><trkpt lat="53.3572006" lon="14.6177931"><ele>112.99999999999999</ele><time>2026-03-28T09:44:03.13Z</time></trkpt><trkpt lat="53.3571737" lon="14.6178951"><ele>113.0</ele><time>2026-03-28T09:44:04.13Z</time></trkpt><trkpt lat="53.3571379" lon="14.6180056"><ele>113.0</ele><time>2026-03-28T09:44:05.132Z</time></trkpt><trkpt lat="53.3571" lon="14.6181314"><ele>113.0</ele><time>2026-03-28T09:44:06.129Z</time></trkpt><trkpt lat="53.3570701" lon="14.6182677"><ele>112.99999999999999</ele><time>2026-03-28T09:44:07.155Z</time></trkpt><trkpt lat="53.3570443" lon="14.6184162"><ele>113.0</ele><time>2026-03-28T09:44:08.125Z</time></trkpt><trkpt lat="53.3570187" lon="14.618581"><ele>113.16666666666666</ele><time>2026-03-28T09:44:09.135Z</time></trkpt><trkpt lat="53.3569925" lon="14.6187383"><ele>113.33333333333333</ele><time>2026-03-28T09:44:10.135Z</time></trkpt><trkpt lat="53.3569689" lon="14.6188795"><ele>113.5</ele><time>2026-03-28T09:44:11.134Z</time></trkpt><trkpt lat="53.3569472" lon="14.6190111"><ele>113.66666666666666</ele><time>2026-03-28T09:44:12.137Z</time></trkpt><trkpt lat="53.3569181" lon="14.6191323"><ele>113.83333333333333</ele><time>2026-03-28T09:44:13.133Z</time></trkpt><trkpt lat="53.3568904" lon="14.6192516"><ele>114.0</ele><time>2026-03-28T09:44:14.137Z</time></trkpt><trkpt lat="53.3568695" lon="14.619367"><ele>114.16666666666667</ele><time>2026-03-28T09:44:15.137Z</time></trkpt><trkpt lat="53.356877" lon="14.619559"><ele>114.33333333333334</ele><time>2026-03-28T09:44:17.132Z</time></trkpt><trkpt lat="53.356923" lon="14.6197006"><ele>114.5</ele><time>2026-03-28T09:44:19.134Z</time></trkpt><trkpt lat="53.3569255" lon="14.6198445"><ele>114.66666666666667</ele><time>2026-03-28T09:44:21.131Z</time></trkpt><trkpt lat="53.3568792" lon="14.6199218"><ele>114.83333333333334</ele><time>2026-03-28T09:44:24.146Z</time></trkpt><trkpt lat="53.3568102" lon="14.6198705"><ele>115.0</ele><time>2026-03-28T09:44:26.151Z</time></trkpt><trkpt lat="53.356738" lon="14.6197789"><ele>115.00000000000001</ele><time>2026-03-28T09:44:28.131Z</time></trkpt><trkpt lat="53.3566489" lon="14.6197162"><ele>115.0</ele><time>2026-03-28T09:44:30.136Z</time></trkpt><trkpt lat="53.3565913" lon="14.6196187"><ele>115.0</ele><time>2026-03-28T09:44:32.132Z</time></trkpt><trkpt lat="53.3565093" lon="14.619575"><ele>115.0</ele><time>2026-03-28T09:44:34.123Z</time></trkpt><trkpt lat="53.356436" lon="14.6195109"><ele>115.00000000000001</ele><time>2026-03-28T09:44:37.131Z</time></trkpt><trkpt lat="53.3563772" lon="14.6194215"><ele>115.0</ele><time>2026-03-28T09:44:41.065Z</time></trkpt><trkpt lat="53.356444" lon="14.6195074"><ele>115.4</ele><time>2026-03-28T09:44:43.125Z</time></trkpt><trkpt lat="53.3563684" lon="14.6196896"><ele>115.8</ele><time>2026-03-28T09:44:47.13Z</time></trkpt><trkpt lat="53.3563329" lon="14.6198033"><ele>116.19999999999999</ele><time>2026-03-28T09:44:48.123Z</time></trkpt><trkpt lat="53.356297" lon="14.6199085"><ele>116.6</ele><time>2026-03-28T09:44:49.129Z</time></trkpt><trkpt lat="53.3562545" lon="14.619993"><ele>117.0</ele><time>2026-03-28T09:44:50.127Z</time></trkpt><trkpt lat="53.3561535" lon="14.6200465"><ele>117.0</ele><time>2026-03-28T09:44:52.138Z</time></trkpt><trkpt lat="53.3560458" lon="14.6200142"><ele>117.0</ele><time>2026-03-28T09:44:54.125Z</time></trkpt><trkpt lat="53.3559681" lon="14.6199832"><ele>117.0</ele><time>2026-03-28T09:44:55.135Z</time></trkpt><trkpt lat="53.3558908" lon="14.6199619"><ele>117.0</ele><time>2026-03-28T09:44:56.128Z</time></trkpt><trkpt lat="53.3558127" lon="14.6199511"><ele>117.0</ele><time>2026-03-28T09:44:57.127Z</time></trkpt><trkpt lat="53.3557429" lon="14.6199397"><ele>117.0</ele><time>2026-03-28T09:44:58.125Z</time></trkpt><trkpt lat="53.3556731" lon="14.6199318"><ele>117.0</ele><time>2026-03-28T09:44:59.125Z</time></trkpt><trkpt lat="53.355608" lon="14.6199251"><ele>116.99999999999999</ele><time>2026-03-28T09:45:00.139Z</time></trkpt><trkpt lat="53.3555042" lon="14.6198849"><ele>116.99999999999999</ele><time>2026-03-28T09:45:02.138Z</time></trkpt><trkpt lat="53.3554174" lon="14.6198338"><ele>117.0</ele><time>2026-03-28T09:45:04.134Z</time></trkpt><trkpt lat="53.3553114" lon="14.6198077"><ele>117.0</ele><time>2026-03-28T09:45:06.139Z</time></trkpt><trkpt lat="53.3552168" lon="14.6197749"><ele>116.6</ele><time>2026-03-28T09:45:08.128Z</time></trkpt><trkpt lat="53.3551195" lon="14.6197424"><ele>116.19999999999999</ele><time>2026-03-28T09:45:10.123Z</time></trkpt><trkpt lat="53.355" lon="14.6197163"><ele>115.8</ele><time>2026-03-28T09:45:12.122Z</time></trkpt><trkpt lat="53.3548966" lon="14.6197015"><ele>115.4</ele><time>2026-03-28T09:45:14.13Z</time></trkpt><trkpt lat="53.3548137" lon="14.6196885"><ele>115.0</ele><time>2026-03-28T09:45:16.127Z</time></trkpt><trkpt lat="53.3547231" lon="14.6197085"><ele>116.8</ele><time>2026-03-28T09:45:18.127Z</time></trkpt><trkpt lat="53.3546244" lon="14.6197557"><ele>118.6</ele><time>2026-03-28T09:45:20.14Z</time></trkpt><trkpt lat="53.3545476" lon="14.6198181"><ele>120.4</ele><time>2026-03-28T09:45:22.13Z</time></trkpt><trkpt lat="53.35446" lon="14.6199419"><ele>122.2</ele><time>2026-03-28T09:45:24.124Z</time></trkpt><trkpt lat="53.354404" lon="14.6200063"><ele>124.0</ele><time>2026-03-28T09:45:25.139Z</time></trkpt><trkpt lat="53.3542864" lon="14.620087"><ele>124.00000000000001</ele><time>2026-03-28T09:45:27.131Z</time></trkpt><trkpt lat="53.3542206" lon="14.620114"><ele>124.0</ele><time>2026-03-28T09:45:28.125Z</time></trkpt><trkpt lat="53.3541332" lon="14.6201514"><ele>124.0</ele><time>2026-03-28T09:45:30.142Z</time></trkpt><trkpt lat="53.3540624" lon="14.6201591"><ele>124.0</ele><time>2026-03-28T09:45:33.136Z</time></trkpt><trkpt lat="53.353983" lon="14.6201982"><ele>124.00000000000001</ele><time>2026-03-28T09:47:12.135Z</time></trkpt><trkpt lat="53.3539169" lon="14.6201624"><ele>124.0</ele><time>2026-03-28T09:47:18.13Z</time></trkpt><trkpt lat="53.3538041" lon="14.6200369"><ele>125.66666666666667</ele><time>2026-03-28T09:48:07.131Z</time></trkpt><trkpt lat="53.3537414" lon="14.6199816"><ele>127.33333333333334</ele><time>2026-03-28T09:48:09.127Z</time></trkpt><trkpt lat="53.3536627" lon="14.6199977"><ele>129.0</ele><time>2026-03-28T09:48:14.136Z</time></trkpt><trkpt lat="53.3535462" lon="14.6199223"><ele>130.66666666666666</ele><time>2026-03-28T09:48:16.143Z</time></trkpt><trkpt lat="53.3534647" lon="14.6199415"><ele>132.33333333333331</ele><time>2026-03-28T09:48:18.134Z</time></trkpt><trkpt lat="53.3534035" lon="14.6200433"><ele>134.0</ele><time>2026-03-28T09:48:20.136Z</time></trkpt><trkpt lat="53.3533653" lon="14.620167"><ele>134.0</ele><time>2026-03-28T09:48:22.15Z</time></trkpt><trkpt lat="53.3533101" lon="14.6202822"><ele>134.0</ele><time>2026-03-28T09:48:24.135Z</time></trkpt><trkpt lat="53.3532576" lon="14.6203654"><ele>134.0</ele><time>2026-03-28T09:48:26.099Z</time></trkpt><trkpt lat="53.3532077" lon="14.6204315"><ele>134.0</ele><time>2026-03-28T09:48:28.134Z</time></trkpt><trkpt lat="53.3531426" lon="14.6205332"><ele>134.0</ele><time>2026-03-28T09:48:32.135Z</time></trkpt><trkpt lat="53.3530897" lon="14.6206219"><ele>134.0</ele><time>2026-03-28T09:48:36.134Z</time></trkpt><trkpt lat="53.353027" lon="14.6207149"><ele>133.4</ele><time>2026-03-28T09:48:39.127Z</time></trkpt><trkpt lat="53.3529545" lon="14.6208169"><ele>132.8</ele><time>2026-03-28T09:48:42.152Z</time></trkpt><trkpt lat="53.3528939" lon="14.6208682"><ele>132.2</ele><time>2026-03-28T09:48:44.127Z</time></trkpt><trkpt lat="53.3528195" lon="14.6209218"><ele>131.6</ele><time>2026-03-28T09:48:46.131Z</time></trkpt><trkpt lat="53.3527455" lon="14.6209726"><ele>131.0</ele><time>2026-03-28T09:48:48.117Z</time></trkpt><trkpt lat="53.3518873" lon="14.6218827"><ele>130.2</ele><time>2026-03-28T09:50:56.144Z</time></trkpt><trkpt lat="53.3517617" lon="14.6219025"><ele>129.39999999999998</ele><time>2026-03-28T09:51:02.135Z</time></trkpt><trkpt lat="53.3516934" lon="14.6218878"><ele>128.6</ele><time>2026-03-28T09:51:06.14Z</time></trkpt><trkpt lat="53.3516335" lon="14.6218421"><ele>127.8</ele><time>2026-03-28T09:51:13.127Z</time></trkpt><trkpt lat="53.3515284" lon="14.6217608"><ele>127.0</ele><time>2026-03-28T09:51:18.129Z</time></trkpt><trkpt lat="53.3513404" lon="14.6218884"><ele>126.50000000000001</ele><time>2026-03-28T09:51:21.132Z</time></trkpt><trkpt lat="53.351276" lon="14.6219649"><ele>126.0</ele><time>2026-03-28T09:51:22.127Z</time></trkpt><trkpt lat="53.3512253" lon="14.6220385"><ele>125.5</ele><time>2026-03-28T09:51:23.129Z</time></trkpt><trkpt lat="53.3511732" lon="14.6221063"><ele>125.0</ele><time>2026-03-28T09:51:24.128Z</time></trkpt><trkpt lat="53.3511111" lon="14.62217"><ele>124.50000000000001</ele><time>2026-03-28T09:51:25.129Z</time></trkpt><trkpt lat="53.3510373" lon="14.6222324"><ele>124.0</ele><time>2026-03-28T09:51:26.134Z</time></trkpt><trkpt lat="53.3509497" lon="14.6222903"><ele>124.0</ele><time>2026-03-28T09:51:27.133Z</time></trkpt><trkpt lat="53.3508592" lon="14.6223504"><ele>124.0</ele><time>2026-03-28T09:51:28.156Z</time></trkpt><trkpt lat="53.3507716" lon="14.6224155"><ele>124.0</ele><time>2026-03-28T09:51:29.134Z</time></trkpt><trkpt lat="53.3506875" lon="14.6224923"><ele>124.0</ele><time>2026-03-28T09:51:30.135Z</time></trkpt><trkpt lat="53.3506023" lon="14.6225891"><ele>124.0</ele><time>2026-03-28T09:51:31.129Z</time></trkpt><trkpt lat="53.3505141" lon="14.6227031"><ele>124.0</ele><time>2026-03-28T09:51:32.134Z</time></trkpt><trkpt lat="53.3504267" lon="14.6228243"><ele>124.0</ele><time>2026-03-28T09:51:33.132Z</time></trkpt><trkpt lat="53.3503402" lon="14.6229475"><ele>124.0</ele><time>2026-03-28T09:51:34.129Z</time></trkpt><trkpt lat="53.3502567" lon="14.6230581"><ele>124.0</ele><time>2026-03-28T09:51:35.124Z</time></trkpt><trkpt lat="53.3501828" lon="14.6231667"><ele>124.0</ele><time>2026-03-28T09:51:36.133Z</time></trkpt><trkpt lat="53.3501184" lon="14.623268"><ele>124.0</ele><time>2026-03-28T09:51:37.131Z</time></trkpt><trkpt lat="53.3500673" lon="14.6233727"><ele>124.0</ele><time>2026-03-28T09:51:38.148Z</time></trkpt><trkpt lat="53.350016" lon="14.6234808"><ele>124.0</ele><time>2026-03-28T09:51:39.134Z</time></trkpt><trkpt lat="53.3499157" lon="14.6237033"><ele>124.0</ele><time>2026-03-28T09:51:41.147Z</time></trkpt><trkpt lat="53.3498733" lon="14.6237988"><ele>124.0</ele><time>2026-03-28T09:51:42.132Z</time></trkpt><trkpt lat="53.3498293" lon="14.6238787"><ele>123.83333333333334</ele><time>2026-03-28T09:51:43.138Z</time></trkpt><trkpt lat="53.3497649" lon="14.623991"><ele>123.66666666666667</ele><time>2026-03-28T09:51:45.134Z</time></trkpt><trkpt lat="53.3497003" lon="14.6241059"><ele>123.5</ele><time>2026-03-28T09:51:47.131Z</time></trkpt><trkpt lat="53.3496587" lon="14.6241971"><ele>123.33333333333334</ele><time>2026-03-28T09:51:48.13Z</time></trkpt><trkpt lat="53.3496102" lon="14.6243103"><ele>123.16666666666667</ele><time>2026-03-28T09:51:49.136Z</time></trkpt><trkpt lat="53.3495534" lon="14.6244391"><ele>123.0</ele><time>2026-03-28T09:51:50.13Z</time></trkpt><trkpt lat="53.3494925" lon="14.6245696"><ele>122.60000000000001</ele><time>2026-03-28T09:51:51.146Z</time></trkpt><trkpt lat="53.3494266" lon="14.6246937"><ele>122.20000000000002</ele><time>2026-03-28T09:51:52.129Z</time></trkpt><trkpt lat="53.3493571" lon="14.624811"><ele>121.8</ele><time>2026-03-28T09:51:53.147Z</time></trkpt><trkpt lat="53.3492857" lon="14.6249119"><ele>121.4</ele><time>2026-03-28T09:51:54.136Z</time></trkpt><trkpt lat="53.3492136" lon="14.6250052"><ele>121.0</ele><time>2026-03-28T09:51:55.123Z</time></trkpt><trkpt lat="53.3491425" lon="14.625098"><ele>121.0</ele><time>2026-03-28T09:51:56.131Z</time></trkpt><trkpt lat="53.3490642" lon="14.6251989"><ele>121.0</ele><time>2026-03-28T09:51:57.136Z</time></trkpt><trkpt lat="53.3489785" lon="14.6253194"><ele>121.0</ele><time>2026-03-28T09:51:58.134Z</time></trkpt><trkpt lat="53.3488908" lon="14.6254381"><ele>121.0</ele><time>2026-03-28T09:51:59.153Z</time></trkpt><trkpt lat="53.3488149" lon="14.6255379"><ele>121.0</ele><time>2026-03-28T09:52:00.132Z</time></trkpt><trkpt lat="53.3486891" lon="14.6257011"><ele>120.83333333333334</ele><time>2026-03-28T09:52:02.132Z</time></trkpt><trkpt lat="53.3486088" lon="14.6257875"><ele>120.66666666666667</ele><time>2026-03-28T09:52:04.138Z</time></trkpt><trkpt lat="53.3485392" lon="14.6258573"><ele>120.5</ele><time>2026-03-28T09:52:07.135Z</time></trkpt><trkpt lat="53.3484789" lon="14.6259308"><ele>120.33333333333334</ele><time>2026-03-28T09:52:09.145Z</time></trkpt><trkpt lat="53.3484212" lon="14.6260367"><ele>120.16666666666667</ele><time>2026-03-28T09:52:12.127Z</time></trkpt><trkpt lat="53.3483883" lon="14.6261359"><ele>120.0</ele><time>2026-03-28T09:52:14.137Z</time></trkpt><trkpt lat="53.3483577" lon="14.6262741"><ele>119.6</ele><time>2026-03-28T09:52:16.13Z</time></trkpt><trkpt lat="53.3483357" lon="14.626477"><ele>119.2</ele><time>2026-03-28T09:52:18.13Z</time></trkpt><trkpt lat="53.3483153" lon="14.6266011"><ele>118.80000000000001</ele><time>2026-03-28T09:52:19.144Z</time></trkpt><trkpt lat="53.3482817" lon="14.6267341"><ele>118.4</ele><time>2026-03-28T09:52:20.13Z</time></trkpt><trkpt lat="53.3482387" lon="14.6268761"><ele>118.0</ele><time>2026-03-28T09:52:21.143Z</time></trkpt><trkpt lat="53.3481104" lon="14.6271784"><ele>117.75</ele><time>2026-03-28T09:52:23.146Z</time></trkpt><trkpt lat="53.348034" lon="14.627319"><ele>117.5</ele><time>2026-03-28T09:52:24.136Z</time></trkpt><trkpt lat="53.347952" lon="14.6274512"><ele>117.25</ele><time>2026-03-28T09:52:25.129Z</time></trkpt><trkpt lat="53.3478687" lon="14.6275782"><ele>117.0</ele><time>2026-03-28T09:52:26.127Z</time></trkpt><trkpt lat="53.3477882" lon="14.6277061"><ele>115.6</ele><time>2026-03-28T09:52:27.132Z</time></trkpt><trkpt lat="53.3477222" lon="14.6278331"><ele>114.19999999999999</ele><time>2026-03-28T09:52:28.129Z</time></trkpt><trkpt lat="53.3476699" lon="14.6279606"><ele>112.8</ele><time>2026-03-28T09:52:29.13Z</time></trkpt><trkpt lat="53.3476247" lon="14.6280884"><ele>111.4</ele><time>2026-03-28T09:52:30.129Z</time></trkpt><trkpt lat="53.3475793" lon="14.6282101"><ele>110.0</ele><time>2026-03-28T09:52:31.137Z</time></trkpt><trkpt lat="53.3475375" lon="14.628334"><ele>109.99999999999999</ele><time>2026-03-28T09:52:32.13Z</time></trkpt><trkpt lat="53.3475058" lon="14.6284577"><ele>110.0</ele><time>2026-03-28T09:52:33.129Z</time></trkpt><trkpt lat="53.3474769" lon="14.6285796"><ele>110.0</ele><time>2026-03-28T09:52:34.128Z</time></trkpt><trkpt lat="53.3474559" lon="14.6286878"><ele>110.0</ele><time>2026-03-28T09:52:35.136Z</time></trkpt><trkpt lat="53.347423" lon="14.6288629"><ele>109.99999999999999</ele><time>2026-03-28T09:52:37.131Z</time></trkpt><trkpt lat="53.3473768" lon="14.6289766"><ele>110.0</ele><time>2026-03-28T09:52:39.136Z</time></trkpt><trkpt lat="53.3473011" lon="14.6290533"><ele>108.5</ele><time>2026-03-28T09:52:42.131Z</time></trkpt><trkpt lat="53.3471052" lon="14.6290905"><ele>107.0</ele><time>2026-03-28T09:52:46.122Z</time></trkpt><trkpt lat="53.347042" lon="14.629107"><ele>105.5</ele><time>2026-03-28T09:52:47.129Z</time></trkpt><trkpt lat="53.3469368" lon="14.6290949"><ele>104.0</ele><time>2026-03-28T09:52:49.133Z</time></trkpt><trkpt lat="53.3468557" lon="14.6290003"><ele>104.0</ele><time>2026-03-28T09:52:51.128Z</time></trkpt><trkpt lat="53.3467681" lon="14.6289682"><ele>104.0</ele><time>2026-03-28T09:52:53.132Z</time></trkpt><trkpt lat="53.346662" lon="14.6290379"><ele>104.0</ele><time>2026-03-28T09:52:55.138Z</time></trkpt><trkpt lat="53.3465533" lon="14.6291159"><ele>104.0</ele><time>2026-03-28T09:52:57.135Z</time></trkpt><trkpt lat="53.3464596" lon="14.6291755"><ele>104.0</ele><time>2026-03-28T09:52:59.139Z</time></trkpt><trkpt lat="53.3463692" lon="14.6291781"><ele>105.5</ele><time>2026-03-28T09:53:01.133Z</time></trkpt><trkpt lat="53.3462698" lon="14.6291708"><ele>107.0</ele><time>2026-03-28T09:53:03.133Z</time></trkpt><trkpt lat="53.3460647" lon="14.6292257"><ele>108.5</ele><time>2026-03-28T09:53:07.143Z</time></trkpt><trkpt lat="53.346001" lon="14.6292729"><ele>110.0</ele><time>2026-03-28T09:53:09.141Z</time></trkpt><trkpt lat="53.3459219" lon="14.6293413"><ele>110.0</ele><time>2026-03-28T09:53:11.136Z</time></trkpt><trkpt lat="53.3457958" lon="14.6294454"><ele>110.0</ele><time>2026-03-28T09:53:13.16Z</time></trkpt><trkpt lat="53.3457108" lon="14.6295013"><ele>110.0</ele><time>2026-03-28T09:53:14.152Z</time></trkpt><trkpt lat="53.3456118" lon="14.6295681"><ele>110.0</ele><time>2026-03-28T09:53:15.131Z</time></trkpt><trkpt lat="53.345495" lon="14.6296494"><ele>110.5</ele><time>2026-03-28T09:53:16.126Z</time></trkpt><trkpt lat="53.3453647" lon="14.6297341"><ele>111.0</ele><time>2026-03-28T09:53:17.131Z</time></trkpt><trkpt lat="53.3452278" lon="14.6298234"><ele>111.5</ele><time>2026-03-28T09:53:18.142Z</time></trkpt><trkpt lat="53.3450861" lon="14.6299193"><ele>112.0</ele><time>2026-03-28T09:53:19.126Z</time></trkpt><trkpt lat="53.3449474" lon="14.6300226"><ele>112.0</ele><time>2026-03-28T09:53:20.129Z</time></trkpt><trkpt lat="53.3448149" lon="14.6301185"><ele>112.0</ele><time>2026-03-28T09:53:21.131Z</time></trkpt><trkpt lat="53.3446912" lon="14.6302043"><ele>112.0</ele><time>2026-03-28T09:53:22.125Z</time></trkpt><trkpt lat="53.3445659" lon="14.6302887"><ele>112.0</ele><time>2026-03-28T09:53:23.121Z</time></trkpt><trkpt lat="53.3444397" lon="14.6303687"><ele>113.33333333333334</ele><time>2026-03-28T09:53:24.126Z</time></trkpt><trkpt lat="53.3441896" lon="14.6305105"><ele>114.66666666666666</ele><time>2026-03-28T09:53:26.13Z</time></trkpt><trkpt lat="53.3440677" lon="14.6305751"><ele>116.0</ele><time>2026-03-28T09:53:27.127Z</time></trkpt><trkpt lat="53.3439504" lon="14.6306253"><ele>116.16666666666666</ele><time>2026-03-28T09:53:28.128Z</time></trkpt><trkpt lat="53.3438475" lon="14.6306495"><ele>116.33333333333333</ele><time>2026-03-28T09:53:29.135Z</time></trkpt><trkpt lat="53.343764" lon="14.6306674"><ele>116.5</ele><time>2026-03-28T09:53:30.127Z</time></trkpt><trkpt lat="53.3436955" lon="14.6306762"><ele>116.66666666666666</ele><time>2026-03-28T09:53:31.128Z</time></trkpt><trkpt lat="53.3435993" lon="14.6307276"><ele>116.83333333333333</ele><time>2026-03-28T09:53:33.131Z</time></trkpt><trkpt lat="53.3435581" lon="14.630852"><ele>117.0</ele><time>2026-03-28T09:53:36.139Z</time></trkpt><trkpt lat="53.3435374" lon="14.630966"><ele>117.0</ele><time>2026-03-28T09:53:39.134Z</time></trkpt><trkpt lat="53.3435124" lon="14.6310739"><ele>116.99999999999999</ele><time>2026-03-28T09:53:42.123Z</time></trkpt><trkpt lat="53.3434914" lon="14.6312112"><ele>116.99999999999999</ele><time>2026-03-28T09:53:44.134Z</time></trkpt><trkpt lat="53.3434687" lon="14.6313327"><ele>117.0</ele><time>2026-03-28T09:53:45.129Z</time></trkpt><trkpt lat="53.343432" lon="14.6315502"><ele>117.0</ele><time>2026-03-28T09:53:47.133Z</time></trkpt><trkpt lat="53.3433992" lon="14.6317538"><ele>117.28571428571429</ele><time>2026-03-28T09:53:49.131Z</time></trkpt><trkpt lat="53.3433795" lon="14.6318637"><ele>117.57142857142858</ele><time>2026-03-28T09:53:50.125Z</time></trkpt><trkpt lat="53.3433631" lon="14.6319759"><ele>117.85714285714286</ele><time>2026-03-28T09:53:51.127Z</time></trkpt><trkpt lat="53.3433479" lon="14.6320944"><ele>118.14285714285714</ele><time>2026-03-28T09:53:52.122Z</time></trkpt><trkpt lat="53.3433318" lon="14.6322181"><ele>118.42857142857143</ele><time>2026-03-28T09:53:53.124Z</time></trkpt><trkpt lat="53.3433161" lon="14.6323372"><ele>118.71428571428572</ele><time>2026-03-28T09:53:54.126Z</time></trkpt><trkpt lat="53.3432945" lon="14.6324451"><ele>119.0</ele><time>2026-03-28T09:53:55.13Z</time></trkpt><trkpt lat="53.343257" lon="14.6326092"><ele>118.33333333333333</ele><time>2026-03-28T09:53:57.134Z</time></trkpt><trkpt lat="53.3432278" lon="14.6327448"><ele>117.66666666666666</ele><time>2026-03-28T09:53:59.131Z</time></trkpt><trkpt lat="53.3432218" lon="14.6328936"><ele>117.0</ele><time>2026-03-28T09:54:01.134Z</time></trkpt><trkpt lat="53.3432445" lon="14.6330801"><ele>116.33333333333334</ele><time>2026-03-28T09:54:03.126Z</time></trkpt><trkpt lat="53.3432722" lon="14.6331851"><ele>115.66666666666667</ele><time>2026-03-28T09:54:04.131Z</time></trkpt><trkpt lat="53.3433053" lon="14.6332826"><ele>115.0</ele><time>2026-03-28T09:54:05.129Z</time></trkpt><trkpt lat="53.3433352" lon="14.633466"><ele>115.8</ele><time>2026-03-28T09:54:07.127Z</time></trkpt><trkpt lat="53.343256" lon="14.6337252"><ele>116.6</ele><time>2026-03-28T09:54:10.13Z</time></trkpt><trkpt lat="53.3432083" lon="14.6338252"><ele>117.4</ele><time>2026-03-28T09:54:11.131Z</time></trkpt><trkpt lat="53.3431624" lon="14.6339255"><ele>118.2</ele><time>2026-03-28T09:54:12.135Z</time></trkpt><trkpt lat="53.3431204" lon="14.6340134"><ele>119.0</ele><time>2026-03-28T09:54:13.132Z</time></trkpt><trkpt lat="53.3430616" lon="14.6341642"><ele>119.16666666666666</ele><time>2026-03-28T09:54:15.13Z</time></trkpt><trkpt lat="53.3429888" lon="14.6343274"><ele>119.33333333333333</ele><time>2026-03-28T09:54:17.129Z</time></trkpt><trkpt lat="53.3429368" lon="14.6344267"><ele>119.5</ele><time>2026-03-28T09:54:18.129Z</time></trkpt><trkpt lat="53.3428799" lon="14.6345306"><ele>119.66666666666666</ele><time>2026-03-28T09:54:19.134Z</time></trkpt><trkpt lat="53.3428224" lon="14.6346345"><ele>119.83333333333333</ele><time>2026-03-28T09:54:20.13Z</time></trkpt><trkpt lat="53.3427714" lon="14.6347378"><ele>120.0</ele><time>2026-03-28T09:54:21.136Z</time></trkpt><trkpt lat="53.342732" lon="14.6348423"><ele>120.0</ele><time>2026-03-28T09:54:22.126Z</time></trkpt><trkpt lat="53.3427049" lon="14.6349581"><ele>120.0</ele><time>2026-03-28T09:54:23.119Z</time></trkpt><trkpt lat="53.342686" lon="14.6350786"><ele>120.0</ele><time>2026-03-28T09:54:24.128Z</time></trkpt><trkpt lat="53.3426741" lon="14.635201"><ele>120.0</ele><time>2026-03-28T09:54:25.129Z</time></trkpt><trkpt lat="53.3426624" lon="14.6353338"><ele>120.0</ele><time>2026-03-28T09:54:26.136Z</time></trkpt><trkpt lat="53.3426557" lon="14.6354691"><ele>120.0</ele><time>2026-03-28T09:54:27.135Z</time></trkpt><trkpt lat="53.3426489" lon="14.6356031"><ele>120.2</ele><time>2026-03-28T09:54:28.122Z</time></trkpt><trkpt lat="53.3426304" lon="14.6358564"><ele>120.4</ele><time>2026-03-28T09:54:30.127Z</time></trkpt><trkpt lat="53.342614" lon="14.6359617"><ele>120.6</ele><time>2026-03-28T09:54:31.129Z</time></trkpt><trkpt lat="53.3425647" lon="14.6361097"><ele>120.8</ele><time>2026-03-28T09:54:33.136Z</time></trkpt><trkpt lat="53.3424667" lon="14.6361621"><ele>121.0</ele><time>2026-03-28T09:54:36.124Z</time></trkpt><trkpt lat="53.3423848" lon="14.6362109"><ele>121.00000000000001</ele><time>2026-03-28T09:54:38.136Z</time></trkpt><trkpt lat="53.3423246" lon="14.6362866"><ele>121.0</ele><time>2026-03-28T09:54:40.154Z</time></trkpt><trkpt lat="53.3422416" lon="14.6363982"><ele>121.0</ele><time>2026-03-28T09:54:42.132Z</time></trkpt><trkpt lat="53.3421859" lon="14.6364731"><ele>121.0</ele><time>2026-03-28T09:54:43.125Z</time></trkpt><trkpt lat="53.3421272" lon="14.6365447"><ele>121.00000000000001</ele><time>2026-03-28T09:54:44.137Z</time></trkpt><trkpt lat="53.342063" lon="14.6366066"><ele>121.0</ele><time>2026-03-28T09:54:45.131Z</time></trkpt><trkpt lat="53.3419975" lon="14.6366527"><ele>121.83333333333334</ele><time>2026-03-28T09:54:46.136Z</time></trkpt><trkpt lat="53.3419363" lon="14.6366874"><ele>122.66666666666667</ele><time>2026-03-28T09:54:47.135Z</time></trkpt><trkpt lat="53.341872" lon="14.6367187"><ele>123.5</ele><time>2026-03-28T09:54:48.137Z</time></trkpt><trkpt lat="53.3418091" lon="14.6367447"><ele>124.33333333333334</ele><time>2026-03-28T09:54:49.156Z</time></trkpt><trkpt lat="53.3416768" lon="14.6368135"><ele>125.16666666666667</ele><time>2026-03-28T09:54:51.138Z</time></trkpt><trkpt lat="53.3415991" lon="14.6368719"><ele>126.0</ele><time>2026-03-28T09:54:53.13Z</time></trkpt><trkpt lat="53.3415201" lon="14.6369778"><ele>126.5</ele><time>2026-03-28T09:55:25.127Z</time></trkpt><trkpt lat="53.3414213" lon="14.6371304"><ele>127.0</ele><time>2026-03-28T09:55:33.126Z</time></trkpt><trkpt lat="53.3413156" lon="14.6372536"><ele>127.5</ele><time>2026-03-28T10:01:57.128Z</time></trkpt><trkpt lat="53.3412163" lon="14.6374991"><ele>128.0</ele><time>2026-03-28T10:02:02.125Z</time></trkpt><trkpt lat="53.341169" lon="14.6376733"><ele>130.16666666666666</ele><time>2026-03-28T10:02:04.122Z</time></trkpt><trkpt lat="53.3411396" lon="14.6377678"><ele>132.33333333333331</ele><time>2026-03-28T10:02:05.126Z</time></trkpt><trkpt lat="53.3411097" lon="14.6378657"><ele>134.5</ele><time>2026-03-28T10:02:06.125Z</time></trkpt><trkpt lat="53.3410801" lon="14.6379603"><ele>136.66666666666666</ele><time>2026-03-28T10:02:07.124Z</time></trkpt><trkpt lat="53.3410184" lon="14.6381202"><ele>138.83333333333334</ele><time>2026-03-28T10:02:09.129Z</time></trkpt><trkpt lat="53.3409559" lon="14.6382815"><ele>141.0</ele><time>2026-03-28T10:02:11.127Z</time></trkpt><trkpt lat="53.340926" lon="14.6384253"><ele>141.2</ele><time>2026-03-28T10:02:13.125Z</time></trkpt><trkpt lat="53.3409124" lon="14.6385695"><ele>141.39999999999998</ele><time>2026-03-28T10:02:15.135Z</time></trkpt><trkpt lat="53.3409023" lon="14.6387089"><ele>141.6</ele><time>2026-03-28T10:02:17.117Z</time></trkpt><trkpt lat="53.3408935" lon="14.6388516"><ele>141.79999999999998</ele><time>2026-03-28T10:02:19.124Z</time></trkpt><trkpt lat="53.3408634" lon="14.6390707"><ele>142.0</ele><time>2026-03-28T10:02:22.126Z</time></trkpt><trkpt lat="53.3408406" lon="14.6391836"><ele>142.0</ele><time>2026-03-28T10:02:23.132Z</time></trkpt><trkpt lat="53.3408173" lon="14.6392836"><ele>142.0</ele><time>2026-03-28T10:02:24.129Z</time></trkpt><trkpt lat="53.3407836" lon="14.6394376"><ele>142.0</ele><time>2026-03-28T10:02:26.128Z</time></trkpt><trkpt lat="53.3407521" lon="14.6395766"><ele>142.0</ele><time>2026-03-28T10:02:28.133Z</time></trkpt><trkpt lat="53.3407124" lon="14.6396909"><ele>142.0</ele><time>2026-03-28T10:02:30.127Z</time></trkpt><trkpt lat="53.3406716" lon="14.6398058"><ele>142.0</ele><time>2026-03-28T10:02:32.133Z</time></trkpt><trkpt lat="53.3406637" lon="14.6399277"><ele>142.4</ele><time>2026-03-28T10:02:35.129Z</time></trkpt><trkpt lat="53.3406016" lon="14.6400139"><ele>142.79999999999998</ele><time>2026-03-28T10:02:39.132Z</time></trkpt><trkpt lat="53.340563" lon="14.6401345"><ele>143.2</ele><time>2026-03-28T10:03:30.118Z</time></trkpt><trkpt lat="53.3404473" lon="14.6403102"><ele>143.6</ele><time>2026-03-28T10:03:37.119Z</time></trkpt><trkpt lat="53.3403951" lon="14.6403727"><ele>144.0</ele><time>2026-03-28T10:03:40.122Z</time></trkpt><trkpt lat="53.3403433" lon="14.6404457"><ele>146.75</ele><time>2026-03-28T10:03:43.133Z</time></trkpt><trkpt lat="53.3402853" lon="14.6405204"><ele>149.5</ele><time>2026-03-28T10:03:47.124Z</time></trkpt><trkpt lat="53.3402234" lon="14.6406774"><ele>152.25</ele><time>2026-03-28T10:05:17.122Z</time></trkpt><trkpt lat="53.3401594" lon="14.6409338"><ele>155.0</ele><time>2026-03-28T10:05:19.129Z</time></trkpt><trkpt lat="53.3401184" lon="14.6410869"><ele>155.66666666666666</ele><time>2026-03-28T10:05:20.123Z</time></trkpt><trkpt lat="53.3400757" lon="14.6412251"><ele>156.33333333333331</ele><time>2026-03-28T10:05:21.124Z</time></trkpt><trkpt lat="53.3400309" lon="14.6413382"><ele>157.0</ele><time>2026-03-28T10:05:22.119Z</time></trkpt><trkpt lat="53.3399923" lon="14.6414443"><ele>157.66666666666666</ele><time>2026-03-28T10:05:23.119Z</time></trkpt><trkpt lat="53.3399605" lon="14.6415509"><ele>158.33333333333334</ele><time>2026-03-28T10:05:24.122Z</time></trkpt><trkpt lat="53.3399371" lon="14.6416616"><ele>159.0</ele><time>2026-03-28T10:05:25.124Z</time></trkpt><trkpt lat="53.3399118" lon="14.6417772"><ele>159.0</ele><time>2026-03-28T10:05:26.138Z</time></trkpt><trkpt lat="53.3398851" lon="14.6418818"><ele>159.0</ele><time>2026-03-28T10:05:27.124Z</time></trkpt><trkpt lat="53.339806" lon="14.6420183"><ele>159.0</ele><time>2026-03-28T10:05:29.128Z</time></trkpt><trkpt lat="53.3397055" lon="14.6420662"><ele>159.0</ele><time>2026-03-28T10:05:31.123Z</time></trkpt><trkpt lat="53.3396259" lon="14.6420402"><ele>159.0</ele><time>2026-03-28T10:05:33.119Z</time></trkpt><trkpt lat="53.3395693" lon="14.6419806"><ele>159.0</ele><time>2026-03-28T10:05:35.125Z</time></trkpt><trkpt lat="53.3394751" lon="14.6418616"><ele>159.8</ele><time>2026-03-28T10:05:44.125Z</time></trkpt><trkpt lat="53.3393748" lon="14.6416931"><ele>160.60000000000002</ele><time>2026-03-28T10:05:47.125Z</time></trkpt><trkpt lat="53.3393186" lon="14.6416333"><ele>161.4</ele><time>2026-03-28T10:05:50.125Z</time></trkpt><trkpt lat="53.3392597" lon="14.6417989"><ele>162.20000000000002</ele><time>2026-03-28T10:05:55.974Z</time></trkpt><trkpt lat="53.3392054" lon="14.6419348"><ele>163.0</ele><time>2026-03-28T10:05:57.122Z</time></trkpt><trkpt lat="53.339131" lon="14.6421"><ele>163.0</ele><time>2026-03-28T10:05:59.12Z</time></trkpt><trkpt lat="53.339094" lon="14.642188"><ele>163.0</ele><time>2026-03-28T10:06:00.122Z</time></trkpt><trkpt lat="53.3390628" lon="14.6422804"><ele>163.0</ele><time>2026-03-28T10:06:01.128Z</time></trkpt><trkpt lat="53.3390361" lon="14.6424847"><ele>163.0</ele><time>2026-03-28T10:06:03.126Z</time></trkpt><trkpt lat="53.3390344" lon="14.642605"><ele>163.0</ele><time>2026-03-28T10:06:04.125Z</time></trkpt><trkpt lat="53.339041" lon="14.6427359"><ele>163.0</ele><time>2026-03-28T10:06:05.126Z</time></trkpt><trkpt lat="53.3390675" lon="14.643026"><ele>163.0</ele><time>2026-03-28T10:06:08.126Z</time></trkpt><trkpt lat="53.339036" lon="14.6431189"><ele>163.0</ele><time>2026-03-28T10:06:30.126Z</time></trkpt><trkpt lat="53.3390756" lon="14.643122"><ele>163.0</ele><time>2026-03-28T10:07:05.125Z</time></trkpt><trkpt lat="53.3391068" lon="14.6430996"><ele>163.0</ele><time>2026-03-28T10:09:03.15Z</time></trkpt><trkpt lat="53.3390499" lon="14.6429583"><ele>163.0</ele><time>2026-03-28T10:09:06.138Z</time></trkpt><trkpt lat="53.3390506" lon="14.6428236"><ele>163.0</ele><time>2026-03-28T10:09:07.132Z</time></trkpt><trkpt lat="53.3390559" lon="14.6426467"><ele>163.0</ele><time>2026-03-28T10:09:09.131Z</time></trkpt><trkpt lat="53.3390387" lon="14.6425289"><ele>163.0</ele><time>2026-03-28T10:09:11.129Z</time></trkpt><trkpt lat="53.3390043" lon="14.6424286"><ele>163.0</ele><time>2026-03-28T10:09:13.12Z</time></trkpt><trkpt lat="53.3389659" lon="14.642329"><ele>163.0</ele><time>2026-03-28T10:09:15.134Z</time></trkpt><trkpt lat="53.3389283" lon="14.6422402"><ele>163.0</ele><time>2026-03-28T10:09:17.126Z</time></trkpt><trkpt lat="53.3388482" lon="14.6420115"><ele>163.0</ele><time>2026-03-28T10:09:23.136Z</time></trkpt><trkpt lat="53.338817" lon="14.6418913"><ele>163.0</ele><time>2026-03-28T10:09:26.081Z</time></trkpt><trkpt lat="53.3388011" lon="14.6417862"><ele>161.33333333333334</ele><time>2026-03-28T10:09:29.135Z</time></trkpt><trkpt lat="53.3386287" lon="14.6415827"><ele>159.66666666666666</ele><time>2026-03-28T10:09:48.129Z</time></trkpt><trkpt lat="53.3384801" lon="14.6414192"><ele>158.0</ele><time>2026-03-28T10:09:50.125Z</time></trkpt><trkpt lat="53.3384061" lon="14.6413637"><ele>158.0</ele><time>2026-03-28T10:09:51.125Z</time></trkpt><trkpt lat="53.3383307" lon="14.6413184"><ele>158.0</ele><time>2026-03-28T10:09:52.131Z</time></trkpt><trkpt lat="53.3382647" lon="14.6412899"><ele>158.0</ele><time>2026-03-28T10:09:53.123Z</time></trkpt><trkpt lat="53.3381548" lon="14.6412743"><ele>158.0</ele><time>2026-03-28T10:09:55.129Z</time></trkpt><trkpt lat="53.3380589" lon="14.6413397"><ele>158.0</ele><time>2026-03-28T10:09:57.125Z</time></trkpt><trkpt lat="53.3379564" lon="14.6414684"><ele>156.83333333333331</ele><time>2026-03-28T10:09:59.124Z</time></trkpt><trkpt lat="53.3379034" lon="14.6415452"><ele>155.66666666666666</ele><time>2026-03-28T10:10:00.121Z</time></trkpt><trkpt lat="53.3378536" lon="14.6416197"><ele>154.5</ele><time>2026-03-28T10:10:01.125Z</time></trkpt><trkpt lat="53.3377722" lon="14.6417388"><ele>153.33333333333334</ele><time>2026-03-28T10:10:03.131Z</time></trkpt><trkpt lat="53.3376854" lon="14.6418317"><ele>152.16666666666669</ele><time>2026-03-28T10:10:05.127Z</time></trkpt><trkpt lat="53.3376322" lon="14.6418888"><ele>151.0</ele><time>2026-03-28T10:10:06.132Z</time></trkpt><trkpt lat="53.3375705" lon="14.6419624"><ele>150.8</ele><time>2026-03-28T10:10:07.128Z</time></trkpt><trkpt lat="53.3375026" lon="14.6420432"><ele>150.6</ele><time>2026-03-28T10:10:08.128Z</time></trkpt><trkpt lat="53.3374381" lon="14.6421207"><ele>150.4</ele><time>2026-03-28T10:10:09.133Z</time></trkpt><trkpt lat="53.3372861" lon="14.6422579"><ele>150.2</ele><time>2026-03-28T10:10:11.128Z</time></trkpt><trkpt lat="53.3372006" lon="14.6423255"><ele>150.0</ele><time>2026-03-28T10:10:12.124Z</time></trkpt><trkpt lat="53.3371171" lon="14.6423934"><ele>150.0</ele><time>2026-03-28T10:10:13.115Z</time></trkpt><trkpt lat="53.3370425" lon="14.6424572"><ele>150.0</ele><time>2026-03-28T10:10:14.123Z</time></trkpt><trkpt lat="53.3369703" lon="14.6425205"><ele>150.0</ele><time>2026-03-28T10:10:15.123Z</time></trkpt><trkpt lat="53.3368928" lon="14.6425958"><ele>150.0</ele><time>2026-03-28T10:10:16.146Z</time></trkpt><trkpt lat="53.3368148" lon="14.6426873"><ele>150.0</ele><time>2026-03-28T10:10:17.123Z</time></trkpt><trkpt lat="53.3367286" lon="14.6427953"><ele>151.0</ele><time>2026-03-28T10:10:18.128Z</time></trkpt><trkpt lat="53.3366423" lon="14.6429139"><ele>152.0</ele><time>2026-03-28T10:10:19.134Z</time></trkpt><trkpt lat="53.336546" lon="14.643034"><ele>153.0</ele><time>2026-03-28T10:10:20.133Z</time></trkpt><trkpt lat="53.336444" lon="14.6431557"><ele>154.0</ele><time>2026-03-28T10:10:21.137Z</time></trkpt><trkpt lat="53.3363376" lon="14.6432792"><ele>151.75</ele><time>2026-03-28T10:10:22.131Z</time></trkpt><trkpt lat="53.3362304" lon="14.6433983"><ele>149.5</ele><time>2026-03-28T10:10:23.146Z</time></trkpt><trkpt lat="53.3361214" lon="14.643519"><ele>147.25</ele><time>2026-03-28T10:10:24.129Z</time></trkpt><trkpt lat="53.3360125" lon="14.6436539"><ele>145.0</ele><time>2026-03-28T10:10:25.135Z</time></trkpt><trkpt lat="53.335914" lon="14.6437996"><ele>145.0</ele><time>2026-03-28T10:10:26.123Z</time></trkpt><trkpt lat="53.3358259" lon="14.6439516"><ele>145.0</ele><time>2026-03-28T10:10:27.127Z</time></trkpt><trkpt lat="53.3357486" lon="14.6440971"><ele>145.0</ele><time>2026-03-28T10:10:28.12Z</time></trkpt><trkpt lat="53.3356806" lon="14.6442311"><ele>145.0</ele><time>2026-03-28T10:10:29.125Z</time></trkpt><trkpt lat="53.3356241" lon="14.6443487"><ele>145.0</ele><time>2026-03-28T10:10:30.123Z</time></trkpt><trkpt lat="53.3355108" lon="14.6445996"><ele>145.2</ele><time>2026-03-28T10:10:32.122Z</time></trkpt><trkpt lat="53.3354572" lon="14.6447298"><ele>145.4</ele><time>2026-03-28T10:10:33.13Z</time></trkpt><trkpt lat="53.335403" lon="14.6448613"><ele>145.6</ele><time>2026-03-28T10:10:34.127Z</time></trkpt><trkpt lat="53.3353439" lon="14.6449919"><ele>145.8</ele><time>2026-03-28T10:10:35.126Z</time></trkpt><trkpt lat="53.3352785" lon="14.6451248"><ele>146.0</ele><time>2026-03-28T10:10:36.13Z</time></trkpt><trkpt lat="53.3352166" lon="14.6452526"><ele>146.8</ele><time>2026-03-28T10:10:37.126Z</time></trkpt><trkpt lat="53.335151" lon="14.6453845"><ele>147.6</ele><time>2026-03-28T10:10:38.13Z</time></trkpt><trkpt lat="53.3350882" lon="14.6455217"><ele>148.4</ele><time>2026-03-28T10:10:39.132Z</time></trkpt><trkpt lat="53.3350226" lon="14.6456624"><ele>149.2</ele><time>2026-03-28T10:10:40.129Z</time></trkpt><trkpt lat="53.3349576" lon="14.6458031"><ele>150.0</ele><time>2026-03-28T10:10:41.121Z</time></trkpt><trkpt lat="53.3348994" lon="14.6459618"><ele>150.0</ele><time>2026-03-28T10:10:42.127Z</time></trkpt><trkpt lat="53.3348487" lon="14.6461246"><ele>150.0</ele><time>2026-03-28T10:10:43.123Z</time></trkpt><trkpt lat="53.3348018" lon="14.64629"><ele>150.0</ele><time>2026-03-28T10:10:44.129Z</time></trkpt><trkpt lat="53.3347585" lon="14.646458"><ele>150.0</ele><time>2026-03-28T10:10:45.12Z</time></trkpt><trkpt lat="53.3347144" lon="14.6466333"><ele>150.0</ele><time>2026-03-28T10:10:46.121Z</time></trkpt><trkpt lat="53.3346676" lon="14.6468018"><ele>150.8</ele><time>2026-03-28T10:10:47.129Z</time></trkpt><trkpt lat="53.3346282" lon="14.6469623"><ele>151.6</ele><time>2026-03-28T10:10:48.125Z</time></trkpt><trkpt lat="53.3345989" lon="14.6471216"><ele>152.4</ele><time>2026-03-28T10:10:49.136Z</time></trkpt><trkpt lat="53.3345849" lon="14.6472763"><ele>153.2</ele><time>2026-03-28T10:10:50.13Z</time></trkpt><trkpt lat="53.3345837" lon="14.6474157"><ele>154.0</ele><time>2026-03-28T10:10:51.121Z</time></trkpt><trkpt lat="53.3346149" lon="14.6477311"><ele>154.0</ele><time>2026-03-28T10:10:54.129Z</time></trkpt><trkpt lat="53.3346231" lon="14.6478745"><ele>154.0</ele><time>2026-03-28T10:10:56.135Z</time></trkpt><trkpt lat="53.3345505" lon="14.6479513"><ele>154.0</ele><time>2026-03-28T10:10:59.129Z</time></trkpt><trkpt lat="53.3344868" lon="14.6479092"><ele>154.0</ele><time>2026-03-28T10:11:00.117Z</time></trkpt><trkpt lat="53.3344052" lon="14.6478545"><ele>154.0</ele><time>2026-03-28T10:11:01.127Z</time></trkpt><trkpt lat="53.3343122" lon="14.6478177"><ele>154.0</ele><time>2026-03-28T10:11:02.135Z</time></trkpt><trkpt lat="53.3342067" lon="14.6477904"><ele>154.0</ele><time>2026-03-28T10:11:03.143Z</time></trkpt><trkpt lat="53.3340701" lon="14.6477683"><ele>154.0</ele><time>2026-03-28T10:11:04.129Z</time></trkpt><trkpt lat="53.3339128" lon="14.6477596"><ele>154.0</ele><time>2026-03-28T10:11:05.124Z</time></trkpt><trkpt lat="53.333781" lon="14.647758"><ele>154.0</ele><time>2026-03-28T10:11:06.127Z</time></trkpt><trkpt lat="53.3336792" lon="14.647769"><ele>153.83333333333334</ele><time>2026-03-28T10:11:07.128Z</time></trkpt><trkpt lat="53.3335961" lon="14.6477951"><ele>153.66666666666669</ele><time>2026-03-28T10:11:08.146Z</time></trkpt><trkpt lat="53.3335189" lon="14.6478374"><ele>153.5</ele><time>2026-03-28T10:11:09.129Z</time></trkpt><trkpt lat="53.3334429" lon="14.647895"><ele>153.33333333333334</ele><time>2026-03-28T10:11:10.13Z</time></trkpt><trkpt lat="53.3333743" lon="14.6479548"><ele>153.16666666666666</ele><time>2026-03-28T10:11:11.127Z</time></trkpt><trkpt lat="53.3333162" lon="14.6480057"><ele>153.0</ele><time>2026-03-28T10:11:12.127Z</time></trkpt><trkpt lat="53.3331341" lon="14.6482429"><ele>153.0</ele><time>2026-03-28T10:11:16.128Z</time></trkpt><trkpt lat="53.3330913" lon="14.6483273"><ele>153.0</ele><time>2026-03-28T10:11:17.126Z</time></trkpt><trkpt lat="53.3330469" lon="14.6484063"><ele>153.0</ele><time>2026-03-28T10:11:18.138Z</time></trkpt><trkpt lat="53.3329962" lon="14.6484802"><ele>153.0</ele><time>2026-03-28T10:11:19.137Z</time></trkpt><trkpt lat="53.33294" lon="14.648546"><ele>153.0</ele><time>2026-03-28T10:11:20.144Z</time></trkpt><trkpt lat="53.3328303" lon="14.6486231"><ele>153.0</ele><time>2026-03-28T10:11:22.128Z</time></trkpt><trkpt lat="53.3327437" lon="14.6486475"><ele>151.8</ele><time>2026-03-28T10:11:24.134Z</time></trkpt><trkpt lat="53.3326589" lon="14.648669"><ele>150.60000000000002</ele><time>2026-03-28T10:11:26.149Z</time></trkpt><trkpt lat="53.3325296" lon="14.648728"><ele>149.39999999999998</ele><time>2026-03-28T10:11:28.126Z</time></trkpt><trkpt lat="53.3324554" lon="14.6487637"><ele>148.2</ele><time>2026-03-28T10:11:29.134Z</time></trkpt><trkpt lat="53.3323843" lon="14.6488102"><ele>147.0</ele><time>2026-03-28T10:11:30.118Z</time></trkpt><trkpt lat="53.3323136" lon="14.6488666"><ele>147.0</ele><time>2026-03-28T10:11:31.133Z</time></trkpt><trkpt lat="53.3322454" lon="14.6489279"><ele>147.0</ele><time>2026-03-28T10:11:32.12Z</time></trkpt><trkpt lat="53.3321836" lon="14.6489879"><ele>147.0</ele><time>2026-03-28T10:11:33.124Z</time></trkpt><trkpt lat="53.3320565" lon="14.649097"><ele>147.0</ele><time>2026-03-28T10:11:35.123Z</time></trkpt><trkpt lat="53.331988" lon="14.6491436"><ele>147.0</ele><time>2026-03-28T10:11:36.142Z</time></trkpt><trkpt lat="53.3319144" lon="14.6491819"><ele>147.0</ele><time>2026-03-28T10:11:37.118Z</time></trkpt><trkpt lat="53.3318302" lon="14.6492056"><ele>145.66666666666666</ele><time>2026-03-28T10:11:38.123Z</time></trkpt><trkpt lat="53.3317445" lon="14.6492213"><ele>144.33333333333334</ele><time>2026-03-28T10:11:39.117Z</time></trkpt><trkpt lat="53.3316612" lon="14.6492421"><ele>143.0</ele><time>2026-03-28T10:11:40.121Z</time></trkpt><trkpt lat="53.331587" lon="14.6492815"><ele>141.66666666666669</ele><time>2026-03-28T10:11:41.132Z</time></trkpt><trkpt lat="53.3315198" lon="14.6493394"><ele>140.33333333333334</ele><time>2026-03-28T10:11:42.127Z</time></trkpt><trkpt lat="53.3314561" lon="14.6494138"><ele>139.0</ele><time>2026-03-28T10:11:43.152Z</time></trkpt><trkpt lat="53.3314052" lon="14.6494939"><ele>138.25</ele><time>2026-03-28T10:11:44.126Z</time></trkpt><trkpt lat="53.3313237" lon="14.6496465"><ele>137.5</ele><time>2026-03-28T10:11:46.137Z</time></trkpt><trkpt lat="53.3312234" lon="14.6497411"><ele>136.75</ele><time>2026-03-28T10:11:48.145Z</time></trkpt><trkpt lat="53.331127" lon="14.6497404"><ele>136.0</ele><time>2026-03-28T10:11:50.125Z</time></trkpt><trkpt lat="53.3310076" lon="14.6497564"><ele>136.0</ele><time>2026-03-28T10:11:52.131Z</time></trkpt><trkpt lat="53.3309377" lon="14.6497602"><ele>136.0</ele><time>2026-03-28T10:11:53.143Z</time></trkpt><trkpt lat="53.3308689" lon="14.6497514"><ele>136.0</ele><time>2026-03-28T10:11:54.133Z</time></trkpt><trkpt lat="53.3307351" lon="14.6496809"><ele>136.0</ele><time>2026-03-28T10:11:56.133Z</time></trkpt><trkpt lat="53.3306728" lon="14.6496545"><ele>136.0</ele><time>2026-03-28T10:11:57.122Z</time></trkpt><trkpt lat="53.3306065" lon="14.6496538"><ele>136.0</ele><time>2026-03-28T10:11:58.152Z</time></trkpt><trkpt lat="53.3305406" lon="14.6496723"><ele>137.14285714285714</ele><time>2026-03-28T10:11:59.121Z</time></trkpt><trkpt lat="53.3304722" lon="14.6496904"><ele>138.28571428571428</ele><time>2026-03-28T10:12:00.124Z</time></trkpt><trkpt lat="53.3304064" lon="14.649705"><ele>139.42857142857144</ele><time>2026-03-28T10:12:01.129Z</time></trkpt><trkpt lat="53.330341" lon="14.6497148"><ele>140.57142857142856</ele><time>2026-03-28T10:12:02.129Z</time></trkpt><trkpt lat="53.3302738" lon="14.6497124"><ele>141.71428571428572</ele><time>2026-03-28T10:12:03.153Z</time></trkpt><trkpt lat="53.330207" lon="14.6497142"><ele>142.85714285714286</ele><time>2026-03-28T10:12:04.134Z</time></trkpt><trkpt lat="53.3301094" lon="14.6497285"><ele>144.0</ele><time>2026-03-28T10:12:06.132Z</time></trkpt><trkpt lat="53.330041" lon="14.6497987"><ele>144.0</ele><time>2026-03-28T10:12:09.151Z</time></trkpt><trkpt lat="53.3299718" lon="14.6498549"><ele>144.0</ele><time>2026-03-28T10:12:11.128Z</time></trkpt><trkpt lat="53.3298823" lon="14.6499174"><ele>144.0</ele><time>2026-03-28T10:12:13.12Z</time></trkpt><trkpt lat="53.3297947" lon="14.6499998"><ele>144.0</ele><time>2026-03-28T10:12:15.131Z</time></trkpt><trkpt lat="53.3296654" lon="14.6501548"><ele>144.0</ele><time>2026-03-28T10:12:19.124Z</time></trkpt><trkpt lat="53.3296019" lon="14.6502138"><ele>142.8</ele><time>2026-03-28T10:12:21.121Z</time></trkpt><trkpt lat="53.3294866" lon="14.650327"><ele>141.60000000000002</ele><time>2026-03-28T10:12:24.121Z</time></trkpt><trkpt lat="53.3294108" lon="14.6504351"><ele>140.4</ele><time>2026-03-28T10:12:26.132Z</time></trkpt><trkpt lat="53.3293408" lon="14.6505474"><ele>139.20000000000002</ele><time>2026-03-28T10:12:28.151Z</time></trkpt><trkpt lat="53.3292596" lon="14.6506796"><ele>138.0</ele><time>2026-03-28T10:12:30.141Z</time></trkpt><trkpt lat="53.3291718" lon="14.6508222"><ele>138.0</ele><time>2026-03-28T10:12:32.126Z</time></trkpt><trkpt lat="53.3290902" lon="14.6509603"><ele>138.0</ele><time>2026-03-28T10:12:34.129Z</time></trkpt><trkpt lat="53.3290082" lon="14.651097"><ele>138.0</ele><time>2026-03-28T10:12:36.139Z</time></trkpt><trkpt lat="53.3288196" lon="14.651345"><ele>137.85714285714286</ele><time>2026-03-28T10:12:40.128Z</time></trkpt><trkpt lat="53.3287616" lon="14.6513865"><ele>137.71428571428572</ele><time>2026-03-28T10:12:41.13Z</time></trkpt><trkpt lat="53.3286986" lon="14.6514267"><ele>137.57142857142858</ele><time>2026-03-28T10:12:42.127Z</time></trkpt><trkpt lat="53.3286318" lon="14.6514692"><ele>137.42857142857144</ele><time>2026-03-28T10:12:43.13Z</time></trkpt><trkpt lat="53.3285647" lon="14.6515112"><ele>137.28571428571428</ele><time>2026-03-28T10:12:44.123Z</time></trkpt><trkpt lat="53.3284984" lon="14.6515501"><ele>137.14285714285717</ele><time>2026-03-28T10:12:45.124Z</time></trkpt><trkpt lat="53.3284322" lon="14.6515865"><ele>137.0</ele><time>2026-03-28T10:12:46.126Z</time></trkpt><trkpt lat="53.3283688" lon="14.6516307"><ele>137.0</ele><time>2026-03-28T10:12:47.126Z</time></trkpt><trkpt lat="53.3283074" lon="14.6516938"><ele>137.0</ele><time>2026-03-28T10:12:48.128Z</time></trkpt><trkpt lat="53.3282487" lon="14.6517658"><ele>137.0</ele><time>2026-03-28T10:12:49.13Z</time></trkpt><trkpt lat="53.3281934" lon="14.651847"><ele>137.0</ele><time>2026-03-28T10:12:50.128Z</time></trkpt><trkpt lat="53.3281442" lon="14.6519356"><ele>137.0</ele><time>2026-03-28T10:12:51.132Z</time></trkpt><trkpt lat="53.3280991" lon="14.6520139"><ele>137.0</ele><time>2026-03-28T10:12:52.128Z</time></trkpt><trkpt lat="53.3280177" lon="14.6521322"><ele>138.4</ele><time>2026-03-28T10:12:54.125Z</time></trkpt><trkpt lat="53.3279545" lon="14.6522027"><ele>139.79999999999998</ele><time>2026-03-28T10:12:56.128Z</time></trkpt><trkpt lat="53.3278911" lon="14.6522834"><ele>141.2</ele><time>2026-03-28T10:12:58.127Z</time></trkpt><trkpt lat="53.3277707" lon="14.6526003"><ele>142.6</ele><time>2026-03-28T10:13:02.123Z</time></trkpt><trkpt lat="53.3277347" lon="14.6526993"><ele>144.0</ele><time>2026-03-28T10:13:03.126Z</time></trkpt><trkpt lat="53.3276611" lon="14.6528758"><ele>144.0</ele><time>2026-03-28T10:13:05.129Z</time></trkpt><trkpt lat="53.3276178" lon="14.6529619"><ele>144.0</ele><time>2026-03-28T10:13:06.132Z</time></trkpt><trkpt lat="53.3275708" lon="14.6530475"><ele>144.0</ele><time>2026-03-28T10:13:07.122Z</time></trkpt><trkpt lat="53.3275155" lon="14.6531492"><ele>144.0</ele><time>2026-03-28T10:13:08.132Z</time></trkpt><trkpt lat="53.3274641" lon="14.6532611"><ele>144.0</ele><time>2026-03-28T10:13:09.123Z</time></trkpt><trkpt lat="53.3274113" lon="14.6533776"><ele>144.0</ele><time>2026-03-28T10:13:10.12Z</time></trkpt><trkpt lat="53.3273565" lon="14.6534878"><ele>144.0</ele><time>2026-03-28T10:13:11.12Z</time></trkpt><trkpt lat="53.3272989" lon="14.6535777"><ele>144.0</ele><time>2026-03-28T10:13:12.12Z</time></trkpt><trkpt lat="53.3272433" lon="14.6536326"><ele>144.0</ele><time>2026-03-28T10:13:13.13Z</time></trkpt><trkpt lat="53.3271438" lon="14.6536482"><ele>144.0</ele><time>2026-03-28T10:13:15.137Z</time></trkpt><trkpt lat="53.3270422" lon="14.653584"><ele>144.0</ele><time>2026-03-28T10:13:17.115Z</time></trkpt><trkpt lat="53.3269484" lon="14.6535123"><ele>143.4</ele><time>2026-03-28T10:13:19.135Z</time></trkpt><trkpt lat="53.3268379" lon="14.6533412"><ele>142.8</ele><time>2026-03-28T10:13:23.129Z</time></trkpt><trkpt lat="53.3267931" lon="14.6532551"><ele>142.2</ele><time>2026-03-28T10:13:25.141Z</time></trkpt><trkpt lat="53.3267079" lon="14.653148"><ele>141.6</ele><time>2026-03-28T10:13:27.132Z</time></trkpt><trkpt lat="53.3266476" lon="14.653093"><ele>141.0</ele><time>2026-03-28T10:13:28.152Z</time></trkpt><trkpt lat="53.3265871" lon="14.6530547"><ele>141.0</ele><time>2026-03-28T10:13:29.128Z</time></trkpt><trkpt lat="53.3264701" lon="14.6529958"><ele>141.0</ele><time>2026-03-28T10:13:31.13Z</time></trkpt><trkpt lat="53.3264077" lon="14.6529719"><ele>141.0</ele><time>2026-03-28T10:13:32.125Z</time></trkpt><trkpt lat="53.3263437" lon="14.6529461"><ele>141.0</ele><time>2026-03-28T10:13:33.132Z</time></trkpt><trkpt lat="53.3262753" lon="14.6529111"><ele>141.0</ele><time>2026-03-28T10:13:34.162Z</time></trkpt><trkpt lat="53.3262074" lon="14.6528639"><ele>141.0</ele><time>2026-03-28T10:13:35.129Z</time></trkpt><trkpt lat="53.3261369" lon="14.6528098"><ele>141.0</ele><time>2026-03-28T10:13:36.133Z</time></trkpt><trkpt lat="53.3260656" lon="14.6527575"><ele>141.0</ele><time>2026-03-28T10:13:37.136Z</time></trkpt><trkpt lat="53.3259972" lon="14.6527161"><ele>141.0</ele><time>2026-03-28T10:13:38.14Z</time></trkpt><trkpt lat="53.3259346" lon="14.6526862"><ele>141.0</ele><time>2026-03-28T10:13:39.125Z</time></trkpt><trkpt lat="53.325835" lon="14.6526737"><ele>141.0</ele><time>2026-03-28T10:13:41.139Z</time></trkpt><trkpt lat="53.325692" lon="14.6527965"><ele>141.0</ele><time>2026-03-28T10:13:46.152Z</time></trkpt><trkpt lat="53.3256161" lon="14.6528804"><ele>141.0</ele><time>2026-03-28T10:13:49.141Z</time></trkpt><trkpt lat="53.3255735" lon="14.6529597"><ele>141.0</ele><time>2026-03-28T10:13:51.142Z</time></trkpt><trkpt lat="53.3255237" lon="14.6530379"><ele>141.0</ele><time>2026-03-28T10:13:53.124Z</time></trkpt><trkpt lat="53.3254496" lon="14.6531552"><ele>141.0</ele><time>2026-03-28T10:13:55.134Z</time></trkpt><trkpt lat="53.3253742" lon="14.6532906"><ele>141.0</ele><time>2026-03-28T10:13:57.134Z</time></trkpt><trkpt lat="53.32529" lon="14.6533955"><ele>139.75</ele><time>2026-03-28T10:13:59.136Z</time></trkpt><trkpt lat="53.325194" lon="14.653499"><ele>138.5</ele><time>2026-03-28T10:14:01.14Z</time></trkpt><trkpt lat="53.325106" lon="14.6535759"><ele>137.25</ele><time>2026-03-28T10:14:03.127Z</time></trkpt><trkpt lat="53.3249343" lon="14.6537081"><ele>136.0</ele><time>2026-03-28T10:14:06.136Z</time></trkpt><trkpt lat="53.324865" lon="14.6537601"><ele>135.4</ele><time>2026-03-28T10:14:07.125Z</time></trkpt><trkpt lat="53.324801" lon="14.6538097"><ele>134.8</ele><time>2026-03-28T10:14:08.135Z</time></trkpt><trkpt lat="53.3247055" lon="14.6539091"><ele>134.20000000000002</ele><time>2026-03-28T10:14:10.126Z</time></trkpt><trkpt lat="53.324652" lon="14.6539712"><ele>133.6</ele><time>2026-03-28T10:14:12.137Z</time></trkpt><trkpt lat="53.3245894" lon="14.6539076"><ele>133.0</ele><time>2026-03-28T10:14:38.131Z</time></trkpt><trkpt lat="53.3245361" lon="14.6541516"><ele>130.6</ele><time>2026-03-28T10:14:46.137Z</time></trkpt><trkpt lat="53.3244968" lon="14.6542515"><ele>128.20000000000002</ele><time>2026-03-28T10:14:48.074Z</time></trkpt><trkpt lat="53.3245027" lon="14.6543758"><ele>125.8</ele><time>2026-03-28T10:14:51.125Z</time></trkpt><trkpt lat="53.3244651" lon="14.6544864"><ele>123.4</ele><time>2026-03-28T10:15:07.122Z</time></trkpt><trkpt lat="53.3242763" lon="14.6545687"><ele>121.0</ele><time>2026-03-28T10:15:36.124Z</time></trkpt><trkpt lat="53.3242079" lon="14.6546882"><ele>120.0</ele><time>2026-03-28T10:19:33.13Z</time></trkpt><trkpt lat="53.3241592" lon="14.6548986"><ele>119.0</ele><time>2026-03-28T10:19:41.119Z</time></trkpt><trkpt lat="53.3240958" lon="14.6548749"><ele>118.0</ele><time>2026-03-28T10:19:49.124Z</time></trkpt><trkpt lat="53.3240218" lon="14.6548421"><ele>117.0</ele><time>2026-03-28T10:24:41.121Z</time></trkpt><trkpt lat="53.3238972" lon="14.6548332"><ele>116.0</ele><time>2026-03-28T10:24:51.133Z</time></trkpt><trkpt lat="53.3238387" lon="14.6548768"><ele>112.75</ele><time>2026-03-28T10:24:53.121Z</time></trkpt><trkpt lat="53.3237657" lon="14.6548998"><ele>109.5</ele><time>2026-03-28T10:24:55.121Z</time></trkpt><trkpt lat="53.3237004" lon="14.6549069"><ele>106.25</ele><time>2026-03-28T10:24:58.124Z</time></trkpt><trkpt lat="53.3236138" lon="14.6548299"><ele>103.0</ele><time>2026-03-28T10:25:18.125Z</time></trkpt><trkpt lat="53.3233239" lon="14.6547671"><ele>102.25</ele><time>2026-03-28T10:35:43.125Z</time></trkpt><trkpt lat="53.323247" lon="14.6544222"><ele>101.5</ele><time>2026-03-28T10:35:52.114Z</time></trkpt><trkpt lat="53.323235" lon="14.6543082"><ele>100.75</ele><time>2026-03-28T10:35:54.113Z</time></trkpt><trkpt lat="53.3232061" lon="14.6541408"><ele>100.0</ele><time>2026-03-28T10:35:55.122Z</time></trkpt><trkpt lat="53.3231839" lon="14.6540094"><ele>100.00000000000001</ele><time>2026-03-28T10:35:56.121Z</time></trkpt><trkpt lat="53.3231615" lon="14.6538823"><ele>100.0</ele><time>2026-03-28T10:35:57.12Z</time></trkpt><trkpt lat="53.32314" lon="14.6537554"><ele>100.0</ele><time>2026-03-28T10:35:58.124Z</time></trkpt><trkpt lat="53.3231181" lon="14.6536315"><ele>100.0</ele><time>2026-03-28T10:35:59.123Z</time></trkpt><trkpt lat="53.3230962" lon="14.6535059"><ele>100.00000000000001</ele><time>2026-03-28T10:36:00.119Z</time></trkpt><trkpt lat="53.3230745" lon="14.6533831"><ele>100.0</ele><time>2026-03-28T10:36:01.118Z</time></trkpt><trkpt lat="53.3230582" lon="14.653268"><ele>98.4</ele><time>2026-03-28T10:36:02.135Z</time></trkpt><trkpt lat="53.3230448" lon="14.6531591"><ele>96.8</ele><time>2026-03-28T10:36:03.12Z</time></trkpt><trkpt lat="53.3230358" lon="14.653045"><ele>95.19999999999999</ele><time>2026-03-28T10:36:04.126Z</time></trkpt><trkpt lat="53.3230272" lon="14.6527367"><ele>93.6</ele><time>2026-03-28T10:36:07.122Z</time></trkpt><trkpt lat="53.3230325" lon="14.6525454"><ele>92.0</ele><time>2026-03-28T10:36:09.122Z</time></trkpt><trkpt lat="53.3230365" lon="14.6523428"><ele>91.5</ele><time>2026-03-28T10:36:11.114Z</time></trkpt><trkpt lat="53.323038" lon="14.6522161"><ele>91.0</ele><time>2026-03-28T10:36:12.123Z</time></trkpt><trkpt lat="53.3230408" lon="14.6520543"><ele>90.5</ele><time>2026-03-28T10:36:13.121Z</time></trkpt><trkpt lat="53.3230388" lon="14.651798"><ele>90.0</ele><time>2026-03-28T10:36:14.128Z</time></trkpt><trkpt lat="53.323028" lon="14.6515122"><ele>88.75</ele><time>2026-03-28T10:36:15.121Z</time></trkpt><trkpt lat="53.3230201" lon="14.6512445"><ele>87.5</ele><time>2026-03-28T10:36:16.115Z</time></trkpt><trkpt lat="53.3230172" lon="14.6510082"><ele>86.25</ele><time>2026-03-28T10:36:17.127Z</time></trkpt><trkpt lat="53.3230192" lon="14.6508051"><ele>85.0</ele><time>2026-03-28T10:36:18.123Z</time></trkpt><trkpt lat="53.3230173" lon="14.6506249"><ele>84.6</ele><time>2026-03-28T10:36:19.135Z</time></trkpt><trkpt lat="53.3230101" lon="14.6504648"><ele>84.2</ele><time>2026-03-28T10:36:20.121Z</time></trkpt><trkpt lat="53.3230015" lon="14.6503082"><ele>83.80000000000001</ele><time>2026-03-28T10:36:21.125Z</time></trkpt><trkpt lat="53.3229951" lon="14.6501511"><ele>83.4</ele><time>2026-03-28T10:36:22.116Z</time></trkpt><trkpt lat="53.3229883" lon="14.6499975"><ele>83.0</ele><time>2026-03-28T10:36:23.132Z</time></trkpt><trkpt lat="53.3229817" lon="14.6498608"><ele>83.0</ele><time>2026-03-28T10:36:24.117Z</time></trkpt><trkpt lat="53.3229701" lon="14.6497311"><ele>83.0</ele><time>2026-03-28T10:36:25.118Z</time></trkpt><trkpt lat="53.3229468" lon="14.6494645"><ele>83.0</ele><time>2026-03-28T10:36:27.114Z</time></trkpt><trkpt lat="53.3229371" lon="14.6493348"><ele>83.0</ele><time>2026-03-28T10:36:28.139Z</time></trkpt><trkpt lat="53.3229345" lon="14.6492112"><ele>83.0</ele><time>2026-03-28T10:36:29.117Z</time></trkpt><trkpt lat="53.3229354" lon="14.6490867"><ele>82.83333333333334</ele><time>2026-03-28T10:36:30.117Z</time></trkpt><trkpt lat="53.3229291" lon="14.6489627"><ele>82.66666666666667</ele><time>2026-03-28T10:36:31.118Z</time></trkpt><trkpt lat="53.322921" lon="14.6488354"><ele>82.5</ele><time>2026-03-28T10:36:32.121Z</time></trkpt><trkpt lat="53.3229225" lon="14.6487056"><ele>82.33333333333333</ele><time>2026-03-28T10:36:33.134Z</time></trkpt><trkpt lat="53.3229308" lon="14.6485809"><ele>82.16666666666666</ele><time>2026-03-28T10:36:34.124Z</time></trkpt><trkpt lat="53.3229372" lon="14.6484589"><ele>82.0</ele><time>2026-03-28T10:36:35.121Z</time></trkpt><trkpt lat="53.3229428" lon="14.6483319"><ele>81.39999999999999</ele><time>2026-03-28T10:36:36.138Z</time></trkpt><trkpt lat="53.3229497" lon="14.6482123"><ele>80.8</ele><time>2026-03-28T10:36:37.118Z</time></trkpt><trkpt lat="53.3229635" lon="14.648029"><ele>80.2</ele><time>2026-03-28T10:36:39.137Z</time></trkpt><trkpt lat="53.3229972" lon="14.647906"><ele>79.6</ele><time>2026-03-28T10:36:42.139Z</time></trkpt><trkpt lat="53.3229335" lon="14.6479182"><ele>79.0</ele><time>2026-03-28T10:36:50.117Z</time></trkpt><trkpt lat="53.3229363" lon="14.6481573"><ele>79.0</ele><time>2026-03-28T10:37:11.124Z</time></trkpt><trkpt lat="53.3229348" lon="14.6484284"><ele>79.0</ele><time>2026-03-28T10:37:13.132Z</time></trkpt><trkpt lat="53.3229322" lon="14.6485744"><ele>79.0</ele><time>2026-03-28T10:37:14.119Z</time></trkpt><trkpt lat="53.3229277" lon="14.6487197"><ele>79.0</ele><time>2026-03-28T10:37:15.124Z</time></trkpt><trkpt lat="53.322924" lon="14.6488724"><ele>79.0</ele><time>2026-03-28T10:37:16.121Z</time></trkpt><trkpt lat="53.3229167" lon="14.6490336"><ele>79.75</ele><time>2026-03-28T10:37:17.135Z</time></trkpt><trkpt lat="53.3229136" lon="14.6492003"><ele>80.5</ele><time>2026-03-28T10:37:18.118Z</time></trkpt><trkpt lat="53.3229172" lon="14.6493788"><ele>81.25</ele><time>2026-03-28T10:37:19.128Z</time></trkpt><trkpt lat="53.3229291" lon="14.6495916"><ele>82.0</ele><time>2026-03-28T10:37:20.123Z</time></trkpt><trkpt lat="53.3229392" lon="14.6498387"><ele>82.33333333333333</ele><time>2026-03-28T10:37:21.137Z</time></trkpt><trkpt lat="53.3229507" lon="14.6500989"><ele>82.66666666666667</ele><time>2026-03-28T10:37:22.124Z</time></trkpt><trkpt lat="53.3229573" lon="14.6503754"><ele>83.0</ele><time>2026-03-28T10:37:23.121Z</time></trkpt><trkpt lat="53.3229624" lon="14.650662"><ele>83.0</ele><time>2026-03-28T10:37:24.111Z</time></trkpt><trkpt lat="53.3229724" lon="14.6509433"><ele>83.0</ele><time>2026-03-28T10:37:25.135Z</time></trkpt><trkpt lat="53.3229838" lon="14.6512162"><ele>83.0</ele><time>2026-03-28T10:37:26.121Z</time></trkpt><trkpt lat="53.3229946" lon="14.6514795"><ele>83.5</ele><time>2026-03-28T10:37:27.121Z</time></trkpt><trkpt lat="53.3230025" lon="14.6517232"><ele>84.0</ele><time>2026-03-28T10:37:28.138Z</time></trkpt><trkpt lat="53.3230067" lon="14.6519417"><ele>84.5</ele><time>2026-03-28T10:37:29.124Z</time></trkpt><trkpt lat="53.3230086" lon="14.6521373"><ele>85.0</ele><time>2026-03-28T10:37:30.117Z</time></trkpt><trkpt lat="53.3230057" lon="14.6523124"><ele>86.0</ele><time>2026-03-28T10:37:31.115Z</time></trkpt><trkpt lat="53.3230083" lon="14.652464"><ele>87.0</ele><time>2026-03-28T10:37:32.117Z</time></trkpt><trkpt lat="53.323007" lon="14.6527133"><ele>88.0</ele><time>2026-03-28T10:37:34.116Z</time></trkpt><trkpt lat="53.322977" lon="14.6528823"><ele>89.0</ele><time>2026-03-28T10:37:36.128Z</time></trkpt><trkpt lat="53.3228914" lon="14.6529192"><ele>90.0</ele><time>2026-03-28T10:37:38.127Z</time></trkpt><trkpt lat="53.3228305" lon="14.6528831"><ele>90.4</ele><time>2026-03-28T10:37:41.129Z</time></trkpt><trkpt lat="53.3227707" lon="14.6529197"><ele>90.8</ele><time>2026-03-28T10:37:52.124Z</time></trkpt><trkpt lat="53.3225971" lon="14.6531085"><ele>91.19999999999999</ele><time>2026-03-28T10:37:57.129Z</time></trkpt><trkpt lat="53.3225257" lon="14.6531776"><ele>91.6</ele><time>2026-03-28T10:38:00.117Z</time></trkpt><trkpt lat="53.3224677" lon="14.6532405"><ele>92.0</ele><time>2026-03-28T10:38:02.122Z</time></trkpt><trkpt lat="53.322389" lon="14.6533525"><ele>92.0</ele><time>2026-03-28T10:38:07.125Z</time></trkpt><trkpt lat="53.3223327" lon="14.6534338"><ele>92.0</ele><time>2026-03-28T10:38:09.126Z</time></trkpt><trkpt lat="53.3222513" lon="14.653565"><ele>92.0</ele><time>2026-03-28T10:38:11.12Z</time></trkpt><trkpt lat="53.322176" lon="14.6536856"><ele>92.0</ele><time>2026-03-28T10:38:14.115Z</time></trkpt><trkpt lat="53.3220527" lon="14.6539312"><ele>92.39999999999999</ele><time>2026-03-28T10:38:17.125Z</time></trkpt><trkpt lat="53.3220039" lon="14.6540769"><ele>92.8</ele><time>2026-03-28T10:38:19.143Z</time></trkpt><trkpt lat="53.3219572" lon="14.6541784"><ele>93.2</ele><time>2026-03-28T10:38:21.123Z</time></trkpt><trkpt lat="53.321946" lon="14.6543022"><ele>93.6</ele><time>2026-03-28T10:38:57.129Z</time></trkpt><trkpt lat="53.3219255" lon="14.6544075"><ele>94.0</ele><time>2026-03-28T10:38:59.117Z</time></trkpt><trkpt lat="53.3217984" lon="14.654672"><ele>94.6</ele><time>2026-03-28T10:39:04.025Z</time></trkpt><trkpt lat="53.3217319" lon="14.6548366"><ele>95.2</ele><time>2026-03-28T10:39:06.121Z</time></trkpt><trkpt lat="53.3216831" lon="14.6549606"><ele>95.8</ele><time>2026-03-28T10:39:08.122Z</time></trkpt><trkpt lat="53.3216396" lon="14.6550753"><ele>96.39999999999999</ele><time>2026-03-28T10:39:10.116Z</time></trkpt><trkpt lat="53.3215935" lon="14.6551721"><ele>97.0</ele><time>2026-03-28T10:39:12.127Z</time></trkpt><trkpt lat="53.3215415" lon="14.6553372"><ele>97.0</ele><time>2026-03-28T10:39:16.114Z</time></trkpt><trkpt lat="53.321485" lon="14.655443"><ele>97.0</ele><time>2026-03-28T10:39:18.116Z</time></trkpt><trkpt lat="53.3214434" lon="14.6555426"><ele>97.0</ele><time>2026-03-28T10:39:20.119Z</time></trkpt><trkpt lat="53.3213501" lon="14.6557846"><ele>97.0</ele><time>2026-03-28T10:39:24.12Z</time></trkpt><trkpt lat="53.3213013" lon="14.6559133"><ele>97.0</ele><time>2026-03-28T10:39:26.12Z</time></trkpt><trkpt lat="53.3212721" lon="14.65602"><ele>96.5</ele><time>2026-03-28T10:39:28.13Z</time></trkpt><trkpt lat="53.3212407" lon="14.6561374"><ele>96.0</ele><time>2026-03-28T10:39:31.125Z</time></trkpt><trkpt lat="53.321267" lon="14.6562351"><ele>95.5</ele><time>2026-03-28T10:39:57.122Z</time></trkpt><trkpt lat="53.3212515" lon="14.6565368"><ele>95.0</ele><time>2026-03-28T10:40:03.125Z</time></trkpt><trkpt lat="53.3212193" lon="14.6567654"><ele>95.0</ele><time>2026-03-28T10:40:08.116Z</time></trkpt><trkpt lat="53.3211867" lon="14.6568995"><ele>95.0</ele><time>2026-03-28T10:40:12.123Z</time></trkpt><trkpt lat="53.3211574" lon="14.6570049"><ele>95.0</ele><time>2026-03-28T10:40:14.116Z</time></trkpt><trkpt lat="53.321132" lon="14.657127"><ele>95.0</ele><time>2026-03-28T10:40:16.125Z</time></trkpt><trkpt lat="53.3211066" lon="14.6572657"><ele>95.0</ele><time>2026-03-28T10:40:17.125Z</time></trkpt><trkpt lat="53.3210727" lon="14.6574438"><ele>95.0</ele><time>2026-03-28T10:40:19.122Z</time></trkpt><trkpt lat="53.3210512" lon="14.657543"><ele>94.25</ele><time>2026-03-28T10:40:21.118Z</time></trkpt><trkpt lat="53.3210338" lon="14.6578702"><ele>93.5</ele><time>2026-03-28T10:40:33.119Z</time></trkpt><trkpt lat="53.3210113" lon="14.6580408"><ele>92.75</ele><time>2026-03-28T10:40:34.125Z</time></trkpt><trkpt lat="53.3209931" lon="14.6582001"><ele>92.0</ele><time>2026-03-28T10:40:35.124Z</time></trkpt><trkpt lat="53.3209639" lon="14.6583895"><ele>92.0</ele><time>2026-03-28T10:40:36.127Z</time></trkpt><trkpt lat="53.3209347" lon="14.6585915"><ele>92.0</ele><time>2026-03-28T10:40:37.131Z</time></trkpt><trkpt lat="53.3209013" lon="14.6588193"><ele>92.0</ele><time>2026-03-28T10:40:38.159Z</time></trkpt><trkpt lat="53.3208614" lon="14.6590442"><ele>92.0</ele><time>2026-03-28T10:40:39.131Z</time></trkpt><trkpt lat="53.3208184" lon="14.6592423"><ele>92.0</ele><time>2026-03-28T10:40:40.143Z</time></trkpt><trkpt lat="53.3207733" lon="14.6594017"><ele>92.0</ele><time>2026-03-28T10:40:41.124Z</time></trkpt><trkpt lat="53.3207287" lon="14.6595271"><ele>92.0</ele><time>2026-03-28T10:40:42.125Z</time></trkpt><trkpt lat="53.3206088" lon="14.6597765"><ele>92.0</ele><time>2026-03-28T10:40:45.15Z</time></trkpt><trkpt lat="53.3205259" lon="14.6598876"><ele>91.33333333333334</ele><time>2026-03-28T10:40:47.122Z</time></trkpt><trkpt lat="53.320479" lon="14.6599801"><ele>90.66666666666667</ele><time>2026-03-28T10:40:49.143Z</time></trkpt><trkpt lat="53.3204676" lon="14.6601374"><ele>90.0</ele><time>2026-03-28T10:40:52.129Z</time></trkpt><trkpt lat="53.3204778" lon="14.6602451"><ele>89.33333333333333</ele><time>2026-03-28T10:40:54.126Z</time></trkpt><trkpt lat="53.3204961" lon="14.6603692"><ele>88.66666666666666</ele><time>2026-03-28T10:40:56.123Z</time></trkpt><trkpt lat="53.320486" lon="14.6605962"><ele>88.0</ele><time>2026-03-28T10:41:00.134Z</time></trkpt><trkpt lat="53.3204677" lon="14.6607066"><ele>87.4</ele><time>2026-03-28T10:41:01.118Z</time></trkpt><trkpt lat="53.3204404" lon="14.6608907"><ele>86.80000000000001</ele><time>2026-03-28T10:41:03.126Z</time></trkpt><trkpt lat="53.3204021" lon="14.6611516"><ele>86.2</ele><time>2026-03-28T10:41:07.134Z</time></trkpt><trkpt lat="53.3203761" lon="14.6612906"><ele>85.6</ele><time>2026-03-28T10:41:09.116Z</time></trkpt><trkpt lat="53.3203657" lon="14.661434"><ele>85.0</ele><time>2026-03-28T10:41:11.131Z</time></trkpt><trkpt lat="53.3203535" lon="14.6615447"><ele>85.0</ele><time>2026-03-28T10:41:12.131Z</time></trkpt><trkpt lat="53.32034" lon="14.6616729"><ele>85.0</ele><time>2026-03-28T10:41:13.13Z</time></trkpt><trkpt lat="53.320325" lon="14.6617961"><ele>85.0</ele><time>2026-03-28T10:41:14.126Z</time></trkpt><trkpt lat="53.3203095" lon="14.6619112"><ele>85.0</ele><time>2026-03-28T10:41:15.145Z</time></trkpt><trkpt lat="53.3202929" lon="14.6620153"><ele>85.0</ele><time>2026-03-28T10:41:16.129Z</time></trkpt><trkpt lat="53.3202702" lon="14.6621175"><ele>85.0</ele><time>2026-03-28T10:41:17.12Z</time></trkpt><trkpt lat="53.3202451" lon="14.6622205"><ele>85.0</ele><time>2026-03-28T10:41:18.119Z</time></trkpt><trkpt lat="53.3202029" lon="14.6624082"><ele>85.66666666666666</ele><time>2026-03-28T10:41:20.13Z</time></trkpt><trkpt lat="53.3201706" lon="14.6625822"><ele>86.33333333333333</ele><time>2026-03-28T10:41:22.146Z</time></trkpt><trkpt lat="53.3201414" lon="14.6627481"><ele>87.0</ele><time>2026-03-28T10:41:24.123Z</time></trkpt><trkpt lat="53.3200672" lon="14.6631312"><ele>87.28571428571428</ele><time>2026-03-28T10:41:28.121Z</time></trkpt><trkpt lat="53.3200472" lon="14.6632483"><ele>87.57142857142857</ele><time>2026-03-28T10:41:29.126Z</time></trkpt><trkpt lat="53.3200295" lon="14.6633653"><ele>87.85714285714286</ele><time>2026-03-28T10:41:30.12Z</time></trkpt><trkpt lat="53.3200072" lon="14.6634746"><ele>88.14285714285714</ele><time>2026-03-28T10:41:31.123Z</time></trkpt><trkpt lat="53.3199853" lon="14.6635922"><ele>88.42857142857143</ele><time>2026-03-28T10:41:32.124Z</time></trkpt><trkpt lat="53.3199647" lon="14.6637126"><ele>88.71428571428571</ele><time>2026-03-28T10:41:33.129Z</time></trkpt><trkpt lat="53.3199377" lon="14.6638394"><ele>89.0</ele><time>2026-03-28T10:41:34.126Z</time></trkpt><trkpt lat="53.3199081" lon="14.6639672"><ele>89.33333333333334</ele><time>2026-03-28T10:41:35.12Z</time></trkpt><trkpt lat="53.3198821" lon="14.6641003"><ele>89.66666666666667</ele><time>2026-03-28T10:41:36.123Z</time></trkpt><trkpt lat="53.3198583" lon="14.664234"><ele>90.0</ele><time>2026-03-28T10:41:37.122Z</time></trkpt><trkpt lat="53.3198376" lon="14.6643568"><ele>90.33333333333333</ele><time>2026-03-28T10:41:38.122Z</time></trkpt><trkpt lat="53.3198052" lon="14.6645347"><ele>90.66666666666666</ele><time>2026-03-28T10:41:40.118Z</time></trkpt><trkpt lat="53.319783" lon="14.6646865"><ele>91.0</ele><time>2026-03-28T10:41:42.126Z</time></trkpt><trkpt lat="53.3197525" lon="14.6648944"><ele>89.8</ele><time>2026-03-28T10:41:44.127Z</time></trkpt><trkpt lat="53.3197212" lon="14.6650087"><ele>88.6</ele><time>2026-03-28T10:41:45.123Z</time></trkpt><trkpt lat="53.3196294" lon="14.6652347"><ele>87.4</ele><time>2026-03-28T10:41:47.113Z</time></trkpt><trkpt lat="53.3195756" lon="14.665343"><ele>86.2</ele><time>2026-03-28T10:41:48.125Z</time></trkpt><trkpt lat="53.3195228" lon="14.6654374"><ele>85.0</ele><time>2026-03-28T10:41:49.115Z</time></trkpt><trkpt lat="53.3194691" lon="14.6655214"><ele>85.0</ele><time>2026-03-28T10:41:50.12Z</time></trkpt><trkpt lat="53.3194183" lon="14.6655973"><ele>85.0</ele><time>2026-03-28T10:41:51.123Z</time></trkpt><trkpt lat="53.3193685" lon="14.6656739"><ele>85.0</ele><time>2026-03-28T10:41:52.113Z</time></trkpt><trkpt lat="53.3192622" lon="14.665801"><ele>85.0</ele><time>2026-03-28T10:41:54.125Z</time></trkpt><trkpt lat="53.3192035" lon="14.6658683"><ele>85.0</ele><time>2026-03-28T10:41:55.121Z</time></trkpt><trkpt lat="53.319142" lon="14.6659375"><ele>85.0</ele><time>2026-03-28T10:41:56.114Z</time></trkpt><trkpt lat="53.3190812" lon="14.6659993"><ele>85.0</ele><time>2026-03-28T10:41:57.115Z</time></trkpt><trkpt lat="53.3189864" lon="14.6660892"><ele>85.0</ele><time>2026-03-28T10:41:59.117Z</time></trkpt><trkpt lat="53.3189145" lon="14.6661502"><ele>85.0</ele><time>2026-03-28T10:42:01.118Z</time></trkpt><trkpt lat="53.3189358" lon="14.6663344"><ele>85.0</ele><time>2026-03-28T10:42:14.121Z</time></trkpt><trkpt lat="53.3190812" lon="14.6666413"><ele>86.16666666666666</ele><time>2026-03-28T10:42:18.119Z</time></trkpt><trkpt lat="53.3191313" lon="14.6667341"><ele>87.33333333333333</ele><time>2026-03-28T10:42:19.128Z</time></trkpt><trkpt lat="53.3191756" lon="14.6668196"><ele>88.5</ele><time>2026-03-28T10:42:20.12Z</time></trkpt><trkpt lat="53.3192142" lon="14.6669051"><ele>89.66666666666667</ele><time>2026-03-28T10:42:21.154Z</time></trkpt><trkpt lat="53.3192889" lon="14.6670567"><ele>90.83333333333334</ele><time>2026-03-28T10:42:23.138Z</time></trkpt><trkpt lat="53.3193721" lon="14.6671905"><ele>92.0</ele><time>2026-03-28T10:42:25.125Z</time></trkpt><trkpt lat="53.3194317" lon="14.6672682"><ele>92.16666666666667</ele><time>2026-03-28T10:42:27.121Z</time></trkpt><trkpt lat="53.3194716" lon="14.667382"><ele>92.33333333333334</ele><time>2026-03-28T10:42:31.115Z</time></trkpt><trkpt lat="53.3194905" lon="14.6674881"><ele>92.5</ele><time>2026-03-28T10:42:34.111Z</time></trkpt><trkpt lat="53.3194951" lon="14.6676116"><ele>92.66666666666667</ele><time>2026-03-28T10:42:36.126Z</time></trkpt><trkpt lat="53.3195899" lon="14.6677644"><ele>92.83333333333333</ele><time>2026-03-28T10:42:41.118Z</time></trkpt><trkpt lat="53.3196617" lon="14.6678088"><ele>93.0</ele><time>2026-03-28T10:42:44.084Z</time></trkpt><trkpt lat="53.3197315" lon="14.667867"><ele>93.83333333333333</ele><time>2026-03-28T10:42:46.126Z</time></trkpt><trkpt lat="53.3197959" lon="14.6679043"><ele>94.66666666666666</ele><time>2026-03-28T10:42:48.132Z</time></trkpt><trkpt lat="53.3198495" lon="14.6680098"><ele>95.5</ele><time>2026-03-28T10:42:51.118Z</time></trkpt><trkpt lat="53.3199384" lon="14.6680219"><ele>96.33333333333333</ele><time>2026-03-28T10:43:01.139Z</time></trkpt><trkpt lat="53.3200715" lon="14.668111"><ele>97.16666666666666</ele><time>2026-03-28T10:43:07.133Z</time></trkpt><trkpt lat="53.3201191" lon="14.6681851"><ele>98.0</ele><time>2026-03-28T10:43:09.12Z</time></trkpt><trkpt lat="53.3201713" lon="14.6682474"><ele>98.0</ele><time>2026-03-28T10:43:11.117Z</time></trkpt><trkpt lat="53.3202435" lon="14.6683231"><ele>98.0</ele><time>2026-03-28T10:43:14.118Z</time></trkpt><trkpt lat="53.3203227" lon="14.6683392"><ele>98.0</ele><time>2026-03-28T10:43:17.124Z</time></trkpt><trkpt lat="53.3204161" lon="14.6683132"><ele>98.0</ele><time>2026-03-28T10:43:20.045Z</time></trkpt><trkpt lat="53.3204741" lon="14.6684156"><ele>98.0</ele><time>2026-03-28T10:43:23.113Z</time></trkpt><trkpt lat="53.3204439" lon="14.6687194"><ele>97.66666666666666</ele><time>2026-03-28T10:43:28.125Z</time></trkpt><trkpt lat="53.3204118" lon="14.66883"><ele>97.33333333333333</ele><time>2026-03-28T10:43:30.047Z</time></trkpt><trkpt lat="53.3203515" lon="14.6689326"><ele>97.0</ele><time>2026-03-28T10:43:32.117Z</time></trkpt><trkpt lat="53.3202924" lon="14.6690119"><ele>96.66666666666666</ele><time>2026-03-28T10:43:34.12Z</time></trkpt><trkpt lat="53.3202669" lon="14.6691432"><ele>96.33333333333333</ele><time>2026-03-28T10:43:37.118Z</time></trkpt><trkpt lat="53.3202474" lon="14.6692527"><ele>96.0</ele><time>2026-03-28T10:43:40.123Z</time></trkpt><trkpt lat="53.3202245" lon="14.6693655"><ele>96.0</ele><time>2026-03-28T10:43:44.118Z</time></trkpt><trkpt lat="53.3201003" lon="14.6694997"><ele>96.0</ele><time>2026-03-28T10:43:50.121Z</time></trkpt><trkpt lat="53.3200107" lon="14.6696399"><ele>96.0</ele><time>2026-03-28T10:43:52.127Z</time></trkpt><trkpt lat="53.3199661" lon="14.6697247"><ele>96.0</ele><time>2026-03-28T10:43:53.118Z</time></trkpt><trkpt lat="53.3199141" lon="14.6698062"><ele>96.0</ele><time>2026-03-28T10:43:54.124Z</time></trkpt><trkpt lat="53.3198543" lon="14.6698812"><ele>96.0</ele><time>2026-03-28T10:43:55.121Z</time></trkpt><trkpt lat="53.3197918" lon="14.6699424"><ele>96.0</ele><time>2026-03-28T10:43:56.116Z</time></trkpt><trkpt lat="53.319727" lon="14.6699956"><ele>96.0</ele><time>2026-03-28T10:43:57.126Z</time></trkpt><trkpt lat="53.3196674" lon="14.6700395"><ele>96.0</ele><time>2026-03-28T10:43:58.118Z</time></trkpt><trkpt lat="53.3195667" lon="14.6700965"><ele>96.0</ele><time>2026-03-28T10:44:00.123Z</time></trkpt><trkpt lat="53.3194997" lon="14.6701132"><ele>96.0</ele><time>2026-03-28T10:44:03.123Z</time></trkpt><trkpt lat="53.3194864" lon="14.6703131"><ele>95.66666666666667</ele><time>2026-03-28T10:44:26.119Z</time></trkpt><trkpt lat="53.3195193" lon="14.6705974"><ele>95.33333333333333</ele><time>2026-03-28T10:44:28.123Z</time></trkpt><trkpt lat="53.3195256" lon="14.6707128"><ele>95.0</ele><time>2026-03-28T10:44:29.106Z</time></trkpt><trkpt lat="53.3195335" lon="14.6708317"><ele>94.66666666666666</ele><time>2026-03-28T10:44:30.121Z</time></trkpt><trkpt lat="53.3195408" lon="14.670951"><ele>94.33333333333333</ele><time>2026-03-28T10:44:31.113Z</time></trkpt><trkpt lat="53.3195348" lon="14.6710573"><ele>94.0</ele><time>2026-03-28T10:44:32.137Z</time></trkpt><trkpt lat="53.3194674" lon="14.6712179"><ele>94.0</ele><time>2026-03-28T10:44:34.127Z</time></trkpt><trkpt lat="53.3194035" lon="14.671372"><ele>94.0</ele><time>2026-03-28T10:44:36.119Z</time></trkpt><trkpt lat="53.319366" lon="14.671551"><ele>94.0</ele><time>2026-03-28T10:44:38.124Z</time></trkpt><trkpt lat="53.3193323" lon="14.6716527"><ele>94.0</ele><time>2026-03-28T10:44:41.117Z</time></trkpt><trkpt lat="53.3194084" lon="14.6717407"><ele>94.0</ele><time>2026-03-28T10:44:57.114Z</time></trkpt><trkpt lat="53.3195032" lon="14.6720227"><ele>95.0</ele><time>2026-03-28T10:45:04.119Z</time></trkpt><trkpt lat="53.3194314" lon="14.672119"><ele>96.0</ele><time>2026-03-28T10:45:10.129Z</time></trkpt><trkpt lat="53.3193673" lon="14.6721848"><ele>97.0</ele><time>2026-03-28T10:45:13.122Z</time></trkpt><trkpt lat="53.3193196" lon="14.6723535"><ele>98.0</ele><time>2026-03-28T10:45:29.126Z</time></trkpt><trkpt lat="53.3192614" lon="14.6725429"><ele>99.0</ele><time>2026-03-28T10:45:44.129Z</time></trkpt><trkpt lat="53.3193124" lon="14.6727505"><ele>99.5</ele><time>2026-03-28T10:45:52.123Z</time></trkpt><trkpt lat="53.319439" lon="14.6731308"><ele>100.0</ele><time>2026-03-28T10:46:04.119Z</time></trkpt><trkpt lat="53.3194682" lon="14.6732762"><ele>100.5</ele><time>2026-03-28T10:46:10.119Z</time></trkpt><trkpt lat="53.3195048" lon="14.6733818"><ele>101.0</ele><time>2026-03-28T10:49:06.139Z</time></trkpt><trkpt lat="53.3195653" lon="14.6735767"><ele>100.8</ele><time>2026-03-28T10:49:19.126Z</time></trkpt><trkpt lat="53.3196034" lon="14.6737357"><ele>100.6</ele><time>2026-03-28T10:49:22.122Z</time></trkpt><trkpt lat="53.3196741" lon="14.6738364"><ele>100.4</ele><time>2026-03-28T10:49:26.119Z</time></trkpt><trkpt lat="53.3197328" lon="14.6738831"><ele>100.2</ele><time>2026-03-28T10:49:27.123Z</time></trkpt><trkpt lat="53.3198774" lon="14.6740459"><ele>100.0</ele><time>2026-03-28T10:49:32.122Z</time></trkpt><trkpt lat="53.3199495" lon="14.6742115"><ele>102.8</ele><time>2026-03-28T10:49:35.125Z</time></trkpt><trkpt lat="53.3200057" lon="14.6743113"><ele>105.6</ele><time>2026-03-28T10:49:37.125Z</time></trkpt><trkpt lat="53.3200491" lon="14.6744123"><ele>108.4</ele><time>2026-03-28T10:49:40.13Z</time></trkpt><trkpt lat="53.319986" lon="14.6746046"><ele>111.2</ele><time>2026-03-28T10:49:46.126Z</time></trkpt><trkpt lat="53.3198932" lon="14.6746801"><ele>114.0</ele><time>2026-03-28T10:49:50.125Z</time></trkpt><trkpt lat="53.319759" lon="14.6745555"><ele>111.66666666666667</ele><time>2026-03-28T10:49:59.124Z</time></trkpt><trkpt lat="53.3197116" lon="14.674476"><ele>109.33333333333334</ele><time>2026-03-28T10:50:00.127Z</time></trkpt><trkpt lat="53.319661" lon="14.6743935"><ele>107.0</ele><time>2026-03-28T10:50:01.137Z</time></trkpt><trkpt lat="53.3196183" lon="14.6743117"><ele>104.66666666666667</ele><time>2026-03-28T10:50:02.12Z</time></trkpt><trkpt lat="53.3195392" lon="14.6741583"><ele>102.33333333333334</ele><time>2026-03-28T10:50:04.133Z</time></trkpt><trkpt lat="53.3194637" lon="14.6740263"><ele>100.0</ele><time>2026-03-28T10:50:06.141Z</time></trkpt><trkpt lat="53.3193876" lon="14.6739038"><ele>100.0</ele><time>2026-03-28T10:50:08.128Z</time></trkpt><trkpt lat="53.3192992" lon="14.6737784"><ele>100.0</ele><time>2026-03-28T10:50:10.123Z</time></trkpt><trkpt lat="53.3192165" lon="14.6736624"><ele>100.0</ele><time>2026-03-28T10:50:12.131Z</time></trkpt><trkpt lat="53.3190727" lon="14.6734447"><ele>100.0</ele><time>2026-03-28T10:50:15.126Z</time></trkpt><trkpt lat="53.3190148" lon="14.6733664"><ele>100.0</ele><time>2026-03-28T10:50:16.121Z</time></trkpt><trkpt lat="53.3189483" lon="14.6732827"><ele>100.0</ele><time>2026-03-28T10:50:17.141Z</time></trkpt><trkpt lat="53.3188771" lon="14.6731901"><ele>100.0</ele><time>2026-03-28T10:50:18.123Z</time></trkpt><trkpt lat="53.3188016" lon="14.6730847"><ele>100.0</ele><time>2026-03-28T10:50:19.127Z</time></trkpt><trkpt lat="53.3187232" lon="14.672971"><ele>100.0</ele><time>2026-03-28T10:50:20.13Z</time></trkpt><trkpt lat="53.3186439" lon="14.6728521"><ele>99.6</ele><time>2026-03-28T10:50:21.14Z</time></trkpt><trkpt lat="53.3185673" lon="14.6727365"><ele>99.2</ele><time>2026-03-28T10:50:22.122Z</time></trkpt><trkpt lat="53.3184946" lon="14.6726321"><ele>98.80000000000001</ele><time>2026-03-28T10:50:23.126Z</time></trkpt><trkpt lat="53.3184235" lon="14.6725405"><ele>98.4</ele><time>2026-03-28T10:50:24.119Z</time></trkpt><trkpt lat="53.3183545" lon="14.6724558"><ele>98.0</ele><time>2026-03-28T10:50:25.133Z</time></trkpt><trkpt lat="53.3182839" lon="14.6723789"><ele>98.0</ele><time>2026-03-28T10:50:26.122Z</time></trkpt><trkpt lat="53.3182108" lon="14.672311"><ele>98.0</ele><time>2026-03-28T10:50:27.128Z</time></trkpt><trkpt lat="53.3181456" lon="14.6722629"><ele>98.0</ele><time>2026-03-28T10:50:28.135Z</time></trkpt><trkpt lat="53.3180584" lon="14.6722082"><ele>98.0</ele><time>2026-03-28T10:50:30.123Z</time></trkpt><trkpt lat="53.3179945" lon="14.6721872"><ele>98.0</ele><time>2026-03-28T10:50:33.133Z</time></trkpt><trkpt lat="53.3179562" lon="14.6724254"><ele>98.0</ele><time>2026-03-28T10:50:39.126Z</time></trkpt><trkpt lat="53.3179295" lon="14.6726407"><ele>98.0</ele><time>2026-03-28T10:50:42.119Z</time></trkpt><trkpt lat="53.3179051" lon="14.6728301"><ele>98.0</ele><time>2026-03-28T10:50:44.122Z</time></trkpt><trkpt lat="53.3178908" lon="14.6730365"><ele>98.0</ele><time>2026-03-28T10:50:46.12Z</time></trkpt><trkpt lat="53.3178753" lon="14.6731499"><ele>98.0</ele><time>2026-03-28T10:50:47.116Z</time></trkpt><trkpt lat="53.3178603" lon="14.673262"><ele>98.66666666666666</ele><time>2026-03-28T10:50:48.133Z</time></trkpt><trkpt lat="53.3178363" lon="14.6733731"><ele>99.33333333333333</ele><time>2026-03-28T10:50:49.127Z</time></trkpt><trkpt lat="53.3178002" lon="14.6734888"><ele>100.0</ele><time>2026-03-28T10:50:50.145Z</time></trkpt><trkpt lat="53.3177517" lon="14.6736136"><ele>100.66666666666666</ele><time>2026-03-28T10:50:51.121Z</time></trkpt><trkpt lat="53.3176908" lon="14.6737417"><ele>101.33333333333333</ele><time>2026-03-28T10:50:52.119Z</time></trkpt><trkpt lat="53.3176197" lon="14.6738664"><ele>102.0</ele><time>2026-03-28T10:50:53.119Z</time></trkpt><trkpt lat="53.3175367" lon="14.6739815"><ele>102.0</ele><time>2026-03-28T10:50:54.122Z</time></trkpt><trkpt lat="53.3173442" lon="14.6742389"><ele>102.0</ele><time>2026-03-28T10:50:56.117Z</time></trkpt><trkpt lat="53.317249" lon="14.6743725"><ele>102.0</ele><time>2026-03-28T10:50:57.12Z</time></trkpt><trkpt lat="53.317159" lon="14.674499"><ele>102.0</ele><time>2026-03-28T10:50:58.122Z</time></trkpt><trkpt lat="53.3170782" lon="14.6746059"><ele>102.0</ele><time>2026-03-28T10:50:59.124Z</time></trkpt><trkpt lat="53.3169974" lon="14.6747153"><ele>102.0</ele><time>2026-03-28T10:51:00.115Z</time></trkpt><trkpt lat="53.3169116" lon="14.6748263"><ele>102.0</ele><time>2026-03-28T10:51:01.126Z</time></trkpt><trkpt lat="53.3168213" lon="14.6749486"><ele>102.0</ele><time>2026-03-28T10:51:02.117Z</time></trkpt><trkpt lat="53.3167279" lon="14.6750728"><ele>102.0</ele><time>2026-03-28T10:51:03.121Z</time></trkpt><trkpt lat="53.3166306" lon="14.675182"><ele>102.0</ele><time>2026-03-28T10:51:04.114Z</time></trkpt><trkpt lat="53.3165304" lon="14.6752719"><ele>102.0</ele><time>2026-03-28T10:51:05.12Z</time></trkpt><trkpt lat="53.31643" lon="14.6753497"><ele>102.0</ele><time>2026-03-28T10:51:06.121Z</time></trkpt><trkpt lat="53.3163326" lon="14.6754132"><ele>102.0</ele><time>2026-03-28T10:51:07.12Z</time></trkpt><trkpt lat="53.3162373" lon="14.6754722"><ele>101.39999999999999</ele><time>2026-03-28T10:51:08.117Z</time></trkpt><trkpt lat="53.3161421" lon="14.6755404"><ele>100.8</ele><time>2026-03-28T10:51:09.121Z</time></trkpt><trkpt lat="53.3160447" lon="14.6756052"><ele>100.2</ele><time>2026-03-28T10:51:10.119Z</time></trkpt><trkpt lat="53.315951" lon="14.6756657"><ele>99.6</ele><time>2026-03-28T10:51:11.118Z</time></trkpt><trkpt lat="53.3158677" lon="14.6757211"><ele>99.0</ele><time>2026-03-28T10:51:12.122Z</time></trkpt><trkpt lat="53.3157991" lon="14.675766"><ele>99.0</ele><time>2026-03-28T10:51:13.123Z</time></trkpt><trkpt lat="53.3156992" lon="14.6758316"><ele>99.0</ele><time>2026-03-28T10:51:15.12Z</time></trkpt><trkpt lat="53.3156349" lon="14.6760215"><ele>99.0</ele><time>2026-03-28T10:51:21.126Z</time></trkpt><trkpt lat="53.3155823" lon="14.6761363"><ele>99.0</ele><time>2026-03-28T10:51:23.124Z</time></trkpt><trkpt lat="53.3154885" lon="14.676288"><ele>98.6</ele><time>2026-03-28T10:51:25.147Z</time></trkpt><trkpt lat="53.3154284" lon="14.676384"><ele>98.2</ele><time>2026-03-28T10:51:26.137Z</time></trkpt><trkpt lat="53.3153618" lon="14.6764943"><ele>97.8</ele><time>2026-03-28T10:51:27.115Z</time></trkpt><trkpt lat="53.3152866" lon="14.6766124"><ele>97.39999999999999</ele><time>2026-03-28T10:51:28.126Z</time></trkpt><trkpt lat="53.3152064" lon="14.6767253"><ele>97.0</ele><time>2026-03-28T10:51:29.121Z</time></trkpt><trkpt lat="53.3151248" lon="14.6768397"><ele>96.83333333333334</ele><time>2026-03-28T10:51:30.146Z</time></trkpt><trkpt lat="53.3150477" lon="14.6769439"><ele>96.66666666666667</ele><time>2026-03-28T10:51:31.131Z</time></trkpt><trkpt lat="53.3149726" lon="14.6770395"><ele>96.5</ele><time>2026-03-28T10:51:32.133Z</time></trkpt><trkpt lat="53.3149035" lon="14.6771225"><ele>96.33333333333334</ele><time>2026-03-28T10:51:33.127Z</time></trkpt><trkpt lat="53.3148336" lon="14.6771943"><ele>96.16666666666667</ele><time>2026-03-28T10:51:34.132Z</time></trkpt><trkpt lat="53.3147607" lon="14.6772471"><ele>96.0</ele><time>2026-03-28T10:51:35.118Z</time></trkpt><trkpt lat="53.3146746" lon="14.6772757"><ele>96.66666666666666</ele><time>2026-03-28T10:51:36.12Z</time></trkpt><trkpt lat="53.3144689" lon="14.6772329"><ele>97.33333333333333</ele><time>2026-03-28T10:51:38.121Z</time></trkpt><trkpt lat="53.3143491" lon="14.6771813"><ele>98.0</ele><time>2026-03-28T10:51:39.136Z</time></trkpt><trkpt lat="53.3142187" lon="14.6771069"><ele>98.0</ele><time>2026-03-28T10:51:40.13Z</time></trkpt><trkpt lat="53.314086" lon="14.6770378"><ele>98.0</ele><time>2026-03-28T10:51:41.119Z</time></trkpt><trkpt lat="53.3139501" lon="14.6770136"><ele>98.0</ele><time>2026-03-28T10:51:42.122Z</time></trkpt><trkpt lat="53.3138239" lon="14.6770318"><ele>98.0</ele><time>2026-03-28T10:51:43.124Z</time></trkpt><trkpt lat="53.3137159" lon="14.6770614"><ele>100.16666666666666</ele><time>2026-03-28T10:51:44.124Z</time></trkpt><trkpt lat="53.3136266" lon="14.6770877"><ele>102.33333333333333</ele><time>2026-03-28T10:51:45.13Z</time></trkpt><trkpt lat="53.3135511" lon="14.6771073"><ele>104.5</ele><time>2026-03-28T10:51:46.122Z</time></trkpt><trkpt lat="53.3134408" lon="14.6771415"><ele>106.66666666666666</ele><time>2026-03-28T10:51:48.13Z</time></trkpt><trkpt lat="53.3133629" lon="14.6771324"><ele>108.83333333333333</ele><time>2026-03-28T10:51:50.121Z</time></trkpt><trkpt lat="53.3132885" lon="14.6770857"><ele>111.0</ele><time>2026-03-28T10:51:53.122Z</time></trkpt><trkpt lat="53.3132491" lon="14.6772014"><ele>111.0</ele><time>2026-03-28T10:51:56.146Z</time></trkpt><trkpt lat="53.3132167" lon="14.6773538"><ele>111.0</ele><time>2026-03-28T10:51:59.117Z</time></trkpt><trkpt lat="53.313217" lon="14.6776014"><ele>111.0</ele><time>2026-03-28T10:52:03.124Z</time></trkpt><trkpt lat="53.3132162" lon="14.6777399"><ele>111.0</ele><time>2026-03-28T10:52:04.122Z</time></trkpt><trkpt lat="53.3132267" lon="14.6778639"><ele>111.0</ele><time>2026-03-28T10:52:05.118Z</time></trkpt><trkpt lat="53.3132377" lon="14.6780028"><ele>111.0</ele><time>2026-03-28T10:52:06.151Z</time></trkpt><trkpt lat="53.3132427" lon="14.6781526"><ele>111.0</ele><time>2026-03-28T10:52:07.126Z</time></trkpt><trkpt lat="53.3132407" lon="14.6783099"><ele>111.0</ele><time>2026-03-28T10:52:08.135Z</time></trkpt><trkpt lat="53.3132373" lon="14.6784526"><ele>111.0</ele><time>2026-03-28T10:52:09.13Z</time></trkpt><trkpt lat="53.3132379" lon="14.6785793"><ele>111.0</ele><time>2026-03-28T10:52:10.119Z</time></trkpt><trkpt lat="53.3132511" lon="14.6786956"><ele>111.0</ele><time>2026-03-28T10:52:11.137Z</time></trkpt><trkpt lat="53.3132799" lon="14.6788012"><ele>110.33333333333333</ele><time>2026-03-28T10:52:12.121Z</time></trkpt><trkpt lat="53.3133285" lon="14.6788851"><ele>109.66666666666666</ele><time>2026-03-28T10:52:13.133Z</time></trkpt><trkpt lat="53.3133861" lon="14.6789542"><ele>109.0</ele><time>2026-03-28T10:52:14.12Z</time></trkpt><trkpt lat="53.3134421" lon="14.6790198"><ele>108.33333333333333</ele><time>2026-03-28T10:52:15.121Z</time></trkpt><trkpt lat="53.3135294" lon="14.6791288"><ele>107.66666666666666</ele><time>2026-03-28T10:52:17.122Z</time></trkpt><trkpt lat="53.3135888" lon="14.6792124"><ele>107.0</ele><time>2026-03-28T10:52:19.117Z</time></trkpt><trkpt lat="53.3136279" lon="14.6793315"><ele>105.39999999999999</ele><time>2026-03-28T10:52:21.136Z</time></trkpt><trkpt lat="53.3136611" lon="14.6795931"><ele>103.79999999999998</ele><time>2026-03-28T10:52:25.117Z</time></trkpt><trkpt lat="53.3136318" lon="14.679718"><ele>102.2</ele><time>2026-03-28T10:52:27.145Z</time></trkpt><trkpt lat="53.3135948" lon="14.6798407"><ele>100.6</ele><time>2026-03-28T10:52:30.04Z</time></trkpt><trkpt lat="53.3135274" lon="14.6798798"><ele>99.0</ele><time>2026-03-28T10:52:33.12Z</time></trkpt><trkpt lat="53.3133737" lon="14.6799199"><ele>99.0</ele><time>2026-03-28T10:52:36.143Z</time></trkpt><trkpt lat="53.3132824" lon="14.6799339"><ele>99.0</ele><time>2026-03-28T10:52:37.135Z</time></trkpt><trkpt lat="53.3131905" lon="14.6799556"><ele>99.0</ele><time>2026-03-28T10:52:38.125Z</time></trkpt><trkpt lat="53.3131081" lon="14.6799947"><ele>99.0</ele><time>2026-03-28T10:52:39.144Z</time></trkpt><trkpt lat="53.3130394" lon="14.6800389"><ele>99.0</ele><time>2026-03-28T10:52:40.129Z</time></trkpt><trkpt lat="53.3129786" lon="14.6800739"><ele>99.0</ele><time>2026-03-28T10:52:41.122Z</time></trkpt><trkpt lat="53.3128494" lon="14.680109"><ele>99.25</ele><time>2026-03-28T10:52:43.123Z</time></trkpt><trkpt lat="53.3126799" lon="14.6801359"><ele>99.5</ele><time>2026-03-28T10:52:45.12Z</time></trkpt><trkpt lat="53.3125754" lon="14.680163"><ele>99.75</ele><time>2026-03-28T10:52:46.14Z</time></trkpt><trkpt lat="53.3124578" lon="14.68022"><ele>100.0</ele><time>2026-03-28T10:52:47.133Z</time></trkpt><trkpt lat="53.3123245" lon="14.680313"><ele>99.33333333333334</ele><time>2026-03-28T10:52:48.119Z</time></trkpt><trkpt lat="53.3121776" lon="14.6804435"><ele>98.66666666666666</ele><time>2026-03-28T10:52:49.121Z</time></trkpt><trkpt lat="53.3120272" lon="14.6805963"><ele>98.0</ele><time>2026-03-28T10:52:50.121Z</time></trkpt><trkpt lat="53.3118857" lon="14.6807454"><ele>98.0</ele><time>2026-03-28T10:52:51.134Z</time></trkpt><trkpt lat="53.311758" lon="14.6808832"><ele>98.0</ele><time>2026-03-28T10:52:52.125Z</time></trkpt><trkpt lat="53.3116399" lon="14.6810211"><ele>98.0</ele><time>2026-03-28T10:52:53.145Z</time></trkpt><trkpt lat="53.3115506" lon="14.6811367"><ele>98.0</ele><time>2026-03-28T10:52:54.13Z</time></trkpt><trkpt lat="53.3114867" lon="14.6812332"><ele>98.4</ele><time>2026-03-28T10:52:55.13Z</time></trkpt><trkpt lat="53.3114338" lon="14.6813113"><ele>98.80000000000001</ele><time>2026-03-28T10:52:56.121Z</time></trkpt><trkpt lat="53.3113573" lon="14.6814145"><ele>99.2</ele><time>2026-03-28T10:52:58.124Z</time></trkpt><trkpt lat="53.311284" lon="14.6815054"><ele>99.6</ele><time>2026-03-28T10:53:01.131Z</time></trkpt><trkpt lat="53.3112263" lon="14.6816035"><ele>100.0</ele><time>2026-03-28T10:53:04.134Z</time></trkpt><trkpt lat="53.3110854" lon="14.6817248"><ele>100.00000000000001</ele><time>2026-03-28T10:53:11.124Z</time></trkpt><trkpt lat="53.3110223" lon="14.6817799"><ele>100.0</ele><time>2026-03-28T10:53:13.118Z</time></trkpt><trkpt lat="53.310958" lon="14.6818526"><ele>100.0</ele><time>2026-03-28T10:53:15.132Z</time></trkpt><trkpt lat="53.3108844" lon="14.6819308"><ele>100.0</ele><time>2026-03-28T10:53:17.133Z</time></trkpt><trkpt lat="53.3108027" lon="14.6820116"><ele>100.00000000000001</ele><time>2026-03-28T10:53:19.129Z</time></trkpt><trkpt lat="53.3107037" lon="14.6821129"><ele>100.0</ele><time>2026-03-28T10:53:21.134Z</time></trkpt><trkpt lat="53.3106478" lon="14.6821645"><ele>99.6</ele><time>2026-03-28T10:53:22.141Z</time></trkpt><trkpt lat="53.3105908" lon="14.6822175"><ele>99.2</ele><time>2026-03-28T10:53:23.127Z</time></trkpt><trkpt lat="53.3104909" lon="14.6823171"><ele>98.80000000000001</ele><time>2026-03-28T10:53:25.13Z</time></trkpt><trkpt lat="53.3103752" lon="14.6825065"><ele>98.4</ele><time>2026-03-28T10:53:30.127Z</time></trkpt><trkpt lat="53.3103778" lon="14.6826192"><ele>98.0</ele><time>2026-03-28T10:53:32.126Z</time></trkpt><trkpt lat="53.3103613" lon="14.6827604"><ele>97.25</ele><time>2026-03-28T10:53:37.144Z</time></trkpt><trkpt lat="53.3103135" lon="14.6828683"><ele>96.5</ele><time>2026-03-28T10:53:39.12Z</time></trkpt><trkpt lat="53.3102328" lon="14.6829568"><ele>95.75</ele><time>2026-03-28T10:53:43.129Z</time></trkpt><trkpt lat="53.3101649" lon="14.6830816"><ele>95.0</ele><time>2026-03-28T10:53:47.131Z</time></trkpt><trkpt lat="53.3097916" lon="14.6833595"><ele>94.8</ele><time>2026-03-28T10:55:19.135Z</time></trkpt><trkpt lat="53.3096993" lon="14.6833576"><ele>94.6</ele><time>2026-03-28T10:55:20.123Z</time></trkpt><trkpt lat="53.3095975" lon="14.6833294"><ele>94.4</ele><time>2026-03-28T10:55:21.142Z</time></trkpt><trkpt lat="53.3094877" lon="14.6832849"><ele>94.2</ele><time>2026-03-28T10:55:22.136Z</time></trkpt><trkpt lat="53.3093924" lon="14.6832229"><ele>94.0</ele><time>2026-03-28T10:55:23.117Z</time></trkpt><trkpt lat="53.3093063" lon="14.6831486"><ele>94.0</ele><time>2026-03-28T10:55:24.119Z</time></trkpt><trkpt lat="53.3092293" lon="14.6830558"><ele>94.0</ele><time>2026-03-28T10:55:25.121Z</time></trkpt><trkpt lat="53.3091599" lon="14.6829597"><ele>94.0</ele><time>2026-03-28T10:55:26.149Z</time></trkpt><trkpt lat="53.3090956" lon="14.6828755"><ele>94.0</ele><time>2026-03-28T10:55:27.121Z</time></trkpt><trkpt lat="53.309032" lon="14.6827841"><ele>94.0</ele><time>2026-03-28T10:55:28.119Z</time></trkpt><trkpt lat="53.3089096" lon="14.6825868"><ele>93.83333333333333</ele><time>2026-03-28T10:55:30.133Z</time></trkpt><trkpt lat="53.3088524" lon="14.6824927"><ele>93.66666666666666</ele><time>2026-03-28T10:55:31.122Z</time></trkpt><trkpt lat="53.3088015" lon="14.6824048"><ele>93.5</ele><time>2026-03-28T10:55:32.112Z</time></trkpt><trkpt lat="53.3087545" lon="14.6823219"><ele>93.33333333333333</ele><time>2026-03-28T10:55:33.125Z</time></trkpt><trkpt lat="53.3086792" lon="14.6821769"><ele>93.16666666666667</ele><time>2026-03-28T10:55:35.143Z</time></trkpt><trkpt lat="53.3086166" lon="14.6820506"><ele>93.0</ele><time>2026-03-28T10:55:37.121Z</time></trkpt><trkpt lat="53.3085679" lon="14.6819489"><ele>92.5</ele><time>2026-03-28T10:55:39.124Z</time></trkpt><trkpt lat="53.3085213" lon="14.6818333"><ele>92.0</ele><time>2026-03-28T10:55:41.118Z</time></trkpt><trkpt lat="53.3084609" lon="14.6817308"><ele>91.5</ele><time>2026-03-28T10:55:43.116Z</time></trkpt><trkpt lat="53.3084005" lon="14.681653"><ele>91.0</ele><time>2026-03-28T10:55:46.116Z</time></trkpt><trkpt lat="53.3083479" lon="14.6815773"><ele>90.5</ele><time>2026-03-28T10:55:48.092Z</time></trkpt><trkpt lat="53.3082837" lon="14.6815634"><ele>90.0</ele><time>2026-03-28T10:55:50.125Z</time></trkpt><trkpt lat="53.3080949" lon="14.6814872"><ele>90.16666666666667</ele><time>2026-03-28T10:55:54.128Z</time></trkpt><trkpt lat="53.3080276" lon="14.6814338"><ele>90.33333333333333</ele><time>2026-03-28T10:55:55.13Z</time></trkpt><trkpt lat="53.3079528" lon="14.6813726"><ele>90.5</ele><time>2026-03-28T10:55:56.123Z</time></trkpt><trkpt lat="53.307869" lon="14.6813072"><ele>90.66666666666666</ele><time>2026-03-28T10:55:57.151Z</time></trkpt><trkpt lat="53.3077891" lon="14.6812399"><ele>90.83333333333333</ele><time>2026-03-28T10:55:58.119Z</time></trkpt><trkpt lat="53.3077094" lon="14.6811773"><ele>91.0</ele><time>2026-03-28T10:55:59.129Z</time></trkpt><trkpt lat="53.3076362" lon="14.681121"><ele>90.16666666666666</ele><time>2026-03-28T10:56:00.122Z</time></trkpt><trkpt lat="53.307567" lon="14.6810665"><ele>89.33333333333333</ele><time>2026-03-28T10:56:01.116Z</time></trkpt><trkpt lat="53.3074919" lon="14.6810169"><ele>88.5</ele><time>2026-03-28T10:56:02.117Z</time></trkpt><trkpt lat="53.3074086" lon="14.6809712"><ele>87.66666666666667</ele><time>2026-03-28T10:56:03.123Z</time></trkpt><trkpt lat="53.3073186" lon="14.6809254"><ele>86.83333333333334</ele><time>2026-03-28T10:56:04.144Z</time></trkpt><trkpt lat="53.3072274" lon="14.6808759"><ele>86.0</ele><time>2026-03-28T10:56:05.13Z</time></trkpt><trkpt lat="53.3071339" lon="14.680823"><ele>86.0</ele><time>2026-03-28T10:56:06.115Z</time></trkpt><trkpt lat="53.3070406" lon="14.6807747"><ele>86.0</ele><time>2026-03-28T10:56:07.123Z</time></trkpt><trkpt lat="53.3069499" lon="14.6807358"><ele>86.0</ele><time>2026-03-28T10:56:08.122Z</time></trkpt><trkpt lat="53.3068607" lon="14.6807035"><ele>86.0</ele><time>2026-03-28T10:56:09.147Z</time></trkpt><trkpt lat="53.3067759" lon="14.6806785"><ele>86.0</ele><time>2026-03-28T10:56:10.122Z</time></trkpt><trkpt lat="53.3066893" lon="14.6806661"><ele>86.0</ele><time>2026-03-28T10:56:11.126Z</time></trkpt><trkpt lat="53.3064995" lon="14.6806988"><ele>86.0</ele><time>2026-03-28T10:56:13.123Z</time></trkpt><trkpt lat="53.3063772" lon="14.6807669"><ele>86.0</ele><time>2026-03-28T10:56:14.14Z</time></trkpt><trkpt lat="53.3062449" lon="14.6808549"><ele>86.0</ele><time>2026-03-28T10:56:15.136Z</time></trkpt><trkpt lat="53.3061037" lon="14.6809657"><ele>86.0</ele><time>2026-03-28T10:56:16.127Z</time></trkpt><trkpt lat="53.3059607" lon="14.6810947"><ele>86.0</ele><time>2026-03-28T10:56:17.119Z</time></trkpt><trkpt lat="53.3058224" lon="14.6812238"><ele>85.5</ele><time>2026-03-28T10:56:18.125Z</time></trkpt><trkpt lat="53.3056917" lon="14.6813338"><ele>85.0</ele><time>2026-03-28T10:56:19.124Z</time></trkpt><trkpt lat="53.3055668" lon="14.6814205"><ele>84.5</ele><time>2026-03-28T10:56:20.118Z</time></trkpt><trkpt lat="53.3054392" lon="14.6814894"><ele>84.0</ele><time>2026-03-28T10:56:21.124Z</time></trkpt><trkpt lat="53.3053169" lon="14.6815361"><ele>82.8</ele><time>2026-03-28T10:56:22.117Z</time></trkpt><trkpt lat="53.3052011" lon="14.6815666"><ele>81.60000000000001</ele><time>2026-03-28T10:56:23.115Z</time></trkpt><trkpt lat="53.3050965" lon="14.6815959"><ele>80.4</ele><time>2026-03-28T10:56:24.122Z</time></trkpt><trkpt lat="53.3050024" lon="14.6816235"><ele>79.2</ele><time>2026-03-28T10:56:25.132Z</time></trkpt><trkpt lat="53.3049183" lon="14.6816559"><ele>78.0</ele><time>2026-03-28T10:56:26.123Z</time></trkpt><trkpt lat="53.304847" lon="14.6816893"><ele>78.0</ele><time>2026-03-28T10:56:27.147Z</time></trkpt><trkpt lat="53.3047687" lon="14.6816997"><ele>78.0</ele><time>2026-03-28T10:56:29.13Z</time></trkpt><trkpt lat="53.3047256" lon="14.6815878"><ele>78.0</ele><time>2026-03-28T10:56:32.12Z</time></trkpt><trkpt lat="53.3046344" lon="14.6814166"><ele>78.0</ele><time>2026-03-28T10:56:52.119Z</time></trkpt><trkpt lat="53.3045554" lon="14.6814175"><ele>78.0</ele><time>2026-03-28T10:57:03.109Z</time></trkpt><trkpt lat="53.3044001" lon="14.6814619"><ele>75.66666666666667</ele><time>2026-03-28T10:57:16.121Z</time></trkpt><trkpt lat="53.3042732" lon="14.6815907"><ele>73.33333333333334</ele><time>2026-03-28T10:57:22.118Z</time></trkpt><trkpt lat="53.3041602" lon="14.6816849"><ele>71.0</ele><time>2026-03-28T10:57:28.124Z</time></trkpt><trkpt lat="53.3039829" lon="14.6816565"><ele>71.0</ele><time>2026-03-28T10:57:35.123Z</time></trkpt><trkpt lat="53.3039236" lon="14.6815868"><ele>71.0</ele><time>2026-03-28T10:57:39.122Z</time></trkpt><trkpt lat="53.3038646" lon="14.6815321"><ele>71.0</ele><time>2026-03-28T10:57:41.123Z</time></trkpt><trkpt lat="53.3037433" lon="14.681509"><ele>71.0</ele><time>2026-03-28T10:57:55.125Z</time></trkpt><trkpt lat="53.3035883" lon="14.6814789"><ele>71.0</ele><time>2026-03-28T10:58:02.13Z</time></trkpt><trkpt lat="53.3034886" lon="14.6814306"><ele>71.33333333333334</ele><time>2026-03-28T10:58:16.123Z</time></trkpt><trkpt lat="53.3032724" lon="14.6812231"><ele>71.66666666666667</ele><time>2026-03-28T10:58:53.12Z</time></trkpt><trkpt lat="53.3033567" lon="14.6809969"><ele>72.0</ele><time>2026-03-28T10:59:11.123Z</time></trkpt><trkpt lat="53.3033577" lon="14.6808686"><ele>72.0</ele><time>2026-03-28T10:59:12.127Z</time></trkpt><trkpt lat="53.3033416" lon="14.6807431"><ele>72.0</ele><time>2026-03-28T10:59:13.129Z</time></trkpt><trkpt lat="53.303318" lon="14.6806177"><ele>72.0</ele><time>2026-03-28T10:59:14.125Z</time></trkpt><trkpt lat="53.3032958" lon="14.6805164"><ele>72.0</ele><time>2026-03-28T10:59:15.13Z</time></trkpt><trkpt lat="53.3031936" lon="14.6803309"><ele>72.0</ele><time>2026-03-28T10:59:20.126Z</time></trkpt><trkpt lat="53.3031292" lon="14.680349"><ele>72.0</ele><time>2026-03-28T10:59:22.116Z</time></trkpt><trkpt lat="53.3030471" lon="14.6803852"><ele>71.4</ele><time>2026-03-28T10:59:27.123Z</time></trkpt><trkpt lat="53.3029768" lon="14.6804383"><ele>70.80000000000001</ele><time>2026-03-28T10:59:29.125Z</time></trkpt><trkpt lat="53.3029126" lon="14.6804541"><ele>70.2</ele><time>2026-03-28T10:59:33.122Z</time></trkpt><trkpt lat="53.3028319" lon="14.6804583"><ele>69.60000000000001</ele><time>2026-03-28T10:59:50.117Z</time></trkpt><trkpt lat="53.3027493" lon="14.6804746"><ele>69.0</ele><time>2026-03-28T11:00:38.105Z</time></trkpt><trkpt lat="53.3025655" lon="14.6802466"><ele>68.66666666666667</ele><time>2026-03-28T11:26:59.115Z</time></trkpt><trkpt lat="53.3024804" lon="14.6802385"><ele>68.33333333333333</ele><time>2026-03-28T11:27:03.124Z</time></trkpt><trkpt lat="53.3024044" lon="14.6802521"><ele>68.0</ele><time>2026-03-28T11:27:06.12Z</time></trkpt><trkpt lat="53.3023579" lon="14.6801736"><ele>67.66666666666666</ele><time>2026-03-28T11:27:09.139Z</time></trkpt><trkpt lat="53.3022218" lon="14.6801477"><ele>67.33333333333333</ele><time>2026-03-28T11:27:15.136Z</time></trkpt><trkpt lat="53.3021508" lon="14.6802061"><ele>67.0</ele><time>2026-03-28T11:27:19.121Z</time></trkpt><trkpt lat="53.3020732" lon="14.6802084"><ele>67.0</ele><time>2026-03-28T11:27:22.122Z</time></trkpt><trkpt lat="53.3020051" lon="14.6802161"><ele>67.0</ele><time>2026-03-28T11:27:24.114Z</time></trkpt><trkpt lat="53.3019253" lon="14.6802374"><ele>67.0</ele><time>2026-03-28T11:27:27.082Z</time></trkpt><trkpt lat="53.3018604" lon="14.6802548"><ele>67.0</ele><time>2026-03-28T11:27:29.125Z</time></trkpt><trkpt lat="53.301771" lon="14.6802808"><ele>67.0</ele><time>2026-03-28T11:27:32.113Z</time></trkpt><trkpt lat="53.3016561" lon="14.6804034"><ele>67.0</ele><time>2026-03-28T11:27:38.132Z</time></trkpt><trkpt lat="53.3015424" lon="14.6804218"><ele>66.6</ele><time>2026-03-28T11:27:48.119Z</time></trkpt><trkpt lat="53.3014753" lon="14.6803902"><ele>66.2</ele><time>2026-03-28T11:27:51.122Z</time></trkpt><trkpt lat="53.3014196" lon="14.6804405"><ele>65.8</ele><time>2026-03-28T11:27:56.126Z</time></trkpt><trkpt lat="53.3012782" lon="14.6803938"><ele>65.4</ele><time>2026-03-28T11:28:31.105Z</time></trkpt><trkpt lat="53.3011653" lon="14.6802556"><ele>65.0</ele><time>2026-03-28T11:28:37.111Z</time></trkpt><trkpt lat="53.3010992" lon="14.6802516"><ele>65.0</ele><time>2026-03-28T11:28:39.108Z</time></trkpt><trkpt lat="53.3009839" lon="14.6802305"><ele>65.0</ele><time>2026-03-28T11:29:46.117Z</time></trkpt><trkpt lat="53.3008478" lon="14.6802278"><ele>65.0</ele><time>2026-03-28T11:29:55.12Z</time></trkpt><trkpt lat="53.3007885" lon="14.6802693"><ele>65.0</ele><time>2026-03-28T11:29:59.129Z</time></trkpt><trkpt lat="53.3007256" lon="14.6803273"><ele>65.0</ele><time>2026-03-28T11:30:03.117Z</time></trkpt><trkpt lat="53.3006455" lon="14.680355"><ele>63.0</ele><time>2026-03-28T11:30:07.077Z</time></trkpt><trkpt lat="53.3004871" lon="14.6803566"><ele>61.0</ele><time>2026-03-28T11:30:13.125Z</time></trkpt><trkpt lat="53.3004227" lon="14.6804049"><ele>59.0</ele><time>2026-03-28T11:30:15.138Z</time></trkpt><trkpt lat="53.3003584" lon="14.6804436"><ele>57.0</ele><time>2026-03-28T11:30:17.118Z</time></trkpt><trkpt lat="53.3002897" lon="14.6804867"><ele>55.0</ele><time>2026-03-28T11:30:19.117Z</time></trkpt><trkpt lat="53.3001833" lon="14.6805122"><ele>55.0</ele><time>2026-03-28T11:30:21.115Z</time></trkpt><trkpt lat="53.300082" lon="14.6805452"><ele>55.0</ele><time>2026-03-28T11:30:23.121Z</time></trkpt><trkpt lat="53.3000053" lon="14.6805697"><ele>55.0</ele><time>2026-03-28T11:30:25.116Z</time></trkpt><trkpt lat="53.299925" lon="14.6806147"><ele>55.0</ele><time>2026-03-28T11:30:27.117Z</time></trkpt><trkpt lat="53.2998352" lon="14.6806581"><ele>55.0</ele><time>2026-03-28T11:30:29.117Z</time></trkpt><trkpt lat="53.299618" lon="14.680717"><ele>53.99999999999999</ele><time>2026-03-28T11:30:35.117Z</time></trkpt><trkpt lat="53.299553" lon="14.6807064"><ele>53.0</ele><time>2026-03-28T11:30:37.115Z</time></trkpt><trkpt lat="53.2994686" lon="14.6806888"><ele>52.0</ele><time>2026-03-28T11:30:39.112Z</time></trkpt><trkpt lat="53.2994056" lon="14.6806783"><ele>51.0</ele><time>2026-03-28T11:30:40.114Z</time></trkpt><trkpt lat="53.2993425" lon="14.6806647"><ele>49.99999999999999</ele><time>2026-03-28T11:30:41.106Z</time></trkpt><trkpt lat="53.2992438" lon="14.6806438"><ele>49.0</ele><time>2026-03-28T11:30:43.11Z</time></trkpt><trkpt lat="53.2991574" lon="14.6806086"><ele>49.0</ele><time>2026-03-28T11:30:45.108Z</time></trkpt><trkpt lat="53.2990849" lon="14.680575"><ele>49.0</ele><time>2026-03-28T11:30:46.113Z</time></trkpt><trkpt lat="53.29897" lon="14.6805028"><ele>49.0</ele><time>2026-03-28T11:30:48.129Z</time></trkpt><trkpt lat="53.2988682" lon="14.6804303"><ele>49.0</ele><time>2026-03-28T11:30:50.112Z</time></trkpt><trkpt lat="53.2987256" lon="14.6802444"><ele>47.99999999999999</ele><time>2026-03-28T11:30:54.117Z</time></trkpt><trkpt lat="53.2986398" lon="14.6801568"><ele>47.0</ele><time>2026-03-28T11:30:56.112Z</time></trkpt><trkpt lat="53.2985495" lon="14.6800795"><ele>46.0</ele><time>2026-03-28T11:30:59.063Z</time></trkpt><trkpt lat="53.2984872" lon="14.6801663"><ele>45.0</ele><time>2026-03-28T11:31:01.114Z</time></trkpt><trkpt lat="53.2984321" lon="14.6802479"><ele>44.0</ele><time>2026-03-28T11:31:03.109Z</time></trkpt><trkpt lat="53.2983873" lon="14.6803303"><ele>43.0</ele><time>2026-03-28T11:31:05.106Z</time></trkpt><trkpt lat="53.2983368" lon="14.6804037"><ele>43.0</ele><time>2026-03-28T11:31:09.114Z</time></trkpt><trkpt lat="53.2982858" lon="14.6804724"><ele>43.0</ele><time>2026-03-28T11:31:13.106Z</time></trkpt><trkpt lat="53.2980723" lon="14.6808144"><ele>43.0</ele><time>2026-03-28T11:31:16.117Z</time></trkpt><trkpt lat="53.2980119" lon="14.6809768"><ele>42.5</ele><time>2026-03-28T11:31:17.127Z</time></trkpt><trkpt lat="53.297975" lon="14.6811664"><ele>42.0</ele><time>2026-03-28T11:31:18.115Z</time></trkpt><trkpt lat="53.2979572" lon="14.6813854"><ele>41.5</ele><time>2026-03-28T11:31:19.111Z</time></trkpt><trkpt lat="53.2979517" lon="14.6816363"><ele>41.0</ele><time>2026-03-28T11:31:20.11Z</time></trkpt><trkpt lat="53.2979616" lon="14.6819172"><ele>40.0</ele><time>2026-03-28T11:31:21.124Z</time></trkpt><trkpt lat="53.2979893" lon="14.6822142"><ele>39.0</ele><time>2026-03-28T11:31:22.127Z</time></trkpt><trkpt lat="53.2980239" lon="14.6825"><ele>38.0</ele><time>2026-03-28T11:31:23.11Z</time></trkpt><trkpt lat="53.2980554" lon="14.6827624"><ele>38.0</ele><time>2026-03-28T11:31:24.114Z</time></trkpt><trkpt lat="53.298084" lon="14.682994"><ele>38.0</ele><time>2026-03-28T11:31:25.126Z</time></trkpt><trkpt lat="53.2981096" lon="14.6831933"><ele>38.0</ele><time>2026-03-28T11:31:26.119Z</time></trkpt><trkpt lat="53.298129" lon="14.6833701"><ele>38.0</ele><time>2026-03-28T11:31:27.114Z</time></trkpt><trkpt lat="53.2981448" lon="14.6835232"><ele>38.199999999999996</ele><time>2026-03-28T11:31:28.121Z</time></trkpt><trkpt lat="53.2981608" lon="14.6836654"><ele>38.4</ele><time>2026-03-28T11:31:29.114Z</time></trkpt><trkpt lat="53.2981653" lon="14.6838045"><ele>38.599999999999994</ele><time>2026-03-28T11:31:30.12Z</time></trkpt><trkpt lat="53.2981694" lon="14.6839488"><ele>38.8</ele><time>2026-03-28T11:31:31.117Z</time></trkpt><trkpt lat="53.2981734" lon="14.6841116"><ele>39.0</ele><time>2026-03-28T11:31:32.115Z</time></trkpt><trkpt lat="53.2981741" lon="14.6843008"><ele>40.0</ele><time>2026-03-28T11:31:33.131Z</time></trkpt><trkpt lat="53.2981778" lon="14.6845095"><ele>41.0</ele><time>2026-03-28T11:31:34.114Z</time></trkpt><trkpt lat="53.2981823" lon="14.684741"><ele>42.0</ele><time>2026-03-28T11:31:35.126Z</time></trkpt><trkpt lat="53.2981681" lon="14.6852228"><ele>44.0</ele><time>2026-03-28T11:31:37.115Z</time></trkpt><trkpt lat="53.2981521" lon="14.6854406"><ele>46.0</ele><time>2026-03-28T11:31:38.117Z</time></trkpt><trkpt lat="53.2981175" lon="14.6856461"><ele>48.0</ele><time>2026-03-28T11:31:39.125Z</time></trkpt><trkpt lat="53.2980701" lon="14.6858551"><ele>50.0</ele><time>2026-03-28T11:31:40.133Z</time></trkpt><trkpt lat="53.2980114" lon="14.686064"><ele>51.0</ele><time>2026-03-28T11:31:41.125Z</time></trkpt><trkpt lat="53.2979487" lon="14.6862716"><ele>52.0</ele><time>2026-03-28T11:31:42.117Z</time></trkpt><trkpt lat="53.2978792" lon="14.6864896"><ele>53.0</ele><time>2026-03-28T11:31:43.119Z</time></trkpt><trkpt lat="53.2978063" lon="14.6867173"><ele>54.0</ele><time>2026-03-28T11:31:44.122Z</time></trkpt><trkpt lat="53.2977353" lon="14.6869537"><ele>54.0</ele><time>2026-03-28T11:31:45.11Z</time></trkpt><trkpt lat="53.2976691" lon="14.6872"><ele>54.0</ele><time>2026-03-28T11:31:46.132Z</time></trkpt><trkpt lat="53.2976113" lon="14.6874316"><ele>54.0</ele><time>2026-03-28T11:31:47.122Z</time></trkpt><trkpt lat="53.2975571" lon="14.6876506"><ele>53.75</ele><time>2026-03-28T11:31:48.123Z</time></trkpt><trkpt lat="53.297501" lon="14.6878623"><ele>53.5</ele><time>2026-03-28T11:31:49.114Z</time></trkpt><trkpt lat="53.2974498" lon="14.6880662"><ele>53.25</ele><time>2026-03-28T11:31:50.117Z</time></trkpt><trkpt lat="53.2974046" lon="14.6882648"><ele>53.0</ele><time>2026-03-28T11:31:51.116Z</time></trkpt><trkpt lat="53.2973558" lon="14.6884731"><ele>52.75</ele><time>2026-03-28T11:31:52.116Z</time></trkpt><trkpt lat="53.2973007" lon="14.6886917"><ele>52.5</ele><time>2026-03-28T11:31:53.118Z</time></trkpt><trkpt lat="53.2972355" lon="14.6889162"><ele>52.25</ele><time>2026-03-28T11:31:54.109Z</time></trkpt><trkpt lat="53.2971683" lon="14.6891354"><ele>52.0</ele><time>2026-03-28T11:31:55.107Z</time></trkpt><trkpt lat="53.2971049" lon="14.689349"><ele>51.666666666666664</ele><time>2026-03-28T11:31:56.113Z</time></trkpt><trkpt lat="53.2969885" lon="14.6897794"><ele>51.33333333333333</ele><time>2026-03-28T11:31:58.116Z</time></trkpt><trkpt lat="53.2969408" lon="14.6899949"><ele>51.0</ele><time>2026-03-28T11:31:59.116Z</time></trkpt><trkpt lat="53.2969001" lon="14.690206"><ele>50.75</ele><time>2026-03-28T11:32:00.117Z</time></trkpt><trkpt lat="53.2968624" lon="14.6904212"><ele>50.5</ele><time>2026-03-28T11:32:01.111Z</time></trkpt><trkpt lat="53.2968263" lon="14.6906555"><ele>50.25</ele><time>2026-03-28T11:32:02.107Z</time></trkpt><trkpt lat="53.296797" lon="14.6908963"><ele>50.0</ele><time>2026-03-28T11:32:03.112Z</time></trkpt><trkpt lat="53.296761" lon="14.6911413"><ele>50.5</ele><time>2026-03-28T11:32:04.117Z</time></trkpt><trkpt lat="53.2967441" lon="14.6913599"><ele>51.0</ele><time>2026-03-28T11:32:05.138Z</time></trkpt><trkpt lat="53.2967371" lon="14.6915437"><ele>51.5</ele><time>2026-03-28T11:32:06.125Z</time></trkpt><trkpt lat="53.2967513" lon="14.6917144"><ele>52.0</ele><time>2026-03-28T11:32:07.121Z</time></trkpt><trkpt lat="53.2967841" lon="14.6918927"><ele>52.0</ele><time>2026-03-28T11:32:08.115Z</time></trkpt><trkpt lat="53.2968272" lon="14.6920955"><ele>52.0</ele><time>2026-03-28T11:32:09.127Z</time></trkpt><trkpt lat="53.2968716" lon="14.6923206"><ele>52.0</ele><time>2026-03-28T11:32:10.115Z</time></trkpt><trkpt lat="53.2969304" lon="14.6925614"><ele>52.0</ele><time>2026-03-28T11:32:11.118Z</time></trkpt><trkpt lat="53.296987" lon="14.6928071"><ele>51.75</ele><time>2026-03-28T11:32:12.121Z</time></trkpt><trkpt lat="53.2970383" lon="14.69305"><ele>51.5</ele><time>2026-03-28T11:32:13.13Z</time></trkpt><trkpt lat="53.2970885" lon="14.6932828"><ele>51.25</ele><time>2026-03-28T11:32:14.115Z</time></trkpt><trkpt lat="53.2971256" lon="14.6935188"><ele>51.0</ele><time>2026-03-28T11:32:15.12Z</time></trkpt><trkpt lat="53.297158" lon="14.6937396"><ele>51.0</ele><time>2026-03-28T11:32:16.117Z</time></trkpt><trkpt lat="53.2971865" lon="14.6939441"><ele>51.0</ele><time>2026-03-28T11:32:17.114Z</time></trkpt><trkpt lat="53.2972489" lon="14.6943003"><ele>51.0</ele><time>2026-03-28T11:32:19.117Z</time></trkpt><trkpt lat="53.2972857" lon="14.6944493"><ele>51.0</ele><time>2026-03-28T11:32:20.117Z</time></trkpt><trkpt lat="53.2973168" lon="14.6945807"><ele>51.0</ele><time>2026-03-28T11:32:21.13Z</time></trkpt><trkpt lat="53.2973424" lon="14.6946956"><ele>51.0</ele><time>2026-03-28T11:32:22.118Z</time></trkpt><trkpt lat="53.2973616" lon="14.6948016"><ele>51.0</ele><time>2026-03-28T11:32:23.113Z</time></trkpt><trkpt lat="53.2973805" lon="14.6950091"><ele>51.0</ele><time>2026-03-28T11:32:25.117Z</time></trkpt><trkpt lat="53.2973903" lon="14.6951176"><ele>51.0</ele><time>2026-03-28T11:32:26.121Z</time></trkpt><trkpt lat="53.297397" lon="14.6952345"><ele>51.0</ele><time>2026-03-28T11:32:27.117Z</time></trkpt><trkpt lat="53.2974019" lon="14.6953422"><ele>51.599999999999994</ele><time>2026-03-28T11:32:28.11Z</time></trkpt><trkpt lat="53.2974001" lon="14.6954503"><ele>52.2</ele><time>2026-03-28T11:32:29.115Z</time></trkpt><trkpt lat="53.2973914" lon="14.6956313"><ele>52.800000000000004</ele><time>2026-03-28T11:32:31.107Z</time></trkpt><trkpt lat="53.2973788" lon="14.69582"><ele>53.400000000000006</ele><time>2026-03-28T11:32:33.108Z</time></trkpt><trkpt lat="53.2973673" lon="14.6960058"><ele>54.0</ele><time>2026-03-28T11:32:35.118Z</time></trkpt><trkpt lat="53.2973528" lon="14.6961723"><ele>54.0</ele><time>2026-03-28T11:32:37.115Z</time></trkpt><trkpt lat="53.2974172" lon="14.6962125"><ele>54.00000000000001</ele><time>2026-03-28T11:34:30.117Z</time></trkpt><trkpt lat="53.2974614" lon="14.6959685"><ele>54.00000000000001</ele><time>2026-03-28T11:34:33.104Z</time></trkpt><trkpt lat="53.2974632" lon="14.6957537"><ele>54.0</ele><time>2026-03-28T11:34:35.109Z</time></trkpt><trkpt lat="53.2974602" lon="14.6956175"><ele>54.0</ele><time>2026-03-28T11:34:37.116Z</time></trkpt><trkpt lat="53.2974629" lon="14.6954271"><ele>53.25</ele><time>2026-03-28T11:34:38.105Z</time></trkpt><trkpt lat="53.2974628" lon="14.6952229"><ele>52.5</ele><time>2026-03-28T11:34:39.114Z</time></trkpt><trkpt lat="53.2974569" lon="14.695039"><ele>51.75</ele><time>2026-03-28T11:34:40.118Z</time></trkpt><trkpt lat="53.2974403" lon="14.6948437"><ele>51.0</ele><time>2026-03-28T11:34:41.129Z</time></trkpt><trkpt lat="53.2974181" lon="14.6946511"><ele>51.0</ele><time>2026-03-28T11:34:42.116Z</time></trkpt><trkpt lat="53.2973895" lon="14.6944718"><ele>51.0</ele><time>2026-03-28T11:34:43.114Z</time></trkpt><trkpt lat="53.2973501" lon="14.6943088"><ele>51.0</ele><time>2026-03-28T11:34:44.118Z</time></trkpt><trkpt lat="53.2973092" lon="14.6941448"><ele>51.0</ele><time>2026-03-28T11:34:45.114Z</time></trkpt><trkpt lat="53.2972702" lon="14.6939603"><ele>51.0</ele><time>2026-03-28T11:34:46.129Z</time></trkpt><trkpt lat="53.2972303" lon="14.6937764"><ele>51.0</ele><time>2026-03-28T11:34:47.114Z</time></trkpt><trkpt lat="53.2971891" lon="14.6935955"><ele>51.0</ele><time>2026-03-28T11:34:48.115Z</time></trkpt><trkpt lat="53.297153" lon="14.6934219"><ele>51.0</ele><time>2026-03-28T11:34:49.119Z</time></trkpt><trkpt lat="53.2971218" lon="14.6932453"><ele>51.0</ele><time>2026-03-28T11:34:50.121Z</time></trkpt><trkpt lat="53.2970891" lon="14.6930706"><ele>51.0</ele><time>2026-03-28T11:34:51.116Z</time></trkpt><trkpt lat="53.2970062" lon="14.6927019"><ele>51.199999999999996</ele><time>2026-03-28T11:34:53.124Z</time></trkpt><trkpt lat="53.2969675" lon="14.6925142"><ele>51.4</ele><time>2026-03-28T11:34:54.129Z</time></trkpt><trkpt lat="53.2969355" lon="14.6923433"><ele>51.6</ele><time>2026-03-28T11:34:55.115Z</time></trkpt><trkpt lat="53.2969013" lon="14.692171"><ele>51.8</ele><time>2026-03-28T11:34:56.119Z</time></trkpt><trkpt lat="53.2968666" lon="14.6920064"><ele>52.0</ele><time>2026-03-28T11:34:57.128Z</time></trkpt><trkpt lat="53.2968293" lon="14.6918701"><ele>51.99999999999999</ele><time>2026-03-28T11:34:58.12Z</time></trkpt><trkpt lat="53.2967926" lon="14.6917469"><ele>52.0</ele><time>2026-03-28T11:34:59.12Z</time></trkpt><trkpt lat="53.2967612" lon="14.6916317"><ele>52.0</ele><time>2026-03-28T11:35:00.116Z</time></trkpt><trkpt lat="53.2967352" lon="14.691522"><ele>52.0</ele><time>2026-03-28T11:35:01.129Z</time></trkpt><trkpt lat="53.2967292" lon="14.6913754"><ele>51.99999999999999</ele><time>2026-03-28T11:35:03.125Z</time></trkpt><trkpt lat="53.29675" lon="14.6912698"><ele>52.0</ele><time>2026-03-28T11:35:05.115Z</time></trkpt><trkpt lat="53.2966844" lon="14.6911415"><ele>51.99999999999999</ele><time>2026-03-28T11:35:25.115Z</time></trkpt><trkpt lat="53.2966495" lon="14.6913464"><ele>52.0</ele><time>2026-03-28T11:36:22.112Z</time></trkpt><trkpt lat="53.296627" lon="14.6914449"><ele>52.0</ele><time>2026-03-28T11:36:25.121Z</time></trkpt><trkpt lat="53.2965488" lon="14.6914531"><ele>52.0</ele><time>2026-03-28T11:36:28.118Z</time></trkpt><trkpt lat="53.2964887" lon="14.6914956"><ele>51.99999999999999</ele><time>2026-03-28T11:36:30.111Z</time></trkpt><trkpt lat="53.2964314" lon="14.6915407"><ele>52.0</ele><time>2026-03-28T11:36:32.124Z</time></trkpt><trkpt lat="53.2962773" lon="14.6915601"><ele>51.49999999999999</ele><time>2026-03-28T11:36:37.122Z</time></trkpt><trkpt lat="53.2962057" lon="14.6915675"><ele>51.0</ele><time>2026-03-28T11:36:42.115Z</time></trkpt><trkpt lat="53.2961481" lon="14.6916418"><ele>50.5</ele><time>2026-03-28T11:36:45.114Z</time></trkpt><trkpt lat="53.2960793" lon="14.6916136"><ele>50.0</ele><time>2026-03-28T11:36:48.083Z</time></trkpt><trkpt lat="53.2960517" lon="14.6915091"><ele>49.49999999999999</ele><time>2026-03-28T11:36:52.116Z</time></trkpt><trkpt lat="53.2959823" lon="14.6914592"><ele>49.0</ele><time>2026-03-28T11:36:56.117Z</time></trkpt><trkpt lat="53.2958598" lon="14.6915541"><ele>49.0</ele><time>2026-03-28T11:37:12.11Z</time></trkpt><trkpt lat="53.2958063" lon="14.6916321"><ele>49.0</ele><time>2026-03-28T11:37:17.11Z</time></trkpt><trkpt lat="53.2958072" lon="14.6918171"><ele>49.0</ele><time>2026-03-28T11:37:40.11Z</time></trkpt><trkpt lat="53.2959232" lon="14.6917433"><ele>49.0</ele><time>2026-03-28T11:37:48.11Z</time></trkpt><trkpt lat="53.2959768" lon="14.69168"><ele>49.0</ele><time>2026-03-28T11:37:50.106Z</time></trkpt><trkpt lat="53.2960769" lon="14.6916676"><ele>49.0</ele><time>2026-03-28T11:37:55.112Z</time></trkpt><trkpt lat="53.2961523" lon="14.6916528"><ele>49.0</ele><time>2026-03-28T11:37:59.041Z</time></trkpt><trkpt lat="53.2962258" lon="14.691679"><ele>49.0</ele><time>2026-03-28T11:38:03.111Z</time></trkpt><trkpt lat="53.2963938" lon="14.6916973"><ele>49.0</ele><time>2026-03-28T11:38:11.116Z</time></trkpt><trkpt lat="53.2964685" lon="14.6917228"><ele>49.0</ele><time>2026-03-28T11:38:14.114Z</time></trkpt><trkpt lat="53.2965376" lon="14.6917836"><ele>49.6</ele><time>2026-03-28T11:38:17.111Z</time></trkpt><trkpt lat="53.2966111" lon="14.6918645"><ele>50.2</ele><time>2026-03-28T11:38:20.12Z</time></trkpt><trkpt lat="53.2966643" lon="14.6919919"><ele>50.800000000000004</ele><time>2026-03-28T11:38:23.115Z</time></trkpt><trkpt lat="53.2967195" lon="14.6920916"><ele>51.400000000000006</ele><time>2026-03-28T11:38:26.062Z</time></trkpt><trkpt lat="53.2967852" lon="14.6923173"><ele>52.0</ele><time>2026-03-28T11:38:29.109Z</time></trkpt><trkpt lat="53.2968136" lon="14.69242"><ele>51.99999999999999</ele><time>2026-03-28T11:38:30.12Z</time></trkpt><trkpt lat="53.2968386" lon="14.6925236"><ele>52.0</ele><time>2026-03-28T11:38:31.123Z</time></trkpt><trkpt lat="53.296886" lon="14.6927253"><ele>52.0</ele><time>2026-03-28T11:38:33.109Z</time></trkpt><trkpt lat="53.2969123" lon="14.6928434"><ele>52.0</ele><time>2026-03-28T11:38:34.126Z</time></trkpt><trkpt lat="53.2969386" lon="14.6929692"><ele>51.99999999999999</ele><time>2026-03-28T11:38:35.108Z</time></trkpt><trkpt lat="53.2969666" lon="14.6931077"><ele>52.0</ele><time>2026-03-28T11:38:36.112Z</time></trkpt><trkpt lat="53.2970041" lon="14.6932533"><ele>51.8</ele><time>2026-03-28T11:38:37.114Z</time></trkpt><trkpt lat="53.2970406" lon="14.6934054"><ele>51.6</ele><time>2026-03-28T11:38:38.115Z</time></trkpt><trkpt lat="53.2970753" lon="14.693568"><ele>51.4</ele><time>2026-03-28T11:38:39.119Z</time></trkpt><trkpt lat="53.2971104" lon="14.6937366"><ele>51.199999999999996</ele><time>2026-03-28T11:38:40.123Z</time></trkpt><trkpt lat="53.297148" lon="14.6939085"><ele>51.0</ele><time>2026-03-28T11:38:41.113Z</time></trkpt><trkpt lat="53.297187" lon="14.6940885"><ele>51.0</ele><time>2026-03-28T11:38:42.116Z</time></trkpt><trkpt lat="53.2972308" lon="14.6942694"><ele>51.0</ele><time>2026-03-28T11:38:43.113Z</time></trkpt><trkpt lat="53.297271" lon="14.6944548"><ele>51.0</ele><time>2026-03-28T11:38:44.12Z</time></trkpt><trkpt lat="53.2973039" lon="14.6946385"><ele>51.0</ele><time>2026-03-28T11:38:45.106Z</time></trkpt><trkpt lat="53.2973269" lon="14.6948159"><ele>51.0</ele><time>2026-03-28T11:38:46.117Z</time></trkpt><trkpt lat="53.2973418" lon="14.6949906"><ele>51.0</ele><time>2026-03-28T11:38:47.116Z</time></trkpt><trkpt lat="53.2973604" lon="14.6953403"><ele>51.0</ele><time>2026-03-28T11:38:49.116Z</time></trkpt><trkpt lat="53.2973615" lon="14.6955108"><ele>51.0</ele><time>2026-03-28T11:38:50.108Z</time></trkpt><trkpt lat="53.2973596" lon="14.6956842"><ele>51.75</ele><time>2026-03-28T11:38:51.116Z</time></trkpt><trkpt lat="53.2973519" lon="14.6958616"><ele>52.5</ele><time>2026-03-28T11:38:52.112Z</time></trkpt><trkpt lat="53.2973415" lon="14.6960493"><ele>53.25</ele><time>2026-03-28T11:38:53.126Z</time></trkpt><trkpt lat="53.2973255" lon="14.6962425"><ele>54.0</ele><time>2026-03-28T11:38:54.114Z</time></trkpt><trkpt lat="53.2973027" lon="14.6964348"><ele>54.25</ele><time>2026-03-28T11:38:55.118Z</time></trkpt><trkpt lat="53.2972755" lon="14.6966282"><ele>54.5</ele><time>2026-03-28T11:38:56.12Z</time></trkpt><trkpt lat="53.2972479" lon="14.6968251"><ele>54.75</ele><time>2026-03-28T11:38:57.123Z</time></trkpt><trkpt lat="53.2972194" lon="14.697027"><ele>55.0</ele><time>2026-03-28T11:38:58.105Z</time></trkpt><trkpt lat="53.2971877" lon="14.6972372"><ele>54.0</ele><time>2026-03-28T11:38:59.107Z</time></trkpt><trkpt lat="53.2971542" lon="14.6974482"><ele>53.0</ele><time>2026-03-28T11:39:00.112Z</time></trkpt><trkpt lat="53.2971233" lon="14.6976463"><ele>52.0</ele><time>2026-03-28T11:39:01.115Z</time></trkpt><trkpt lat="53.2970933" lon="14.6978377"><ele>51.0</ele><time>2026-03-28T11:39:02.127Z</time></trkpt><trkpt lat="53.2970664" lon="14.698019"><ele>50.5</ele><time>2026-03-28T11:39:03.117Z</time></trkpt><trkpt lat="53.2970373" lon="14.6981914"><ele>50.0</ele><time>2026-03-28T11:39:04.107Z</time></trkpt><trkpt lat="53.297002" lon="14.6983652"><ele>49.5</ele><time>2026-03-28T11:39:05.125Z</time></trkpt><trkpt lat="53.2969655" lon="14.6985436"><ele>49.0</ele><time>2026-03-28T11:39:06.115Z</time></trkpt><trkpt lat="53.2969248" lon="14.6987333"><ele>49.0</ele><time>2026-03-28T11:39:07.108Z</time></trkpt><trkpt lat="53.296884" lon="14.6989316"><ele>49.0</ele><time>2026-03-28T11:39:08.11Z</time></trkpt><trkpt lat="53.2968068" lon="14.6993327"><ele>49.0</ele><time>2026-03-28T11:39:10.112Z</time></trkpt><trkpt lat="53.29677" lon="14.6995311"><ele>49.25</ele><time>2026-03-28T11:39:11.113Z</time></trkpt><trkpt lat="53.2967358" lon="14.6997261"><ele>49.5</ele><time>2026-03-28T11:39:12.118Z</time></trkpt><trkpt lat="53.2966981" lon="14.6999236"><ele>49.75</ele><time>2026-03-28T11:39:13.125Z</time></trkpt><trkpt lat="53.2966625" lon="14.7001176"><ele>50.0</ele><time>2026-03-28T11:39:14.111Z</time></trkpt><trkpt lat="53.2966286" lon="14.7003062"><ele>51.0</ele><time>2026-03-28T11:39:15.106Z</time></trkpt><trkpt lat="53.2965953" lon="14.7004936"><ele>52.0</ele><time>2026-03-28T11:39:16.114Z</time></trkpt><trkpt lat="53.2965621" lon="14.7006785"><ele>53.0</ele><time>2026-03-28T11:39:17.113Z</time></trkpt><trkpt lat="53.2965278" lon="14.7008612"><ele>54.0</ele><time>2026-03-28T11:39:18.119Z</time></trkpt><trkpt lat="53.2964915" lon="14.7010438"><ele>55.400000000000006</ele><time>2026-03-28T11:39:19.118Z</time></trkpt><trkpt lat="53.2964543" lon="14.7012253"><ele>56.800000000000004</ele><time>2026-03-28T11:39:20.114Z</time></trkpt><trkpt lat="53.2964172" lon="14.701404"><ele>58.199999999999996</ele><time>2026-03-28T11:39:21.13Z</time></trkpt><trkpt lat="53.2963834" lon="14.7015621"><ele>59.599999999999994</ele><time>2026-03-28T11:39:22.11Z</time></trkpt><trkpt lat="53.2963528" lon="14.7016988"><ele>61.0</ele><time>2026-03-28T11:39:23.115Z</time></trkpt><trkpt lat="53.2963243" lon="14.7018084"><ele>59.99999999999999</ele><time>2026-03-28T11:39:24.106Z</time></trkpt><trkpt lat="53.2962911" lon="14.7019023"><ele>59.0</ele><time>2026-03-28T11:39:25.135Z</time></trkpt><trkpt lat="53.2962454" lon="14.7019891"><ele>58.0</ele><time>2026-03-28T11:39:26.116Z</time></trkpt><trkpt lat="53.296187" lon="14.7020878"><ele>57.0</ele><time>2026-03-28T11:39:27.112Z</time></trkpt><trkpt lat="53.2961207" lon="14.7022035"><ele>55.99999999999999</ele><time>2026-03-28T11:39:28.114Z</time></trkpt><trkpt lat="53.2960537" lon="14.7023398"><ele>55.0</ele><time>2026-03-28T11:39:29.122Z</time></trkpt><trkpt lat="53.2958913" lon="14.7026183"><ele>55.0</ele><time>2026-03-28T11:39:31.115Z</time></trkpt><trkpt lat="53.2958047" lon="14.702737"><ele>55.0</ele><time>2026-03-28T11:39:32.114Z</time></trkpt><trkpt lat="53.2957252" lon="14.7028349"><ele>55.0</ele><time>2026-03-28T11:39:33.12Z</time></trkpt><trkpt lat="53.295651" lon="14.7029114"><ele>55.0</ele><time>2026-03-28T11:39:34.114Z</time></trkpt><trkpt lat="53.2955735" lon="14.7029658"><ele>55.0</ele><time>2026-03-28T11:39:35.122Z</time></trkpt><trkpt lat="53.2954891" lon="14.7029992"><ele>57.75</ele><time>2026-03-28T11:39:36.116Z</time></trkpt><trkpt lat="53.2953947" lon="14.703016"><ele>60.5</ele><time>2026-03-28T11:39:37.117Z</time></trkpt><trkpt lat="53.2952649" lon="14.7029823"><ele>63.25</ele><time>2026-03-28T11:39:38.116Z</time></trkpt><trkpt lat="53.2951094" lon="14.7029185"><ele>66.0</ele><time>2026-03-28T11:39:39.129Z</time></trkpt><trkpt lat="53.2949522" lon="14.7028479"><ele>66.0</ele><time>2026-03-28T11:39:40.11Z</time></trkpt><trkpt lat="53.2948048" lon="14.7027692"><ele>66.0</ele><time>2026-03-28T11:39:41.106Z</time></trkpt><trkpt lat="53.2946704" lon="14.702698"><ele>66.0</ele><time>2026-03-28T11:39:42.11Z</time></trkpt><trkpt lat="53.2945523" lon="14.7026408"><ele>66.0</ele><time>2026-03-28T11:39:43.114Z</time></trkpt><trkpt lat="53.2944475" lon="14.7025957"><ele>64.8</ele><time>2026-03-28T11:39:44.116Z</time></trkpt><trkpt lat="53.2943471" lon="14.7025606"><ele>63.599999999999994</ele><time>2026-03-28T11:39:45.12Z</time></trkpt><trkpt lat="53.2942548" lon="14.7025509"><ele>62.4</ele><time>2026-03-28T11:39:46.109Z</time></trkpt><trkpt lat="53.2941651" lon="14.7025767"><ele>61.2</ele><time>2026-03-28T11:39:47.113Z</time></trkpt><trkpt lat="53.294083" lon="14.7026559"><ele>60.0</ele><time>2026-03-28T11:39:48.115Z</time></trkpt><trkpt lat="53.2940103" lon="14.7027754"><ele>60.0</ele><time>2026-03-28T11:39:49.121Z</time></trkpt><trkpt lat="53.2939441" lon="14.7029193"><ele>60.0</ele><time>2026-03-28T11:39:50.119Z</time></trkpt><trkpt lat="53.293814" lon="14.7032295"><ele>60.0</ele><time>2026-03-28T11:39:52.118Z</time></trkpt><trkpt lat="53.2937462" lon="14.7033861"><ele>57.0</ele><time>2026-03-28T11:39:53.13Z</time></trkpt><trkpt lat="53.2936775" lon="14.7035447"><ele>54.0</ele><time>2026-03-28T11:39:54.106Z</time></trkpt><trkpt lat="53.2936108" lon="14.7037171"><ele>51.0</ele><time>2026-03-28T11:39:55.13Z</time></trkpt><trkpt lat="53.293542" lon="14.703888"><ele>48.0</ele><time>2026-03-28T11:39:56.116Z</time></trkpt><trkpt lat="53.2934676" lon="14.7040669"><ele>48.0</ele><time>2026-03-28T11:39:57.118Z</time></trkpt><trkpt lat="53.2933909" lon="14.7042532"><ele>48.0</ele><time>2026-03-28T11:39:58.112Z</time></trkpt><trkpt lat="53.293308" lon="14.7044449"><ele>48.0</ele><time>2026-03-28T11:39:59.125Z</time></trkpt><trkpt lat="53.2932193" lon="14.70464"><ele>48.0</ele><time>2026-03-28T11:40:00.112Z</time></trkpt><trkpt lat="53.2931286" lon="14.7048407"><ele>47.25</ele><time>2026-03-28T11:40:01.115Z</time></trkpt><trkpt lat="53.2930408" lon="14.7050376"><ele>46.5</ele><time>2026-03-28T11:40:02.118Z</time></trkpt><trkpt lat="53.2929551" lon="14.7052188"><ele>45.75</ele><time>2026-03-28T11:40:03.115Z</time></trkpt><trkpt lat="53.29287" lon="14.7053821"><ele>45.0</ele><time>2026-03-28T11:40:04.116Z</time></trkpt><trkpt lat="53.2927864" lon="14.7055295"><ele>45.0</ele><time>2026-03-28T11:40:05.112Z</time></trkpt><trkpt lat="53.2926999" lon="14.7056582"><ele>45.0</ele><time>2026-03-28T11:40:06.122Z</time></trkpt><trkpt lat="53.2926168" lon="14.7057749"><ele>45.0</ele><time>2026-03-28T11:40:07.109Z</time></trkpt><trkpt lat="53.292522" lon="14.7058723"><ele>45.0</ele><time>2026-03-28T11:40:08.108Z</time></trkpt><trkpt lat="53.2924276" lon="14.7059445"><ele>45.0</ele><time>2026-03-28T11:40:09.124Z</time></trkpt><trkpt lat="53.2923375" lon="14.7060037"><ele>45.2</ele><time>2026-03-28T11:40:10.112Z</time></trkpt><trkpt lat="53.2922514" lon="14.706063"><ele>45.4</ele><time>2026-03-28T11:40:11.114Z</time></trkpt><trkpt lat="53.2921038" lon="14.7061908"><ele>45.599999999999994</ele><time>2026-03-28T11:40:13.117Z</time></trkpt><trkpt lat="53.2920392" lon="14.7062549"><ele>45.8</ele><time>2026-03-28T11:40:14.11Z</time></trkpt><trkpt lat="53.2919799" lon="14.7063108"><ele>46.0</ele><time>2026-03-28T11:40:15.128Z</time></trkpt><trkpt lat="53.2919173" lon="14.7063584"><ele>46.0</ele><time>2026-03-28T11:40:16.114Z</time></trkpt><trkpt lat="53.2918554" lon="14.7064094"><ele>46.0</ele><time>2026-03-28T11:40:17.117Z</time></trkpt><trkpt lat="53.29179" lon="14.7064741"><ele>46.0</ele><time>2026-03-28T11:40:18.113Z</time></trkpt><trkpt lat="53.2917247" lon="14.7065589"><ele>46.0</ele><time>2026-03-28T11:40:19.118Z</time></trkpt><trkpt lat="53.2916666" lon="14.7066629"><ele>46.0</ele><time>2026-03-28T11:40:20.109Z</time></trkpt><trkpt lat="53.291612" lon="14.706777"><ele>46.0</ele><time>2026-03-28T11:40:21.113Z</time></trkpt><trkpt lat="53.2915618" lon="14.7068965"><ele>44.833333333333336</ele><time>2026-03-28T11:40:22.113Z</time></trkpt><trkpt lat="53.2915121" lon="14.707015"><ele>43.66666666666667</ele><time>2026-03-28T11:40:23.111Z</time></trkpt><trkpt lat="53.2914639" lon="14.7071256"><ele>42.5</ele><time>2026-03-28T11:40:24.111Z</time></trkpt><trkpt lat="53.2914227" lon="14.7072202"><ele>41.333333333333336</ele><time>2026-03-28T11:40:25.113Z</time></trkpt><trkpt lat="53.291354" lon="14.7073349"><ele>40.166666666666664</ele><time>2026-03-28T11:40:27.117Z</time></trkpt><trkpt lat="53.2912905" lon="14.7073397"><ele>39.0</ele><time>2026-03-28T11:40:29.114Z</time></trkpt><trkpt lat="53.2912946" lon="14.7072304"><ele>39.0</ele><time>2026-03-28T11:40:31.112Z</time></trkpt><trkpt lat="53.2913272" lon="14.7071226"><ele>39.0</ele><time>2026-03-28T11:40:32.105Z</time></trkpt><trkpt lat="53.2914429" lon="14.7068284"><ele>39.0</ele><time>2026-03-28T11:40:34.114Z</time></trkpt><trkpt lat="53.2914925" lon="14.7067021"><ele>39.0</ele><time>2026-03-28T11:40:35.11Z</time></trkpt><trkpt lat="53.2915311" lon="14.7065796"><ele>38.333333333333336</ele><time>2026-03-28T11:40:36.121Z</time></trkpt><trkpt lat="53.2915633" lon="14.7064595"><ele>37.666666666666664</ele><time>2026-03-28T11:40:37.111Z</time></trkpt><trkpt lat="53.2915864" lon="14.7063564"><ele>37.0</ele><time>2026-03-28T11:40:38.107Z</time></trkpt><trkpt lat="53.2916201" lon="14.706195"><ele>36.33333333333333</ele><time>2026-03-28T11:40:40.116Z</time></trkpt><trkpt lat="53.2916271" lon="14.706084"><ele>35.666666666666664</ele><time>2026-03-28T11:40:42.112Z</time></trkpt><trkpt lat="53.2915939" lon="14.7059728"><ele>35.0</ele><time>2026-03-28T11:40:44.113Z</time></trkpt><trkpt lat="53.2915759" lon="14.7058554"><ele>35.0</ele><time>2026-03-28T11:40:46.126Z</time></trkpt><trkpt lat="53.2915899" lon="14.7056982"><ele>35.0</ele><time>2026-03-28T11:40:49.109Z</time></trkpt><trkpt lat="53.2914636" lon="14.7057881"><ele>35.0</ele><time>2026-03-28T11:47:42.11Z</time></trkpt><trkpt lat="53.2914934" lon="14.7058358"><ele>35.0</ele><time>2026-03-28T11:52:00.113Z</time></trkpt><trkpt lat="53.2915286" lon="14.70601"><ele>35.0</ele><time>2026-03-28T11:52:02.106Z</time></trkpt><trkpt lat="53.2915559" lon="14.7061836"><ele>34.666666666666664</ele><time>2026-03-28T11:52:04.109Z</time></trkpt><trkpt lat="53.2915347" lon="14.7063107"><ele>34.33333333333333</ele><time>2026-03-28T11:52:05.125Z</time></trkpt><trkpt lat="53.2915045" lon="14.7064503"><ele>34.0</ele><time>2026-03-28T11:52:06.107Z</time></trkpt><trkpt lat="53.2914706" lon="14.7065956"><ele>33.666666666666664</ele><time>2026-03-28T11:52:07.112Z</time></trkpt><trkpt lat="53.2914335" lon="14.7067257"><ele>33.333333333333336</ele><time>2026-03-28T11:52:08.11Z</time></trkpt><trkpt lat="53.2913991" lon="14.7068479"><ele>33.0</ele><time>2026-03-28T11:52:09.116Z</time></trkpt><trkpt lat="53.2913615" lon="14.7069612"><ele>34.0</ele><time>2026-03-28T11:52:10.106Z</time></trkpt><trkpt lat="53.291331" lon="14.7070768"><ele>35.0</ele><time>2026-03-28T11:52:11.129Z</time></trkpt><trkpt lat="53.2912958" lon="14.7071878"><ele>36.0</ele><time>2026-03-28T11:52:12.108Z</time></trkpt><trkpt lat="53.2912617" lon="14.707283"><ele>37.0</ele><time>2026-03-28T11:52:13.104Z</time></trkpt><trkpt lat="53.2912572" lon="14.7074231"><ele>38.0</ele><time>2026-03-28T11:52:15.12Z</time></trkpt><trkpt lat="53.2913377" lon="14.7073878"><ele>39.0</ele><time>2026-03-28T11:52:18.107Z</time></trkpt><trkpt lat="53.2913964" lon="14.7072656"><ele>40.166666666666664</ele><time>2026-03-28T11:52:20.11Z</time></trkpt><trkpt lat="53.291436" lon="14.7071792"><ele>41.333333333333336</ele><time>2026-03-28T11:52:21.108Z</time></trkpt><trkpt lat="53.2914826" lon="14.7070764"><ele>42.5</ele><time>2026-03-28T11:52:22.107Z</time></trkpt><trkpt lat="53.2915295" lon="14.7069801"><ele>43.66666666666667</ele><time>2026-03-28T11:52:23.116Z</time></trkpt><trkpt lat="53.2915835" lon="14.7068646"><ele>44.833333333333336</ele><time>2026-03-28T11:52:24.111Z</time></trkpt><trkpt lat="53.2916403" lon="14.7067449"><ele>46.0</ele><time>2026-03-28T11:52:25.116Z</time></trkpt><trkpt lat="53.2917042" lon="14.7066306"><ele>46.0</ele><time>2026-03-28T11:52:26.109Z</time></trkpt><trkpt lat="53.2917722" lon="14.7065227"><ele>46.0</ele><time>2026-03-28T11:52:27.112Z</time></trkpt><trkpt lat="53.2918535" lon="14.706425"><ele>46.0</ele><time>2026-03-28T11:52:28.117Z</time></trkpt><trkpt lat="53.2919431" lon="14.7063388"><ele>46.0</ele><time>2026-03-28T11:52:29.111Z</time></trkpt><trkpt lat="53.2920445" lon="14.706265"><ele>46.0</ele><time>2026-03-28T11:52:30.113Z</time></trkpt><trkpt lat="53.2921509" lon="14.7061906"><ele>46.0</ele><time>2026-03-28T11:52:31.111Z</time></trkpt><trkpt lat="53.2922648" lon="14.7061191"><ele>61.0</ele><time>2026-03-28T11:52:32.117Z</time></trkpt></trkseg><trkseg><trkpt lat="53.3971893" lon="14.6752144"><ele>1.0</ele><time>2026-04-06T12:29:15.08Z</time></trkpt><trkpt lat="53.3972518" lon="14.6752308"><ele>0.9999999999999999</ele><time>2026-04-06T12:29:21.083Z</time></trkpt><trkpt lat="53.397194" lon="14.6751723"><ele>1.0</ele><time>2026-04-06T12:29:34.084Z</time></trkpt><trkpt lat="53.3971384" lon="14.6750767"><ele>1.0</ele><time>2026-04-06T12:30:16.079Z</time></trkpt><trkpt lat="53.3971369" lon="14.6749455"><ele>0.9999999999999999</ele><time>2026-04-06T12:30:19.115Z</time></trkpt><trkpt lat="53.397163" lon="14.6748469"><ele>1.0</ele><time>2026-04-06T12:30:23.086Z</time></trkpt><trkpt lat="53.3971713" lon="14.6747167"><ele>1.0</ele><time>2026-04-06T12:30:27.079Z</time></trkpt><trkpt lat="53.3971406" lon="14.6745942"><ele>1.1666666666666665</ele><time>2026-04-06T12:30:30.079Z</time></trkpt><trkpt lat="53.397042" lon="14.6745696"><ele>1.3333333333333333</ele><time>2026-04-06T12:30:33.076Z</time></trkpt><trkpt lat="53.3969666" lon="14.6746013"><ele>1.5</ele><time>2026-04-06T12:30:35.08Z</time></trkpt><trkpt lat="53.3968985" lon="14.6746537"><ele>1.6666666666666665</ele><time>2026-04-06T12:30:37.077Z</time></trkpt><trkpt lat="53.3968456" lon="14.6747181"><ele>1.8333333333333333</ele><time>2026-04-06T12:30:39.076Z</time></trkpt><trkpt lat="53.3968478" lon="14.6748623"><ele>2.0</ele><time>2026-04-06T12:30:41.089Z</time></trkpt><trkpt lat="53.3968766" lon="14.6749588"><ele>2.0</ele><time>2026-04-06T12:30:42.09Z</time></trkpt><trkpt lat="53.3969158" lon="14.6750658"><ele>2.0</ele><time>2026-04-06T12:30:43.081Z</time></trkpt><trkpt lat="53.3969616" lon="14.6752058"><ele>2.0</ele><time>2026-04-06T12:30:44.078Z</time></trkpt><trkpt lat="53.3970032" lon="14.6753579"><ele>2.0</ele><time>2026-04-06T12:30:45.086Z</time></trkpt><trkpt lat="53.3970467" lon="14.6754961"><ele>2.0</ele><time>2026-04-06T12:30:46.082Z</time></trkpt><trkpt lat="53.3970913" lon="14.6756257"><ele>2.0</ele><time>2026-04-06T12:30:47.077Z</time></trkpt><trkpt lat="53.3971365" lon="14.6757467"><ele>2.0</ele><time>2026-04-06T12:30:48.097Z</time></trkpt><trkpt lat="53.3971829" lon="14.6758752"><ele>2.0</ele><time>2026-04-06T12:30:49.092Z</time></trkpt><trkpt lat="53.3972323" lon="14.6760122"><ele>2.0</ele><time>2026-04-06T12:30:50.084Z</time></trkpt><trkpt lat="53.3972769" lon="14.6761472"><ele>2.0</ele><time>2026-04-06T12:30:51.079Z</time></trkpt><trkpt lat="53.3973216" lon="14.6762835"><ele>2.0</ele><time>2026-04-06T12:30:52.084Z</time></trkpt><trkpt lat="53.3973667" lon="14.676426"><ele>2.0</ele><time>2026-04-06T12:30:53.082Z</time></trkpt><trkpt lat="53.3974143" lon="14.6765681"><ele>2.0</ele><time>2026-04-06T12:30:54.076Z</time></trkpt><trkpt lat="53.3974639" lon="14.6767057"><ele>2.0</ele><time>2026-04-06T12:30:55.082Z</time></trkpt><trkpt lat="53.3975135" lon="14.676836"><ele>2.0</ele><time>2026-04-06T12:30:56.079Z</time></trkpt><trkpt lat="53.3975584" lon="14.6769621"><ele>1.9999999999999998</ele><time>2026-04-06T12:30:57.089Z</time></trkpt><trkpt lat="53.3976047" lon="14.6770867"><ele>2.0</ele><time>2026-04-06T12:30:58.085Z</time></trkpt><trkpt lat="53.3976503" lon="14.677209"><ele>2.0</ele><time>2026-04-06T12:30:59.081Z</time></trkpt><trkpt lat="53.3976966" lon="14.6773311"><ele>2.0</ele><time>2026-04-06T12:31:00.082Z</time></trkpt><trkpt lat="53.3977418" lon="14.6774544"><ele>1.9999999999999998</ele><time>2026-04-06T12:31:01.085Z</time></trkpt><trkpt lat="53.3977857" lon="14.6775806"><ele>2.0</ele><time>2026-04-06T12:31:02.086Z</time></trkpt><trkpt lat="53.397829" lon="14.6777127"><ele>2.0</ele><time>2026-04-06T12:31:03.084Z</time></trkpt><trkpt lat="53.3978737" lon="14.6778526"><ele>2.0</ele><time>2026-04-06T12:31:04.081Z</time></trkpt><trkpt lat="53.3979222" lon="14.6779962"><ele>2.0</ele><time>2026-04-06T12:31:05.093Z</time></trkpt><trkpt lat="53.3979784" lon="14.6781472"><ele>2.0</ele><time>2026-04-06T12:31:06.08Z</time></trkpt><trkpt lat="53.3980413" lon="14.6783104"><ele>2.0</ele><time>2026-04-06T12:31:07.095Z</time></trkpt><trkpt lat="53.3981061" lon="14.6784777"><ele>2.0</ele><time>2026-04-06T12:31:08.076Z</time></trkpt><trkpt lat="53.398172" lon="14.678657"><ele>2.0</ele><time>2026-04-06T12:31:09.079Z</time></trkpt><trkpt lat="53.3982425" lon="14.6788488"><ele>2.0</ele><time>2026-04-06T12:31:10.099Z</time></trkpt><trkpt lat="53.3983152" lon="14.6790471"><ele>2.0</ele><time>2026-04-06T12:31:11.081Z</time></trkpt><trkpt lat="53.3983882" lon="14.679254"><ele>2.25</ele><time>2026-04-06T12:31:12.092Z</time></trkpt><trkpt lat="53.3984641" lon="14.6794656"><ele>2.5</ele><time>2026-04-06T12:31:13.091Z</time></trkpt><trkpt lat="53.3985397" lon="14.6796817"><ele>2.75</ele><time>2026-04-06T12:31:14.076Z</time></trkpt><trkpt lat="53.3986153" lon="14.6799039"><ele>3.0</ele><time>2026-04-06T12:31:15.076Z</time></trkpt><trkpt lat="53.3986909" lon="14.6801254"><ele>3.0</ele><time>2026-04-06T12:31:16.084Z</time></trkpt><trkpt lat="53.3987692" lon="14.6803421"><ele>3.0</ele><time>2026-04-06T12:31:17.093Z</time></trkpt><trkpt lat="53.3988511" lon="14.6805527"><ele>3.0</ele><time>2026-04-06T12:31:18.087Z</time></trkpt><trkpt lat="53.3989302" lon="14.680761"><ele>3.0</ele><time>2026-04-06T12:31:19.078Z</time></trkpt><trkpt lat="53.399008" lon="14.6809721"><ele>3.25</ele><time>2026-04-06T12:31:20.083Z</time></trkpt><trkpt lat="53.3990818" lon="14.6811794"><ele>3.5</ele><time>2026-04-06T12:31:21.088Z</time></trkpt><trkpt lat="53.3991488" lon="14.6813813"><ele>3.75</ele><time>2026-04-06T12:31:22.09Z</time></trkpt><trkpt lat="53.3992165" lon="14.6815801"><ele>4.0</ele><time>2026-04-06T12:31:23.095Z</time></trkpt><trkpt lat="53.3992863" lon="14.681772"><ele>4.2</ele><time>2026-04-06T12:31:24.089Z</time></trkpt><trkpt lat="53.399351" lon="14.6819535"><ele>4.4</ele><time>2026-04-06T12:31:25.085Z</time></trkpt><trkpt lat="53.3994116" lon="14.6821172"><ele>4.6</ele><time>2026-04-06T12:31:26.094Z</time></trkpt><trkpt lat="53.3994654" lon="14.6822606"><ele>4.8</ele><time>2026-04-06T12:31:27.093Z</time></trkpt><trkpt lat="53.3995146" lon="14.6823945"><ele>5.0</ele><time>2026-04-06T12:31:28.089Z</time></trkpt><trkpt lat="53.3995576" lon="14.682527"><ele>5.0</ele><time>2026-04-06T12:31:29.1Z</time></trkpt><trkpt lat="53.3995989" lon="14.6826443"><ele>5.0</ele><time>2026-04-06T12:31:30.092Z</time></trkpt><trkpt lat="53.3996382" lon="14.6827529"><ele>5.0</ele><time>2026-04-06T12:31:31.095Z</time></trkpt><trkpt lat="53.3996746" lon="14.682857"><ele>5.0</ele><time>2026-04-06T12:31:32.084Z</time></trkpt><trkpt lat="53.3997086" lon="14.6829534"><ele>5.0</ele><time>2026-04-06T12:31:33.083Z</time></trkpt><trkpt lat="53.3997401" lon="14.6830485"><ele>5.0</ele><time>2026-04-06T12:31:34.091Z</time></trkpt><trkpt lat="53.3997993" lon="14.6832227"><ele>5.0</ele><time>2026-04-06T12:31:36.085Z</time></trkpt><trkpt lat="53.3998561" lon="14.6833906"><ele>5.0</ele><time>2026-04-06T12:31:38.078Z</time></trkpt><trkpt lat="53.3999137" lon="14.6835497"><ele>5.0</ele><time>2026-04-06T12:31:40.077Z</time></trkpt><trkpt lat="53.3999729" lon="14.6837242"><ele>5.0</ele><time>2026-04-06T12:31:42.09Z</time></trkpt><trkpt lat="53.4000321" lon="14.6839063"><ele>5.166666666666667</ele><time>2026-04-06T12:31:44.086Z</time></trkpt><trkpt lat="53.400094" lon="14.6840812"><ele>5.333333333333334</ele><time>2026-04-06T12:31:46.08Z</time></trkpt><trkpt lat="53.4001289" lon="14.6841709"><ele>5.5</ele><time>2026-04-06T12:31:47.073Z</time></trkpt><trkpt lat="53.4001684" lon="14.6842717"><ele>5.666666666666667</ele><time>2026-04-06T12:31:48.077Z</time></trkpt><trkpt lat="53.4002091" lon="14.6843854"><ele>5.833333333333333</ele><time>2026-04-06T12:31:49.074Z</time></trkpt><trkpt lat="53.4002514" lon="14.6845059"><ele>6.0</ele><time>2026-04-06T12:31:50.082Z</time></trkpt><trkpt lat="53.4002949" lon="14.6846244"><ele>6.166666666666667</ele><time>2026-04-06T12:31:51.081Z</time></trkpt><trkpt lat="53.4003382" lon="14.6847444"><ele>6.333333333333334</ele><time>2026-04-06T12:31:52.078Z</time></trkpt><trkpt lat="53.4003823" lon="14.6848619"><ele>6.5</ele><time>2026-04-06T12:31:53.081Z</time></trkpt><trkpt lat="53.4004273" lon="14.6849831"><ele>6.666666666666667</ele><time>2026-04-06T12:31:54.077Z</time></trkpt><trkpt lat="53.4004737" lon="14.6851092"><ele>6.833333333333334</ele><time>2026-04-06T12:31:55.082Z</time></trkpt><trkpt lat="53.4005229" lon="14.6852393"><ele>7.0</ele><time>2026-04-06T12:31:56.074Z</time></trkpt><trkpt lat="53.4005797" lon="14.6853732"><ele>6.500000000000001</ele><time>2026-04-06T12:31:57.086Z</time></trkpt><trkpt lat="53.4006379" lon="14.6855017"><ele>6.0</ele><time>2026-04-06T12:31:58.083Z</time></trkpt><trkpt lat="53.4006895" lon="14.6856195"><ele>5.5</ele><time>2026-04-06T12:31:59.082Z</time></trkpt><trkpt lat="53.4007366" lon="14.6857213"><ele>5.0</ele><time>2026-04-06T12:32:00.081Z</time></trkpt><trkpt lat="53.4007796" lon="14.6858039"><ele>4.5</ele><time>2026-04-06T12:32:01.084Z</time></trkpt><trkpt lat="53.4008554" lon="14.6859197"><ele>4.0</ele><time>2026-04-06T12:32:03.092Z</time></trkpt><trkpt lat="53.4009298" lon="14.6858902"><ele>3.9999999999999996</ele><time>2026-04-06T12:32:06.074Z</time></trkpt><trkpt lat="53.4009818" lon="14.6858064"><ele>4.0</ele><time>2026-04-06T12:32:10.078Z</time></trkpt><trkpt lat="53.4010515" lon="14.6857277"><ele>4.0</ele><time>2026-04-06T12:32:14.076Z</time></trkpt><trkpt lat="53.4011091" lon="14.6856497"><ele>4.0</ele><time>2026-04-06T12:32:16.086Z</time></trkpt><trkpt lat="53.40118" lon="14.685571"><ele>3.9999999999999996</ele><time>2026-04-06T12:32:17.075Z</time></trkpt><trkpt lat="53.4012466" lon="14.6854936"><ele>4.0</ele><time>2026-04-06T12:32:18.078Z</time></trkpt><trkpt lat="53.4013124" lon="14.6854179"><ele>3.571428571428571</ele><time>2026-04-06T12:32:19.077Z</time></trkpt><trkpt lat="53.401381" lon="14.6853462"><ele>3.1428571428571423</ele><time>2026-04-06T12:32:20.083Z</time></trkpt><trkpt lat="53.4014469" lon="14.6852773"><ele>2.714285714285714</ele><time>2026-04-06T12:32:21.079Z</time></trkpt><trkpt lat="53.4015095" lon="14.6852103"><ele>2.2857142857142856</ele><time>2026-04-06T12:32:22.08Z</time></trkpt><trkpt lat="53.4015709" lon="14.6851459"><ele>1.857142857142857</ele><time>2026-04-06T12:32:23.078Z</time></trkpt><trkpt lat="53.4016269" lon="14.6850841"><ele>1.4285714285714284</ele><time>2026-04-06T12:32:24.074Z</time></trkpt><trkpt lat="53.4016815" lon="14.6850301"><ele>1.0</ele><time>2026-04-06T12:32:25.077Z</time></trkpt><trkpt lat="53.4017591" lon="14.6849621"><ele>1.0</ele><time>2026-04-06T12:32:27.076Z</time></trkpt><trkpt lat="53.4018219" lon="14.6849213"><ele>1.0</ele><time>2026-04-06T12:32:29.081Z</time></trkpt><trkpt lat="53.4018356" lon="14.6847465"><ele>1.0</ele><time>2026-04-06T12:32:30.092Z</time></trkpt><trkpt lat="53.4019016" lon="14.6850332"><ele>1.0</ele><time>2026-04-06T12:32:32.097Z</time></trkpt><trkpt lat="53.4019484" lon="14.6851914"><ele>0.9999999999999999</ele><time>2026-04-06T12:32:33.085Z</time></trkpt><trkpt lat="53.4019945" lon="14.6853044"><ele>1.0</ele><time>2026-04-06T12:32:34.078Z</time></trkpt><trkpt lat="53.4020435" lon="14.685408"><ele>1.0</ele><time>2026-04-06T12:32:35.084Z</time></trkpt><trkpt lat="53.402094" lon="14.6855082"><ele>1.0</ele><time>2026-04-06T12:32:36.078Z</time></trkpt><trkpt lat="53.4021477" lon="14.685611"><ele>0.9999999999999999</ele><time>2026-04-06T12:32:37.088Z</time></trkpt><trkpt lat="53.4022024" lon="14.6857154"><ele>1.0</ele><time>2026-04-06T12:32:38.072Z</time></trkpt><trkpt lat="53.4022607" lon="14.6858236"><ele>1.0</ele><time>2026-04-06T12:32:39.073Z</time></trkpt><trkpt lat="53.4023186" lon="14.6859379"><ele>1.0</ele><time>2026-04-06T12:32:40.077Z</time></trkpt><trkpt lat="53.4023777" lon="14.6860548"><ele>1.0</ele><time>2026-04-06T12:32:41.076Z</time></trkpt><trkpt lat="53.4024371" lon="14.6861728"><ele>1.0</ele><time>2026-04-06T12:32:42.082Z</time></trkpt><trkpt lat="53.4024949" lon="14.6862959"><ele>1.0</ele><time>2026-04-06T12:32:43.079Z</time></trkpt><trkpt lat="53.4025551" lon="14.6864211"><ele>1.0</ele><time>2026-04-06T12:32:44.086Z</time></trkpt><trkpt lat="53.4026165" lon="14.6865372"><ele>1.0</ele><time>2026-04-06T12:32:45.085Z</time></trkpt><trkpt lat="53.4026724" lon="14.6866437"><ele>1.0</ele><time>2026-04-06T12:32:46.079Z</time></trkpt><trkpt lat="53.4027199" lon="14.6867302"><ele>1.0</ele><time>2026-04-06T12:32:47.079Z</time></trkpt><trkpt lat="53.4027997" lon="14.6868608"><ele>1.0</ele><time>2026-04-06T12:32:49.088Z</time></trkpt><trkpt lat="53.4029052" lon="14.6869511"><ele>1.1666666666666665</ele><time>2026-04-06T12:32:51.075Z</time></trkpt><trkpt lat="53.4029694" lon="14.6870052"><ele>1.3333333333333333</ele><time>2026-04-06T12:32:52.078Z</time></trkpt><trkpt lat="53.4030303" lon="14.6870761"><ele>1.5</ele><time>2026-04-06T12:32:53.084Z</time></trkpt><trkpt lat="53.4030944" lon="14.6871574"><ele>1.6666666666666665</ele><time>2026-04-06T12:32:54.075Z</time></trkpt><trkpt lat="53.4031689" lon="14.6872445"><ele>1.8333333333333333</ele><time>2026-04-06T12:32:55.092Z</time></trkpt><trkpt lat="53.4032458" lon="14.6873293"><ele>2.0</ele><time>2026-04-06T12:32:56.081Z</time></trkpt><trkpt lat="53.4033254" lon="14.687398"><ele>2.333333333333333</ele><time>2026-04-06T12:32:57.084Z</time></trkpt><trkpt lat="53.403406" lon="14.6874571"><ele>2.6666666666666665</ele><time>2026-04-06T12:32:58.08Z</time></trkpt><trkpt lat="53.4034835" lon="14.687508"><ele>3.0</ele><time>2026-04-06T12:32:59.08Z</time></trkpt><trkpt lat="53.4035529" lon="14.6875362"><ele>3.333333333333333</ele><time>2026-04-06T12:33:00.076Z</time></trkpt><trkpt lat="53.4036152" lon="14.6875676"><ele>3.6666666666666665</ele><time>2026-04-06T12:33:01.084Z</time></trkpt><trkpt lat="53.4036793" lon="14.6876254"><ele>4.0</ele><time>2026-04-06T12:33:02.08Z</time></trkpt><trkpt lat="53.4037342" lon="14.6877226"><ele>3.833333333333333</ele><time>2026-04-06T12:33:03.082Z</time></trkpt><trkpt lat="53.4037775" lon="14.6878436"><ele>3.6666666666666665</ele><time>2026-04-06T12:33:04.1Z</time></trkpt><trkpt lat="53.4038179" lon="14.6879722"><ele>3.5</ele><time>2026-04-06T12:33:05.077Z</time></trkpt><trkpt lat="53.4038621" lon="14.6881067"><ele>3.333333333333333</ele><time>2026-04-06T12:33:06.082Z</time></trkpt><trkpt lat="53.4039093" lon="14.6882384"><ele>3.1666666666666665</ele><time>2026-04-06T12:33:07.087Z</time></trkpt><trkpt lat="53.4039553" lon="14.6883697"><ele>3.0</ele><time>2026-04-06T12:33:08.079Z</time></trkpt><trkpt lat="53.4040011" lon="14.6885016"><ele>3.1666666666666665</ele><time>2026-04-06T12:33:09.11Z</time></trkpt><trkpt lat="53.4040412" lon="14.6886251"><ele>3.333333333333333</ele><time>2026-04-06T12:33:10.08Z</time></trkpt><trkpt lat="53.4040811" lon="14.6887473"><ele>3.5</ele><time>2026-04-06T12:33:11.079Z</time></trkpt><trkpt lat="53.4041194" lon="14.6888677"><ele>3.6666666666666665</ele><time>2026-04-06T12:33:12.077Z</time></trkpt><trkpt lat="53.4041591" lon="14.6889883"><ele>3.833333333333333</ele><time>2026-04-06T12:33:13.088Z</time></trkpt><trkpt lat="53.4041986" lon="14.6891062"><ele>4.0</ele><time>2026-04-06T12:33:14.082Z</time></trkpt><trkpt lat="53.4042397" lon="14.6892231"><ele>3.9999999999999996</ele><time>2026-04-06T12:33:15.104Z</time></trkpt><trkpt lat="53.4042822" lon="14.6893334"><ele>4.0</ele><time>2026-04-06T12:33:16.083Z</time></trkpt><trkpt lat="53.4043198" lon="14.6894397"><ele>4.0</ele><time>2026-04-06T12:33:17.086Z</time></trkpt><trkpt lat="53.4043528" lon="14.6895326"><ele>4.0</ele><time>2026-04-06T12:33:18.075Z</time></trkpt><trkpt lat="53.4044144" lon="14.6897079"><ele>3.9999999999999996</ele><time>2026-04-06T12:33:20.078Z</time></trkpt><trkpt lat="53.4044541" lon="14.6898152"><ele>4.0</ele><time>2026-04-06T12:33:21.088Z</time></trkpt><trkpt lat="53.4045006" lon="14.6899342"><ele>3.8000000000000003</ele><time>2026-04-06T12:33:22.077Z</time></trkpt><trkpt lat="53.4045516" lon="14.6900587"><ele>3.6000000000000005</ele><time>2026-04-06T12:33:23.076Z</time></trkpt><trkpt lat="53.4046027" lon="14.6901841"><ele>3.4</ele><time>2026-04-06T12:33:24.077Z</time></trkpt><trkpt lat="53.404653" lon="14.6903115"><ele>3.2</ele><time>2026-04-06T12:33:25.091Z</time></trkpt><trkpt lat="53.4047038" lon="14.6904375"><ele>3.0</ele><time>2026-04-06T12:33:26.075Z</time></trkpt><trkpt lat="53.4047605" lon="14.6905618"><ele>3.0</ele><time>2026-04-06T12:33:27.074Z</time></trkpt><trkpt lat="53.4048178" lon="14.6906868"><ele>3.0</ele><time>2026-04-06T12:33:28.08Z</time></trkpt><trkpt lat="53.4048759" lon="14.6908118"><ele>3.0</ele><time>2026-04-06T12:33:29.088Z</time></trkpt><trkpt lat="53.4049343" lon="14.6909333"><ele>3.0</ele><time>2026-04-06T12:33:30.087Z</time></trkpt><trkpt lat="53.4049946" lon="14.6910532"><ele>3.0</ele><time>2026-04-06T12:33:31.082Z</time></trkpt><trkpt lat="53.4050525" lon="14.6911754"><ele>3.0</ele><time>2026-04-06T12:33:32.078Z</time></trkpt><trkpt lat="53.4051089" lon="14.6912958"><ele>3.0</ele><time>2026-04-06T12:33:33.078Z</time></trkpt><trkpt lat="53.4051637" lon="14.691409"><ele>3.0</ele><time>2026-04-06T12:33:34.078Z</time></trkpt><trkpt lat="53.4052165" lon="14.6915146"><ele>3.0</ele><time>2026-04-06T12:33:35.083Z</time></trkpt><trkpt lat="53.4052616" lon="14.6916095"><ele>3.0</ele><time>2026-04-06T12:33:36.082Z</time></trkpt><trkpt lat="53.4053041" lon="14.6917015"><ele>3.0</ele><time>2026-04-06T12:33:37.08Z</time></trkpt><trkpt lat="53.4053483" lon="14.6918003"><ele>3.0</ele><time>2026-04-06T12:33:38.071Z</time></trkpt><trkpt lat="53.405395" lon="14.6919092"><ele>3.0</ele><time>2026-04-06T12:33:39.087Z</time></trkpt><trkpt lat="53.4054428" lon="14.6920212"><ele>3.0</ele><time>2026-04-06T12:33:40.076Z</time></trkpt><trkpt lat="53.4054961" lon="14.6921356"><ele>3.0</ele><time>2026-04-06T12:33:41.096Z</time></trkpt><trkpt lat="53.4055482" lon="14.6922491"><ele>3.0</ele><time>2026-04-06T12:33:42.076Z</time></trkpt><trkpt lat="53.4056034" lon="14.6923668"><ele>3.0</ele><time>2026-04-06T12:33:43.088Z</time></trkpt><trkpt lat="53.4056579" lon="14.6924797"><ele>2.8571428571428568</ele><time>2026-04-06T12:33:44.081Z</time></trkpt><trkpt lat="53.4057079" lon="14.6925954"><ele>2.7142857142857144</ele><time>2026-04-06T12:33:45.081Z</time></trkpt><trkpt lat="53.4057555" lon="14.6927012"><ele>2.571428571428571</ele><time>2026-04-06T12:33:46.077Z</time></trkpt><trkpt lat="53.4057963" lon="14.6927959"><ele>2.4285714285714284</ele><time>2026-04-06T12:33:47.079Z</time></trkpt><trkpt lat="53.4058367" lon="14.6928826"><ele>2.2857142857142856</ele><time>2026-04-06T12:33:48.08Z</time></trkpt><trkpt lat="53.4058784" lon="14.6929649"><ele>2.142857142857143</ele><time>2026-04-06T12:33:49.08Z</time></trkpt><trkpt lat="53.4059247" lon="14.6930593"><ele>2.0</ele><time>2026-04-06T12:33:50.087Z</time></trkpt><trkpt lat="53.4059715" lon="14.6931686"><ele>1.9999999999999998</ele><time>2026-04-06T12:33:51.078Z</time></trkpt><trkpt lat="53.4060218" lon="14.6932849"><ele>2.0</ele><time>2026-04-06T12:33:52.078Z</time></trkpt><trkpt lat="53.4060733" lon="14.6934044"><ele>2.0</ele><time>2026-04-06T12:33:53.073Z</time></trkpt><trkpt lat="53.4061253" lon="14.6935219"><ele>2.0</ele><time>2026-04-06T12:33:54.082Z</time></trkpt><trkpt lat="53.4061739" lon="14.6936355"><ele>1.9999999999999998</ele><time>2026-04-06T12:33:55.076Z</time></trkpt><trkpt lat="53.4062245" lon="14.6937474"><ele>2.0</ele><time>2026-04-06T12:33:56.083Z</time></trkpt><trkpt lat="53.4062765" lon="14.6938586"><ele>2.1666666666666665</ele><time>2026-04-06T12:33:57.084Z</time></trkpt><trkpt lat="53.4063268" lon="14.6939691"><ele>2.333333333333333</ele><time>2026-04-06T12:33:58.079Z</time></trkpt><trkpt lat="53.4063776" lon="14.6940677"><ele>2.5</ele><time>2026-04-06T12:33:59.077Z</time></trkpt><trkpt lat="53.4064328" lon="14.6941603"><ele>2.6666666666666665</ele><time>2026-04-06T12:34:00.084Z</time></trkpt><trkpt lat="53.4064832" lon="14.6942606"><ele>2.8333333333333335</ele><time>2026-04-06T12:34:01.075Z</time></trkpt><trkpt lat="53.4065291" lon="14.694372"><ele>3.0</ele><time>2026-04-06T12:34:02.081Z</time></trkpt><trkpt lat="53.4065746" lon="14.6944848"><ele>3.0</ele><time>2026-04-06T12:34:03.086Z</time></trkpt><trkpt lat="53.4066256" lon="14.6945934"><ele>3.0</ele><time>2026-04-06T12:34:04.079Z</time></trkpt><trkpt lat="53.4066798" lon="14.6947102"><ele>3.0</ele><time>2026-04-06T12:34:05.08Z</time></trkpt><trkpt lat="53.4067332" lon="14.6948304"><ele>3.0</ele><time>2026-04-06T12:34:06.082Z</time></trkpt><trkpt lat="53.4067852" lon="14.6949516"><ele>3.0</ele><time>2026-04-06T12:34:07.079Z</time></trkpt><trkpt lat="53.4068327" lon="14.6950627"><ele>3.0</ele><time>2026-04-06T12:34:08.082Z</time></trkpt><trkpt lat="53.406876" lon="14.6951575"><ele>3.0</ele><time>2026-04-06T12:34:09.083Z</time></trkpt><trkpt lat="53.4069198" lon="14.6952365"><ele>3.0</ele><time>2026-04-06T12:34:10.08Z</time></trkpt><trkpt lat="53.406969" lon="14.6953032"><ele>3.0</ele><time>2026-04-06T12:34:11.088Z</time></trkpt><trkpt lat="53.4070195" lon="14.6953729"><ele>3.0</ele><time>2026-04-06T12:34:12.078Z</time></trkpt><trkpt lat="53.407072" lon="14.6954829"><ele>3.0</ele><time>2026-04-06T12:34:13.089Z</time></trkpt><trkpt lat="53.4071205" lon="14.6956483"><ele>3.0</ele><time>2026-04-06T12:34:14.086Z</time></trkpt><trkpt lat="53.4071737" lon="14.6958498"><ele>2.75</ele><time>2026-04-06T12:34:15.081Z</time></trkpt><trkpt lat="53.4072347" lon="14.6960495"><ele>2.5</ele><time>2026-04-06T12:34:16.085Z</time></trkpt><trkpt lat="53.407296" lon="14.6962461"><ele>2.25</ele><time>2026-04-06T12:34:17.083Z</time></trkpt><trkpt lat="53.4073448" lon="14.696449"><ele>2.0</ele><time>2026-04-06T12:34:18.089Z</time></trkpt><trkpt lat="53.4073789" lon="14.6966217"><ele>2.4000000000000004</ele><time>2026-04-06T12:34:19.083Z</time></trkpt><trkpt lat="53.4074049" lon="14.6967523"><ele>2.8000000000000003</ele><time>2026-04-06T12:34:20.086Z</time></trkpt><trkpt lat="53.4074236" lon="14.696868"><ele>3.2</ele><time>2026-04-06T12:34:21.078Z</time></trkpt><trkpt lat="53.4074194" lon="14.6969755"><ele>3.6</ele><time>2026-04-06T12:34:22.078Z</time></trkpt><trkpt lat="53.4073503" lon="14.6971322"><ele>4.0</ele><time>2026-04-06T12:34:24.093Z</time></trkpt><trkpt lat="53.4072472" lon="14.6972271"><ele>4.2</ele><time>2026-04-06T12:34:26.088Z</time></trkpt><trkpt lat="53.4071681" lon="14.6972922"><ele>4.4</ele><time>2026-04-06T12:34:28.088Z</time></trkpt><trkpt lat="53.4071149" lon="14.6974363"><ele>4.6</ele><time>2026-04-06T12:34:36.085Z</time></trkpt><trkpt lat="53.4071036" lon="14.6976349"><ele>4.8</ele><time>2026-04-06T12:34:38.084Z</time></trkpt><trkpt lat="53.4070897" lon="14.6978028"><ele>5.0</ele><time>2026-04-06T12:34:40.082Z</time></trkpt><trkpt lat="53.4070738" lon="14.6979603"><ele>5.6</ele><time>2026-04-06T12:34:42.087Z</time></trkpt><trkpt lat="53.4070533" lon="14.6981908"><ele>6.2</ele><time>2026-04-06T12:34:44.089Z</time></trkpt><trkpt lat="53.4070443" lon="14.6983393"><ele>6.800000000000001</ele><time>2026-04-06T12:34:45.091Z</time></trkpt><trkpt lat="53.4070293" lon="14.69849"><ele>7.4</ele><time>2026-04-06T12:34:46.081Z</time></trkpt><trkpt lat="53.4070196" lon="14.6986366"><ele>8.0</ele><time>2026-04-06T12:34:47.097Z</time></trkpt><trkpt lat="53.4070318" lon="14.6987705"><ele>8.0</ele><time>2026-04-06T12:34:48.091Z</time></trkpt><trkpt lat="53.4070559" lon="14.6989071"><ele>8.0</ele><time>2026-04-06T12:34:49.075Z</time></trkpt><trkpt lat="53.4071227" lon="14.6990791"><ele>8.0</ele><time>2026-04-06T12:34:50.079Z</time></trkpt><trkpt lat="53.4072228" lon="14.6992855"><ele>8.0</ele><time>2026-04-06T12:34:51.079Z</time></trkpt><trkpt lat="53.40734" lon="14.6995152"><ele>7.333333333333333</ele><time>2026-04-06T12:34:52.075Z</time></trkpt><trkpt lat="53.4074632" lon="14.6997564"><ele>6.666666666666666</ele><time>2026-04-06T12:34:53.081Z</time></trkpt><trkpt lat="53.4075877" lon="14.7000006"><ele>6.0</ele><time>2026-04-06T12:34:54.079Z</time></trkpt><trkpt lat="53.4077024" lon="14.7002267"><ele>6.25</ele><time>2026-04-06T12:34:55.087Z</time></trkpt><trkpt lat="53.4078082" lon="14.7004268"><ele>6.5</ele><time>2026-04-06T12:34:56.078Z</time></trkpt><trkpt lat="53.4079056" lon="14.7006025"><ele>6.75</ele><time>2026-04-06T12:34:57.08Z</time></trkpt><trkpt lat="53.4079895" lon="14.7007457"><ele>7.0</ele><time>2026-04-06T12:34:58.082Z</time></trkpt><trkpt lat="53.4080491" lon="14.7008718"><ele>7.166666666666667</ele><time>2026-04-06T12:34:59.083Z</time></trkpt><trkpt lat="53.408088" lon="14.7009969"><ele>7.333333333333334</ele><time>2026-04-06T12:35:00.091Z</time></trkpt><trkpt lat="53.4081253" lon="14.7011326"><ele>7.5</ele><time>2026-04-06T12:35:01.077Z</time></trkpt><trkpt lat="53.4081639" lon="14.7012733"><ele>7.666666666666666</ele><time>2026-04-06T12:35:02.077Z</time></trkpt><trkpt lat="53.4082017" lon="14.7013918"><ele>7.833333333333333</ele><time>2026-04-06T12:35:03.081Z</time></trkpt><trkpt lat="53.4082308" lon="14.7015049"><ele>8.0</ele><time>2026-04-06T12:35:04.079Z</time></trkpt><trkpt lat="53.4083097" lon="14.7016307"><ele>7.999999999999999</ele><time>2026-04-06T12:35:06.082Z</time></trkpt><trkpt lat="53.4084116" lon="14.7016062"><ele>8.0</ele><time>2026-04-06T12:35:08.08Z</time></trkpt><trkpt lat="53.4084469" lon="14.7015058"><ele>8.0</ele><time>2026-04-06T12:35:12.087Z</time></trkpt><trkpt lat="53.4085058" lon="14.7014257"><ele>8.0</ele><time>2026-04-06T12:35:15.088Z</time></trkpt><trkpt lat="53.4085839" lon="14.7015383"><ele>7.999999999999999</ele><time>2026-04-06T12:35:18.081Z</time></trkpt><trkpt lat="53.408633" lon="14.7016636"><ele>8.0</ele><time>2026-04-06T12:35:19.09Z</time></trkpt><trkpt lat="53.4086833" lon="14.7018084"><ele>8.0</ele><time>2026-04-06T12:35:20.078Z</time></trkpt><trkpt lat="53.4087279" lon="14.7019574"><ele>8.0</ele><time>2026-04-06T12:35:21.091Z</time></trkpt><trkpt lat="53.4087702" lon="14.7021068"><ele>8.0</ele><time>2026-04-06T12:35:22.078Z</time></trkpt><trkpt lat="53.408813" lon="14.7022546"><ele>8.0</ele><time>2026-04-06T12:35:23.101Z</time></trkpt><trkpt lat="53.408856" lon="14.7023846"><ele>8.0</ele><time>2026-04-06T12:35:24.077Z</time></trkpt><trkpt lat="53.4088982" lon="14.7025055"><ele>8.166666666666666</ele><time>2026-04-06T12:35:25.089Z</time></trkpt><trkpt lat="53.4089356" lon="14.702617"><ele>8.333333333333332</ele><time>2026-04-06T12:35:26.081Z</time></trkpt><trkpt lat="53.4089665" lon="14.7027185"><ele>8.5</ele><time>2026-04-06T12:35:27.084Z</time></trkpt><trkpt lat="53.4090218" lon="14.7029045"><ele>8.666666666666666</ele><time>2026-04-06T12:35:29.084Z</time></trkpt><trkpt lat="53.4090528" lon="14.7030083"><ele>8.833333333333334</ele><time>2026-04-06T12:35:30.078Z</time></trkpt><trkpt lat="53.4090844" lon="14.7031147"><ele>9.0</ele><time>2026-04-06T12:35:31.085Z</time></trkpt><trkpt lat="53.4091149" lon="14.7032128"><ele>9.0</ele><time>2026-04-06T12:35:32.077Z</time></trkpt><trkpt lat="53.4091438" lon="14.7033127"><ele>9.0</ele><time>2026-04-06T12:35:33.082Z</time></trkpt><trkpt lat="53.409167" lon="14.7034152"><ele>9.0</ele><time>2026-04-06T12:35:34.078Z</time></trkpt><trkpt lat="53.40919" lon="14.7035183"><ele>9.0</ele><time>2026-04-06T12:35:35.076Z</time></trkpt><trkpt lat="53.40923" lon="14.7036983"><ele>9.0</ele><time>2026-04-06T12:35:37.083Z</time></trkpt><trkpt lat="53.4092633" lon="14.7038483"><ele>9.0</ele><time>2026-04-06T12:35:39.078Z</time></trkpt><trkpt lat="53.409325" lon="14.70405"><ele>9.0</ele><time>2026-04-06T12:35:41.082Z</time></trkpt><trkpt lat="53.40935" lon="14.7041633"><ele>9.0</ele><time>2026-04-06T12:35:42.075Z</time></trkpt><trkpt lat="53.409375" lon="14.7042867"><ele>9.0</ele><time>2026-04-06T12:35:43.083Z</time></trkpt><trkpt lat="53.4094" lon="14.7044033"><ele>9.0</ele><time>2026-04-06T12:35:44.075Z</time></trkpt><trkpt lat="53.4094217" lon="14.70451"><ele>9.0</ele><time>2026-04-06T12:35:45.081Z</time></trkpt><trkpt lat="53.4094733" lon="14.704695"><ele>9.0</ele><time>2026-04-06T12:35:47.077Z</time></trkpt><trkpt lat="53.409525" lon="14.7048517"><ele>8.333333333333334</ele><time>2026-04-06T12:35:49.077Z</time></trkpt><trkpt lat="53.409575" lon="14.70495"><ele>7.666666666666667</ele><time>2026-04-06T12:35:51.092Z</time></trkpt><trkpt lat="53.4096517" lon="14.704975"><ele>7.0</ele><time>2026-04-06T12:35:53.084Z</time></trkpt><trkpt lat="53.40974" lon="14.7050067"><ele>6.333333333333334</ele><time>2026-04-06T12:35:55.082Z</time></trkpt><trkpt lat="53.4098133" lon="14.7050667"><ele>5.666666666666667</ele><time>2026-04-06T12:35:57.083Z</time></trkpt><trkpt lat="53.40987" lon="14.7051167"><ele>5.0</ele><time>2026-04-06T12:35:59.082Z</time></trkpt><trkpt lat="53.4099367" lon="14.7051367"><ele>4.666666666666667</ele><time>2026-04-06T12:36:02.075Z</time></trkpt><trkpt lat="53.41001" lon="14.70523"><ele>4.333333333333334</ele><time>2026-04-06T12:36:05.079Z</time></trkpt><trkpt lat="53.410075" lon="14.7053033"><ele>4.0</ele><time>2026-04-06T12:36:08.073Z</time></trkpt><trkpt lat="53.4101317" lon="14.70535"><ele>3.666666666666667</ele><time>2026-04-06T12:36:10.078Z</time></trkpt><trkpt lat="53.4102" lon="14.70537"><ele>3.3333333333333335</ele><time>2026-04-06T12:36:13.079Z</time></trkpt><trkpt lat="53.4102733" lon="14.7053667"><ele>3.0</ele><time>2026-04-06T12:36:40.077Z</time></trkpt><trkpt lat="53.41035" lon="14.7053717"><ele>2.4</ele><time>2026-04-06T12:36:42.079Z</time></trkpt><trkpt lat="53.4104667" lon="14.70538"><ele>1.7999999999999998</ele><time>2026-04-06T12:36:44.078Z</time></trkpt><trkpt lat="53.4105717" lon="14.705465"><ele>1.2</ele><time>2026-04-06T12:36:46.076Z</time></trkpt><trkpt lat="53.41062" lon="14.7055617"><ele>0.6</ele><time>2026-04-06T12:36:47.075Z</time></trkpt><trkpt lat="53.4106733" lon="14.70569"><ele>0.0</ele><time>2026-04-06T12:36:48.079Z</time></trkpt><trkpt lat="53.410725" lon="14.7058383"><ele>0.0</ele><time>2026-04-06T12:36:49.083Z</time></trkpt><trkpt lat="53.4107817" lon="14.706005"><ele>0.0</ele><time>2026-04-06T12:36:50.092Z</time></trkpt><trkpt lat="53.410835" lon="14.7061817"><ele>0.0</ele><time>2026-04-06T12:36:51.082Z</time></trkpt><trkpt lat="53.4108917" lon="14.7063617"><ele>0.0</ele><time>2026-04-06T12:36:52.086Z</time></trkpt><trkpt lat="53.4109533" lon="14.7065433"><ele>0.0</ele><time>2026-04-06T12:36:53.08Z</time></trkpt><trkpt lat="53.411025" lon="14.7067383"><ele>0.0</ele><time>2026-04-06T12:36:54.076Z</time></trkpt><trkpt lat="53.411095" lon="14.7069517"><ele>0.0</ele><time>2026-04-06T12:36:55.1Z</time></trkpt><trkpt lat="53.4111683" lon="14.7071833"><ele>0.0</ele><time>2026-04-06T12:36:56.087Z</time></trkpt><trkpt lat="53.4112483" lon="14.7074317"><ele>0.0</ele><time>2026-04-06T12:36:57.081Z</time></trkpt><trkpt lat="53.4113333" lon="14.7076917"><ele>0.0</ele><time>2026-04-06T12:36:58.097Z</time></trkpt><trkpt lat="53.4114183" lon="14.70796"><ele>0.0</ele><time>2026-04-06T12:36:59.079Z</time></trkpt><trkpt lat="53.4115017" lon="14.7082267"><ele>0.0</ele><time>2026-04-06T12:37:00.087Z</time></trkpt><trkpt lat="53.411585" lon="14.7084933"><ele>0.0</ele><time>2026-04-06T12:37:01.084Z</time></trkpt><trkpt lat="53.4116683" lon="14.7087467"><ele>0.0</ele><time>2026-04-06T12:37:02.087Z</time></trkpt><trkpt lat="53.411755" lon="14.708995"><ele>0.3333333333333333</ele><time>2026-04-06T12:37:03.091Z</time></trkpt><trkpt lat="53.41183" lon="14.70925"><ele>0.6666666666666666</ele><time>2026-04-06T12:37:04.079Z</time></trkpt><trkpt lat="53.4119067" lon="14.7095017"><ele>1.0</ele><time>2026-04-06T12:37:05.096Z</time></trkpt><trkpt lat="53.411985" lon="14.7097533"><ele>1.0</ele><time>2026-04-06T12:37:06.089Z</time></trkpt><trkpt lat="53.41207" lon="14.710005"><ele>1.0</ele><time>2026-04-06T12:37:07.103Z</time></trkpt><trkpt lat="53.4121483" lon="14.7102583"><ele>1.0</ele><time>2026-04-06T12:37:08.097Z</time></trkpt><trkpt lat="53.4122217" lon="14.710515"><ele>0.6666666666666666</ele><time>2026-04-06T12:37:09.091Z</time></trkpt><trkpt lat="53.41229" lon="14.7107817"><ele>0.3333333333333333</ele><time>2026-04-06T12:37:10.082Z</time></trkpt><trkpt lat="53.4123533" lon="14.711045"><ele>0.0</ele><time>2026-04-06T12:37:11.098Z</time></trkpt><trkpt lat="53.41241" lon="14.7112983"><ele>0.0</ele><time>2026-04-06T12:37:12.097Z</time></trkpt><trkpt lat="53.41246" lon="14.7115433"><ele>0.0</ele><time>2026-04-06T12:37:13.098Z</time></trkpt><trkpt lat="53.412505" lon="14.7117917"><ele>0.0</ele><time>2026-04-06T12:37:14.087Z</time></trkpt><trkpt lat="53.4125483" lon="14.7120418"><ele>0.3333333333333333</ele><time>2026-04-06T12:37:15.104Z</time></trkpt><trkpt lat="53.4125897" lon="14.7122902"><ele>0.6666666666666666</ele><time>2026-04-06T12:37:16.085Z</time></trkpt><trkpt lat="53.4126297" lon="14.7125394"><ele>1.0</ele><time>2026-04-06T12:37:17.089Z</time></trkpt><trkpt lat="53.4126723" lon="14.7127867"><ele>1.0</ele><time>2026-04-06T12:37:18.081Z</time></trkpt><trkpt lat="53.4127183" lon="14.7130356"><ele>1.0</ele><time>2026-04-06T12:37:19.09Z</time></trkpt><trkpt lat="53.4127627" lon="14.713287"><ele>1.0</ele><time>2026-04-06T12:37:20.076Z</time></trkpt><trkpt lat="53.4128079" lon="14.713549"><ele>1.0</ele><time>2026-04-06T12:37:21.091Z</time></trkpt><trkpt lat="53.4128557" lon="14.7138133"><ele>1.0</ele><time>2026-04-06T12:37:22.076Z</time></trkpt><trkpt lat="53.4129025" lon="14.7140848"><ele>1.0</ele><time>2026-04-06T12:37:23.081Z</time></trkpt><trkpt lat="53.4129463" lon="14.7143586"><ele>1.0</ele><time>2026-04-06T12:37:24.077Z</time></trkpt><trkpt lat="53.4129911" lon="14.7146325"><ele>1.0</ele><time>2026-04-06T12:37:25.093Z</time></trkpt><trkpt lat="53.4130333" lon="14.7149003"><ele>1.0</ele><time>2026-04-06T12:37:26.084Z</time></trkpt><trkpt lat="53.4130781" lon="14.7151682"><ele>1.0</ele><time>2026-04-06T12:37:27.097Z</time></trkpt><trkpt lat="53.4131238" lon="14.7154295"><ele>1.0</ele><time>2026-04-06T12:37:28.078Z</time></trkpt><trkpt lat="53.4131684" lon="14.7156932"><ele>1.0</ele><time>2026-04-06T12:37:29.096Z</time></trkpt><trkpt lat="53.4132045" lon="14.7159392"><ele>1.25</ele><time>2026-04-06T12:37:30.078Z</time></trkpt><trkpt lat="53.4132333" lon="14.7161727"><ele>1.5</ele><time>2026-04-06T12:37:31.083Z</time></trkpt><trkpt lat="53.4132676" lon="14.7163985"><ele>1.75</ele><time>2026-04-06T12:37:32.089Z</time></trkpt><trkpt lat="53.4133077" lon="14.7166363"><ele>2.0</ele><time>2026-04-06T12:37:33.095Z</time></trkpt><trkpt lat="53.4133493" lon="14.7168814"><ele>2.333333333333333</ele><time>2026-04-06T12:37:34.088Z</time></trkpt><trkpt lat="53.4133928" lon="14.7171328"><ele>2.6666666666666665</ele><time>2026-04-06T12:37:35.08Z</time></trkpt><trkpt lat="53.4134455" lon="14.7173867"><ele>3.0</ele><time>2026-04-06T12:37:36.081Z</time></trkpt><trkpt lat="53.413502" lon="14.7176377"><ele>3.0</ele><time>2026-04-06T12:37:37.078Z</time></trkpt><trkpt lat="53.4135606" lon="14.7178869"><ele>3.0</ele><time>2026-04-06T12:37:38.08Z</time></trkpt><trkpt lat="53.4136235" lon="14.7181386"><ele>3.0</ele><time>2026-04-06T12:37:39.078Z</time></trkpt><trkpt lat="53.4136896" lon="14.7183874"><ele>3.333333333333333</ele><time>2026-04-06T12:37:40.084Z</time></trkpt><trkpt lat="53.4137573" lon="14.7186302"><ele>3.6666666666666665</ele><time>2026-04-06T12:37:41.082Z</time></trkpt><trkpt lat="53.4138253" lon="14.7188642"><ele>4.0</ele><time>2026-04-06T12:37:42.073Z</time></trkpt><trkpt lat="53.4138928" lon="14.7190943"><ele>4.0</ele><time>2026-04-06T12:37:43.082Z</time></trkpt><trkpt lat="53.4139575" lon="14.7193191"><ele>4.0</ele><time>2026-04-06T12:37:44.072Z</time></trkpt><trkpt lat="53.4140179" lon="14.7195338"><ele>4.0</ele><time>2026-04-06T12:37:45.08Z</time></trkpt><trkpt lat="53.4140666" lon="14.7197423"><ele>4.0</ele><time>2026-04-06T12:37:46.08Z</time></trkpt><trkpt lat="53.4140989" lon="14.7199604"><ele>4.5</ele><time>2026-04-06T12:37:47.085Z</time></trkpt><trkpt lat="53.414128" lon="14.7201835"><ele>5.0</ele><time>2026-04-06T12:37:48.08Z</time></trkpt><trkpt lat="53.4141605" lon="14.7203962"><ele>5.5</ele><time>2026-04-06T12:37:49.076Z</time></trkpt><trkpt lat="53.4142097" lon="14.7205886"><ele>6.0</ele><time>2026-04-06T12:37:50.079Z</time></trkpt><trkpt lat="53.4142811" lon="14.7207579"><ele>6.25</ele><time>2026-04-06T12:37:51.075Z</time></trkpt><trkpt lat="53.4143704" lon="14.7209214"><ele>6.5</ele><time>2026-04-06T12:37:52.076Z</time></trkpt><trkpt lat="53.4144525" lon="14.7210958"><ele>6.75</ele><time>2026-04-06T12:37:53.081Z</time></trkpt><trkpt lat="53.4145172" lon="14.7212875"><ele>7.0</ele><time>2026-04-06T12:37:54.073Z</time></trkpt><trkpt lat="53.4145692" lon="14.721491"><ele>6.75</ele><time>2026-04-06T12:37:55.085Z</time></trkpt><trkpt lat="53.4146206" lon="14.7216849"><ele>6.5</ele><time>2026-04-06T12:37:56.085Z</time></trkpt><trkpt lat="53.4146763" lon="14.7218708"><ele>6.25</ele><time>2026-04-06T12:37:57.073Z</time></trkpt><trkpt lat="53.4147286" lon="14.7220664"><ele>6.0</ele><time>2026-04-06T12:37:58.086Z</time></trkpt><trkpt lat="53.4147749" lon="14.7222632"><ele>6.5</ele><time>2026-04-06T12:37:59.079Z</time></trkpt><trkpt lat="53.4148211" lon="14.7224661"><ele>7.0</ele><time>2026-04-06T12:38:00.086Z</time></trkpt><trkpt lat="53.4148725" lon="14.7226788"><ele>7.5</ele><time>2026-04-06T12:38:01.083Z</time></trkpt><trkpt lat="53.4149311" lon="14.7228958"><ele>8.0</ele><time>2026-04-06T12:38:02.08Z</time></trkpt><trkpt lat="53.4149952" lon="14.723115"><ele>9.0</ele><time>2026-04-06T12:38:03.082Z</time></trkpt><trkpt lat="53.4150605" lon="14.7233297"><ele>10.0</ele><time>2026-04-06T12:38:04.079Z</time></trkpt><trkpt lat="53.4151238" lon="14.7235479"><ele>11.0</ele><time>2026-04-06T12:38:05.08Z</time></trkpt><trkpt lat="53.415188" lon="14.723766"><ele>12.0</ele><time>2026-04-06T12:38:06.081Z</time></trkpt><trkpt lat="53.415255" lon="14.7239931"><ele>13.0</ele><time>2026-04-06T12:38:07.074Z</time></trkpt><trkpt lat="53.4153219" lon="14.7242279"><ele>14.0</ele><time>2026-04-06T12:38:08.08Z</time></trkpt><trkpt lat="53.41539" lon="14.7244726"><ele>15.0</ele><time>2026-04-06T12:38:09.082Z</time></trkpt><trkpt lat="53.4154625" lon="14.7247197"><ele>15.333333333333332</ele><time>2026-04-06T12:38:10.082Z</time></trkpt><trkpt lat="53.4155348" lon="14.7249678"><ele>15.666666666666666</ele><time>2026-04-06T12:38:11.089Z</time></trkpt><trkpt lat="53.415609" lon="14.7252188"><ele>16.0</ele><time>2026-04-06T12:38:12.085Z</time></trkpt><trkpt lat="53.4156884" lon="14.7254848"><ele>16.666666666666664</ele><time>2026-04-06T12:38:13.094Z</time></trkpt><trkpt lat="53.4157722" lon="14.7257627"><ele>17.333333333333332</ele><time>2026-04-06T12:38:14.088Z</time></trkpt><trkpt lat="53.415858" lon="14.7260444"><ele>18.0</ele><time>2026-04-06T12:38:15.09Z</time></trkpt><trkpt lat="53.4159434" lon="14.7263282"><ele>18.0</ele><time>2026-04-06T12:38:16.085Z</time></trkpt><trkpt lat="53.4160308" lon="14.7266156"><ele>18.0</ele><time>2026-04-06T12:38:17.087Z</time></trkpt><trkpt lat="53.4161151" lon="14.7269042"><ele>18.0</ele><time>2026-04-06T12:38:18.086Z</time></trkpt><trkpt lat="53.4162027" lon="14.7271935"><ele>18.0</ele><time>2026-04-06T12:38:19.094Z</time></trkpt><trkpt lat="53.4162891" lon="14.7274808"><ele>18.0</ele><time>2026-04-06T12:38:20.086Z</time></trkpt><trkpt lat="53.4163724" lon="14.7277711"><ele>18.0</ele><time>2026-04-06T12:38:21.093Z</time></trkpt><trkpt lat="53.4164556" lon="14.7280591"><ele>17.333333333333332</ele><time>2026-04-06T12:38:22.089Z</time></trkpt><trkpt lat="53.4165352" lon="14.7283464"><ele>16.666666666666664</ele><time>2026-04-06T12:38:23.087Z</time></trkpt><trkpt lat="53.4166177" lon="14.7286364"><ele>16.0</ele><time>2026-04-06T12:38:24.09Z</time></trkpt><trkpt lat="53.4167025" lon="14.7289251"><ele>16.0</ele><time>2026-04-06T12:38:25.089Z</time></trkpt><trkpt lat="53.4167856" lon="14.7292001"><ele>16.0</ele><time>2026-04-06T12:38:26.072Z</time></trkpt><trkpt lat="53.416861" lon="14.729479"><ele>16.0</ele><time>2026-04-06T12:38:27.104Z</time></trkpt><trkpt lat="53.4169392" lon="14.7297517"><ele>16.0</ele><time>2026-04-06T12:38:28.075Z</time></trkpt><trkpt lat="53.4170232" lon="14.7300341"><ele>16.0</ele><time>2026-04-06T12:38:29.096Z</time></trkpt><trkpt lat="53.4171013" lon="14.7303121"><ele>16.0</ele><time>2026-04-06T12:38:30.091Z</time></trkpt><trkpt lat="53.417176" lon="14.7305823"><ele>15.666666666666666</ele><time>2026-04-06T12:38:31.098Z</time></trkpt><trkpt lat="53.4172467" lon="14.7308468"><ele>15.333333333333332</ele><time>2026-04-06T12:38:32.092Z</time></trkpt><trkpt lat="53.4173267" lon="14.7311066"><ele>15.0</ele><time>2026-04-06T12:38:33.101Z</time></trkpt><trkpt lat="53.4174039" lon="14.7313537"><ele>15.0</ele><time>2026-04-06T12:38:34.07Z</time></trkpt><trkpt lat="53.4174807" lon="14.7315922"><ele>15.0</ele><time>2026-04-06T12:38:35.1Z</time></trkpt><trkpt lat="53.4175574" lon="14.7318198"><ele>15.0</ele><time>2026-04-06T12:38:36.08Z</time></trkpt><trkpt lat="53.4176434" lon="14.7320514"><ele>15.333333333333332</ele><time>2026-04-06T12:38:37.094Z</time></trkpt><trkpt lat="53.4177387" lon="14.7322805"><ele>15.666666666666666</ele><time>2026-04-06T12:38:38.08Z</time></trkpt><trkpt lat="53.4178465" lon="14.7325114"><ele>16.0</ele><time>2026-04-06T12:38:39.092Z</time></trkpt><trkpt lat="53.4179621" lon="14.7327397"><ele>15.0</ele><time>2026-04-06T12:38:40.079Z</time></trkpt><trkpt lat="53.4180836" lon="14.7329693"><ele>14.0</ele><time>2026-04-06T12:38:41.092Z</time></trkpt><trkpt lat="53.4182043" lon="14.7331982"><ele>13.0</ele><time>2026-04-06T12:38:42.087Z</time></trkpt><trkpt lat="53.4183233" lon="14.7334256"><ele>13.0</ele><time>2026-04-06T12:38:43.087Z</time></trkpt><trkpt lat="53.4184299" lon="14.7336371"><ele>13.0</ele><time>2026-04-06T12:38:44.08Z</time></trkpt><trkpt lat="53.418519" lon="14.7338143"><ele>13.0</ele><time>2026-04-06T12:38:45.085Z</time></trkpt><trkpt lat="53.4185934" lon="14.7339622"><ele>13.0</ele><time>2026-04-06T12:38:46.087Z</time></trkpt><trkpt lat="53.4186561" lon="14.7340867"><ele>13.0</ele><time>2026-04-06T12:38:47.078Z</time></trkpt><trkpt lat="53.4187095" lon="14.7341981"><ele>13.0</ele><time>2026-04-06T12:38:48.086Z</time></trkpt><trkpt lat="53.4187525" lon="14.7342862"><ele>13.0</ele><time>2026-04-06T12:38:49.09Z</time></trkpt><trkpt lat="53.4188117" lon="14.7343953"><ele>13.0</ele><time>2026-04-06T12:38:51.084Z</time></trkpt><trkpt lat="53.4188662" lon="14.7344817"><ele>13.0</ele><time>2026-04-06T12:38:54.072Z</time></trkpt><trkpt lat="53.4189092" lon="14.7345649"><ele>13.0</ele><time>2026-04-06T12:38:58.081Z</time></trkpt><trkpt lat="53.4189659" lon="14.7346146"><ele>13.0</ele><time>2026-04-06T12:39:02.077Z</time></trkpt><trkpt lat="53.4189287" lon="14.7344896"><ele>12.999999999999998</ele><time>2026-04-06T12:39:06.084Z</time></trkpt><trkpt lat="53.4188494" lon="14.7343151"><ele>13.0</ele><time>2026-04-06T12:39:08.084Z</time></trkpt><trkpt lat="53.4188003" lon="14.7342178"><ele>13.0</ele><time>2026-04-06T12:39:09.091Z</time></trkpt><trkpt lat="53.4187498" lon="14.734121"><ele>13.0</ele><time>2026-04-06T12:39:10.091Z</time></trkpt><trkpt lat="53.4186975" lon="14.7340183"><ele>12.999999999999998</ele><time>2026-04-06T12:39:11.088Z</time></trkpt><trkpt lat="53.4186457" lon="14.7339098"><ele>13.0</ele><time>2026-04-06T12:39:12.091Z</time></trkpt><trkpt lat="53.418592" lon="14.7338043"><ele>12.999999999999998</ele><time>2026-04-06T12:39:13.068Z</time></trkpt><trkpt lat="53.4185354" lon="14.7336992"><ele>13.0</ele><time>2026-04-06T12:39:14.081Z</time></trkpt><trkpt lat="53.4184801" lon="14.733602"><ele>13.0</ele><time>2026-04-06T12:39:15.085Z</time></trkpt><trkpt lat="53.4184337" lon="14.7335264"><ele>13.0</ele><time>2026-04-06T12:39:16.077Z</time></trkpt><trkpt lat="53.418359" lon="14.7334548"><ele>12.999999999999998</ele><time>2026-04-06T12:39:18.078Z</time></trkpt><trkpt lat="53.4182768" lon="14.7335137"><ele>13.0</ele><time>2026-04-06T12:39:21.081Z</time></trkpt><trkpt lat="53.4181994" lon="14.7336387"><ele>13.0</ele><time>2026-04-06T12:39:24.093Z</time></trkpt><trkpt lat="53.4181066" lon="14.733741"><ele>13.0</ele><time>2026-04-06T12:39:26.081Z</time></trkpt><trkpt lat="53.4180518" lon="14.7337934"><ele>13.0</ele><time>2026-04-06T12:39:27.083Z</time></trkpt><trkpt lat="53.4179483" lon="14.7338885"><ele>13.0</ele><time>2026-04-06T12:39:29.077Z</time></trkpt><trkpt lat="53.4178441" lon="14.7339709"><ele>13.0</ele><time>2026-04-06T12:39:31.083Z</time></trkpt><trkpt lat="53.417785" lon="14.7340144"><ele>13.25</ele><time>2026-04-06T12:39:32.077Z</time></trkpt><trkpt lat="53.4176822" lon="14.734115"><ele>13.5</ele><time>2026-04-06T12:39:34.082Z</time></trkpt><trkpt lat="53.4176152" lon="14.7342434"><ele>13.75</ele><time>2026-04-06T12:39:36.088Z</time></trkpt><trkpt lat="53.4175953" lon="14.7344603"><ele>14.0</ele><time>2026-04-06T12:39:38.075Z</time></trkpt><trkpt lat="53.4176348" lon="14.7346215"><ele>13.0</ele><time>2026-04-06T12:39:39.089Z</time></trkpt><trkpt lat="53.4177212" lon="14.7348335"><ele>12.0</ele><time>2026-04-06T12:39:40.078Z</time></trkpt><trkpt lat="53.417836" lon="14.7350762"><ele>11.0</ele><time>2026-04-06T12:39:41.077Z</time></trkpt><trkpt lat="53.4179422" lon="14.7353177"><ele>10.333333333333332</ele><time>2026-04-06T12:39:42.079Z</time></trkpt><trkpt lat="53.4180339" lon="14.7355449"><ele>9.666666666666666</ele><time>2026-04-06T12:39:43.081Z</time></trkpt><trkpt lat="53.4181138" lon="14.7357532"><ele>9.0</ele><time>2026-04-06T12:39:44.077Z</time></trkpt><trkpt lat="53.4181924" lon="14.7359445"><ele>9.0</ele><time>2026-04-06T12:39:45.123Z</time></trkpt><trkpt lat="53.4182754" lon="14.7361133"><ele>9.0</ele><time>2026-04-06T12:39:46.079Z</time></trkpt><trkpt lat="53.4183483" lon="14.7362766"><ele>9.0</ele><time>2026-04-06T12:39:47.073Z</time></trkpt><trkpt lat="53.418406" lon="14.7364434"><ele>9.0</ele><time>2026-04-06T12:39:48.08Z</time></trkpt><trkpt lat="53.4184439" lon="14.7366371"><ele>9.0</ele><time>2026-04-06T12:39:49.077Z</time></trkpt><trkpt lat="53.4184676" lon="14.7368564"><ele>9.0</ele><time>2026-04-06T12:39:50.077Z</time></trkpt><trkpt lat="53.4184775" lon="14.7370903"><ele>9.0</ele><time>2026-04-06T12:39:51.079Z</time></trkpt><trkpt lat="53.4184783" lon="14.7373303"><ele>9.0</ele><time>2026-04-06T12:39:52.078Z</time></trkpt><trkpt lat="53.4184822" lon="14.7375583"><ele>10.0</ele><time>2026-04-06T12:39:53.077Z</time></trkpt><trkpt lat="53.4184886" lon="14.7377667"><ele>11.0</ele><time>2026-04-06T12:39:54.072Z</time></trkpt><trkpt lat="53.4185062" lon="14.7379683"><ele>12.0</ele><time>2026-04-06T12:39:55.075Z</time></trkpt><trkpt lat="53.4185323" lon="14.7381721"><ele>13.0</ele><time>2026-04-06T12:39:56.082Z</time></trkpt><trkpt lat="53.4185699" lon="14.7383847"><ele>13.5</ele><time>2026-04-06T12:39:57.074Z</time></trkpt><trkpt lat="53.418611" lon="14.7386081"><ele>14.0</ele><time>2026-04-06T12:39:58.089Z</time></trkpt><trkpt lat="53.4186598" lon="14.7388251"><ele>14.5</ele><time>2026-04-06T12:39:59.085Z</time></trkpt><trkpt lat="53.4187045" lon="14.7390311"><ele>15.0</ele><time>2026-04-06T12:40:00.088Z</time></trkpt><trkpt lat="53.4187533" lon="14.7392147"><ele>15.0</ele><time>2026-04-06T12:40:01.089Z</time></trkpt><trkpt lat="53.4188005" lon="14.7393763"><ele>15.0</ele><time>2026-04-06T12:40:02.084Z</time></trkpt><trkpt lat="53.4188393" lon="14.7395088"><ele>15.0</ele><time>2026-04-06T12:40:03.089Z</time></trkpt><trkpt lat="53.4188688" lon="14.7396088"><ele>15.0</ele><time>2026-04-06T12:40:04.079Z</time></trkpt><trkpt lat="53.4188877" lon="14.7397427"><ele>15.0</ele><time>2026-04-06T12:40:06.082Z</time></trkpt><trkpt lat="53.4188269" lon="14.739801"><ele>15.0</ele><time>2026-04-06T12:40:10.08Z</time></trkpt><trkpt lat="53.4187646" lon="14.7398361"><ele>15.166666666666666</ele><time>2026-04-06T12:40:12.083Z</time></trkpt><trkpt lat="53.4186841" lon="14.7399281"><ele>15.333333333333332</ele><time>2026-04-06T12:40:14.084Z</time></trkpt><trkpt lat="53.4186276" lon="14.7400073"><ele>15.5</ele><time>2026-04-06T12:40:16.086Z</time></trkpt><trkpt lat="53.4185764" lon="14.7400861"><ele>15.666666666666666</ele><time>2026-04-06T12:40:19.08Z</time></trkpt><trkpt lat="53.4185147" lon="14.7401244"><ele>15.833333333333332</ele><time>2026-04-06T12:40:22.098Z</time></trkpt><trkpt lat="53.418444" lon="14.7401647"><ele>16.0</ele><time>2026-04-06T12:40:25.078Z</time></trkpt><trkpt lat="53.4183754" lon="14.7402071"><ele>15.999999999999998</ele><time>2026-04-06T12:40:28.083Z</time></trkpt><trkpt lat="53.4183092" lon="14.74026"><ele>16.0</ele><time>2026-04-06T12:40:31.089Z</time></trkpt><trkpt lat="53.4182377" lon="14.7403372"><ele>16.0</ele><time>2026-04-06T12:40:34.077Z</time></trkpt><trkpt lat="53.4181771" lon="14.740389"><ele>16.0</ele><time>2026-04-06T12:40:36.08Z</time></trkpt><trkpt lat="53.4181004" lon="14.7404569"><ele>15.999999999999998</ele><time>2026-04-06T12:40:38.089Z</time></trkpt><trkpt lat="53.418027" lon="14.7405361"><ele>16.0</ele><time>2026-04-06T12:40:40.104Z</time></trkpt><trkpt lat="53.4179625" lon="14.7406144"><ele>15.999999999999998</ele><time>2026-04-06T12:40:42.081Z</time></trkpt><trkpt lat="53.4179065" lon="14.7406802"><ele>16.0</ele><time>2026-04-06T12:40:44.079Z</time></trkpt><trkpt lat="53.4178663" lon="14.7407636"><ele>16.0</ele><time>2026-04-06T12:40:46.081Z</time></trkpt><trkpt lat="53.4177816" lon="14.7408223"><ele>16.0</ele><time>2026-04-06T12:40:49.086Z</time></trkpt><trkpt lat="53.4177157" lon="14.7408756"><ele>15.999999999999998</ele><time>2026-04-06T12:40:51.095Z</time></trkpt><trkpt lat="53.417659" lon="14.7409728"><ele>16.0</ele><time>2026-04-06T12:40:53.079Z</time></trkpt><trkpt lat="53.4176364" lon="14.7411012"><ele>16.0</ele><time>2026-04-06T12:40:55.08Z</time></trkpt><trkpt lat="53.4176418" lon="14.7412895"><ele>16.0</ele><time>2026-04-06T12:40:57.086Z</time></trkpt><trkpt lat="53.4176555" lon="14.7413935"><ele>16.0</ele><time>2026-04-06T12:40:58.089Z</time></trkpt><trkpt lat="53.4176961" lon="14.7415886"><ele>16.0</ele><time>2026-04-06T12:41:00.08Z</time></trkpt><trkpt lat="53.4177435" lon="14.7417892"><ele>16.0</ele><time>2026-04-06T12:41:02.08Z</time></trkpt><trkpt lat="53.417766" lon="14.741901"><ele>15.999999999999998</ele><time>2026-04-06T12:41:03.096Z</time></trkpt><trkpt lat="53.4177897" lon="14.7420075"><ele>16.0</ele><time>2026-04-06T12:41:04.081Z</time></trkpt><trkpt lat="53.4178116" lon="14.7421118"><ele>16.0</ele><time>2026-04-06T12:41:05.082Z</time></trkpt><trkpt lat="53.417833" lon="14.7422125"><ele>16.0</ele><time>2026-04-06T12:41:06.078Z</time></trkpt><trkpt lat="53.4178524" lon="14.7423141"><ele>15.999999999999998</ele><time>2026-04-06T12:41:07.082Z</time></trkpt><trkpt lat="53.4178996" lon="14.7424944"><ele>16.0</ele><time>2026-04-06T12:41:09.086Z</time></trkpt><trkpt lat="53.4179539" lon="14.7426494"><ele>16.400000000000002</ele><time>2026-04-06T12:41:11.088Z</time></trkpt><trkpt lat="53.4180043" lon="14.7428216"><ele>16.8</ele><time>2026-04-06T12:41:13.086Z</time></trkpt><trkpt lat="53.4180639" lon="14.7429733"><ele>17.200000000000003</ele><time>2026-04-06T12:41:15.117Z</time></trkpt><trkpt lat="53.4181304" lon="14.743139"><ele>17.6</ele><time>2026-04-06T12:41:17.092Z</time></trkpt><trkpt lat="53.4181708" lon="14.7432396"><ele>18.0</ele><time>2026-04-06T12:41:18.081Z</time></trkpt><trkpt lat="53.4182104" lon="14.7433384"><ele>18.0</ele><time>2026-04-06T12:41:19.086Z</time></trkpt><trkpt lat="53.4182769" lon="14.7434923"><ele>18.0</ele><time>2026-04-06T12:41:21.092Z</time></trkpt><trkpt lat="53.4183271" lon="14.7436343"><ele>18.0</ele><time>2026-04-06T12:41:23.088Z</time></trkpt><trkpt lat="53.4183821" lon="14.7438101"><ele>18.0</ele><time>2026-04-06T12:41:25.087Z</time></trkpt><trkpt lat="53.418415" lon="14.7439166"><ele>18.0</ele><time>2026-04-06T12:41:26.088Z</time></trkpt><trkpt lat="53.4184556" lon="14.7440341"><ele>18.0</ele><time>2026-04-06T12:41:27.086Z</time></trkpt><trkpt lat="53.418502" lon="14.7441505"><ele>18.0</ele><time>2026-04-06T12:41:28.079Z</time></trkpt><trkpt lat="53.418554" lon="14.744255"><ele>18.0</ele><time>2026-04-06T12:41:29.101Z</time></trkpt><trkpt lat="53.4186167" lon="14.744336"><ele>18.0</ele><time>2026-04-06T12:41:30.083Z</time></trkpt><trkpt lat="53.4186777" lon="14.7444103"><ele>18.0</ele><time>2026-04-06T12:41:31.095Z</time></trkpt><trkpt lat="53.418739" lon="14.7444732"><ele>18.0</ele><time>2026-04-06T12:41:32.088Z</time></trkpt><trkpt lat="53.4187955" lon="14.7445384"><ele>18.0</ele><time>2026-04-06T12:41:33.093Z</time></trkpt><trkpt lat="53.4189003" lon="14.7446622"><ele>18.0</ele><time>2026-04-06T12:41:35.113Z</time></trkpt><trkpt lat="53.4189551" lon="14.7447186"><ele>18.0</ele><time>2026-04-06T12:41:36.082Z</time></trkpt><trkpt lat="53.4190132" lon="14.744782"><ele>18.0</ele><time>2026-04-06T12:41:37.093Z</time></trkpt><trkpt lat="53.4190738" lon="14.7448516"><ele>18.0</ele><time>2026-04-06T12:41:38.077Z</time></trkpt><trkpt lat="53.4191417" lon="14.7449231"><ele>18.0</ele><time>2026-04-06T12:41:39.083Z</time></trkpt><trkpt lat="53.4192123" lon="14.7449989"><ele>18.0</ele><time>2026-04-06T12:41:40.085Z</time></trkpt><trkpt lat="53.419279" lon="14.7450704"><ele>18.0</ele><time>2026-04-06T12:41:41.09Z</time></trkpt><trkpt lat="53.4193414" lon="14.7451393"><ele>18.0</ele><time>2026-04-06T12:41:42.099Z</time></trkpt><trkpt lat="53.4193953" lon="14.7452102"><ele>18.0</ele><time>2026-04-06T12:41:43.09Z</time></trkpt><trkpt lat="53.4194463" lon="14.7452748"><ele>18.0</ele><time>2026-04-06T12:41:44.085Z</time></trkpt><trkpt lat="53.4195457" lon="14.7454035"><ele>18.0</ele><time>2026-04-06T12:41:46.077Z</time></trkpt><trkpt lat="53.4196019" lon="14.7454716"><ele>18.28571428571429</ele><time>2026-04-06T12:41:47.109Z</time></trkpt><trkpt lat="53.4196621" lon="14.7455328"><ele>18.571428571428573</ele><time>2026-04-06T12:41:48.079Z</time></trkpt><trkpt lat="53.4197291" lon="14.7455906"><ele>18.857142857142858</ele><time>2026-04-06T12:41:49.087Z</time></trkpt><trkpt lat="53.4197956" lon="14.7456439"><ele>19.142857142857146</ele><time>2026-04-06T12:41:50.081Z</time></trkpt><trkpt lat="53.4198586" lon="14.7457014"><ele>19.42857142857143</ele><time>2026-04-06T12:41:51.093Z</time></trkpt><trkpt lat="53.4199247" lon="14.745761"><ele>19.714285714285715</ele><time>2026-04-06T12:41:52.076Z</time></trkpt><trkpt lat="53.4199909" lon="14.7458232"><ele>20.0</ele><time>2026-04-06T12:41:53.084Z</time></trkpt><trkpt lat="53.4200518" lon="14.7458831"><ele>20.0</ele><time>2026-04-06T12:41:54.079Z</time></trkpt><trkpt lat="53.4201109" lon="14.7459428"><ele>20.0</ele><time>2026-04-06T12:41:55.092Z</time></trkpt><trkpt lat="53.4201719" lon="14.7460051"><ele>20.0</ele><time>2026-04-06T12:41:56.084Z</time></trkpt><trkpt lat="53.4202384" lon="14.7460805"><ele>20.0</ele><time>2026-04-06T12:41:57.112Z</time></trkpt><trkpt lat="53.4203072" lon="14.7461645"><ele>20.0</ele><time>2026-04-06T12:41:58.084Z</time></trkpt><trkpt lat="53.4203838" lon="14.7462601"><ele>20.0</ele><time>2026-04-06T12:41:59.095Z</time></trkpt><trkpt lat="53.4204651" lon="14.7463638"><ele>20.2</ele><time>2026-04-06T12:42:00.084Z</time></trkpt><trkpt lat="53.420545" lon="14.7464664"><ele>20.4</ele><time>2026-04-06T12:42:01.089Z</time></trkpt><trkpt lat="53.4206226" lon="14.7465569"><ele>20.6</ele><time>2026-04-06T12:42:02.085Z</time></trkpt><trkpt lat="53.420705" lon="14.7466452"><ele>20.8</ele><time>2026-04-06T12:42:03.094Z</time></trkpt><trkpt lat="53.4207892" lon="14.7467422"><ele>21.0</ele><time>2026-04-06T12:42:04.085Z</time></trkpt><trkpt lat="53.4208771" lon="14.7468511"><ele>21.0</ele><time>2026-04-06T12:42:05.086Z</time></trkpt><trkpt lat="53.4209657" lon="14.7469619"><ele>21.0</ele><time>2026-04-06T12:42:06.081Z</time></trkpt><trkpt lat="53.4210621" lon="14.7470567"><ele>21.0</ele><time>2026-04-06T12:42:07.085Z</time></trkpt><trkpt lat="53.4211657" lon="14.7471472"><ele>21.0</ele><time>2026-04-06T12:42:08.102Z</time></trkpt><trkpt lat="53.4212625" lon="14.7472327"><ele>21.0</ele><time>2026-04-06T12:42:09.098Z</time></trkpt><trkpt lat="53.4213485" lon="14.7473008"><ele>20.5</ele><time>2026-04-06T12:42:10.08Z</time></trkpt><trkpt lat="53.4214327" lon="14.7473571"><ele>20.0</ele><time>2026-04-06T12:42:11.09Z</time></trkpt><trkpt lat="53.4215173" lon="14.7474098"><ele>19.5</ele><time>2026-04-06T12:42:12.084Z</time></trkpt><trkpt lat="53.4216013" lon="14.7474702"><ele>19.0</ele><time>2026-04-06T12:42:13.115Z</time></trkpt><trkpt lat="53.4216812" lon="14.7475255"><ele>18.5</ele><time>2026-04-06T12:42:14.084Z</time></trkpt><trkpt lat="53.4217579" lon="14.7475792"><ele>18.0</ele><time>2026-04-06T12:42:15.097Z</time></trkpt><trkpt lat="53.4218271" lon="14.747637"><ele>18.0</ele><time>2026-04-06T12:42:16.081Z</time></trkpt><trkpt lat="53.4218956" lon="14.7477066"><ele>18.0</ele><time>2026-04-06T12:42:17.091Z</time></trkpt><trkpt lat="53.4219738" lon="14.7477791"><ele>18.0</ele><time>2026-04-06T12:42:18.08Z</time></trkpt><trkpt lat="53.4220681" lon="14.7478392"><ele>18.0</ele><time>2026-04-06T12:42:19.092Z</time></trkpt><trkpt lat="53.4221619" lon="14.7478996"><ele>18.0</ele><time>2026-04-06T12:42:20.081Z</time></trkpt><trkpt lat="53.4222527" lon="14.7479664"><ele>18.2</ele><time>2026-04-06T12:42:21.09Z</time></trkpt><trkpt lat="53.4223386" lon="14.7480401"><ele>18.4</ele><time>2026-04-06T12:42:22.083Z</time></trkpt><trkpt lat="53.4224232" lon="14.7481439"><ele>18.599999999999998</ele><time>2026-04-06T12:42:23.098Z</time></trkpt><trkpt lat="53.4225011" lon="14.7482776"><ele>18.8</ele><time>2026-04-06T12:42:24.087Z</time></trkpt><trkpt lat="53.4225689" lon="14.7484177"><ele>19.0</ele><time>2026-04-06T12:42:25.096Z</time></trkpt><trkpt lat="53.4226188" lon="14.7485423"><ele>18.8</ele><time>2026-04-06T12:42:26.086Z</time></trkpt><trkpt lat="53.4226657" lon="14.7486643"><ele>18.599999999999998</ele><time>2026-04-06T12:42:27.079Z</time></trkpt><trkpt lat="53.4227195" lon="14.7487918"><ele>18.4</ele><time>2026-04-06T12:42:28.092Z</time></trkpt><trkpt lat="53.422775" lon="14.7489194"><ele>18.2</ele><time>2026-04-06T12:42:29.087Z</time></trkpt><trkpt lat="53.4228262" lon="14.749046"><ele>18.0</ele><time>2026-04-06T12:42:30.104Z</time></trkpt><trkpt lat="53.4228753" lon="14.7491718"><ele>18.0</ele><time>2026-04-06T12:42:31.091Z</time></trkpt><trkpt lat="53.422922" lon="14.7492921"><ele>18.0</ele><time>2026-04-06T12:42:32.091Z</time></trkpt><trkpt lat="53.4229679" lon="14.7494098"><ele>18.0</ele><time>2026-04-06T12:42:33.089Z</time></trkpt><trkpt lat="53.4230127" lon="14.7495267"><ele>18.0</ele><time>2026-04-06T12:42:34.083Z</time></trkpt><trkpt lat="53.423055" lon="14.7496433"><ele>18.0</ele><time>2026-04-06T12:42:35.089Z</time></trkpt><trkpt lat="53.423095" lon="14.749765"><ele>18.0</ele><time>2026-04-06T12:42:36.08Z</time></trkpt><trkpt lat="53.4231367" lon="14.7498867"><ele>17.4</ele><time>2026-04-06T12:42:37.108Z</time></trkpt><trkpt lat="53.42318" lon="14.7500117"><ele>16.8</ele><time>2026-04-06T12:42:38.083Z</time></trkpt><trkpt lat="53.4232333" lon="14.7501467"><ele>16.2</ele><time>2026-04-06T12:42:39.087Z</time></trkpt><trkpt lat="53.4232983" lon="14.7502883"><ele>15.6</ele><time>2026-04-06T12:42:40.078Z</time></trkpt><trkpt lat="53.4233683" lon="14.7504267"><ele>15.0</ele><time>2026-04-06T12:42:41.085Z</time></trkpt><trkpt lat="53.4234367" lon="14.7505617"><ele>15.0</ele><time>2026-04-06T12:42:42.088Z</time></trkpt><trkpt lat="53.42351" lon="14.750685"><ele>15.0</ele><time>2026-04-06T12:42:43.086Z</time></trkpt><trkpt lat="53.4235783" lon="14.7508033"><ele>15.0</ele><time>2026-04-06T12:42:44.071Z</time></trkpt><trkpt lat="53.4236467" lon="14.750925"><ele>15.0</ele><time>2026-04-06T12:42:45.083Z</time></trkpt><trkpt lat="53.4237217" lon="14.7510567"><ele>15.0</ele><time>2026-04-06T12:42:46.084Z</time></trkpt><trkpt lat="53.4238067" lon="14.7511867"><ele>14.75</ele><time>2026-04-06T12:42:47.077Z</time></trkpt><trkpt lat="53.4238967" lon="14.75132"><ele>14.5</ele><time>2026-04-06T12:42:48.074Z</time></trkpt><trkpt lat="53.4239867" lon="14.7514433"><ele>14.25</ele><time>2026-04-06T12:42:49.08Z</time></trkpt><trkpt lat="53.4240717" lon="14.7515683"><ele>14.0</ele><time>2026-04-06T12:42:50.075Z</time></trkpt><trkpt lat="53.424155" lon="14.7516883"><ele>14.0</ele><time>2026-04-06T12:42:51.077Z</time></trkpt><trkpt lat="53.4242417" lon="14.7518083"><ele>13.999999999999998</ele><time>2026-04-06T12:42:52.075Z</time></trkpt><trkpt lat="53.4243167" lon="14.7519267"><ele>13.999999999999998</ele><time>2026-04-06T12:42:53.076Z</time></trkpt><trkpt lat="53.4243983" lon="14.7520467"><ele>14.0</ele><time>2026-04-06T12:42:54.081Z</time></trkpt><trkpt lat="53.4244817" lon="14.7521617"><ele>14.0</ele><time>2026-04-06T12:42:55.075Z</time></trkpt><trkpt lat="53.4245717" lon="14.7522483"><ele>14.666666666666668</ele><time>2026-04-06T12:42:56.089Z</time></trkpt><trkpt lat="53.4246617" lon="14.7523283"><ele>15.333333333333334</ele><time>2026-04-06T12:42:57.09Z</time></trkpt><trkpt lat="53.4247467" lon="14.7524017"><ele>16.0</ele><time>2026-04-06T12:42:58.086Z</time></trkpt><trkpt lat="53.4248317" lon="14.752455"><ele>16.666666666666668</ele><time>2026-04-06T12:42:59.085Z</time></trkpt><trkpt lat="53.4249083" lon="14.75249"><ele>17.333333333333332</ele><time>2026-04-06T12:43:00.082Z</time></trkpt><trkpt lat="53.424975" lon="14.7525183"><ele>18.0</ele><time>2026-04-06T12:43:01.078Z</time></trkpt><trkpt lat="53.425065" lon="14.752625"><ele>18.4</ele><time>2026-04-06T12:43:03.083Z</time></trkpt><trkpt lat="53.4251517" lon="14.7527533"><ele>18.8</ele><time>2026-04-06T12:43:05.08Z</time></trkpt><trkpt lat="53.4252318" lon="14.7528575"><ele>19.2</ele><time>2026-04-06T12:43:07.093Z</time></trkpt><trkpt lat="53.4253022" lon="14.7529518"><ele>19.6</ele><time>2026-04-06T12:43:09.095Z</time></trkpt><trkpt lat="53.4253819" lon="14.753009"><ele>20.0</ele><time>2026-04-06T12:43:11.099Z</time></trkpt><trkpt lat="53.4255035" lon="14.7529438"><ele>20.0</ele><time>2026-04-06T12:43:13.088Z</time></trkpt><trkpt lat="53.4255708" lon="14.7528734"><ele>20.0</ele><time>2026-04-06T12:43:14.089Z</time></trkpt><trkpt lat="53.4256324" lon="14.7528056"><ele>20.0</ele><time>2026-04-06T12:43:15.082Z</time></trkpt><trkpt lat="53.4257234" lon="14.7527516"><ele>20.0</ele><time>2026-04-06T12:43:17.085Z</time></trkpt><trkpt lat="53.4257862" lon="14.7528402"><ele>20.0</ele><time>2026-04-06T12:43:19.081Z</time></trkpt><trkpt lat="53.4258257" lon="14.7529308"><ele>20.0</ele><time>2026-04-06T12:43:20.097Z</time></trkpt><trkpt lat="53.4258799" lon="14.7530507"><ele>20.0</ele><time>2026-04-06T12:43:21.103Z</time></trkpt><trkpt lat="53.425965" lon="14.7531987"><ele>20.0</ele><time>2026-04-06T12:43:22.083Z</time></trkpt><trkpt lat="53.42607" lon="14.7533678"><ele>20.0</ele><time>2026-04-06T12:43:23.082Z</time></trkpt><trkpt lat="53.4261778" lon="14.7535429"><ele>20.0</ele><time>2026-04-06T12:43:24.083Z</time></trkpt><trkpt lat="53.4262844" lon="14.753707"><ele>19.666666666666668</ele><time>2026-04-06T12:43:25.087Z</time></trkpt><trkpt lat="53.4263877" lon="14.7538658"><ele>19.333333333333332</ele><time>2026-04-06T12:43:26.094Z</time></trkpt><trkpt lat="53.4264963" lon="14.7540342"><ele>19.0</ele><time>2026-04-06T12:43:27.088Z</time></trkpt><trkpt lat="53.4266144" lon="14.7542223"><ele>19.333333333333332</ele><time>2026-04-06T12:43:28.088Z</time></trkpt><trkpt lat="53.4267435" lon="14.7544232"><ele>19.666666666666668</ele><time>2026-04-06T12:43:29.089Z</time></trkpt><trkpt lat="53.4268887" lon="14.7546348"><ele>20.0</ele><time>2026-04-06T12:43:30.09Z</time></trkpt><trkpt lat="53.4270482" lon="14.7548621"><ele>19.333333333333336</ele><time>2026-04-06T12:43:31.102Z</time></trkpt><trkpt lat="53.427212" lon="14.7550944"><ele>18.666666666666668</ele><time>2026-04-06T12:43:32.077Z</time></trkpt><trkpt lat="53.4273733" lon="14.7553283"><ele>18.0</ele><time>2026-04-06T12:43:33.109Z</time></trkpt><trkpt lat="53.4275233" lon="14.755545"><ele>18.0</ele><time>2026-04-06T12:43:34.086Z</time></trkpt><trkpt lat="53.4276667" lon="14.7557588"><ele>18.0</ele><time>2026-04-06T12:43:35.075Z</time></trkpt><trkpt lat="53.4278045" lon="14.7559736"><ele>18.0</ele><time>2026-04-06T12:43:36.083Z</time></trkpt><trkpt lat="53.4279421" lon="14.7561853"><ele>17.666666666666668</ele><time>2026-04-06T12:43:37.095Z</time></trkpt><trkpt lat="53.4280797" lon="14.7564014"><ele>17.333333333333336</ele><time>2026-04-06T12:43:38.078Z</time></trkpt><trkpt lat="53.4282267" lon="14.7566359"><ele>17.0</ele><time>2026-04-06T12:43:39.11Z</time></trkpt><trkpt lat="53.4283789" lon="14.7568776"><ele>16.666666666666668</ele><time>2026-04-06T12:43:40.1Z</time></trkpt><trkpt lat="53.4285361" lon="14.7571309"><ele>16.333333333333332</ele><time>2026-04-06T12:43:41.098Z</time></trkpt><trkpt lat="53.4286923" lon="14.7573884"><ele>16.0</ele><time>2026-04-06T12:43:42.102Z</time></trkpt><trkpt lat="53.4288452" lon="14.7576402"><ele>16.333333333333332</ele><time>2026-04-06T12:43:43.092Z</time></trkpt><trkpt lat="53.4289959" lon="14.7578965"><ele>16.666666666666668</ele><time>2026-04-06T12:43:44.101Z</time></trkpt><trkpt lat="53.4291409" lon="14.7581495"><ele>17.0</ele><time>2026-04-06T12:43:45.087Z</time></trkpt><trkpt lat="53.429284" lon="14.7584086"><ele>16.333333333333336</ele><time>2026-04-06T12:43:46.076Z</time></trkpt><trkpt lat="53.4294271" lon="14.7586798"><ele>15.666666666666668</ele><time>2026-04-06T12:43:47.078Z</time></trkpt><trkpt lat="53.4295671" lon="14.7589559"><ele>15.0</ele><time>2026-04-06T12:43:48.079Z</time></trkpt><trkpt lat="53.4296985" lon="14.7592242"><ele>15.333333333333332</ele><time>2026-04-06T12:43:49.084Z</time></trkpt><trkpt lat="53.4298078" lon="14.7594689"><ele>15.666666666666666</ele><time>2026-04-06T12:43:50.079Z</time></trkpt><trkpt lat="53.4298992" lon="14.7596902"><ele>16.0</ele><time>2026-04-06T12:43:51.079Z</time></trkpt><trkpt lat="53.4299786" lon="14.7598905"><ele>16.0</ele><time>2026-04-06T12:43:52.08Z</time></trkpt><trkpt lat="53.4300474" lon="14.7600753"><ele>16.0</ele><time>2026-04-06T12:43:53.081Z</time></trkpt><trkpt lat="53.4301107" lon="14.7602398"><ele>16.0</ele><time>2026-04-06T12:43:54.077Z</time></trkpt><trkpt lat="53.4301734" lon="14.7603936"><ele>16.0</ele><time>2026-04-06T12:43:55.084Z</time></trkpt><trkpt lat="53.4302342" lon="14.760538"><ele>16.166666666666664</ele><time>2026-04-06T12:43:56.078Z</time></trkpt><trkpt lat="53.4302858" lon="14.7606761"><ele>16.333333333333332</ele><time>2026-04-06T12:43:57.088Z</time></trkpt><trkpt lat="53.4303298" lon="14.7607957"><ele>16.5</ele><time>2026-04-06T12:43:58.087Z</time></trkpt><trkpt lat="53.4303735" lon="14.760904"><ele>16.666666666666668</ele><time>2026-04-06T12:43:59.082Z</time></trkpt><trkpt lat="53.4304137" lon="14.7609998"><ele>16.833333333333336</ele><time>2026-04-06T12:44:00.088Z</time></trkpt><trkpt lat="53.430482" lon="14.7611433"><ele>17.0</ele><time>2026-04-06T12:44:02.088Z</time></trkpt><trkpt lat="53.4305472" lon="14.7612165"><ele>17.0</ele><time>2026-04-06T12:44:04.072Z</time></trkpt><trkpt lat="53.4306523" lon="14.7612064"><ele>17.0</ele><time>2026-04-06T12:44:06.077Z</time></trkpt><trkpt lat="53.4307226" lon="14.7611734"><ele>17.0</ele><time>2026-04-06T12:44:07.076Z</time></trkpt><trkpt lat="53.4308035" lon="14.7611279"><ele>17.0</ele><time>2026-04-06T12:44:08.071Z</time></trkpt><trkpt lat="53.430894" lon="14.7610771"><ele>17.0</ele><time>2026-04-06T12:44:09.084Z</time></trkpt><trkpt lat="53.4309851" lon="14.7610197"><ele>17.0</ele><time>2026-04-06T12:44:10.077Z</time></trkpt><trkpt lat="53.4310726" lon="14.7609558"><ele>17.0</ele><time>2026-04-06T12:44:11.085Z</time></trkpt><trkpt lat="53.4311563" lon="14.7608899"><ele>17.0</ele><time>2026-04-06T12:44:12.078Z</time></trkpt><trkpt lat="53.4312305" lon="14.7608282"><ele>17.0</ele><time>2026-04-06T12:44:13.081Z</time></trkpt><trkpt lat="53.4312973" lon="14.7607722"><ele>17.0</ele><time>2026-04-06T12:44:14.077Z</time></trkpt><trkpt lat="53.4313979" lon="14.7606922"><ele>17.333333333333336</ele><time>2026-04-06T12:44:16.079Z</time></trkpt><trkpt lat="53.4314701" lon="14.7606645"><ele>17.666666666666668</ele><time>2026-04-06T12:44:18.089Z</time></trkpt><trkpt lat="53.4315357" lon="14.7606461"><ele>18.0</ele><time>2026-04-06T12:44:20.084Z</time></trkpt><trkpt lat="53.4316282" lon="14.7606741"><ele>18.333333333333332</ele><time>2026-04-06T12:44:22.08Z</time></trkpt><trkpt lat="53.4317168" lon="14.7607961"><ele>18.666666666666664</ele><time>2026-04-06T12:44:24.085Z</time></trkpt><trkpt lat="53.431752" lon="14.7608848"><ele>19.0</ele><time>2026-04-06T12:44:25.084Z</time></trkpt><trkpt lat="53.4317914" lon="14.7609978"><ele>19.0</ele><time>2026-04-06T12:44:26.087Z</time></trkpt><trkpt lat="53.4318378" lon="14.7611334"><ele>19.0</ele><time>2026-04-06T12:44:27.079Z</time></trkpt><trkpt lat="53.4318988" lon="14.7612753"><ele>19.0</ele><time>2026-04-06T12:44:28.089Z</time></trkpt><trkpt lat="53.4319665" lon="14.7614166"><ele>19.0</ele><time>2026-04-06T12:44:29.087Z</time></trkpt><trkpt lat="53.4320304" lon="14.7615489"><ele>19.0</ele><time>2026-04-06T12:44:30.082Z</time></trkpt><trkpt lat="53.4320861" lon="14.7616698"><ele>19.0</ele><time>2026-04-06T12:44:31.082Z</time></trkpt><trkpt lat="53.4321335" lon="14.7617699"><ele>19.0</ele><time>2026-04-06T12:44:32.083Z</time></trkpt><trkpt lat="53.4321934" lon="14.7618402"><ele>19.0</ele><time>2026-04-06T12:44:33.094Z</time></trkpt><trkpt lat="53.4322698" lon="14.7618848"><ele>19.0</ele><time>2026-04-06T12:44:34.085Z</time></trkpt><trkpt lat="53.4323714" lon="14.761899"><ele>19.0</ele><time>2026-04-06T12:44:35.087Z</time></trkpt><trkpt lat="53.432501" lon="14.7618785"><ele>19.2</ele><time>2026-04-06T12:44:36.086Z</time></trkpt><trkpt lat="53.4326412" lon="14.7618383"><ele>19.4</ele><time>2026-04-06T12:44:37.092Z</time></trkpt><trkpt lat="53.432765" lon="14.7617895"><ele>19.6</ele><time>2026-04-06T12:44:38.08Z</time></trkpt><trkpt lat="53.432849" lon="14.7617506"><ele>19.8</ele><time>2026-04-06T12:44:39.09Z</time></trkpt><trkpt lat="53.4329107" lon="14.7617784"><ele>20.0</ele><time>2026-04-06T12:44:42.085Z</time></trkpt><trkpt lat="53.4329056" lon="14.7619175"><ele>20.0</ele><time>2026-04-06T12:44:45.082Z</time></trkpt><trkpt lat="53.4329326" lon="14.7620295"><ele>20.0</ele><time>2026-04-06T12:44:50.081Z</time></trkpt><trkpt lat="53.4329483" lon="14.7621467"><ele>20.0</ele><time>2026-04-06T12:45:54.09Z</time></trkpt><trkpt lat="53.4330017" lon="14.762275"><ele>20.0</ele><time>2026-04-06T12:45:56.078Z</time></trkpt><trkpt lat="53.4330583" lon="14.76241"><ele>20.0</ele><time>2026-04-06T12:45:58.08Z</time></trkpt><trkpt lat="53.4331117" lon="14.76254"><ele>20.0</ele><time>2026-04-06T12:46:00.084Z</time></trkpt><trkpt lat="53.4331683" lon="14.7626567"><ele>19.833333333333336</ele><time>2026-04-06T12:46:02.084Z</time></trkpt><trkpt lat="53.4332133" lon="14.7627533"><ele>19.666666666666668</ele><time>2026-04-06T12:46:04.077Z</time></trkpt><trkpt lat="53.4332633" lon="14.7628783"><ele>19.5</ele><time>2026-04-06T12:46:06.08Z</time></trkpt><trkpt lat="53.433335" lon="14.7630467"><ele>19.333333333333332</ele><time>2026-04-06T12:46:08.079Z</time></trkpt><trkpt lat="53.4333783" lon="14.7631383"><ele>19.166666666666664</ele><time>2026-04-06T12:46:09.085Z</time></trkpt><trkpt lat="53.433425" lon="14.7632317"><ele>19.0</ele><time>2026-04-06T12:46:10.081Z</time></trkpt><trkpt lat="53.4334683" lon="14.763335"><ele>19.0</ele><time>2026-04-06T12:46:11.099Z</time></trkpt><trkpt lat="53.4335067" lon="14.763445"><ele>19.0</ele><time>2026-04-06T12:46:12.084Z</time></trkpt><trkpt lat="53.433545" lon="14.7635533"><ele>19.0</ele><time>2026-04-06T12:46:13.085Z</time></trkpt><trkpt lat="53.43358" lon="14.7636467"><ele>19.0</ele><time>2026-04-06T12:46:14.082Z</time></trkpt><trkpt lat="53.433635" lon="14.76383"><ele>19.0</ele><time>2026-04-06T12:46:16.08Z</time></trkpt><trkpt lat="53.4336667" lon="14.7639417"><ele>19.0</ele><time>2026-04-06T12:46:17.08Z</time></trkpt><trkpt lat="53.43369" lon="14.7640717"><ele>19.2</ele><time>2026-04-06T12:46:18.078Z</time></trkpt><trkpt lat="53.4337167" lon="14.764185"><ele>19.4</ele><time>2026-04-06T12:46:19.077Z</time></trkpt><trkpt lat="53.4337567" lon="14.7643533"><ele>19.6</ele><time>2026-04-06T12:46:21.08Z</time></trkpt><trkpt lat="53.4338233" lon="14.7645167"><ele>19.8</ele><time>2026-04-06T12:46:23.082Z</time></trkpt><trkpt lat="53.43387" lon="14.76462"><ele>20.0</ele><time>2026-04-06T12:46:24.082Z</time></trkpt><trkpt lat="53.43393" lon="14.7647417"><ele>20.0</ele><time>2026-04-06T12:46:25.079Z</time></trkpt><trkpt lat="53.4339883" lon="14.76488"><ele>20.0</ele><time>2026-04-06T12:46:26.079Z</time></trkpt><trkpt lat="53.43405" lon="14.7650433"><ele>20.0</ele><time>2026-04-06T12:46:27.079Z</time></trkpt><trkpt lat="53.4341233" lon="14.7652083"><ele>20.0</ele><time>2026-04-06T12:46:28.084Z</time></trkpt><trkpt lat="53.43419" lon="14.7653583"><ele>20.0</ele><time>2026-04-06T12:46:29.072Z</time></trkpt><trkpt lat="53.43424" lon="14.76549"><ele>20.0</ele><time>2026-04-06T12:46:30.087Z</time></trkpt><trkpt lat="53.4342867" lon="14.7656233"><ele>20.0</ele><time>2026-04-06T12:46:31.075Z</time></trkpt><trkpt lat="53.4343383" lon="14.7657683"><ele>20.0</ele><time>2026-04-06T12:46:32.07Z</time></trkpt><trkpt lat="53.4343967" lon="14.7658967"><ele>20.0</ele><time>2026-04-06T12:46:33.078Z</time></trkpt><trkpt lat="53.4344567" lon="14.7660283"><ele>19.833333333333336</ele><time>2026-04-06T12:46:34.076Z</time></trkpt><trkpt lat="53.4345067" lon="14.76615"><ele>19.666666666666668</ele><time>2026-04-06T12:46:35.077Z</time></trkpt><trkpt lat="53.43456" lon="14.7662617"><ele>19.5</ele><time>2026-04-06T12:46:36.079Z</time></trkpt><trkpt lat="53.4346067" lon="14.7663667"><ele>19.333333333333332</ele><time>2026-04-06T12:46:37.075Z</time></trkpt><trkpt lat="53.4346475" lon="14.7664585"><ele>19.166666666666664</ele><time>2026-04-06T12:46:38.082Z</time></trkpt><trkpt lat="53.4347026" lon="14.7666071"><ele>19.0</ele><time>2026-04-06T12:46:40.076Z</time></trkpt><trkpt lat="53.4347046" lon="14.7667494"><ele>19.0</ele><time>2026-04-06T12:46:43.074Z</time></trkpt><trkpt lat="53.4346519" lon="14.7668669"><ele>19.0</ele><time>2026-04-06T12:46:46.081Z</time></trkpt><trkpt lat="53.434568" lon="14.7670248"><ele>19.0</ele><time>2026-04-06T12:46:48.082Z</time></trkpt><trkpt lat="53.4345057" lon="14.7671384"><ele>19.0</ele><time>2026-04-06T12:46:49.074Z</time></trkpt><trkpt lat="53.4344288" lon="14.7672768"><ele>19.0</ele><time>2026-04-06T12:46:50.072Z</time></trkpt><trkpt lat="53.4343496" lon="14.767423"><ele>19.0</ele><time>2026-04-06T12:46:51.075Z</time></trkpt><trkpt lat="53.4342716" lon="14.7675699"><ele>19.0</ele><time>2026-04-06T12:46:52.077Z</time></trkpt><trkpt lat="53.4342033" lon="14.7676952"><ele>19.0</ele><time>2026-04-06T12:46:53.076Z</time></trkpt><trkpt lat="53.434147" lon="14.7677988"><ele>19.0</ele><time>2026-04-06T12:46:54.076Z</time></trkpt><trkpt lat="53.4341041" lon="14.767878"><ele>19.0</ele><time>2026-04-06T12:46:55.081Z</time></trkpt><trkpt lat="53.4340595" lon="14.7679616"><ele>19.0</ele><time>2026-04-06T12:46:58.071Z</time></trkpt><trkpt lat="53.4339967" lon="14.7680748"><ele>19.0</ele><time>2026-04-06T12:47:13.072Z</time></trkpt><trkpt lat="53.4339368" lon="14.7681737"><ele>19.0</ele><time>2026-04-06T12:47:14.076Z</time></trkpt><trkpt lat="53.4338767" lon="14.768275"><ele>19.0</ele><time>2026-04-06T12:47:15.073Z</time></trkpt><trkpt lat="53.4338017" lon="14.7684067"><ele>19.0</ele><time>2026-04-06T12:47:17.072Z</time></trkpt><trkpt lat="53.4337567" lon="14.7685217"><ele>19.0</ele><time>2026-04-06T12:47:20.077Z</time></trkpt><trkpt lat="53.4337517" lon="14.7686567"><ele>19.0</ele><time>2026-04-06T12:47:22.075Z</time></trkpt><trkpt lat="53.4337817" lon="14.7688117"><ele>18.8</ele><time>2026-04-06T12:47:24.073Z</time></trkpt><trkpt lat="53.43383" lon="14.7689417"><ele>18.599999999999998</ele><time>2026-04-06T12:47:26.095Z</time></trkpt><trkpt lat="53.433875" lon="14.7690767"><ele>18.4</ele><time>2026-04-06T12:47:28.066Z</time></trkpt><trkpt lat="53.43392" lon="14.7692117"><ele>18.2</ele><time>2026-04-06T12:47:30.081Z</time></trkpt><trkpt lat="53.4339567" lon="14.76936"><ele>18.0</ele><time>2026-04-06T12:47:32.077Z</time></trkpt><trkpt lat="53.4340167" lon="14.7695317"><ele>18.0</ele><time>2026-04-06T12:47:34.081Z</time></trkpt><trkpt lat="53.4340533" lon="14.76964"><ele>18.0</ele><time>2026-04-06T12:47:35.084Z</time></trkpt><trkpt lat="53.4341017" lon="14.7698033"><ele>18.0</ele><time>2026-04-06T12:47:36.089Z</time></trkpt><trkpt lat="53.4341483" lon="14.7699633"><ele>18.0</ele><time>2026-04-06T12:47:37.098Z</time></trkpt><trkpt lat="53.4341983" lon="14.770095"><ele>18.0</ele><time>2026-04-06T12:47:38.078Z</time></trkpt><trkpt lat="53.4342417" lon="14.7702283"><ele>18.2</ele><time>2026-04-06T12:47:39.097Z</time></trkpt><trkpt lat="53.4342883" lon="14.7703783"><ele>18.4</ele><time>2026-04-06T12:47:40.072Z</time></trkpt><trkpt lat="53.4343433" lon="14.7705317"><ele>18.599999999999998</ele><time>2026-04-06T12:47:41.073Z</time></trkpt><trkpt lat="53.4344033" lon="14.7706983"><ele>18.8</ele><time>2026-04-06T12:47:42.08Z</time></trkpt><trkpt lat="53.434465" lon="14.7708767"><ele>19.0</ele><time>2026-04-06T12:47:43.08Z</time></trkpt><trkpt lat="53.4345267" lon="14.7710583"><ele>19.2</ele><time>2026-04-06T12:47:44.079Z</time></trkpt><trkpt lat="53.43459" lon="14.7712167"><ele>19.4</ele><time>2026-04-06T12:47:45.08Z</time></trkpt><trkpt lat="53.4346417" lon="14.771355"><ele>19.6</ele><time>2026-04-06T12:47:46.085Z</time></trkpt><trkpt lat="53.434685" lon="14.7714767"><ele>19.8</ele><time>2026-04-06T12:47:47.079Z</time></trkpt><trkpt lat="53.4347233" lon="14.7716"><ele>20.0</ele><time>2026-04-06T12:47:48.082Z</time></trkpt><trkpt lat="53.4347683" lon="14.7717367"><ele>19.4</ele><time>2026-04-06T12:47:49.075Z</time></trkpt><trkpt lat="53.43483" lon="14.7718883"><ele>18.8</ele><time>2026-04-06T12:47:50.076Z</time></trkpt><trkpt lat="53.434885" lon="14.7720317"><ele>18.2</ele><time>2026-04-06T12:47:51.078Z</time></trkpt><trkpt lat="53.43493" lon="14.7721533"><ele>17.6</ele><time>2026-04-06T12:47:52.081Z</time></trkpt><trkpt lat="53.4349783" lon="14.7722617"><ele>17.0</ele><time>2026-04-06T12:47:53.078Z</time></trkpt><trkpt lat="53.4350333" lon="14.772385"><ele>17.0</ele><time>2026-04-06T12:47:54.079Z</time></trkpt><trkpt lat="53.4350917" lon="14.7725183"><ele>17.0</ele><time>2026-04-06T12:47:55.081Z</time></trkpt><trkpt lat="53.4351467" lon="14.7726433"><ele>17.0</ele><time>2026-04-06T12:47:56.075Z</time></trkpt><trkpt lat="53.435205" lon="14.7727867"><ele>17.0</ele><time>2026-04-06T12:47:57.077Z</time></trkpt><trkpt lat="53.4352733" lon="14.7729467"><ele>17.0</ele><time>2026-04-06T12:47:58.068Z</time></trkpt><trkpt lat="53.4353483" lon="14.7731333"><ele>16.75</ele><time>2026-04-06T12:47:59.082Z</time></trkpt><trkpt lat="53.4354433" lon="14.7733383"><ele>16.5</ele><time>2026-04-06T12:48:00.078Z</time></trkpt><trkpt lat="53.4355317" lon="14.77354"><ele>16.25</ele><time>2026-04-06T12:48:01.079Z</time></trkpt><trkpt lat="53.4356083" lon="14.7737233"><ele>16.0</ele><time>2026-04-06T12:48:02.078Z</time></trkpt><trkpt lat="53.4356667" lon="14.7738767"><ele>15.666666666666666</ele><time>2026-04-06T12:48:03.078Z</time></trkpt><trkpt lat="53.4357133" lon="14.7739933"><ele>15.333333333333332</ele><time>2026-04-06T12:48:04.078Z</time></trkpt><trkpt lat="53.4357683" lon="14.7741083"><ele>15.0</ele><time>2026-04-06T12:48:06.077Z</time></trkpt><trkpt lat="53.4358001" lon="14.7740112"><ele>14.666666666666668</ele><time>2026-04-06T12:48:09.079Z</time></trkpt><trkpt lat="53.4357635" lon="14.7738862"><ele>14.333333333333334</ele><time>2026-04-06T12:48:11.083Z</time></trkpt><trkpt lat="53.4357515" lon="14.7737724"><ele>14.0</ele><time>2026-04-06T12:48:13.078Z</time></trkpt><trkpt lat="53.4358134" lon="14.7736515"><ele>14.0</ele><time>2026-04-06T12:48:15.081Z</time></trkpt><trkpt lat="53.4358646" lon="14.7735779"><ele>13.999999999999998</ele><time>2026-04-06T12:48:16.085Z</time></trkpt><trkpt lat="53.4359326" lon="14.7735013"><ele>13.999999999999998</ele><time>2026-04-06T12:48:17.072Z</time></trkpt><trkpt lat="53.4360136" lon="14.7734145"><ele>14.0</ele><time>2026-04-06T12:48:18.077Z</time></trkpt><trkpt lat="53.4361133" lon="14.7733034"><ele>14.0</ele><time>2026-04-06T12:48:19.081Z</time></trkpt><trkpt lat="53.4362266" lon="14.7731759"><ele>14.0</ele><time>2026-04-06T12:48:20.082Z</time></trkpt><trkpt lat="53.4363432" lon="14.7730519"><ele>14.0</ele><time>2026-04-06T12:48:21.095Z</time></trkpt><trkpt lat="53.4364502" lon="14.7729461"><ele>14.0</ele><time>2026-04-06T12:48:22.083Z</time></trkpt><trkpt lat="53.4365416" lon="14.7728528"><ele>14.0</ele><time>2026-04-06T12:48:23.097Z</time></trkpt><trkpt lat="53.4366212" lon="14.7727776"><ele>14.0</ele><time>2026-04-06T12:48:24.077Z</time></trkpt><trkpt lat="53.4367047" lon="14.7727202"><ele>13.999999999999998</ele><time>2026-04-06T12:48:25.081Z</time></trkpt><trkpt lat="53.436793" lon="14.7726825"><ele>13.999999999999998</ele><time>2026-04-06T12:48:26.076Z</time></trkpt><trkpt lat="53.4368849" lon="14.772665"><ele>14.0</ele><time>2026-04-06T12:48:27.084Z</time></trkpt><trkpt lat="53.4369779" lon="14.7726542"><ele>14.0</ele><time>2026-04-06T12:48:28.078Z</time></trkpt><trkpt lat="53.4370626" lon="14.7726561"><ele>13.666666666666668</ele><time>2026-04-06T12:48:29.084Z</time></trkpt><trkpt lat="53.4371403" lon="14.7726864"><ele>13.333333333333334</ele><time>2026-04-06T12:48:30.073Z</time></trkpt><trkpt lat="53.4372117" lon="14.7727683"><ele>13.0</ele><time>2026-04-06T12:48:31.084Z</time></trkpt><trkpt lat="53.4372833" lon="14.7728583"><ele>12.666666666666668</ele><time>2026-04-06T12:48:32.075Z</time></trkpt><trkpt lat="53.4373433" lon="14.77298"><ele>12.333333333333334</ele><time>2026-04-06T12:48:33.087Z</time></trkpt><trkpt lat="53.4373917" lon="14.7731033"><ele>12.0</ele><time>2026-04-06T12:48:34.076Z</time></trkpt><trkpt lat="53.4374317" lon="14.7732217"><ele>12.0</ele><time>2026-04-06T12:48:35.075Z</time></trkpt><trkpt lat="53.4374667" lon="14.7733333"><ele>12.0</ele><time>2026-04-06T12:48:36.081Z</time></trkpt><trkpt lat="53.437495" lon="14.7734467"><ele>12.0</ele><time>2026-04-06T12:48:37.083Z</time></trkpt><trkpt lat="53.4375217" lon="14.77358"><ele>12.0</ele><time>2026-04-06T12:48:38.079Z</time></trkpt><trkpt lat="53.4375483" lon="14.7737183"><ele>12.0</ele><time>2026-04-06T12:48:39.098Z</time></trkpt><trkpt lat="53.4375783" lon="14.7738617"><ele>12.0</ele><time>2026-04-06T12:48:40.075Z</time></trkpt><trkpt lat="53.4376167" lon="14.77402"><ele>12.333333333333334</ele><time>2026-04-06T12:48:41.079Z</time></trkpt><trkpt lat="53.4376583" lon="14.7741717"><ele>12.666666666666668</ele><time>2026-04-06T12:48:42.074Z</time></trkpt><trkpt lat="53.4376967" lon="14.7743183"><ele>13.0</ele><time>2026-04-06T12:48:43.086Z</time></trkpt><trkpt lat="53.4377317" lon="14.7744483"><ele>13.333333333333334</ele><time>2026-04-06T12:48:44.076Z</time></trkpt><trkpt lat="53.437765" lon="14.77457"><ele>13.666666666666668</ele><time>2026-04-06T12:48:45.083Z</time></trkpt><trkpt lat="53.437795" lon="14.774685"><ele>14.0</ele><time>2026-04-06T12:48:46.076Z</time></trkpt><trkpt lat="53.437835" lon="14.774785"><ele>14.0</ele><time>2026-04-06T12:48:47.088Z</time></trkpt><trkpt lat="53.43792" lon="14.7749333"><ele>13.999999999999998</ele><time>2026-04-06T12:48:49.083Z</time></trkpt><trkpt lat="53.43804" lon="14.774975"><ele>13.999999999999998</ele><time>2026-04-06T12:48:51.088Z</time></trkpt><trkpt lat="53.4381217" lon="14.774945"><ele>14.0</ele><time>2026-04-06T12:48:52.085Z</time></trkpt><trkpt lat="53.4382067" lon="14.774895"><ele>14.0</ele><time>2026-04-06T12:48:53.067Z</time></trkpt><trkpt lat="53.4382867" lon="14.7748417"><ele>14.0</ele><time>2026-04-06T12:48:54.09Z</time></trkpt><trkpt lat="53.4383617" lon="14.7747917"><ele>13.999999999999998</ele><time>2026-04-06T12:48:55.081Z</time></trkpt><trkpt lat="53.43844" lon="14.7747433"><ele>13.999999999999998</ele><time>2026-04-06T12:48:56.073Z</time></trkpt><trkpt lat="53.438525" lon="14.77469"><ele>14.0</ele><time>2026-04-06T12:48:57.076Z</time></trkpt><trkpt lat="53.43862" lon="14.7746367"><ele>14.0</ele><time>2026-04-06T12:48:58.075Z</time></trkpt><trkpt lat="53.438715" lon="14.7745917"><ele>14.333333333333334</ele><time>2026-04-06T12:48:59.084Z</time></trkpt><trkpt lat="53.43881" lon="14.7745417"><ele>14.666666666666668</ele><time>2026-04-06T12:49:00.078Z</time></trkpt><trkpt lat="53.4388883" lon="14.774505"><ele>15.0</ele><time>2026-04-06T12:49:01.084Z</time></trkpt><trkpt lat="53.43896" lon="14.7744683"><ele>15.333333333333332</ele><time>2026-04-06T12:49:02.072Z</time></trkpt><trkpt lat="53.439025" lon="14.774435"><ele>15.666666666666666</ele><time>2026-04-06T12:49:03.073Z</time></trkpt><trkpt lat="53.43913" lon="14.7743767"><ele>16.0</ele><time>2026-04-06T12:49:05.075Z</time></trkpt><trkpt lat="53.439225" lon="14.7743567"><ele>16.0</ele><time>2026-04-06T12:49:07.073Z</time></trkpt><trkpt lat="53.4393233" lon="14.7744517"><ele>16.0</ele><time>2026-04-06T12:49:09.086Z</time></trkpt><trkpt lat="53.4393583" lon="14.77456"><ele>16.0</ele><time>2026-04-06T12:49:10.078Z</time></trkpt><trkpt lat="53.439385" lon="14.7747"><ele>16.0</ele><time>2026-04-06T12:49:11.092Z</time></trkpt><trkpt lat="53.439415" lon="14.7748583"><ele>16.0</ele><time>2026-04-06T12:49:12.078Z</time></trkpt><trkpt lat="53.4394433" lon="14.77503"><ele>16.6</ele><time>2026-04-06T12:49:13.079Z</time></trkpt><trkpt lat="53.43946" lon="14.77521"><ele>17.200000000000003</ele><time>2026-04-06T12:49:14.085Z</time></trkpt><trkpt lat="53.4394817" lon="14.7753933"><ele>17.799999999999997</ele><time>2026-04-06T12:49:15.08Z</time></trkpt><trkpt lat="53.4395017" lon="14.7755817"><ele>18.4</ele><time>2026-04-06T12:49:16.074Z</time></trkpt><trkpt lat="53.4395133" lon="14.7757683"><ele>19.0</ele><time>2026-04-06T12:49:17.08Z</time></trkpt><trkpt lat="53.439525" lon="14.7759467"><ele>19.2</ele><time>2026-04-06T12:49:18.076Z</time></trkpt><trkpt lat="53.4395367" lon="14.7761083"><ele>19.4</ele><time>2026-04-06T12:49:19.083Z</time></trkpt><trkpt lat="53.4395517" lon="14.7762417"><ele>19.6</ele><time>2026-04-06T12:49:20.07Z</time></trkpt><trkpt lat="53.4395717" lon="14.7763517"><ele>19.8</ele><time>2026-04-06T12:49:21.08Z</time></trkpt><trkpt lat="53.4396483" lon="14.7764583"><ele>20.0</ele><time>2026-04-06T12:49:23.065Z</time></trkpt><trkpt lat="53.4397733" lon="14.7764533"><ele>20.0</ele><time>2026-04-06T12:49:25.091Z</time></trkpt><trkpt lat="53.43988" lon="14.7764083"><ele>20.0</ele><time>2026-04-06T12:49:26.097Z</time></trkpt><trkpt lat="53.4399867" lon="14.7763817"><ele>20.0</ele><time>2026-04-06T12:49:27.085Z</time></trkpt><trkpt lat="53.44009" lon="14.7763567"><ele>20.0</ele><time>2026-04-06T12:49:28.077Z</time></trkpt><trkpt lat="53.4402017" lon="14.77633"><ele>20.0</ele><time>2026-04-06T12:49:29.087Z</time></trkpt><trkpt lat="53.4403133" lon="14.7763"><ele>20.0</ele><time>2026-04-06T12:49:30.078Z</time></trkpt><trkpt lat="53.4404167" lon="14.77628"><ele>20.0</ele><time>2026-04-06T12:49:31.096Z</time></trkpt><trkpt lat="53.4405063" lon="14.7762714"><ele>20.0</ele><time>2026-04-06T12:49:32.087Z</time></trkpt><trkpt lat="53.4406007" lon="14.7762582"><ele>20.0</ele><time>2026-04-06T12:49:33.083Z</time></trkpt><trkpt lat="53.4407012" lon="14.7762229"><ele>20.0</ele><time>2026-04-06T12:49:34.082Z</time></trkpt><trkpt lat="53.4408051" lon="14.7761642"><ele>20.6</ele><time>2026-04-06T12:49:35.087Z</time></trkpt><trkpt lat="53.440909" lon="14.7760956"><ele>21.2</ele><time>2026-04-06T12:49:36.091Z</time></trkpt><trkpt lat="53.4410055" lon="14.7760423"><ele>21.799999999999997</ele><time>2026-04-06T12:49:37.095Z</time></trkpt><trkpt lat="53.4411109" lon="14.7759981"><ele>22.4</ele><time>2026-04-06T12:49:38.079Z</time></trkpt><trkpt lat="53.4412254" lon="14.7759551"><ele>23.0</ele><time>2026-04-06T12:49:39.097Z</time></trkpt><trkpt lat="53.4413474" lon="14.7759125"><ele>23.0</ele><time>2026-04-06T12:49:40.085Z</time></trkpt><trkpt lat="53.4414806" lon="14.7758648"><ele>23.0</ele><time>2026-04-06T12:49:41.102Z</time></trkpt><trkpt lat="53.4415918" lon="14.7758252"><ele>23.0</ele><time>2026-04-06T12:49:42.092Z</time></trkpt><trkpt lat="53.4416905" lon="14.7757936"><ele>23.0</ele><time>2026-04-06T12:49:43.092Z</time></trkpt><trkpt lat="53.4417745" lon="14.7757725"><ele>23.0</ele><time>2026-04-06T12:49:44.081Z</time></trkpt><trkpt lat="53.4418495" lon="14.7757553"><ele>23.0</ele><time>2026-04-06T12:49:45.088Z</time></trkpt><trkpt lat="53.4419616" lon="14.7757322"><ele>23.0</ele><time>2026-04-06T12:49:47.077Z</time></trkpt><trkpt lat="53.4420386" lon="14.7757143"><ele>23.0</ele><time>2026-04-06T12:49:49.081Z</time></trkpt><trkpt lat="53.4421265" lon="14.7756825"><ele>23.0</ele><time>2026-04-06T12:49:52.077Z</time></trkpt><trkpt lat="53.4422465" lon="14.7756464"><ele>23.0</ele><time>2026-04-06T12:49:54.079Z</time></trkpt><trkpt lat="53.4423363" lon="14.7756225"><ele>22.75</ele><time>2026-04-06T12:49:55.082Z</time></trkpt><trkpt lat="53.4424371" lon="14.7755936"><ele>22.5</ele><time>2026-04-06T12:49:56.076Z</time></trkpt><trkpt lat="53.4425475" lon="14.7755546"><ele>22.25</ele><time>2026-04-06T12:49:57.085Z</time></trkpt><trkpt lat="53.4426634" lon="14.7755069"><ele>22.0</ele><time>2026-04-06T12:49:58.079Z</time></trkpt><trkpt lat="53.4427826" lon="14.7754469"><ele>22.0</ele><time>2026-04-06T12:49:59.1Z</time></trkpt><trkpt lat="53.442898" lon="14.7753899"><ele>22.0</ele><time>2026-04-06T12:50:00.078Z</time></trkpt><trkpt lat="53.4430101" lon="14.7753415"><ele>22.0</ele><time>2026-04-06T12:50:01.075Z</time></trkpt><trkpt lat="53.4431216" lon="14.7752997"><ele>22.0</ele><time>2026-04-06T12:50:02.077Z</time></trkpt><trkpt lat="53.4432329" lon="14.7752637"><ele>22.200000000000003</ele><time>2026-04-06T12:50:03.079Z</time></trkpt><trkpt lat="53.4433445" lon="14.7752386"><ele>22.4</ele><time>2026-04-06T12:50:04.088Z</time></trkpt><trkpt lat="53.4434535" lon="14.7752221"><ele>22.6</ele><time>2026-04-06T12:50:05.089Z</time></trkpt><trkpt lat="53.4435645" lon="14.7752105"><ele>22.799999999999997</ele><time>2026-04-06T12:50:06.08Z</time></trkpt><trkpt lat="53.4436764" lon="14.7752019"><ele>23.0</ele><time>2026-04-06T12:50:07.08Z</time></trkpt><trkpt lat="53.4437867" lon="14.7751872"><ele>22.599999999999998</ele><time>2026-04-06T12:50:08.083Z</time></trkpt><trkpt lat="53.443896" lon="14.7751706"><ele>22.2</ele><time>2026-04-06T12:50:09.097Z</time></trkpt><trkpt lat="53.4440028" lon="14.7751595"><ele>21.8</ele><time>2026-04-06T12:50:10.078Z</time></trkpt><trkpt lat="53.4441074" lon="14.7751443"><ele>21.4</ele><time>2026-04-06T12:50:11.079Z</time></trkpt><trkpt lat="53.44421" lon="14.7751303"><ele>21.0</ele><time>2026-04-06T12:50:12.082Z</time></trkpt><trkpt lat="53.4443219" lon="14.7751123"><ele>21.0</ele><time>2026-04-06T12:50:13.078Z</time></trkpt><trkpt lat="53.444438" lon="14.7750944"><ele>21.0</ele><time>2026-04-06T12:50:14.07Z</time></trkpt><trkpt lat="53.4445584" lon="14.7750826"><ele>21.0</ele><time>2026-04-06T12:50:15.085Z</time></trkpt><trkpt lat="53.4446762" lon="14.7750761"><ele>21.0</ele><time>2026-04-06T12:50:16.078Z</time></trkpt><trkpt lat="53.444794" lon="14.7750787"><ele>21.8</ele><time>2026-04-06T12:50:17.087Z</time></trkpt><trkpt lat="53.4449049" lon="14.7750911"><ele>22.6</ele><time>2026-04-06T12:50:18.078Z</time></trkpt><trkpt lat="53.4450129" lon="14.7751056"><ele>23.4</ele><time>2026-04-06T12:50:19.08Z</time></trkpt><trkpt lat="53.4451207" lon="14.7751261"><ele>24.2</ele><time>2026-04-06T12:50:20.078Z</time></trkpt><trkpt lat="53.4452277" lon="14.7751463"><ele>25.0</ele><time>2026-04-06T12:50:21.081Z</time></trkpt><trkpt lat="53.4453279" lon="14.7751611"><ele>25.0</ele><time>2026-04-06T12:50:22.089Z</time></trkpt><trkpt lat="53.445429" lon="14.7751784"><ele>25.0</ele><time>2026-04-06T12:50:23.07Z</time></trkpt><trkpt lat="53.4455313" lon="14.7751982"><ele>25.0</ele><time>2026-04-06T12:50:24.078Z</time></trkpt><trkpt lat="53.4456303" lon="14.775208"><ele>25.0</ele><time>2026-04-06T12:50:25.094Z</time></trkpt><trkpt lat="53.4457183" lon="14.7752126"><ele>25.0</ele><time>2026-04-06T12:50:26.086Z</time></trkpt><trkpt lat="53.4458007" lon="14.7752128"><ele>25.000000000000004</ele><time>2026-04-06T12:50:27.106Z</time></trkpt><trkpt lat="53.4458795" lon="14.7752147"><ele>25.0</ele><time>2026-04-06T12:50:28.081Z</time></trkpt><trkpt lat="53.4459629" lon="14.7752192"><ele>25.0</ele><time>2026-04-06T12:50:29.079Z</time></trkpt><trkpt lat="53.4460467" lon="14.775225"><ele>25.0</ele><time>2026-04-06T12:50:30.079Z</time></trkpt><trkpt lat="53.4461338" lon="14.7752174"><ele>25.000000000000004</ele><time>2026-04-06T12:50:31.086Z</time></trkpt><trkpt lat="53.446218" lon="14.7752"><ele>25.0</ele><time>2026-04-06T12:50:32.081Z</time></trkpt><trkpt lat="53.4462894" lon="14.7751809"><ele>24.833333333333336</ele><time>2026-04-06T12:50:33.09Z</time></trkpt><trkpt lat="53.446413" lon="14.7751391"><ele>24.666666666666668</ele><time>2026-04-06T12:50:35.08Z</time></trkpt><trkpt lat="53.4464773" lon="14.7751145"><ele>24.5</ele><time>2026-04-06T12:50:36.08Z</time></trkpt><trkpt lat="53.4465459" lon="14.7750934"><ele>24.333333333333336</ele><time>2026-04-06T12:50:37.082Z</time></trkpt><trkpt lat="53.4466182" lon="14.7750736"><ele>24.166666666666668</ele><time>2026-04-06T12:50:38.076Z</time></trkpt><trkpt lat="53.4466937" lon="14.7750563"><ele>24.0</ele><time>2026-04-06T12:50:39.103Z</time></trkpt><trkpt lat="53.4467776" lon="14.7750337"><ele>24.0</ele><time>2026-04-06T12:50:40.079Z</time></trkpt><trkpt lat="53.4468634" lon="14.7750057"><ele>24.0</ele><time>2026-04-06T12:50:41.076Z</time></trkpt><trkpt lat="53.4469436" lon="14.7749776"><ele>24.0</ele><time>2026-04-06T12:50:42.076Z</time></trkpt><trkpt lat="53.4470235" lon="14.7749486"><ele>24.0</ele><time>2026-04-06T12:50:43.081Z</time></trkpt><trkpt lat="53.4470976" lon="14.7749216"><ele>24.0</ele><time>2026-04-06T12:50:44.075Z</time></trkpt><trkpt lat="53.4471652" lon="14.7749035"><ele>24.0</ele><time>2026-04-06T12:50:45.087Z</time></trkpt><trkpt lat="53.4472299" lon="14.7748863"><ele>23.833333333333332</ele><time>2026-04-06T12:50:46.08Z</time></trkpt><trkpt lat="53.4473018" lon="14.7748598"><ele>23.666666666666668</ele><time>2026-04-06T12:50:47.082Z</time></trkpt><trkpt lat="53.4473845" lon="14.7748273"><ele>23.5</ele><time>2026-04-06T12:50:48.079Z</time></trkpt><trkpt lat="53.4474716" lon="14.7747946"><ele>23.333333333333336</ele><time>2026-04-06T12:50:49.081Z</time></trkpt><trkpt lat="53.4475619" lon="14.7747633"><ele>23.166666666666668</ele><time>2026-04-06T12:50:50.086Z</time></trkpt><trkpt lat="53.4476523" lon="14.7747322"><ele>23.0</ele><time>2026-04-06T12:50:51.086Z</time></trkpt><trkpt lat="53.4477399" lon="14.7747036"><ele>23.0</ele><time>2026-04-06T12:50:52.082Z</time></trkpt><trkpt lat="53.4478284" lon="14.7746772"><ele>23.0</ele><time>2026-04-06T12:50:53.082Z</time></trkpt><trkpt lat="53.4479229" lon="14.7746445"><ele>23.0</ele><time>2026-04-06T12:50:54.08Z</time></trkpt><trkpt lat="53.4480247" lon="14.7746042"><ele>23.0</ele><time>2026-04-06T12:50:55.079Z</time></trkpt><trkpt lat="53.4481297" lon="14.7745651"><ele>23.0</ele><time>2026-04-06T12:50:56.068Z</time></trkpt><trkpt lat="53.4482248" lon="14.7745303"><ele>22.833333333333336</ele><time>2026-04-06T12:50:57.086Z</time></trkpt><trkpt lat="53.4483059" lon="14.774498"><ele>22.666666666666668</ele><time>2026-04-06T12:50:58.075Z</time></trkpt><trkpt lat="53.4483844" lon="14.7744699"><ele>22.5</ele><time>2026-04-06T12:50:59.099Z</time></trkpt><trkpt lat="53.4484564" lon="14.7744673"><ele>22.333333333333332</ele><time>2026-04-06T12:51:00.087Z</time></trkpt><trkpt lat="53.4485252" lon="14.7744943"><ele>22.166666666666664</ele><time>2026-04-06T12:51:01.082Z</time></trkpt><trkpt lat="53.4485971" lon="14.7745557"><ele>22.0</ele><time>2026-04-06T12:51:02.076Z</time></trkpt><trkpt lat="53.4486663" lon="14.7746586"><ele>22.0</ele><time>2026-04-06T12:51:03.082Z</time></trkpt><trkpt lat="53.4487234" lon="14.7747729"><ele>22.0</ele><time>2026-04-06T12:51:04.076Z</time></trkpt><trkpt lat="53.4487745" lon="14.7748789"><ele>22.0</ele><time>2026-04-06T12:51:05.088Z</time></trkpt><trkpt lat="53.448824" lon="14.7749771"><ele>22.0</ele><time>2026-04-06T12:51:06.085Z</time></trkpt><trkpt lat="53.4488821" lon="14.7750792"><ele>22.0</ele><time>2026-04-06T12:51:07.09Z</time></trkpt><trkpt lat="53.4489467" lon="14.7751978"><ele>22.0</ele><time>2026-04-06T12:51:08.078Z</time></trkpt><trkpt lat="53.4490348" lon="14.7753519"><ele>21.666666666666664</ele><time>2026-04-06T12:51:09.077Z</time></trkpt><trkpt lat="53.4491446" lon="14.7755333"><ele>21.333333333333332</ele><time>2026-04-06T12:51:10.091Z</time></trkpt><trkpt lat="53.4492643" lon="14.7757228"><ele>21.0</ele><time>2026-04-06T12:51:11.08Z</time></trkpt><trkpt lat="53.4493911" lon="14.7759228"><ele>20.333333333333332</ele><time>2026-04-06T12:51:12.092Z</time></trkpt><trkpt lat="53.449515" lon="14.7761223"><ele>19.666666666666664</ele><time>2026-04-06T12:51:13.084Z</time></trkpt><trkpt lat="53.4496344" lon="14.776319"><ele>19.0</ele><time>2026-04-06T12:51:14.073Z</time></trkpt><trkpt lat="53.4497515" lon="14.7765131"><ele>19.0</ele><time>2026-04-06T12:51:15.088Z</time></trkpt><trkpt lat="53.4498642" lon="14.7767001"><ele>19.0</ele><time>2026-04-06T12:51:16.075Z</time></trkpt><trkpt lat="53.4499797" lon="14.7768857"><ele>19.0</ele><time>2026-04-06T12:51:17.098Z</time></trkpt><trkpt lat="53.4500896" lon="14.7770597"><ele>20.0</ele><time>2026-04-06T12:51:18.075Z</time></trkpt><trkpt lat="53.4501944" lon="14.7772366"><ele>21.0</ele><time>2026-04-06T12:51:19.077Z</time></trkpt><trkpt lat="53.4502948" lon="14.7774129"><ele>22.0</ele><time>2026-04-06T12:51:20.072Z</time></trkpt><trkpt lat="53.4503923" lon="14.7775716"><ele>23.0</ele><time>2026-04-06T12:51:21.086Z</time></trkpt><trkpt lat="53.4504779" lon="14.7776912"><ele>23.0</ele><time>2026-04-06T12:51:22.074Z</time></trkpt><trkpt lat="53.4505287" lon="14.7777737"><ele>23.0</ele><time>2026-04-06T12:51:23.084Z</time></trkpt><trkpt lat="53.4505717" lon="14.77789"><ele>23.0</ele><time>2026-04-06T12:51:26.072Z</time></trkpt><trkpt lat="53.4506333" lon="14.7779967"><ele>23.0</ele><time>2026-04-06T12:51:28.079Z</time></trkpt><trkpt lat="53.4506883" lon="14.7780783"><ele>23.0</ele><time>2026-04-06T12:51:29.086Z</time></trkpt><trkpt lat="53.4507517" lon="14.77818"><ele>23.0</ele><time>2026-04-06T12:51:30.079Z</time></trkpt><trkpt lat="53.4508233" lon="14.7782967"><ele>23.0</ele><time>2026-04-06T12:51:31.085Z</time></trkpt><trkpt lat="53.4509017" lon="14.7784233"><ele>23.0</ele><time>2026-04-06T12:51:32.08Z</time></trkpt><trkpt lat="53.4509817" lon="14.778545"><ele>23.0</ele><time>2026-04-06T12:51:33.086Z</time></trkpt><trkpt lat="53.45106" lon="14.7786683"><ele>23.0</ele><time>2026-04-06T12:51:34.07Z</time></trkpt><trkpt lat="53.4511417" lon="14.7787883"><ele>23.0</ele><time>2026-04-06T12:51:35.101Z</time></trkpt><trkpt lat="53.4512217" lon="14.7789133"><ele>23.5</ele><time>2026-04-06T12:51:36.074Z</time></trkpt><trkpt lat="53.4513117" lon="14.779045"><ele>24.0</ele><time>2026-04-06T12:51:37.082Z</time></trkpt><trkpt lat="53.4514083" lon="14.7791767"><ele>24.5</ele><time>2026-04-06T12:51:38.076Z</time></trkpt><trkpt lat="53.4515083" lon="14.7793083"><ele>25.0</ele><time>2026-04-06T12:51:39.093Z</time></trkpt><trkpt lat="53.4516033" lon="14.7794433"><ele>25.0</ele><time>2026-04-06T12:51:40.074Z</time></trkpt><trkpt lat="53.4517067" lon="14.7795783"><ele>25.0</ele><time>2026-04-06T12:51:41.078Z</time></trkpt><trkpt lat="53.451805" lon="14.7797183"><ele>25.0</ele><time>2026-04-06T12:51:42.083Z</time></trkpt><trkpt lat="53.4519067" lon="14.7798467"><ele>25.0</ele><time>2026-04-06T12:51:43.076Z</time></trkpt><trkpt lat="53.4520067" lon="14.7799633"><ele>25.0</ele><time>2026-04-06T12:51:44.079Z</time></trkpt><trkpt lat="53.4521033" lon="14.7800683"><ele>25.0</ele><time>2026-04-06T12:51:45.09Z</time></trkpt><trkpt lat="53.4522017" lon="14.7801683"><ele>25.0</ele><time>2026-04-06T12:51:46.082Z</time></trkpt><trkpt lat="53.4522967" lon="14.7802683"><ele>25.0</ele><time>2026-04-06T12:51:47.096Z</time></trkpt><trkpt lat="53.4523967" lon="14.780365"><ele>24.75</ele><time>2026-04-06T12:51:48.078Z</time></trkpt><trkpt lat="53.4524983" lon="14.7804617"><ele>24.5</ele><time>2026-04-06T12:51:49.087Z</time></trkpt><trkpt lat="53.4526" lon="14.7805533"><ele>24.25</ele><time>2026-04-06T12:51:50.08Z</time></trkpt><trkpt lat="53.4527" lon="14.780645"><ele>24.0</ele><time>2026-04-06T12:51:51.087Z</time></trkpt><trkpt lat="53.4528017" lon="14.7807383"><ele>24.0</ele><time>2026-04-06T12:51:52.08Z</time></trkpt><trkpt lat="53.4529067" lon="14.7808383"><ele>24.0</ele><time>2026-04-06T12:51:53.081Z</time></trkpt><trkpt lat="53.4530183" lon="14.7809433"><ele>24.0</ele><time>2026-04-06T12:51:54.083Z</time></trkpt><trkpt lat="53.453135" lon="14.78104"><ele>24.0</ele><time>2026-04-06T12:51:55.081Z</time></trkpt><trkpt lat="53.453245" lon="14.7811417"><ele>23.5</ele><time>2026-04-06T12:51:56.08Z</time></trkpt><trkpt lat="53.4533567" lon="14.7812433"><ele>23.0</ele><time>2026-04-06T12:51:57.079Z</time></trkpt><trkpt lat="53.45346" lon="14.78135"><ele>22.5</ele><time>2026-04-06T12:51:58.071Z</time></trkpt><trkpt lat="53.4535633" lon="14.781455"><ele>22.0</ele><time>2026-04-06T12:51:59.087Z</time></trkpt><trkpt lat="53.4536556" lon="14.7815512"><ele>22.0</ele><time>2026-04-06T12:52:00.08Z</time></trkpt><trkpt lat="53.4537448" lon="14.7816408"><ele>22.0</ele><time>2026-04-06T12:52:01.1Z</time></trkpt><trkpt lat="53.4538369" lon="14.7817142"><ele>22.0</ele><time>2026-04-06T12:52:02.078Z</time></trkpt><trkpt lat="53.4539342" lon="14.7817879"><ele>22.0</ele><time>2026-04-06T12:52:03.086Z</time></trkpt><trkpt lat="53.4540195" lon="14.7818648"><ele>22.0</ele><time>2026-04-06T12:52:04.084Z</time></trkpt><trkpt lat="53.454102" lon="14.7819309"><ele>22.200000000000003</ele><time>2026-04-06T12:52:05.081Z</time></trkpt><trkpt lat="53.4541921" lon="14.7819899"><ele>22.4</ele><time>2026-04-06T12:52:06.085Z</time></trkpt><trkpt lat="53.454286" lon="14.7820525"><ele>22.6</ele><time>2026-04-06T12:52:07.084Z</time></trkpt><trkpt lat="53.454382" lon="14.7821136"><ele>22.799999999999997</ele><time>2026-04-06T12:52:08.077Z</time></trkpt><trkpt lat="53.4544863" lon="14.782167"><ele>23.0</ele><time>2026-04-06T12:52:09.082Z</time></trkpt><trkpt lat="53.4545949" lon="14.782224"><ele>22.0</ele><time>2026-04-06T12:52:10.077Z</time></trkpt><trkpt lat="53.4547096" lon="14.7822889"><ele>21.0</ele><time>2026-04-06T12:52:11.075Z</time></trkpt><trkpt lat="53.4548333" lon="14.7823548"><ele>20.0</ele><time>2026-04-06T12:52:12.081Z</time></trkpt><trkpt lat="53.4549632" lon="14.7824165"><ele>19.0</ele><time>2026-04-06T12:52:13.077Z</time></trkpt><trkpt lat="53.4550927" lon="14.7824667"><ele>19.0</ele><time>2026-04-06T12:52:14.082Z</time></trkpt><trkpt lat="53.4552169" lon="14.7825158"><ele>19.0</ele><time>2026-04-06T12:52:15.075Z</time></trkpt><trkpt lat="53.4553336" lon="14.7825644"><ele>19.0</ele><time>2026-04-06T12:52:16.082Z</time></trkpt><trkpt lat="53.455443" lon="14.7826148"><ele>19.0</ele><time>2026-04-06T12:52:17.079Z</time></trkpt><trkpt lat="53.4555436" lon="14.7826617"><ele>18.599999999999998</ele><time>2026-04-06T12:52:18.082Z</time></trkpt><trkpt lat="53.4556403" lon="14.7826917"><ele>18.2</ele><time>2026-04-06T12:52:19.08Z</time></trkpt><trkpt lat="53.4557399" lon="14.7826966"><ele>17.799999999999997</ele><time>2026-04-06T12:52:20.076Z</time></trkpt><trkpt lat="53.4558409" lon="14.7826938"><ele>17.4</ele><time>2026-04-06T12:52:21.077Z</time></trkpt><trkpt lat="53.4559392" lon="14.782704"><ele>17.0</ele><time>2026-04-06T12:52:22.075Z</time></trkpt><trkpt lat="53.4560359" lon="14.7827364"><ele>17.0</ele><time>2026-04-06T12:52:23.084Z</time></trkpt><trkpt lat="53.4561352" lon="14.7827761"><ele>17.0</ele><time>2026-04-06T12:52:24.081Z</time></trkpt><trkpt lat="53.4562383" lon="14.7828156"><ele>17.0</ele><time>2026-04-06T12:52:25.079Z</time></trkpt><trkpt lat="53.4563345" lon="14.7828527"><ele>17.0</ele><time>2026-04-06T12:52:26.08Z</time></trkpt><trkpt lat="53.4564161" lon="14.7828854"><ele>17.0</ele><time>2026-04-06T12:52:27.079Z</time></trkpt><trkpt lat="53.4564871" lon="14.7829131"><ele>16.0</ele><time>2026-04-06T12:52:28.078Z</time></trkpt><trkpt lat="53.45655" lon="14.7829384"><ele>15.0</ele><time>2026-04-06T12:52:29.076Z</time></trkpt><trkpt lat="53.4566394" lon="14.7829628"><ele>14.0</ele><time>2026-04-06T12:52:31.072Z</time></trkpt><trkpt lat="53.4567069" lon="14.782962"><ele>13.0</ele><time>2026-04-06T12:52:33.075Z</time></trkpt><trkpt lat="53.4567869" lon="14.7829752"><ele>12.0</ele><time>2026-04-06T12:52:35.079Z</time></trkpt><trkpt lat="53.4568805" lon="14.7829906"><ele>11.0</ele><time>2026-04-06T12:52:37.086Z</time></trkpt><trkpt lat="53.4569824" lon="14.7830299"><ele>11.0</ele><time>2026-04-06T12:52:39.088Z</time></trkpt><trkpt lat="53.4570873" lon="14.7830753"><ele>11.0</ele><time>2026-04-06T12:52:41.088Z</time></trkpt><trkpt lat="53.4571988" lon="14.7831253"><ele>11.0</ele><time>2026-04-06T12:52:43.093Z</time></trkpt><trkpt lat="53.4572631" lon="14.7831496"><ele>11.0</ele><time>2026-04-06T12:52:44.085Z</time></trkpt><trkpt lat="53.4573805" lon="14.7831922"><ele>11.0</ele><time>2026-04-06T12:52:46.085Z</time></trkpt><trkpt lat="53.45751" lon="14.7832457"><ele>10.833333333333332</ele><time>2026-04-06T12:52:48.085Z</time></trkpt><trkpt lat="53.4575885" lon="14.7832778"><ele>10.666666666666666</ele><time>2026-04-06T12:52:49.098Z</time></trkpt><trkpt lat="53.4576717" lon="14.7833078"><ele>10.5</ele><time>2026-04-06T12:52:50.081Z</time></trkpt><trkpt lat="53.4577573" lon="14.7833415"><ele>10.333333333333334</ele><time>2026-04-06T12:52:51.079Z</time></trkpt><trkpt lat="53.4578463" lon="14.7833763"><ele>10.166666666666668</ele><time>2026-04-06T12:52:52.084Z</time></trkpt><trkpt lat="53.4579366" lon="14.7834075"><ele>10.0</ele><time>2026-04-06T12:52:53.083Z</time></trkpt><trkpt lat="53.458027" lon="14.7834414"><ele>10.0</ele><time>2026-04-06T12:52:54.084Z</time></trkpt><trkpt lat="53.4581167" lon="14.7834788"><ele>10.0</ele><time>2026-04-06T12:52:55.075Z</time></trkpt><trkpt lat="53.4582071" lon="14.7835146"><ele>10.0</ele><time>2026-04-06T12:52:56.078Z</time></trkpt><trkpt lat="53.4582974" lon="14.7835449"><ele>10.0</ele><time>2026-04-06T12:52:57.078Z</time></trkpt><trkpt lat="53.458389" lon="14.7835775"><ele>10.0</ele><time>2026-04-06T12:52:58.081Z</time></trkpt><trkpt lat="53.4584773" lon="14.783612"><ele>10.0</ele><time>2026-04-06T12:52:59.076Z</time></trkpt><trkpt lat="53.4585669" lon="14.7836502"><ele>10.0</ele><time>2026-04-06T12:53:00.081Z</time></trkpt><trkpt lat="53.4586547" lon="14.7836835"><ele>10.0</ele><time>2026-04-06T12:53:01.082Z</time></trkpt><trkpt lat="53.4587424" lon="14.7837144"><ele>10.0</ele><time>2026-04-06T12:53:02.078Z</time></trkpt><trkpt lat="53.4588298" lon="14.7837472"><ele>10.0</ele><time>2026-04-06T12:53:03.078Z</time></trkpt><trkpt lat="53.4589167" lon="14.783778"><ele>10.0</ele><time>2026-04-06T12:53:04.081Z</time></trkpt><trkpt lat="53.4590013" lon="14.7838051"><ele>10.0</ele><time>2026-04-06T12:53:05.072Z</time></trkpt><trkpt lat="53.4590872" lon="14.7838337"><ele>10.0</ele><time>2026-04-06T12:53:06.079Z</time></trkpt><trkpt lat="53.4591741" lon="14.7838588"><ele>10.0</ele><time>2026-04-06T12:53:07.084Z</time></trkpt><trkpt lat="53.4592606" lon="14.7838779"><ele>10.0</ele><time>2026-04-06T12:53:08.077Z</time></trkpt><trkpt lat="53.4593471" lon="14.7838964"><ele>10.0</ele><time>2026-04-06T12:53:09.087Z</time></trkpt><trkpt lat="53.4594321" lon="14.7839097"><ele>10.0</ele><time>2026-04-06T12:53:10.08Z</time></trkpt><trkpt lat="53.4595144" lon="14.7839219"><ele>10.0</ele><time>2026-04-06T12:53:11.091Z</time></trkpt><trkpt lat="53.4595906" lon="14.7839412"><ele>10.0</ele><time>2026-04-06T12:53:12.074Z</time></trkpt><trkpt lat="53.4596643" lon="14.7839664"><ele>10.0</ele><time>2026-04-06T12:53:13.085Z</time></trkpt><trkpt lat="53.4597369" lon="14.7839973"><ele>10.0</ele><time>2026-04-06T12:53:14.082Z</time></trkpt><trkpt lat="53.4598046" lon="14.7840359"><ele>10.0</ele><time>2026-04-06T12:53:15.087Z</time></trkpt><trkpt lat="53.4598733" lon="14.7840587"><ele>10.0</ele><time>2026-04-06T12:53:16.083Z</time></trkpt><trkpt lat="53.4599515" lon="14.7840671"><ele>10.0</ele><time>2026-04-06T12:53:17.078Z</time></trkpt><trkpt lat="53.4600378" lon="14.78407"><ele>10.0</ele><time>2026-04-06T12:53:18.073Z</time></trkpt><trkpt lat="53.4601261" lon="14.7840781"><ele>10.0</ele><time>2026-04-06T12:53:19.075Z</time></trkpt><trkpt lat="53.4602196" lon="14.7841005"><ele>10.0</ele><time>2026-04-06T12:53:20.074Z</time></trkpt><trkpt lat="53.4603147" lon="14.7841278"><ele>10.0</ele><time>2026-04-06T12:53:21.071Z</time></trkpt><trkpt lat="53.4604086" lon="14.7841533"><ele>10.0</ele><time>2026-04-06T12:53:22.077Z</time></trkpt><trkpt lat="53.4605002" lon="14.7841825"><ele>10.0</ele><time>2026-04-06T12:53:23.079Z</time></trkpt><trkpt lat="53.460593" lon="14.7842102"><ele>10.0</ele><time>2026-04-06T12:53:24.095Z</time></trkpt><trkpt lat="53.4606844" lon="14.784231"><ele>10.0</ele><time>2026-04-06T12:53:25.078Z</time></trkpt><trkpt lat="53.4607768" lon="14.7842543"><ele>10.0</ele><time>2026-04-06T12:53:26.087Z</time></trkpt><trkpt lat="53.4608678" lon="14.7842768"><ele>10.0</ele><time>2026-04-06T12:53:27.08Z</time></trkpt><trkpt lat="53.4609596" lon="14.7842989"><ele>10.0</ele><time>2026-04-06T12:53:28.077Z</time></trkpt><trkpt lat="53.4610486" lon="14.7843309"><ele>10.0</ele><time>2026-04-06T12:53:29.084Z</time></trkpt><trkpt lat="53.4611329" lon="14.7843666"><ele>10.0</ele><time>2026-04-06T12:53:30.075Z</time></trkpt><trkpt lat="53.4612132" lon="14.7844034"><ele>10.0</ele><time>2026-04-06T12:53:31.078Z</time></trkpt><trkpt lat="53.4612887" lon="14.784435"><ele>10.0</ele><time>2026-04-06T12:53:32.096Z</time></trkpt><trkpt lat="53.4613636" lon="14.7844632"><ele>9.833333333333334</ele><time>2026-04-06T12:53:33.075Z</time></trkpt><trkpt lat="53.4614376" lon="14.7844899"><ele>9.666666666666668</ele><time>2026-04-06T12:53:34.076Z</time></trkpt><trkpt lat="53.4615031" lon="14.7845092"><ele>9.5</ele><time>2026-04-06T12:53:35.076Z</time></trkpt><trkpt lat="53.4616046" lon="14.784539"><ele>9.333333333333334</ele><time>2026-04-06T12:53:37.078Z</time></trkpt><trkpt lat="53.4616824" lon="14.7845642"><ele>9.166666666666666</ele><time>2026-04-06T12:53:40.084Z</time></trkpt><trkpt lat="53.4617066" lon="14.784442"><ele>9.0</ele><time>2026-04-06T12:53:43.087Z</time></trkpt><trkpt lat="53.4617265" lon="14.7842645"><ele>9.0</ele><time>2026-04-06T12:53:45.088Z</time></trkpt><trkpt lat="53.4617313" lon="14.7841527"><ele>9.0</ele><time>2026-04-06T12:53:46.087Z</time></trkpt><trkpt lat="53.4617326" lon="14.7840249"><ele>9.0</ele><time>2026-04-06T12:53:47.082Z</time></trkpt><trkpt lat="53.4617383" lon="14.783885"><ele>9.0</ele><time>2026-04-06T12:53:48.087Z</time></trkpt><trkpt lat="53.4617478" lon="14.7837369"><ele>9.0</ele><time>2026-04-06T12:53:49.08Z</time></trkpt><trkpt lat="53.4617579" lon="14.783584"><ele>9.0</ele><time>2026-04-06T12:53:50.077Z</time></trkpt><trkpt lat="53.4617664" lon="14.7834227"><ele>9.2</ele><time>2026-04-06T12:53:51.08Z</time></trkpt><trkpt lat="53.4617717" lon="14.7832584"><ele>9.4</ele><time>2026-04-06T12:53:52.083Z</time></trkpt><trkpt lat="53.4617795" lon="14.7830947"><ele>9.6</ele><time>2026-04-06T12:53:53.082Z</time></trkpt><trkpt lat="53.4617883" lon="14.7829295"><ele>9.8</ele><time>2026-04-06T12:53:54.077Z</time></trkpt><trkpt lat="53.4617984" lon="14.782764"><ele>10.0</ele><time>2026-04-06T12:53:55.08Z</time></trkpt><trkpt lat="53.4618085" lon="14.7825986"><ele>10.0</ele><time>2026-04-06T12:53:56.083Z</time></trkpt><trkpt lat="53.4618156" lon="14.7824282"><ele>10.0</ele><time>2026-04-06T12:53:57.099Z</time></trkpt><trkpt lat="53.4618228" lon="14.782254"><ele>10.0</ele><time>2026-04-06T12:53:58.073Z</time></trkpt><trkpt lat="53.4618312" lon="14.7820729"><ele>10.0</ele><time>2026-04-06T12:53:59.084Z</time></trkpt><trkpt lat="53.4618393" lon="14.7818911"><ele>10.0</ele><time>2026-04-06T12:54:00.082Z</time></trkpt><trkpt lat="53.4618492" lon="14.7817094"><ele>10.2</ele><time>2026-04-06T12:54:01.076Z</time></trkpt><trkpt lat="53.4618584" lon="14.7815273"><ele>10.4</ele><time>2026-04-06T12:54:02.082Z</time></trkpt><trkpt lat="53.461864" lon="14.7813438"><ele>10.600000000000001</ele><time>2026-04-06T12:54:03.09Z</time></trkpt><trkpt lat="53.4618683" lon="14.7811635"><ele>10.8</ele><time>2026-04-06T12:54:04.088Z</time></trkpt><trkpt lat="53.4618743" lon="14.7809818"><ele>11.0</ele><time>2026-04-06T12:54:05.093Z</time></trkpt><trkpt lat="53.4618824" lon="14.7807981"><ele>10.600000000000001</ele><time>2026-04-06T12:54:06.084Z</time></trkpt><trkpt lat="53.4618897" lon="14.7806138"><ele>10.200000000000001</ele><time>2026-04-06T12:54:07.087Z</time></trkpt><trkpt lat="53.4618935" lon="14.7804295"><ele>9.8</ele><time>2026-04-06T12:54:08.074Z</time></trkpt><trkpt lat="53.4618998" lon="14.7802465"><ele>9.4</ele><time>2026-04-06T12:54:09.079Z</time></trkpt><trkpt lat="53.4619079" lon="14.7800662"><ele>9.0</ele><time>2026-04-06T12:54:10.08Z</time></trkpt><trkpt lat="53.4619147" lon="14.7798875"><ele>8.8</ele><time>2026-04-06T12:54:11.083Z</time></trkpt><trkpt lat="53.4619238" lon="14.7797109"><ele>8.600000000000001</ele><time>2026-04-06T12:54:12.083Z</time></trkpt><trkpt lat="53.4619364" lon="14.7795393"><ele>8.4</ele><time>2026-04-06T12:54:13.093Z</time></trkpt><trkpt lat="53.46195" lon="14.7793702"><ele>8.200000000000001</ele><time>2026-04-06T12:54:14.085Z</time></trkpt><trkpt lat="53.4619605" lon="14.7791981"><ele>8.0</ele><time>2026-04-06T12:54:15.077Z</time></trkpt><trkpt lat="53.4619677" lon="14.7790259"><ele>8.0</ele><time>2026-04-06T12:54:16.076Z</time></trkpt><trkpt lat="53.4619742" lon="14.7788555"><ele>8.0</ele><time>2026-04-06T12:54:17.084Z</time></trkpt><trkpt lat="53.4619823" lon="14.7786904"><ele>8.0</ele><time>2026-04-06T12:54:18.077Z</time></trkpt><trkpt lat="53.4619921" lon="14.7785285"><ele>8.0</ele><time>2026-04-06T12:54:19.073Z</time></trkpt><trkpt lat="53.4620024" lon="14.7783715"><ele>8.0</ele><time>2026-04-06T12:54:20.077Z</time></trkpt><trkpt lat="53.462011" lon="14.7782168"><ele>8.0</ele><time>2026-04-06T12:54:21.081Z</time></trkpt><trkpt lat="53.4620206" lon="14.7780554"><ele>8.0</ele><time>2026-04-06T12:54:22.079Z</time></trkpt><trkpt lat="53.4620294" lon="14.7778917"><ele>8.0</ele><time>2026-04-06T12:54:23.074Z</time></trkpt><trkpt lat="53.462038" lon="14.7777237"><ele>8.0</ele><time>2026-04-06T12:54:24.072Z</time></trkpt><trkpt lat="53.4620447" lon="14.777554"><ele>8.0</ele><time>2026-04-06T12:54:25.083Z</time></trkpt><trkpt lat="53.4620524" lon="14.7773828"><ele>8.0</ele><time>2026-04-06T12:54:26.078Z</time></trkpt><trkpt lat="53.4620594" lon="14.7772099"><ele>8.0</ele><time>2026-04-06T12:54:27.072Z</time></trkpt><trkpt lat="53.4620655" lon="14.7770324"><ele>8.0</ele><time>2026-04-06T12:54:28.078Z</time></trkpt><trkpt lat="53.4620787" lon="14.7766745"><ele>8.0</ele><time>2026-04-06T12:54:30.078Z</time></trkpt><trkpt lat="53.4620876" lon="14.7764937"><ele>7.800000000000001</ele><time>2026-04-06T12:54:31.073Z</time></trkpt><trkpt lat="53.4620957" lon="14.7763066"><ele>7.6000000000000005</ele><time>2026-04-06T12:54:32.079Z</time></trkpt><trkpt lat="53.4621028" lon="14.776118"><ele>7.3999999999999995</ele><time>2026-04-06T12:54:33.074Z</time></trkpt><trkpt lat="53.4621108" lon="14.7759356"><ele>7.199999999999999</ele><time>2026-04-06T12:54:34.085Z</time></trkpt><trkpt lat="53.4621215" lon="14.7757653"><ele>7.0</ele><time>2026-04-06T12:54:35.09Z</time></trkpt><trkpt lat="53.4621293" lon="14.7755995"><ele>7.0</ele><time>2026-04-06T12:54:36.075Z</time></trkpt><trkpt lat="53.4621367" lon="14.7754231"><ele>6.999999999999999</ele><time>2026-04-06T12:54:37.079Z</time></trkpt><trkpt lat="53.4621447" lon="14.7752464"><ele>6.999999999999999</ele><time>2026-04-06T12:54:38.088Z</time></trkpt><trkpt lat="53.4621528" lon="14.7750789"><ele>7.0</ele><time>2026-04-06T12:54:39.094Z</time></trkpt><trkpt lat="53.4621626" lon="14.7749172"><ele>7.0</ele><time>2026-04-06T12:54:40.088Z</time></trkpt><trkpt lat="53.4621738" lon="14.7747472"><ele>7.199999999999999</ele><time>2026-04-06T12:54:41.08Z</time></trkpt><trkpt lat="53.4621804" lon="14.774571"><ele>7.3999999999999995</ele><time>2026-04-06T12:54:42.08Z</time></trkpt><trkpt lat="53.4621881" lon="14.7744079"><ele>7.6000000000000005</ele><time>2026-04-06T12:54:43.085Z</time></trkpt><trkpt lat="53.4621981" lon="14.7742519"><ele>7.800000000000001</ele><time>2026-04-06T12:54:44.086Z</time></trkpt><trkpt lat="53.462206" lon="14.774088"><ele>8.0</ele><time>2026-04-06T12:54:45.097Z</time></trkpt><trkpt lat="53.4622127" lon="14.7739261"><ele>7.999999999999999</ele><time>2026-04-06T12:54:46.086Z</time></trkpt><trkpt lat="53.462219" lon="14.7737841"><ele>8.0</ele><time>2026-04-06T12:54:47.087Z</time></trkpt><trkpt lat="53.4622246" lon="14.7736579"><ele>8.0</ele><time>2026-04-06T12:54:48.082Z</time></trkpt><trkpt lat="53.46223" lon="14.7735372"><ele>8.0</ele><time>2026-04-06T12:54:49.103Z</time></trkpt><trkpt lat="53.4622381" lon="14.7734134"><ele>7.999999999999999</ele><time>2026-04-06T12:54:50.091Z</time></trkpt><trkpt lat="53.4622454" lon="14.7732796"><ele>8.0</ele><time>2026-04-06T12:54:51.094Z</time></trkpt><trkpt lat="53.4622491" lon="14.7731468"><ele>7.833333333333333</ele><time>2026-04-06T12:54:52.075Z</time></trkpt><trkpt lat="53.4622541" lon="14.7730209"><ele>7.666666666666666</ele><time>2026-04-06T12:54:53.092Z</time></trkpt><trkpt lat="53.4622612" lon="14.7729024"><ele>7.5</ele><time>2026-04-06T12:54:54.083Z</time></trkpt><trkpt lat="53.4622715" lon="14.7727892"><ele>7.333333333333334</ele><time>2026-04-06T12:54:55.098Z</time></trkpt><trkpt lat="53.4622912" lon="14.7726878"><ele>7.166666666666667</ele><time>2026-04-06T12:54:56.084Z</time></trkpt><trkpt lat="53.4623317" lon="14.7726017"><ele>7.0</ele><time>2026-04-06T12:54:57.09Z</time></trkpt><trkpt lat="53.46245" lon="14.7725467"><ele>7.0</ele><time>2026-04-06T12:54:59.107Z</time></trkpt><trkpt lat="53.4625333" lon="14.772565"><ele>6.999999999999999</ele><time>2026-04-06T12:55:00.083Z</time></trkpt><trkpt lat="53.46262" lon="14.7725867"><ele>6.999999999999999</ele><time>2026-04-06T12:55:01.095Z</time></trkpt><trkpt lat="53.4627133" lon="14.772605"><ele>7.0</ele><time>2026-04-06T12:55:02.091Z</time></trkpt><trkpt lat="53.4628133" lon="14.7726167"><ele>7.0</ele><time>2026-04-06T12:55:03.103Z</time></trkpt><trkpt lat="53.4629167" lon="14.77263"><ele>7.0</ele><time>2026-04-06T12:55:04.082Z</time></trkpt><trkpt lat="53.4630367" lon="14.7726467"><ele>7.0</ele><time>2026-04-06T12:55:05.089Z</time></trkpt><trkpt lat="53.4631683" lon="14.77266"><ele>7.0</ele><time>2026-04-06T12:55:06.081Z</time></trkpt><trkpt lat="53.4632983" lon="14.772675"><ele>7.0</ele><time>2026-04-06T12:55:07.088Z</time></trkpt><trkpt lat="53.463425" lon="14.772695"><ele>7.0</ele><time>2026-04-06T12:55:08.084Z</time></trkpt><trkpt lat="53.463555" lon="14.7727117"><ele>7.0</ele><time>2026-04-06T12:55:09.094Z</time></trkpt><trkpt lat="53.4636817" lon="14.7727267"><ele>7.0</ele><time>2026-04-06T12:55:10.092Z</time></trkpt><trkpt lat="53.463815" lon="14.77274"><ele>7.0</ele><time>2026-04-06T12:55:11.094Z</time></trkpt><trkpt lat="53.4639483" lon="14.772755"><ele>7.0</ele><time>2026-04-06T12:55:12.091Z</time></trkpt><trkpt lat="53.464085" lon="14.7727683"><ele>7.0</ele><time>2026-04-06T12:55:13.087Z</time></trkpt><trkpt lat="53.4642217" lon="14.7727783"><ele>7.0</ele><time>2026-04-06T12:55:14.078Z</time></trkpt><trkpt lat="53.46436" lon="14.7727917"><ele>7.0</ele><time>2026-04-06T12:55:15.08Z</time></trkpt><trkpt lat="53.4644983" lon="14.7728017"><ele>6.5</ele><time>2026-04-06T12:55:16.091Z</time></trkpt><trkpt lat="53.464635" lon="14.7728133"><ele>6.0</ele><time>2026-04-06T12:55:17.091Z</time></trkpt><trkpt lat="53.4647733" lon="14.7728233"><ele>5.5</ele><time>2026-04-06T12:55:18.075Z</time></trkpt><trkpt lat="53.4649183" lon="14.7728283"><ele>5.0</ele><time>2026-04-06T12:55:19.071Z</time></trkpt><trkpt lat="53.4650617" lon="14.7728367"><ele>5.0</ele><time>2026-04-06T12:55:20.074Z</time></trkpt><trkpt lat="53.4652017" lon="14.7728483"><ele>5.0</ele><time>2026-04-06T12:55:21.076Z</time></trkpt><trkpt lat="53.4653433" lon="14.7728567"><ele>5.0</ele><time>2026-04-06T12:55:22.077Z</time></trkpt><trkpt lat="53.465485" lon="14.7728533"><ele>5.0</ele><time>2026-04-06T12:55:23.082Z</time></trkpt><trkpt lat="53.4656267" lon="14.7728617"><ele>5.25</ele><time>2026-04-06T12:55:24.075Z</time></trkpt><trkpt lat="53.4657667" lon="14.7728733"><ele>5.5</ele><time>2026-04-06T12:55:25.091Z</time></trkpt><trkpt lat="53.4659067" lon="14.7728917"><ele>5.75</ele><time>2026-04-06T12:55:26.091Z</time></trkpt><trkpt lat="53.4660467" lon="14.7729117"><ele>6.0</ele><time>2026-04-06T12:55:27.096Z</time></trkpt><trkpt lat="53.466185" lon="14.772935"><ele>5.75</ele><time>2026-04-06T12:55:28.083Z</time></trkpt><trkpt lat="53.4663217" lon="14.772955"><ele>5.5</ele><time>2026-04-06T12:55:29.089Z</time></trkpt><trkpt lat="53.4664617" lon="14.7729783"><ele>5.25</ele><time>2026-04-06T12:55:30.09Z</time></trkpt><trkpt lat="53.4665983" lon="14.772995"><ele>5.0</ele><time>2026-04-06T12:55:31.095Z</time></trkpt><trkpt lat="53.466735" lon="14.7730167"><ele>5.0</ele><time>2026-04-06T12:55:32.088Z</time></trkpt><trkpt lat="53.4668733" lon="14.77304"><ele>5.0</ele><time>2026-04-06T12:55:33.097Z</time></trkpt><trkpt lat="53.4670067" lon="14.77306"><ele>5.0</ele><time>2026-04-06T12:55:34.077Z</time></trkpt><trkpt lat="53.467135" lon="14.773075"><ele>5.0</ele><time>2026-04-06T12:55:35.088Z</time></trkpt><trkpt lat="53.467265" lon="14.7730883"><ele>5.25</ele><time>2026-04-06T12:55:36.079Z</time></trkpt><trkpt lat="53.4674" lon="14.7731033"><ele>5.5</ele><time>2026-04-06T12:55:37.09Z</time></trkpt><trkpt lat="53.4675417" lon="14.773115"><ele>5.75</ele><time>2026-04-06T12:55:38.086Z</time></trkpt><trkpt lat="53.4676867" lon="14.7731267"><ele>6.0</ele><time>2026-04-06T12:55:39.087Z</time></trkpt><trkpt lat="53.4678317" lon="14.7731383"><ele>6.0</ele><time>2026-04-06T12:55:40.078Z</time></trkpt><trkpt lat="53.4679767" lon="14.7731533"><ele>6.0</ele><time>2026-04-06T12:55:41.092Z</time></trkpt><trkpt lat="53.46812" lon="14.773175"><ele>6.0</ele><time>2026-04-06T12:55:42.078Z</time></trkpt><trkpt lat="53.4682617" lon="14.7731983"><ele>6.0</ele><time>2026-04-06T12:55:43.079Z</time></trkpt><trkpt lat="53.4684033" lon="14.7732167"><ele>6.0</ele><time>2026-04-06T12:55:44.081Z</time></trkpt><trkpt lat="53.4685433" lon="14.773235"><ele>6.0</ele><time>2026-04-06T12:55:45.085Z</time></trkpt><trkpt lat="53.4686833" lon="14.7732483"><ele>6.0</ele><time>2026-04-06T12:55:46.077Z</time></trkpt><trkpt lat="53.46882" lon="14.77326"><ele>6.0</ele><time>2026-04-06T12:55:47.117Z</time></trkpt><trkpt lat="53.4689617" lon="14.7732733"><ele>6.0</ele><time>2026-04-06T12:55:48.082Z</time></trkpt><trkpt lat="53.4691" lon="14.773295"><ele>6.0</ele><time>2026-04-06T12:55:49.097Z</time></trkpt><trkpt lat="53.4692367" lon="14.77332"><ele>6.0</ele><time>2026-04-06T12:55:50.09Z</time></trkpt><trkpt lat="53.469375" lon="14.7733417"><ele>6.0</ele><time>2026-04-06T12:55:51.095Z</time></trkpt><trkpt lat="53.469515" lon="14.7733617"><ele>6.25</ele><time>2026-04-06T12:55:52.084Z</time></trkpt><trkpt lat="53.4696517" lon="14.7733817"><ele>6.5</ele><time>2026-04-06T12:55:53.101Z</time></trkpt><trkpt lat="53.469785" lon="14.7733967"><ele>6.75</ele><time>2026-04-06T12:55:54.08Z</time></trkpt><trkpt lat="53.4699167" lon="14.77341"><ele>7.0</ele><time>2026-04-06T12:55:55.09Z</time></trkpt><trkpt lat="53.4700483" lon="14.773415"><ele>7.0</ele><time>2026-04-06T12:55:56.081Z</time></trkpt><trkpt lat="53.4701817" lon="14.773425"><ele>7.0</ele><time>2026-04-06T12:55:57.081Z</time></trkpt><trkpt lat="53.4703183" lon="14.7734367"><ele>7.0</ele><time>2026-04-06T12:55:58.078Z</time></trkpt><trkpt lat="53.4704584" lon="14.7734543"><ele>7.0</ele><time>2026-04-06T12:55:59.087Z</time></trkpt><trkpt lat="53.4706009" lon="14.7734748"><ele>6.5</ele><time>2026-04-06T12:56:00.077Z</time></trkpt><trkpt lat="53.4707456" lon="14.7734952"><ele>6.0</ele><time>2026-04-06T12:56:01.086Z</time></trkpt><trkpt lat="53.4708897" lon="14.7735152"><ele>5.5</ele><time>2026-04-06T12:56:02.077Z</time></trkpt><trkpt lat="53.4710347" lon="14.7735341"><ele>5.0</ele><time>2026-04-06T12:56:03.077Z</time></trkpt><trkpt lat="53.4711827" lon="14.7735502"><ele>5.0</ele><time>2026-04-06T12:56:04.083Z</time></trkpt><trkpt lat="53.4713321" lon="14.7735667"><ele>5.0</ele><time>2026-04-06T12:56:05.088Z</time></trkpt><trkpt lat="53.4714789" lon="14.7735857"><ele>5.0</ele><time>2026-04-06T12:56:06.078Z</time></trkpt><trkpt lat="53.4716255" lon="14.7736044"><ele>5.0</ele><time>2026-04-06T12:56:07.094Z</time></trkpt><trkpt lat="53.4717697" lon="14.7736226"><ele>5.0</ele><time>2026-04-06T12:56:08.085Z</time></trkpt><trkpt lat="53.4719156" lon="14.77364"><ele>5.0</ele><time>2026-04-06T12:56:09.107Z</time></trkpt><trkpt lat="53.4720598" lon="14.7736566"><ele>5.0</ele><time>2026-04-06T12:56:10.082Z</time></trkpt><trkpt lat="53.4722076" lon="14.7736747"><ele>5.0</ele><time>2026-04-06T12:56:11.093Z</time></trkpt><trkpt lat="53.4723512" lon="14.7736951"><ele>5.5</ele><time>2026-04-06T12:56:12.082Z</time></trkpt><trkpt lat="53.4724944" lon="14.7737177"><ele>6.0</ele><time>2026-04-06T12:56:13.098Z</time></trkpt><trkpt lat="53.4726319" lon="14.7737359"><ele>6.5</ele><time>2026-04-06T12:56:14.083Z</time></trkpt><trkpt lat="53.4727718" lon="14.773752"><ele>7.0</ele><time>2026-04-06T12:56:15.086Z</time></trkpt><trkpt lat="53.472911" lon="14.7737719"><ele>6.5</ele><time>2026-04-06T12:56:16.092Z</time></trkpt><trkpt lat="53.4730504" lon="14.7737849"><ele>6.0</ele><time>2026-04-06T12:56:17.092Z</time></trkpt><trkpt lat="53.4731919" lon="14.7737969"><ele>5.5</ele><time>2026-04-06T12:56:18.077Z</time></trkpt><trkpt lat="53.4733346" lon="14.7738145"><ele>5.0</ele><time>2026-04-06T12:56:19.084Z</time></trkpt><trkpt lat="53.4734764" lon="14.7738315"><ele>5.0</ele><time>2026-04-06T12:56:20.082Z</time></trkpt><trkpt lat="53.4736179" lon="14.7738471"><ele>5.0</ele><time>2026-04-06T12:56:21.098Z</time></trkpt><trkpt lat="53.4737551" lon="14.7738666"><ele>5.0</ele><time>2026-04-06T12:56:22.084Z</time></trkpt><trkpt lat="53.473895" lon="14.7738866"><ele>5.0</ele><time>2026-04-06T12:56:23.084Z</time></trkpt><trkpt lat="53.474035" lon="14.7739066"><ele>4.75</ele><time>2026-04-06T12:56:24.076Z</time></trkpt><trkpt lat="53.4741759" lon="14.7739245"><ele>4.5</ele><time>2026-04-06T12:56:25.088Z</time></trkpt><trkpt lat="53.4743181" lon="14.773945"><ele>4.25</ele><time>2026-04-06T12:56:26.077Z</time></trkpt><trkpt lat="53.4744617" lon="14.7739654"><ele>4.0</ele><time>2026-04-06T12:56:27.109Z</time></trkpt><trkpt lat="53.4746024" lon="14.773984"><ele>4.0</ele><time>2026-04-06T12:56:28.079Z</time></trkpt><trkpt lat="53.4747454" lon="14.774005"><ele>4.0</ele><time>2026-04-06T12:56:29.094Z</time></trkpt><trkpt lat="53.4748851" lon="14.7740274"><ele>4.0</ele><time>2026-04-06T12:56:30.081Z</time></trkpt><trkpt lat="53.4750269" lon="14.7740494"><ele>4.0</ele><time>2026-04-06T12:56:31.086Z</time></trkpt><trkpt lat="53.4751674" lon="14.77407"><ele>4.0</ele><time>2026-04-06T12:56:32.081Z</time></trkpt><trkpt lat="53.4753055" lon="14.7740914"><ele>4.0</ele><time>2026-04-06T12:56:33.094Z</time></trkpt><trkpt lat="53.475446" lon="14.7741081"><ele>4.0</ele><time>2026-04-06T12:56:34.085Z</time></trkpt><trkpt lat="53.4755872" lon="14.7741225"><ele>4.0</ele><time>2026-04-06T12:56:35.089Z</time></trkpt><trkpt lat="53.475728" lon="14.7741372"><ele>4.0</ele><time>2026-04-06T12:56:36.086Z</time></trkpt><trkpt lat="53.4758685" lon="14.7741533"><ele>4.0</ele><time>2026-04-06T12:56:37.088Z</time></trkpt><trkpt lat="53.4760112" lon="14.7741722"><ele>4.0</ele><time>2026-04-06T12:56:38.087Z</time></trkpt><trkpt lat="53.4761522" lon="14.7741989"><ele>4.0</ele><time>2026-04-06T12:56:39.09Z</time></trkpt><trkpt lat="53.4762907" lon="14.7742256"><ele>4.0</ele><time>2026-04-06T12:56:40.084Z</time></trkpt><trkpt lat="53.4764305" lon="14.7742407"><ele>4.0</ele><time>2026-04-06T12:56:41.084Z</time></trkpt><trkpt lat="53.4765717" lon="14.7742498"><ele>4.0</ele><time>2026-04-06T12:56:42.086Z</time></trkpt><trkpt lat="53.4767113" lon="14.774263"><ele>4.0</ele><time>2026-04-06T12:56:43.093Z</time></trkpt><trkpt lat="53.4768499" lon="14.774283"><ele>4.0</ele><time>2026-04-06T12:56:44.08Z</time></trkpt><trkpt lat="53.4769931" lon="14.7743012"><ele>4.0</ele><time>2026-04-06T12:56:45.107Z</time></trkpt><trkpt lat="53.4771345" lon="14.774317"><ele>4.0</ele><time>2026-04-06T12:56:46.087Z</time></trkpt><trkpt lat="53.4772799" lon="14.7743359"><ele>4.0</ele><time>2026-04-06T12:56:47.09Z</time></trkpt><trkpt lat="53.4774236" lon="14.7743555"><ele>4.0</ele><time>2026-04-06T12:56:48.081Z</time></trkpt><trkpt lat="53.4775658" lon="14.7743766"><ele>4.0</ele><time>2026-04-06T12:56:49.086Z</time></trkpt><trkpt lat="53.4777069" lon="14.7743944"><ele>4.0</ele><time>2026-04-06T12:56:50.09Z</time></trkpt><trkpt lat="53.4778479" lon="14.7744091"><ele>4.0</ele><time>2026-04-06T12:56:51.082Z</time></trkpt><trkpt lat="53.4779912" lon="14.7744275"><ele>4.0</ele><time>2026-04-06T12:56:52.076Z</time></trkpt><trkpt lat="53.4781378" lon="14.7744471"><ele>4.0</ele><time>2026-04-06T12:56:53.085Z</time></trkpt><trkpt lat="53.4782848" lon="14.774466"><ele>4.0</ele><time>2026-04-06T12:56:54.085Z</time></trkpt><trkpt lat="53.478428" lon="14.774488"><ele>4.0</ele><time>2026-04-06T12:56:55.107Z</time></trkpt><trkpt lat="53.4785716" lon="14.7745061"><ele>4.0</ele><time>2026-04-06T12:56:56.088Z</time></trkpt><trkpt lat="53.4787202" lon="14.7745211"><ele>4.0</ele><time>2026-04-06T12:56:57.096Z</time></trkpt><trkpt lat="53.478867" lon="14.7745381"><ele>4.0</ele><time>2026-04-06T12:56:58.081Z</time></trkpt><trkpt lat="53.4790149" lon="14.774555"><ele>4.0</ele><time>2026-04-06T12:56:59.083Z</time></trkpt><trkpt lat="53.4791628" lon="14.7745717"><ele>4.25</ele><time>2026-04-06T12:57:00.086Z</time></trkpt><trkpt lat="53.4793066" lon="14.7745894"><ele>4.5</ele><time>2026-04-06T12:57:01.075Z</time></trkpt><trkpt lat="53.4794494" lon="14.77461"><ele>4.75</ele><time>2026-04-06T12:57:02.09Z</time></trkpt><trkpt lat="53.4795885" lon="14.7746334"><ele>5.0</ele><time>2026-04-06T12:57:03.078Z</time></trkpt><trkpt lat="53.4797263" lon="14.7746534"><ele>5.0</ele><time>2026-04-06T12:57:04.08Z</time></trkpt><trkpt lat="53.479859" lon="14.7746719"><ele>5.0</ele><time>2026-04-06T12:57:05.078Z</time></trkpt><trkpt lat="53.4799906" lon="14.7746847"><ele>5.0</ele><time>2026-04-06T12:57:06.076Z</time></trkpt><trkpt lat="53.4801231" lon="14.7746976"><ele>5.0</ele><time>2026-04-06T12:57:07.079Z</time></trkpt><trkpt lat="53.4802593" lon="14.7747099"><ele>5.0</ele><time>2026-04-06T12:57:08.077Z</time></trkpt><trkpt lat="53.4803958" lon="14.7747276"><ele>5.0</ele><time>2026-04-06T12:57:09.091Z</time></trkpt><trkpt lat="53.4805277" lon="14.774748"><ele>5.0</ele><time>2026-04-06T12:57:10.08Z</time></trkpt><trkpt lat="53.4806541" lon="14.7747702"><ele>5.0</ele><time>2026-04-06T12:57:11.077Z</time></trkpt><trkpt lat="53.48077" lon="14.7747915"><ele>5.2</ele><time>2026-04-06T12:57:12.082Z</time></trkpt><trkpt lat="53.4808747" lon="14.7748101"><ele>5.4</ele><time>2026-04-06T12:57:13.083Z</time></trkpt><trkpt lat="53.4809686" lon="14.774825"><ele>5.6</ele><time>2026-04-06T12:57:14.088Z</time></trkpt><trkpt lat="53.4810511" lon="14.7748424"><ele>5.8</ele><time>2026-04-06T12:57:15.078Z</time></trkpt><trkpt lat="53.4811208" lon="14.7748565"><ele>6.0</ele><time>2026-04-06T12:57:16.079Z</time></trkpt><trkpt lat="53.4812365" lon="14.7748586"><ele>6.199999999999999</ele><time>2026-04-06T12:57:18.098Z</time></trkpt><trkpt lat="53.4813293" lon="14.7747799"><ele>6.3999999999999995</ele><time>2026-04-06T12:57:20.088Z</time></trkpt><trkpt lat="53.4814016" lon="14.7745986"><ele>6.6</ele><time>2026-04-06T12:57:22.085Z</time></trkpt><trkpt lat="53.4814254" lon="14.7744645"><ele>6.8</ele><time>2026-04-06T12:57:23.076Z</time></trkpt><trkpt lat="53.4814354" lon="14.7743006"><ele>7.0</ele><time>2026-04-06T12:57:24.086Z</time></trkpt><trkpt lat="53.4814359" lon="14.7741159"><ele>6.5</ele><time>2026-04-06T12:57:25.083Z</time></trkpt><trkpt lat="53.4814356" lon="14.7739201"><ele>6.0</ele><time>2026-04-06T12:57:26.077Z</time></trkpt><trkpt lat="53.4814393" lon="14.7737166"><ele>5.5</ele><time>2026-04-06T12:57:27.081Z</time></trkpt><trkpt lat="53.4814439" lon="14.7735079"><ele>5.0</ele><time>2026-04-06T12:57:28.079Z</time></trkpt><trkpt lat="53.4814501" lon="14.7733003"><ele>4.75</ele><time>2026-04-06T12:57:29.087Z</time></trkpt><trkpt lat="53.4814583" lon="14.7730966"><ele>4.5</ele><time>2026-04-06T12:57:30.075Z</time></trkpt><trkpt lat="53.481466" lon="14.7728892"><ele>4.25</ele><time>2026-04-06T12:57:31.084Z</time></trkpt><trkpt lat="53.4814743" lon="14.7726784"><ele>4.0</ele><time>2026-04-06T12:57:32.09Z</time></trkpt><trkpt lat="53.4814865" lon="14.7724642"><ele>3.75</ele><time>2026-04-06T12:57:33.088Z</time></trkpt><trkpt lat="53.4814973" lon="14.772243"><ele>3.5</ele><time>2026-04-06T12:57:34.076Z</time></trkpt><trkpt lat="53.4815036" lon="14.7720143"><ele>3.25</ele><time>2026-04-06T12:57:35.083Z</time></trkpt><trkpt lat="53.4815108" lon="14.7717849"><ele>3.0</ele><time>2026-04-06T12:57:36.085Z</time></trkpt><trkpt lat="53.4815169" lon="14.7715506"><ele>2.5</ele><time>2026-04-06T12:57:37.082Z</time></trkpt><trkpt lat="53.4815206" lon="14.7713235"><ele>2.0</ele><time>2026-04-06T12:57:38.087Z</time></trkpt><trkpt lat="53.4815239" lon="14.7711059"><ele>1.5</ele><time>2026-04-06T12:57:39.089Z</time></trkpt><trkpt lat="53.4815259" lon="14.7709021"><ele>1.0</ele><time>2026-04-06T12:57:40.083Z</time></trkpt><trkpt lat="53.4815283" lon="14.7707224"><ele>0.9999999999999999</ele><time>2026-04-06T12:57:41.089Z</time></trkpt><trkpt lat="53.4815336" lon="14.7705633"><ele>1.0</ele><time>2026-04-06T12:57:42.081Z</time></trkpt><trkpt lat="53.4815486" lon="14.7704168"><ele>1.0</ele><time>2026-04-06T12:57:43.091Z</time></trkpt><trkpt lat="53.4815742" lon="14.7702834"><ele>1.0</ele><time>2026-04-06T12:57:44.083Z</time></trkpt><trkpt lat="53.4816115" lon="14.7701559"><ele>0.9999999999999999</ele><time>2026-04-06T12:57:45.094Z</time></trkpt><trkpt lat="53.4816481" lon="14.7700296"><ele>1.0</ele><time>2026-04-06T12:57:46.094Z</time></trkpt><trkpt lat="53.4816712" lon="14.7698917"><ele>1.2000000000000002</ele><time>2026-04-06T12:57:47.082Z</time></trkpt><trkpt lat="53.4816788" lon="14.769738"><ele>1.4000000000000001</ele><time>2026-04-06T12:57:48.082Z</time></trkpt><trkpt lat="53.4816807" lon="14.7695686"><ele>1.6</ele><time>2026-04-06T12:57:49.082Z</time></trkpt><trkpt lat="53.4816864" lon="14.7693884"><ele>1.8</ele><time>2026-04-06T12:57:50.082Z</time></trkpt><trkpt lat="53.4816901" lon="14.769201"><ele>2.0</ele><time>2026-04-06T12:57:51.092Z</time></trkpt><trkpt lat="53.4816965" lon="14.7690132"><ele>2.0</ele><time>2026-04-06T12:57:52.083Z</time></trkpt><trkpt lat="53.481707" lon="14.7688234"><ele>2.0</ele><time>2026-04-06T12:57:53.088Z</time></trkpt><trkpt lat="53.4817138" lon="14.7686344"><ele>2.0</ele><time>2026-04-06T12:57:54.079Z</time></trkpt><trkpt lat="53.4817228" lon="14.7684525"><ele>2.0</ele><time>2026-04-06T12:57:55.08Z</time></trkpt><trkpt lat="53.4817346" lon="14.7682783"><ele>2.0</ele><time>2026-04-06T12:57:56.079Z</time></trkpt><trkpt lat="53.4817469" lon="14.7681125"><ele>1.6666666666666665</ele><time>2026-04-06T12:57:57.074Z</time></trkpt><trkpt lat="53.48176" lon="14.7679586"><ele>1.3333333333333333</ele><time>2026-04-06T12:57:58.073Z</time></trkpt><trkpt lat="53.4817726" lon="14.7678183"><ele>1.0</ele><time>2026-04-06T12:57:59.079Z</time></trkpt><trkpt lat="53.4817874" lon="14.7676861"><ele>0.6666666666666666</ele><time>2026-04-06T12:58:00.074Z</time></trkpt><trkpt lat="53.4818041" lon="14.7675577"><ele>0.3333333333333333</ele><time>2026-04-06T12:58:01.082Z</time></trkpt><trkpt lat="53.4818181" lon="14.7674344"><ele>0.0</ele><time>2026-04-06T12:58:02.075Z</time></trkpt><trkpt lat="53.4818313" lon="14.7673164"><ele>0.0</ele><time>2026-04-06T12:58:03.077Z</time></trkpt><trkpt lat="53.4818461" lon="14.7671958"><ele>0.0</ele><time>2026-04-06T12:58:04.079Z</time></trkpt><trkpt lat="53.4818667" lon="14.7670679"><ele>0.0</ele><time>2026-04-06T12:58:05.073Z</time></trkpt><trkpt lat="53.4818961" lon="14.7669375"><ele>0.0</ele><time>2026-04-06T12:58:06.076Z</time></trkpt><trkpt lat="53.4819406" lon="14.7668084"><ele>0.0</ele><time>2026-04-06T12:58:07.081Z</time></trkpt><trkpt lat="53.481998" lon="14.7666751"><ele>0.0</ele><time>2026-04-06T12:58:08.077Z</time></trkpt><trkpt lat="53.4820544" lon="14.7665249"><ele>-0.25</ele><time>2026-04-06T12:58:09.078Z</time></trkpt><trkpt lat="53.4820935" lon="14.7663526"><ele>-0.5</ele><time>2026-04-06T12:58:10.077Z</time></trkpt><trkpt lat="53.4821172" lon="14.7661457"><ele>-0.75</ele><time>2026-04-06T12:58:11.078Z</time></trkpt><trkpt lat="53.482128" lon="14.7659072"><ele>-1.0</ele><time>2026-04-06T12:58:12.071Z</time></trkpt><trkpt lat="53.4821312" lon="14.7656709"><ele>-1.0</ele><time>2026-04-06T12:58:13.078Z</time></trkpt><trkpt lat="53.4821342" lon="14.7654587"><ele>-1.0</ele><time>2026-04-06T12:58:14.082Z</time></trkpt><trkpt lat="53.4821377" lon="14.7652664"><ele>-1.0</ele><time>2026-04-06T12:58:15.083Z</time></trkpt><trkpt lat="53.4821443" lon="14.765076"><ele>-1.0</ele><time>2026-04-06T12:58:16.075Z</time></trkpt><trkpt lat="53.4821641" lon="14.7648914"><ele>-1.25</ele><time>2026-04-06T12:58:17.079Z</time></trkpt><trkpt lat="53.4822002" lon="14.7647113"><ele>-1.5</ele><time>2026-04-06T12:58:18.074Z</time></trkpt><trkpt lat="53.4822625" lon="14.7645303"><ele>-1.75</ele><time>2026-04-06T12:58:19.091Z</time></trkpt><trkpt lat="53.4823417" lon="14.764349"><ele>-2.0</ele><time>2026-04-06T12:58:20.075Z</time></trkpt><trkpt lat="53.4824252" lon="14.7641502"><ele>-2.0</ele><time>2026-04-06T12:58:21.103Z</time></trkpt><trkpt lat="53.4825072" lon="14.7639385"><ele>-2.0</ele><time>2026-04-06T12:58:22.08Z</time></trkpt><trkpt lat="53.482591" lon="14.7637176"><ele>-2.0</ele><time>2026-04-06T12:58:23.078Z</time></trkpt><trkpt lat="53.4826682" lon="14.7634886"><ele>-2.0</ele><time>2026-04-06T12:58:24.086Z</time></trkpt><trkpt lat="53.4827315" lon="14.7632598"><ele>-2.0</ele><time>2026-04-06T12:58:25.088Z</time></trkpt><trkpt lat="53.482781" lon="14.7630353"><ele>-2.0</ele><time>2026-04-06T12:58:26.086Z</time></trkpt><trkpt lat="53.4828307" lon="14.7627984"><ele>-2.0</ele><time>2026-04-06T12:58:27.074Z</time></trkpt><trkpt lat="53.4828882" lon="14.7625396"><ele>-1.6666666666666665</ele><time>2026-04-06T12:58:28.081Z</time></trkpt><trkpt lat="53.4829466" lon="14.7622687"><ele>-1.3333333333333333</ele><time>2026-04-06T12:58:29.07Z</time></trkpt><trkpt lat="53.4829992" lon="14.7620143"><ele>-1.0</ele><time>2026-04-06T12:58:30.085Z</time></trkpt><trkpt lat="53.483046" lon="14.7617808"><ele>-1.0</ele><time>2026-04-06T12:58:31.094Z</time></trkpt><trkpt lat="53.4830848" lon="14.7615491"><ele>-1.0</ele><time>2026-04-06T12:58:32.084Z</time></trkpt><trkpt lat="53.483118" lon="14.7613064"><ele>-1.0</ele><time>2026-04-06T12:58:33.092Z</time></trkpt><trkpt lat="53.4831453" lon="14.7610669"><ele>-1.0</ele><time>2026-04-06T12:58:34.091Z</time></trkpt><trkpt lat="53.483186" lon="14.7608381"><ele>-1.0</ele><time>2026-04-06T12:58:35.104Z</time></trkpt><trkpt lat="53.4832357" lon="14.760623"><ele>-1.0</ele><time>2026-04-06T12:58:36.086Z</time></trkpt><trkpt lat="53.4832897" lon="14.7604134"><ele>-1.0</ele><time>2026-04-06T12:58:37.077Z</time></trkpt><trkpt lat="53.4833368" lon="14.7602188"><ele>-1.0</ele><time>2026-04-06T12:58:38.083Z</time></trkpt><trkpt lat="53.4833805" lon="14.7600322"><ele>-1.0</ele><time>2026-04-06T12:58:39.086Z</time></trkpt><trkpt lat="53.4834204" lon="14.7598418"><ele>-1.0</ele><time>2026-04-06T12:58:40.085Z</time></trkpt><trkpt lat="53.4834646" lon="14.7596455"><ele>-1.0</ele><time>2026-04-06T12:58:41.087Z</time></trkpt><trkpt lat="53.4835121" lon="14.7594519"><ele>-1.0</ele><time>2026-04-06T12:58:42.074Z</time></trkpt><trkpt lat="53.4835557" lon="14.7592589"><ele>-1.0</ele><time>2026-04-06T12:58:43.094Z</time></trkpt><trkpt lat="53.4836045" lon="14.7590587"><ele>-1.0</ele><time>2026-04-06T12:58:44.076Z</time></trkpt><trkpt lat="53.4836621" lon="14.7588452"><ele>-1.0</ele><time>2026-04-06T12:58:45.103Z</time></trkpt><trkpt lat="53.4837147" lon="14.7586359"><ele>-1.0</ele><time>2026-04-06T12:58:46.077Z</time></trkpt><trkpt lat="53.4837683" lon="14.7584238"><ele>-1.25</ele><time>2026-04-06T12:58:47.077Z</time></trkpt><trkpt lat="53.4838241" lon="14.7582222"><ele>-1.5</ele><time>2026-04-06T12:58:48.081Z</time></trkpt><trkpt lat="53.4838756" lon="14.7580199"><ele>-1.75</ele><time>2026-04-06T12:58:49.08Z</time></trkpt><trkpt lat="53.4839287" lon="14.7578166"><ele>-2.0</ele><time>2026-04-06T12:58:50.079Z</time></trkpt><trkpt lat="53.4839844" lon="14.7576133"><ele>-2.0</ele><time>2026-04-06T12:58:51.086Z</time></trkpt><trkpt lat="53.4840404" lon="14.7574104"><ele>-2.0</ele><time>2026-04-06T12:58:52.07Z</time></trkpt><trkpt lat="53.4840897" lon="14.7572"><ele>-2.0</ele><time>2026-04-06T12:58:53.104Z</time></trkpt><trkpt lat="53.4841353" lon="14.7569901"><ele>-2.0</ele><time>2026-04-06T12:58:54.074Z</time></trkpt><trkpt lat="53.4841822" lon="14.7567742"><ele>-2.0</ele><time>2026-04-06T12:58:55.084Z</time></trkpt><trkpt lat="53.4842341" lon="14.7565629"><ele>-2.0</ele><time>2026-04-06T12:58:56.076Z</time></trkpt><trkpt lat="53.4842887" lon="14.7563554"><ele>-2.0</ele><time>2026-04-06T12:58:57.088Z</time></trkpt><trkpt lat="53.4843403" lon="14.7561487"><ele>-2.0</ele><time>2026-04-06T12:58:58.078Z</time></trkpt><trkpt lat="53.484385" lon="14.7559467"><ele>-2.0</ele><time>2026-04-06T12:58:59.079Z</time></trkpt><trkpt lat="53.48443" lon="14.755755"><ele>-2.0</ele><time>2026-04-06T12:59:00.076Z</time></trkpt><trkpt lat="53.4844783" lon="14.7555633"><ele>-2.0</ele><time>2026-04-06T12:59:01.079Z</time></trkpt><trkpt lat="53.48453" lon="14.7553767"><ele>-2.0</ele><time>2026-04-06T12:59:02.083Z</time></trkpt><trkpt lat="53.4845783" lon="14.7552033"><ele>-1.9999999999999998</ele><time>2026-04-06T12:59:03.097Z</time></trkpt><trkpt lat="53.4846217" lon="14.7550433"><ele>-2.0</ele><time>2026-04-06T12:59:04.073Z</time></trkpt><trkpt lat="53.48466" lon="14.754905"><ele>-2.0</ele><time>2026-04-06T12:59:05.087Z</time></trkpt><trkpt lat="53.4846967" lon="14.7547817"><ele>-2.0</ele><time>2026-04-06T12:59:06.085Z</time></trkpt><trkpt lat="53.484735" lon="14.754675"><ele>-1.9999999999999998</ele><time>2026-04-06T12:59:07.101Z</time></trkpt><trkpt lat="53.48477" lon="14.7545817"><ele>-2.0</ele><time>2026-04-06T12:59:08.076Z</time></trkpt><trkpt lat="53.48482" lon="14.75441"><ele>-2.2</ele><time>2026-04-06T12:59:10.075Z</time></trkpt><trkpt lat="53.4848533" lon="14.7542467"><ele>-2.4000000000000004</ele><time>2026-04-06T12:59:12.08Z</time></trkpt><trkpt lat="53.4848733" lon="14.7540983"><ele>-2.5999999999999996</ele><time>2026-04-06T12:59:14.076Z</time></trkpt><trkpt lat="53.484905" lon="14.7539617"><ele>-2.8</ele><time>2026-04-06T12:59:16.079Z</time></trkpt><trkpt lat="53.4849467" lon="14.7538283"><ele>-3.0</ele><time>2026-04-06T12:59:18.082Z</time></trkpt><trkpt lat="53.484975" lon="14.753695"><ele>-3.0</ele><time>2026-04-06T12:59:20.086Z</time></trkpt><trkpt lat="53.4850067" lon="14.75356"><ele>-3.0</ele><time>2026-04-06T12:59:22.076Z</time></trkpt><trkpt lat="53.4850333" lon="14.7534333"><ele>-3.0</ele><time>2026-04-06T12:59:24.099Z</time></trkpt><trkpt lat="53.4850667" lon="14.7533067"><ele>-3.0</ele><time>2026-04-06T12:59:26.077Z</time></trkpt><trkpt lat="53.4850991" lon="14.7531803"><ele>-3.0</ele><time>2026-04-06T12:59:28.079Z</time></trkpt><trkpt lat="53.4851251" lon="14.7530598"><ele>-3.0</ele><time>2026-04-06T12:59:30.081Z</time></trkpt><trkpt lat="53.485144" lon="14.7529342"><ele>-3.0</ele><time>2026-04-06T12:59:32.015Z</time></trkpt><trkpt lat="53.4851847" lon="14.7528185"><ele>-3.0</ele><time>2026-04-06T12:59:34.08Z</time></trkpt><trkpt lat="53.4852176" lon="14.7526895"><ele>-3.0</ele><time>2026-04-06T12:59:36.089Z</time></trkpt><trkpt lat="53.4852387" lon="14.7525475"><ele>-3.0</ele><time>2026-04-06T12:59:38.094Z</time></trkpt><trkpt lat="53.4852681" lon="14.7524023"><ele>-3.0</ele><time>2026-04-06T12:59:40.084Z</time></trkpt><trkpt lat="53.4852993" lon="14.7522526"><ele>-3.0</ele><time>2026-04-06T12:59:42.079Z</time></trkpt><trkpt lat="53.485331" lon="14.7521062"><ele>-3.0</ele><time>2026-04-06T12:59:44.074Z</time></trkpt><trkpt lat="53.485369" lon="14.7519521"><ele>-3.0</ele><time>2026-04-06T12:59:46.085Z</time></trkpt><trkpt lat="53.4854081" lon="14.7518115"><ele>-3.0</ele><time>2026-04-06T12:59:48.086Z</time></trkpt><trkpt lat="53.4854497" lon="14.7516885"><ele>-3.0</ele><time>2026-04-06T12:59:50.096Z</time></trkpt><trkpt lat="53.4854892" lon="14.7515714"><ele>-3.0</ele><time>2026-04-06T12:59:51.078Z</time></trkpt><trkpt lat="53.4855376" lon="14.7514714"><ele>-3.0</ele><time>2026-04-06T12:59:52.077Z</time></trkpt><trkpt lat="53.4855801" lon="14.751391"><ele>-3.0</ele><time>2026-04-06T12:59:53.088Z</time></trkpt><trkpt lat="53.4856569" lon="14.7512748"><ele>-3.0</ele><time>2026-04-06T12:59:55.103Z</time></trkpt><trkpt lat="53.4857561" lon="14.7511559"><ele>-3.0</ele><time>2026-04-06T12:59:57.085Z</time></trkpt><trkpt lat="53.4858192" lon="14.7510711"><ele>-3.0</ele><time>2026-04-06T12:59:58.081Z</time></trkpt><trkpt lat="53.4858849" lon="14.7509688"><ele>-3.0</ele><time>2026-04-06T12:59:59.085Z</time></trkpt><trkpt lat="53.4859461" lon="14.7508426"><ele>-3.0</ele><time>2026-04-06T13:00:00.084Z</time></trkpt><trkpt lat="53.4860039" lon="14.7506872"><ele>-3.0</ele><time>2026-04-06T13:00:01.08Z</time></trkpt><trkpt lat="53.4860676" lon="14.7505244"><ele>-3.0</ele><time>2026-04-06T13:00:02.086Z</time></trkpt><trkpt lat="53.4861331" lon="14.7503771"><ele>-3.0</ele><time>2026-04-06T13:00:03.087Z</time></trkpt><trkpt lat="53.4861913" lon="14.7502287"><ele>-3.0</ele><time>2026-04-06T13:00:04.079Z</time></trkpt><trkpt lat="53.4862368" lon="14.7500605"><ele>-3.0</ele><time>2026-04-06T13:00:05.076Z</time></trkpt><trkpt lat="53.4862731" lon="14.7498942"><ele>-3.0</ele><time>2026-04-06T13:00:06.085Z</time></trkpt><trkpt lat="53.486314" lon="14.7497487"><ele>-3.0</ele><time>2026-04-06T13:00:07.081Z</time></trkpt><trkpt lat="53.4863643" lon="14.7496282"><ele>-3.0</ele><time>2026-04-06T13:00:08.073Z</time></trkpt><trkpt lat="53.4864199" lon="14.749514"><ele>-3.0</ele><time>2026-04-06T13:00:09.085Z</time></trkpt><trkpt lat="53.4864801" lon="14.7493923"><ele>-3.0</ele><time>2026-04-06T13:00:10.08Z</time></trkpt><trkpt lat="53.4865368" lon="14.7492624"><ele>-3.0</ele><time>2026-04-06T13:00:11.093Z</time></trkpt><trkpt lat="53.4865841" lon="14.7491355"><ele>-3.0</ele><time>2026-04-06T13:00:12.081Z</time></trkpt><trkpt lat="53.4866317" lon="14.7490176"><ele>-3.0</ele><time>2026-04-06T13:00:13.081Z</time></trkpt><trkpt lat="53.4866824" lon="14.7489112"><ele>-3.0</ele><time>2026-04-06T13:00:14.074Z</time></trkpt><trkpt lat="53.4867364" lon="14.7488136"><ele>-3.0</ele><time>2026-04-06T13:00:15.083Z</time></trkpt><trkpt lat="53.4867868" lon="14.7487156"><ele>-3.0</ele><time>2026-04-06T13:00:16.079Z</time></trkpt><trkpt lat="53.4868276" lon="14.7486086"><ele>-3.0</ele><time>2026-04-06T13:00:17.073Z</time></trkpt><trkpt lat="53.4868626" lon="14.7485031"><ele>-3.0</ele><time>2026-04-06T13:00:18.079Z</time></trkpt><trkpt lat="53.4869029" lon="14.7484073"><ele>-3.0</ele><time>2026-04-06T13:00:19.08Z</time></trkpt><trkpt lat="53.4869513" lon="14.7483078"><ele>-3.0</ele><time>2026-04-06T13:00:20.088Z</time></trkpt><trkpt lat="53.4870028" lon="14.7481991"><ele>-3.0</ele><time>2026-04-06T13:00:21.079Z</time></trkpt><trkpt lat="53.4870526" lon="14.7480701"><ele>-3.0</ele><time>2026-04-06T13:00:22.079Z</time></trkpt><trkpt lat="53.4870965" lon="14.7479224"><ele>-3.0</ele><time>2026-04-06T13:00:23.082Z</time></trkpt><trkpt lat="53.4871435" lon="14.7477735"><ele>-3.0</ele><time>2026-04-06T13:00:24.079Z</time></trkpt><trkpt lat="53.4871906" lon="14.7476406"><ele>-3.0</ele><time>2026-04-06T13:00:25.085Z</time></trkpt><trkpt lat="53.4872384" lon="14.7475198"><ele>-3.0</ele><time>2026-04-06T13:00:26.084Z</time></trkpt><trkpt lat="53.4872872" lon="14.7473895"><ele>-3.0</ele><time>2026-04-06T13:00:27.077Z</time></trkpt><trkpt lat="53.4873324" lon="14.7472141"><ele>-3.0</ele><time>2026-04-06T13:00:28.078Z</time></trkpt><trkpt lat="53.4873674" lon="14.7470149"><ele>-3.0</ele><time>2026-04-06T13:00:29.086Z</time></trkpt><trkpt lat="53.4874018" lon="14.7468118"><ele>-3.0</ele><time>2026-04-06T13:00:30.084Z</time></trkpt><trkpt lat="53.48744" lon="14.74662"><ele>-3.0</ele><time>2026-04-06T13:00:31.077Z</time></trkpt><trkpt lat="53.4874783" lon="14.74645"><ele>-3.0</ele><time>2026-04-06T13:00:32.083Z</time></trkpt><trkpt lat="53.487525" lon="14.7463"><ele>-3.0</ele><time>2026-04-06T13:00:33.079Z</time></trkpt><trkpt lat="53.4875983" lon="14.7461767"><ele>-3.0</ele><time>2026-04-06T13:00:34.07Z</time></trkpt><trkpt lat="53.4877133" lon="14.7460983"><ele>-3.0</ele><time>2026-04-06T13:00:35.074Z</time></trkpt><trkpt lat="53.4878317" lon="14.746025"><ele>-3.0</ele><time>2026-04-06T13:00:36.075Z</time></trkpt><trkpt lat="53.4879433" lon="14.74596"><ele>-3.0</ele><time>2026-04-06T13:00:37.102Z</time></trkpt><trkpt lat="53.4880433" lon="14.7459283"><ele>-3.0</ele><time>2026-04-06T13:00:38.08Z</time></trkpt><trkpt lat="53.4881417" lon="14.7459017"><ele>-3.0</ele><time>2026-04-06T13:00:39.08Z</time></trkpt><trkpt lat="53.4882383" lon="14.74589"><ele>-3.0</ele><time>2026-04-06T13:00:40.076Z</time></trkpt><trkpt lat="53.488335" lon="14.7458983"><ele>-3.0</ele><time>2026-04-06T13:00:41.084Z</time></trkpt><trkpt lat="53.48844" lon="14.7459333"><ele>-3.0</ele><time>2026-04-06T13:00:42.09Z</time></trkpt><trkpt lat="53.48855" lon="14.7459933"><ele>-3.0</ele><time>2026-04-06T13:00:43.08Z</time></trkpt><trkpt lat="53.4886467" lon="14.746065"><ele>-3.0</ele><time>2026-04-06T13:00:44.076Z</time></trkpt><trkpt lat="53.4887383" lon="14.7461567"><ele>-3.0</ele><time>2026-04-06T13:00:45.073Z</time></trkpt><trkpt lat="53.4888383" lon="14.746245"><ele>-3.0</ele><time>2026-04-06T13:00:46.074Z</time></trkpt><trkpt lat="53.4889333" lon="14.7463033"><ele>-3.0</ele><time>2026-04-06T13:00:47.079Z</time></trkpt><trkpt lat="53.4890233" lon="14.7463283"><ele>-3.0</ele><time>2026-04-06T13:00:48.08Z</time></trkpt><trkpt lat="53.4891167" lon="14.74632"><ele>-3.0</ele><time>2026-04-06T13:00:49.075Z</time></trkpt><trkpt lat="53.489215" lon="14.7462783"><ele>-3.0</ele><time>2026-04-06T13:00:50.072Z</time></trkpt><trkpt lat="53.4893183" lon="14.7462017"><ele>-3.0</ele><time>2026-04-06T13:00:51.075Z</time></trkpt><trkpt lat="53.48942" lon="14.746115"><ele>-3.0</ele><time>2026-04-06T13:00:52.071Z</time></trkpt><trkpt lat="53.489515" lon="14.7460367"><ele>-3.0</ele><time>2026-04-06T13:00:53.083Z</time></trkpt><trkpt lat="53.4895967" lon="14.7459767"><ele>-3.0</ele><time>2026-04-06T13:00:54.073Z</time></trkpt><trkpt lat="53.489665" lon="14.7459217"><ele>-3.0</ele><time>2026-04-06T13:00:55.083Z</time></trkpt><trkpt lat="53.4897233" lon="14.7458717"><ele>-3.0</ele><time>2026-04-06T13:00:56.075Z</time></trkpt><trkpt lat="53.489825" lon="14.7457517"><ele>-3.0</ele><time>2026-04-06T13:00:58.077Z</time></trkpt><trkpt lat="53.4898783" lon="14.7456633"><ele>-3.0</ele><time>2026-04-06T13:00:59.079Z</time></trkpt><trkpt lat="53.4899283" lon="14.7455767"><ele>-3.0</ele><time>2026-04-06T13:01:00.076Z</time></trkpt><trkpt lat="53.489975" lon="14.745495"><ele>-3.0</ele><time>2026-04-06T13:01:01.082Z</time></trkpt><trkpt lat="53.4900217" lon="14.7454133"><ele>-3.0</ele><time>2026-04-06T13:01:02.074Z</time></trkpt><trkpt lat="53.4900667" lon="14.745335"><ele>-3.0</ele><time>2026-04-06T13:01:03.075Z</time></trkpt><trkpt lat="53.4901517" lon="14.7451967"><ele>-3.0</ele><time>2026-04-06T13:01:05.074Z</time></trkpt><trkpt lat="53.4902233" lon="14.7450767"><ele>-3.0</ele><time>2026-04-06T13:01:07.076Z</time></trkpt><trkpt lat="53.4902933" lon="14.7449583"><ele>-3.0</ele><time>2026-04-06T13:01:09.082Z</time></trkpt><trkpt lat="53.4903733" lon="14.74481"><ele>-3.0</ele><time>2026-04-06T13:01:11.078Z</time></trkpt><trkpt lat="53.4904183" lon="14.744725"><ele>-3.0</ele><time>2026-04-06T13:01:12.075Z</time></trkpt><trkpt lat="53.4905017" lon="14.744575"><ele>-3.0</ele><time>2026-04-06T13:01:14.075Z</time></trkpt><trkpt lat="53.4905817" lon="14.74445"><ele>-3.0</ele><time>2026-04-06T13:01:16.071Z</time></trkpt><trkpt lat="53.490655" lon="14.7443033"><ele>-3.0</ele><time>2026-04-06T13:01:18.073Z</time></trkpt><trkpt lat="53.4906867" lon="14.7442033"><ele>-3.0</ele><time>2026-04-06T13:01:19.077Z</time></trkpt><trkpt lat="53.4907217" lon="14.744105"><ele>-3.0</ele><time>2026-04-06T13:01:20.079Z</time></trkpt><trkpt lat="53.490765" lon="14.744025"><ele>-3.0</ele><time>2026-04-06T13:01:21.087Z</time></trkpt><trkpt lat="53.4908633" lon="14.74394"><ele>-3.0</ele><time>2026-04-06T13:01:23.075Z</time></trkpt><trkpt lat="53.4909983" lon="14.7438817"><ele>-3.0</ele><time>2026-04-06T13:01:25.086Z</time></trkpt><trkpt lat="53.491085" lon="14.74384"><ele>-3.0</ele><time>2026-04-06T13:01:26.083Z</time></trkpt><trkpt lat="53.491175" lon="14.7438033"><ele>-3.0</ele><time>2026-04-06T13:01:27.094Z</time></trkpt><trkpt lat="53.4912517" lon="14.7437767"><ele>-3.0</ele><time>2026-04-06T13:01:28.076Z</time></trkpt><trkpt lat="53.4913183" lon="14.743745"><ele>-3.0</ele><time>2026-04-06T13:01:29.087Z</time></trkpt><trkpt lat="53.4913933" lon="14.74369"><ele>-3.0</ele><time>2026-04-06T13:01:30.082Z</time></trkpt><trkpt lat="53.4914717" lon="14.74361"><ele>-3.0</ele><time>2026-04-06T13:01:31.088Z</time></trkpt><trkpt lat="53.4915562" lon="14.7435129"><ele>-3.0</ele><time>2026-04-06T13:01:32.085Z</time></trkpt><trkpt lat="53.4916398" lon="14.7434147"><ele>-2.8</ele><time>2026-04-06T13:01:33.087Z</time></trkpt><trkpt lat="53.4917093" lon="14.7433185"><ele>-2.5999999999999996</ele><time>2026-04-06T13:01:34.086Z</time></trkpt><trkpt lat="53.4917726" lon="14.7432069"><ele>-2.4000000000000004</ele><time>2026-04-06T13:01:35.094Z</time></trkpt><trkpt lat="53.4918331" lon="14.743074"><ele>-2.2</ele><time>2026-04-06T13:01:36.078Z</time></trkpt><trkpt lat="53.4918902" lon="14.7429065"><ele>-2.0</ele><time>2026-04-06T13:01:37.09Z</time></trkpt><trkpt lat="53.4919353" lon="14.7427265"><ele>-1.9999999999999998</ele><time>2026-04-06T13:01:38.084Z</time></trkpt><trkpt lat="53.4919708" lon="14.742554"><ele>-2.0</ele><time>2026-04-06T13:01:39.075Z</time></trkpt><trkpt lat="53.4919988" lon="14.7424093"><ele>-2.0</ele><time>2026-04-06T13:01:40.078Z</time></trkpt><trkpt lat="53.4920229" lon="14.7422835"><ele>-2.0</ele><time>2026-04-06T13:01:41.068Z</time></trkpt><trkpt lat="53.4920498" lon="14.7421577"><ele>-1.9999999999999998</ele><time>2026-04-06T13:01:42.082Z</time></trkpt><trkpt lat="53.4920834" lon="14.7420312"><ele>-2.0</ele><time>2026-04-06T13:01:43.08Z</time></trkpt><trkpt lat="53.4921291" lon="14.7419177"><ele>-1.9999999999999998</ele><time>2026-04-06T13:01:44.083Z</time></trkpt><trkpt lat="53.4921837" lon="14.7418207"><ele>-2.0</ele><time>2026-04-06T13:01:45.078Z</time></trkpt><trkpt lat="53.4922472" lon="14.7417381"><ele>-2.0</ele><time>2026-04-06T13:01:46.079Z</time></trkpt><trkpt lat="53.4923087" lon="14.7416732"><ele>-2.0</ele><time>2026-04-06T13:01:47.076Z</time></trkpt><trkpt lat="53.4923748" lon="14.7416234"><ele>-1.9999999999999998</ele><time>2026-04-06T13:01:48.082Z</time></trkpt><trkpt lat="53.4924445" lon="14.7415752"><ele>-2.0</ele><time>2026-04-06T13:01:49.078Z</time></trkpt><trkpt lat="53.4925178" lon="14.741527"><ele>-2.0</ele><time>2026-04-06T13:01:50.072Z</time></trkpt><trkpt lat="53.4925975" lon="14.7414796"><ele>-2.0</ele><time>2026-04-06T13:01:51.077Z</time></trkpt><trkpt lat="53.4926854" lon="14.7414256"><ele>-2.0</ele><time>2026-04-06T13:01:52.076Z</time></trkpt><trkpt lat="53.4927767" lon="14.7413673"><ele>-2.0</ele><time>2026-04-06T13:01:53.078Z</time></trkpt><trkpt lat="53.492872" lon="14.7413085"><ele>-2.0</ele><time>2026-04-06T13:01:54.073Z</time></trkpt><trkpt lat="53.4929722" lon="14.7412548"><ele>-2.0</ele><time>2026-04-06T13:01:55.077Z</time></trkpt><trkpt lat="53.4930725" lon="14.7412034"><ele>-2.0</ele><time>2026-04-06T13:01:56.074Z</time></trkpt><trkpt lat="53.4931698" lon="14.7411663"><ele>-2.0</ele><time>2026-04-06T13:01:57.074Z</time></trkpt><trkpt lat="53.4932563" lon="14.7411432"><ele>-2.0</ele><time>2026-04-06T13:01:58.077Z</time></trkpt><trkpt lat="53.4933384" lon="14.7411344"><ele>-2.0</ele><time>2026-04-06T13:01:59.08Z</time></trkpt><trkpt lat="53.4934158" lon="14.7411335"><ele>-1.9999999999999998</ele><time>2026-04-06T13:02:00.072Z</time></trkpt><trkpt lat="53.493479" lon="14.7411329"><ele>-2.0</ele><time>2026-04-06T13:02:01.109Z</time></trkpt><trkpt lat="53.4935756" lon="14.741132"><ele>-2.0</ele><time>2026-04-06T13:02:03.074Z</time></trkpt><trkpt lat="53.4936452" lon="14.7411273"><ele>-2.0</ele><time>2026-04-06T13:02:05.088Z</time></trkpt><trkpt lat="53.4937125" lon="14.7411236"><ele>-1.9999999999999998</ele><time>2026-04-06T13:02:07.088Z</time></trkpt><trkpt lat="53.4937954" lon="14.7411183"><ele>-2.0</ele><time>2026-04-06T13:02:10.07Z</time></trkpt><trkpt lat="53.4938552" lon="14.7412119"><ele>-2.1666666666666665</ele><time>2026-04-06T13:02:12.076Z</time></trkpt><trkpt lat="53.4939183" lon="14.741125"><ele>-2.333333333333333</ele><time>2026-04-06T13:03:15.083Z</time></trkpt><trkpt lat="53.493985" lon="14.7411117"><ele>-2.5</ele><time>2026-04-06T13:03:16.077Z</time></trkpt><trkpt lat="53.49406" lon="14.7410983"><ele>-2.6666666666666665</ele><time>2026-04-06T13:03:17.091Z</time></trkpt><trkpt lat="53.4941467" lon="14.7410917"><ele>-2.8333333333333335</ele><time>2026-04-06T13:03:18.073Z</time></trkpt><trkpt lat="53.4942467" lon="14.7410833"><ele>-3.0</ele><time>2026-04-06T13:03:19.086Z</time></trkpt><trkpt lat="53.4943517" lon="14.7410733"><ele>-3.0</ele><time>2026-04-06T13:03:20.076Z</time></trkpt><trkpt lat="53.4944683" lon="14.7410617"><ele>-3.0</ele><time>2026-04-06T13:03:21.086Z</time></trkpt><trkpt lat="53.49459" lon="14.7410517"><ele>-3.0</ele><time>2026-04-06T13:03:22.079Z</time></trkpt><trkpt lat="53.4947117" lon="14.7410383"><ele>-3.0</ele><time>2026-04-06T13:03:23.08Z</time></trkpt><trkpt lat="53.4948302" lon="14.7410215"><ele>-2.5</ele><time>2026-04-06T13:03:24.077Z</time></trkpt><trkpt lat="53.494953" lon="14.7410026"><ele>-2.0</ele><time>2026-04-06T13:03:25.084Z</time></trkpt><trkpt lat="53.4950835" lon="14.7409825"><ele>-1.5</ele><time>2026-04-06T13:03:26.081Z</time></trkpt><trkpt lat="53.4952187" lon="14.7409634"><ele>-1.0</ele><time>2026-04-06T13:03:27.107Z</time></trkpt><trkpt lat="53.4953531" lon="14.7409415"><ele>-1.25</ele><time>2026-04-06T13:03:28.074Z</time></trkpt><trkpt lat="53.4954942" lon="14.7409205"><ele>-1.5</ele><time>2026-04-06T13:03:29.082Z</time></trkpt><trkpt lat="53.4956364" lon="14.7409001"><ele>-1.75</ele><time>2026-04-06T13:03:30.078Z</time></trkpt><trkpt lat="53.4957813" lon="14.740881"><ele>-2.0</ele><time>2026-04-06T13:03:31.077Z</time></trkpt><trkpt lat="53.4959281" lon="14.7408589"><ele>-2.0</ele><time>2026-04-06T13:03:32.079Z</time></trkpt><trkpt lat="53.4960725" lon="14.7408429"><ele>-2.0</ele><time>2026-04-06T13:03:33.08Z</time></trkpt><trkpt lat="53.4962128" lon="14.7408371"><ele>-2.0</ele><time>2026-04-06T13:03:34.071Z</time></trkpt><trkpt lat="53.4963432" lon="14.7408414"><ele>-2.0</ele><time>2026-04-06T13:03:35.072Z</time></trkpt><trkpt lat="53.4964534" lon="14.7408629"><ele>-2.0</ele><time>2026-04-06T13:03:36.077Z</time></trkpt><trkpt lat="53.4965525" lon="14.7408989"><ele>-2.0</ele><time>2026-04-06T13:03:37.075Z</time></trkpt><trkpt lat="53.4966438" lon="14.7409563"><ele>-2.0</ele><time>2026-04-06T13:03:38.077Z</time></trkpt><trkpt lat="53.4967274" lon="14.7410366"><ele>-2.0</ele><time>2026-04-06T13:03:39.08Z</time></trkpt><trkpt lat="53.4968063" lon="14.7411385"><ele>-2.0</ele><time>2026-04-06T13:03:40.094Z</time></trkpt><trkpt lat="53.4968777" lon="14.7412385"><ele>-1.9999999999999998</ele><time>2026-04-06T13:03:41.076Z</time></trkpt><trkpt lat="53.4969455" lon="14.7413219"><ele>-2.0</ele><time>2026-04-06T13:03:42.073Z</time></trkpt><trkpt lat="53.4970112" lon="14.7413712"><ele>-2.0</ele><time>2026-04-06T13:03:43.075Z</time></trkpt><trkpt lat="53.4970773" lon="14.7413838"><ele>-2.0</ele><time>2026-04-06T13:03:44.078Z</time></trkpt><trkpt lat="53.4971464" lon="14.7413518"><ele>-1.9999999999999998</ele><time>2026-04-06T13:03:45.072Z</time></trkpt><trkpt lat="53.4972208" lon="14.7412856"><ele>-2.0</ele><time>2026-04-06T13:03:46.071Z</time></trkpt><trkpt lat="53.4972911" lon="14.7411985"><ele>-1.9999999999999998</ele><time>2026-04-06T13:03:47.068Z</time></trkpt><trkpt lat="53.4973537" lon="14.7411061"><ele>-2.0</ele><time>2026-04-06T13:03:48.076Z</time></trkpt><trkpt lat="53.4974067" lon="14.7410112"><ele>-2.0</ele><time>2026-04-06T13:03:49.073Z</time></trkpt><trkpt lat="53.4974499" lon="14.7409117"><ele>-2.0</ele><time>2026-04-06T13:03:50.073Z</time></trkpt><trkpt lat="53.4974853" lon="14.7407903"><ele>-1.9999999999999998</ele><time>2026-04-06T13:03:51.079Z</time></trkpt><trkpt lat="53.4975176" lon="14.7406502"><ele>-2.0</ele><time>2026-04-06T13:03:52.075Z</time></trkpt><trkpt lat="53.4975455" lon="14.7405185"><ele>-1.9999999999999998</ele><time>2026-04-06T13:03:53.077Z</time></trkpt><trkpt lat="53.4975774" lon="14.7404097"><ele>-2.0</ele><time>2026-04-06T13:03:54.08Z</time></trkpt><trkpt lat="53.4976171" lon="14.7403222"><ele>-2.0</ele><time>2026-04-06T13:03:55.075Z</time></trkpt><trkpt lat="53.4976734" lon="14.7402698"><ele>-2.0</ele><time>2026-04-06T13:03:56.077Z</time></trkpt><trkpt lat="53.497746" lon="14.7402495"><ele>-1.9999999999999998</ele><time>2026-04-06T13:03:57.103Z</time></trkpt><trkpt lat="53.497842" lon="14.7402934"><ele>-2.0</ele><time>2026-04-06T13:03:58.07Z</time></trkpt><trkpt lat="53.4979789" lon="14.7403888"><ele>-2.0</ele><time>2026-04-06T13:03:59.082Z</time></trkpt><trkpt lat="53.4981189" lon="14.740488"><ele>-2.0</ele><time>2026-04-06T13:04:00.079Z</time></trkpt><trkpt lat="53.4982567" lon="14.7405756"><ele>-2.0</ele><time>2026-04-06T13:04:01.074Z</time></trkpt><trkpt lat="53.4983872" lon="14.7406674"><ele>-2.0</ele><time>2026-04-06T13:04:02.075Z</time></trkpt><trkpt lat="53.4985055" lon="14.7407545"><ele>-2.0</ele><time>2026-04-06T13:04:03.083Z</time></trkpt><trkpt lat="53.4986232" lon="14.7408194"><ele>-2.0</ele><time>2026-04-06T13:04:04.075Z</time></trkpt><trkpt lat="53.4987565" lon="14.7408916"><ele>-2.0</ele><time>2026-04-06T13:04:05.091Z</time></trkpt><trkpt lat="53.4988943" lon="14.7409846"><ele>-2.0</ele><time>2026-04-06T13:04:06.077Z</time></trkpt><trkpt lat="53.4990198" lon="14.7410737"><ele>-2.0</ele><time>2026-04-06T13:04:07.091Z</time></trkpt><trkpt lat="53.4991361" lon="14.741152"><ele>-2.0</ele><time>2026-04-06T13:04:08.077Z</time></trkpt><trkpt lat="53.4992572" lon="14.7412274"><ele>-2.0</ele><time>2026-04-06T13:04:09.08Z</time></trkpt><trkpt lat="53.4993804" lon="14.7412908"><ele>-2.0</ele><time>2026-04-06T13:04:10.079Z</time></trkpt><trkpt lat="53.4994983" lon="14.7413508"><ele>-2.25</ele><time>2026-04-06T13:04:11.089Z</time></trkpt><trkpt lat="53.4996054" lon="14.7413954"><ele>-2.5</ele><time>2026-04-06T13:04:12.081Z</time></trkpt><trkpt lat="53.4997143" lon="14.7414227"><ele>-2.75</ele><time>2026-04-06T13:04:13.086Z</time></trkpt><trkpt lat="53.4998272" lon="14.7414292"><ele>-3.0</ele><time>2026-04-06T13:04:14.076Z</time></trkpt><trkpt lat="53.4999488" lon="14.7414244"><ele>-3.0</ele><time>2026-04-06T13:04:15.086Z</time></trkpt><trkpt lat="53.5000663" lon="14.741424"><ele>-3.0</ele><time>2026-04-06T13:04:16.081Z</time></trkpt><trkpt lat="53.5001801" lon="14.7414255"><ele>-3.0</ele><time>2026-04-06T13:04:17.087Z</time></trkpt><trkpt lat="53.5002931" lon="14.741424"><ele>-3.0</ele><time>2026-04-06T13:04:18.073Z</time></trkpt><trkpt lat="53.500407" lon="14.7414191"><ele>-2.75</ele><time>2026-04-06T13:04:19.084Z</time></trkpt><trkpt lat="53.5005197" lon="14.741414"><ele>-2.5</ele><time>2026-04-06T13:04:20.071Z</time></trkpt><trkpt lat="53.5006341" lon="14.7414092"><ele>-2.25</ele><time>2026-04-06T13:04:21.076Z</time></trkpt><trkpt lat="53.5007488" lon="14.7414052"><ele>-2.0</ele><time>2026-04-06T13:04:22.081Z</time></trkpt><trkpt lat="53.5008621" lon="14.7414008"><ele>-2.0</ele><time>2026-04-06T13:04:23.076Z</time></trkpt><trkpt lat="53.5009739" lon="14.7414013"><ele>-2.0</ele><time>2026-04-06T13:04:24.076Z</time></trkpt><trkpt lat="53.5010877" lon="14.7413921"><ele>-2.0</ele><time>2026-04-06T13:04:25.092Z</time></trkpt><trkpt lat="53.501201" lon="14.7413723"><ele>-2.0</ele><time>2026-04-06T13:04:26.078Z</time></trkpt><trkpt lat="53.501318" lon="14.7413589"><ele>-2.0</ele><time>2026-04-06T13:04:27.093Z</time></trkpt><trkpt lat="53.5014328" lon="14.7413527"><ele>-2.0</ele><time>2026-04-06T13:04:28.079Z</time></trkpt><trkpt lat="53.5015462" lon="14.7413475"><ele>-2.0</ele><time>2026-04-06T13:04:29.092Z</time></trkpt><trkpt lat="53.5016514" lon="14.7413414"><ele>-2.0</ele><time>2026-04-06T13:04:30.082Z</time></trkpt><trkpt lat="53.5017553" lon="14.7413274"><ele>-2.0</ele><time>2026-04-06T13:04:31.073Z</time></trkpt><trkpt lat="53.5018605" lon="14.7413017"><ele>-2.0</ele><time>2026-04-06T13:04:32.076Z</time></trkpt><trkpt lat="53.5019677" lon="14.741268"><ele>-2.0</ele><time>2026-04-06T13:04:33.073Z</time></trkpt><trkpt lat="53.5020779" lon="14.7412342"><ele>-2.0</ele><time>2026-04-06T13:04:34.076Z</time></trkpt><trkpt lat="53.5021846" lon="14.7412003"><ele>-2.0</ele><time>2026-04-06T13:04:35.075Z</time></trkpt><trkpt lat="53.5022877" lon="14.7411635"><ele>-2.0</ele><time>2026-04-06T13:04:36.073Z</time></trkpt><trkpt lat="53.5023935" lon="14.7411307"><ele>-2.0</ele><time>2026-04-06T13:04:37.077Z</time></trkpt><trkpt lat="53.5024992" lon="14.7410974"><ele>-2.0</ele><time>2026-04-06T13:04:38.078Z</time></trkpt><trkpt lat="53.5026031" lon="14.7410675"><ele>-2.0</ele><time>2026-04-06T13:04:39.101Z</time></trkpt><trkpt lat="53.5027036" lon="14.7410392"><ele>-2.0</ele><time>2026-04-06T13:04:40.082Z</time></trkpt><trkpt lat="53.5027969" lon="14.7410135"><ele>-2.0</ele><time>2026-04-06T13:04:41.083Z</time></trkpt><trkpt lat="53.5028826" lon="14.7409935"><ele>-1.8</ele><time>2026-04-06T13:04:42.08Z</time></trkpt><trkpt lat="53.5029643" lon="14.7409788"><ele>-1.6</ele><time>2026-04-06T13:04:43.084Z</time></trkpt><trkpt lat="53.503049" lon="14.7409652"><ele>-1.4000000000000001</ele><time>2026-04-06T13:04:44.074Z</time></trkpt><trkpt lat="53.5031409" lon="14.7409563"><ele>-1.2000000000000002</ele><time>2026-04-06T13:04:45.082Z</time></trkpt><trkpt lat="53.5032396" lon="14.7409493"><ele>-1.0</ele><time>2026-04-06T13:04:46.077Z</time></trkpt><trkpt lat="53.5033482" lon="14.7409435"><ele>-1.0</ele><time>2026-04-06T13:04:47.083Z</time></trkpt><trkpt lat="53.5034658" lon="14.7409412"><ele>-1.0</ele><time>2026-04-06T13:04:48.081Z</time></trkpt><trkpt lat="53.503596" lon="14.7409428"><ele>-1.0</ele><time>2026-04-06T13:04:49.078Z</time></trkpt><trkpt lat="53.5037512" lon="14.7409572"><ele>-1.0</ele><time>2026-04-06T13:04:50.08Z</time></trkpt><trkpt lat="53.5039243" lon="14.7409834"><ele>-0.6666666666666666</ele><time>2026-04-06T13:04:51.088Z</time></trkpt><trkpt lat="53.5041044" lon="14.7410097"><ele>-0.3333333333333333</ele><time>2026-04-06T13:04:52.093Z</time></trkpt><trkpt lat="53.5042792" lon="14.7410328"><ele>0.0</ele><time>2026-04-06T13:04:53.081Z</time></trkpt><trkpt lat="53.504446" lon="14.7410496"><ele>-0.6666666666666666</ele><time>2026-04-06T13:04:54.093Z</time></trkpt><trkpt lat="53.5046121" lon="14.7410613"><ele>-1.3333333333333333</ele><time>2026-04-06T13:04:55.102Z</time></trkpt><trkpt lat="53.5047749" lon="14.7410688"><ele>-2.0</ele><time>2026-04-06T13:04:56.081Z</time></trkpt><trkpt lat="53.5049347" lon="14.7410779"><ele>-2.0</ele><time>2026-04-06T13:04:57.089Z</time></trkpt><trkpt lat="53.5050835" lon="14.7410913"><ele>-2.0</ele><time>2026-04-06T13:04:58.089Z</time></trkpt><trkpt lat="53.5052288" lon="14.7411071"><ele>-2.0</ele><time>2026-04-06T13:04:59.095Z</time></trkpt><trkpt lat="53.5053751" lon="14.7411258"><ele>-2.0</ele><time>2026-04-06T13:05:00.082Z</time></trkpt><trkpt lat="53.5055271" lon="14.7411385"><ele>-2.0</ele><time>2026-04-06T13:05:01.078Z</time></trkpt><trkpt lat="53.5056832" lon="14.7411505"><ele>-2.0</ele><time>2026-04-06T13:05:02.078Z</time></trkpt><trkpt lat="53.505832" lon="14.7411609"><ele>-2.0</ele><time>2026-04-06T13:05:03.076Z</time></trkpt><trkpt lat="53.5059791" lon="14.7411722"><ele>-2.0</ele><time>2026-04-06T13:05:04.089Z</time></trkpt><trkpt lat="53.5061243" lon="14.7411826"><ele>-2.0</ele><time>2026-04-06T13:05:05.088Z</time></trkpt><trkpt lat="53.506261" lon="14.7411961"><ele>-2.0</ele><time>2026-04-06T13:05:06.078Z</time></trkpt><trkpt lat="53.5063806" lon="14.7412139"><ele>-2.0</ele><time>2026-04-06T13:05:07.099Z</time></trkpt><trkpt lat="53.5064923" lon="14.7412382"><ele>-2.0</ele><time>2026-04-06T13:05:08.083Z</time></trkpt><trkpt lat="53.5066049" lon="14.7412674"><ele>-2.0</ele><time>2026-04-06T13:05:09.074Z</time></trkpt><trkpt lat="53.5067127" lon="14.7412922"><ele>-2.0</ele><time>2026-04-06T13:05:10.082Z</time></trkpt><trkpt lat="53.506816" lon="14.7412971"><ele>-2.0</ele><time>2026-04-06T13:05:11.089Z</time></trkpt><trkpt lat="53.5069268" lon="14.741277"><ele>-2.0</ele><time>2026-04-06T13:05:12.089Z</time></trkpt><trkpt lat="53.5070485" lon="14.7412268"><ele>-1.6666666666666665</ele><time>2026-04-06T13:05:13.085Z</time></trkpt><trkpt lat="53.5071906" lon="14.7411488"><ele>-1.3333333333333333</ele><time>2026-04-06T13:05:14.082Z</time></trkpt><trkpt lat="53.5073568" lon="14.7410558"><ele>-1.0</ele><time>2026-04-06T13:05:15.096Z</time></trkpt><trkpt lat="53.5075143" lon="14.7409715"><ele>-0.75</ele><time>2026-04-06T13:05:16.083Z</time></trkpt><trkpt lat="53.5076526" lon="14.7409028"><ele>-0.5</ele><time>2026-04-06T13:05:17.082Z</time></trkpt><trkpt lat="53.5077791" lon="14.7408408"><ele>-0.25</ele><time>2026-04-06T13:05:18.076Z</time></trkpt><trkpt lat="53.507898" lon="14.7407784"><ele>0.0</ele><time>2026-04-06T13:05:19.074Z</time></trkpt><trkpt lat="53.5080141" lon="14.740715"><ele>0.0</ele><time>2026-04-06T13:05:20.075Z</time></trkpt><trkpt lat="53.5081331" lon="14.7406546"><ele>0.0</ele><time>2026-04-06T13:05:21.07Z</time></trkpt><trkpt lat="53.5082492" lon="14.7405957"><ele>0.0</ele><time>2026-04-06T13:05:22.076Z</time></trkpt><trkpt lat="53.5083607" lon="14.7405333"><ele>0.0</ele><time>2026-04-06T13:05:23.073Z</time></trkpt><trkpt lat="53.5084674" lon="14.7404636"><ele>0.0</ele><time>2026-04-06T13:05:24.072Z</time></trkpt><trkpt lat="53.5085709" lon="14.7403956"><ele>0.0</ele><time>2026-04-06T13:05:25.076Z</time></trkpt><trkpt lat="53.5086726" lon="14.7403352"><ele>0.0</ele><time>2026-04-06T13:05:26.091Z</time></trkpt><trkpt lat="53.5087737" lon="14.7402783"><ele>0.0</ele><time>2026-04-06T13:05:27.076Z</time></trkpt><trkpt lat="53.5088794" lon="14.7402161"><ele>0.0</ele><time>2026-04-06T13:05:28.084Z</time></trkpt><trkpt lat="53.5089871" lon="14.7401501"><ele>0.6</ele><time>2026-04-06T13:05:29.071Z</time></trkpt><trkpt lat="53.5090909" lon="14.7400769"><ele>1.2</ele><time>2026-04-06T13:05:30.075Z</time></trkpt><trkpt lat="53.5091895" lon="14.7399961"><ele>1.7999999999999998</ele><time>2026-04-06T13:05:31.073Z</time></trkpt><trkpt lat="53.5092836" lon="14.7399059"><ele>2.4</ele><time>2026-04-06T13:05:32.069Z</time></trkpt><trkpt lat="53.5093789" lon="14.7398139"><ele>3.0</ele><time>2026-04-06T13:05:33.111Z</time></trkpt><trkpt lat="53.5094673" lon="14.7397314"><ele>3.0</ele><time>2026-04-06T13:05:34.125Z</time></trkpt><trkpt lat="53.5095494" lon="14.7396553"><ele>3.0</ele><time>2026-04-06T13:05:35.075Z</time></trkpt><trkpt lat="53.5096375" lon="14.7395918"><ele>3.0</ele><time>2026-04-06T13:05:36.082Z</time></trkpt><trkpt lat="53.5097302" lon="14.7395283"><ele>3.0</ele><time>2026-04-06T13:05:37.13Z</time></trkpt><trkpt lat="53.509822" lon="14.7394718"><ele>3.0</ele><time>2026-04-06T13:05:38.079Z</time></trkpt><trkpt lat="53.5099116" lon="14.739409"><ele>3.1666666666666665</ele><time>2026-04-06T13:05:39.095Z</time></trkpt><trkpt lat="53.5099946" lon="14.739355"><ele>3.333333333333333</ele><time>2026-04-06T13:05:40.12Z</time></trkpt><trkpt lat="53.5100651" lon="14.7393085"><ele>3.5</ele><time>2026-04-06T13:05:41.102Z</time></trkpt><trkpt lat="53.5101244" lon="14.7392606"><ele>3.6666666666666665</ele><time>2026-04-06T13:05:42.08Z</time></trkpt><trkpt lat="53.5102268" lon="14.7391741"><ele>3.833333333333333</ele><time>2026-04-06T13:05:44.118Z</time></trkpt><trkpt lat="53.5102876" lon="14.7391217"><ele>4.0</ele><time>2026-04-06T13:05:46.08Z</time></trkpt><trkpt lat="53.5103231" lon="14.7393262"><ele>3.9999999999999996</ele><time>2026-04-06T13:06:06.073Z</time></trkpt><trkpt lat="53.5103449" lon="14.7394523"><ele>4.0</ele><time>2026-04-06T13:06:07.098Z</time></trkpt><trkpt lat="53.510375" lon="14.7395883"><ele>4.0</ele><time>2026-04-06T13:06:08.104Z</time></trkpt><trkpt lat="53.510405" lon="14.73972"><ele>4.0</ele><time>2026-04-06T13:06:09.097Z</time></trkpt><trkpt lat="53.5104367" lon="14.7398583"><ele>3.9999999999999996</ele><time>2026-04-06T13:06:10.074Z</time></trkpt><trkpt lat="53.5104667" lon="14.7400033"><ele>4.0</ele><time>2026-04-06T13:06:11.073Z</time></trkpt><trkpt lat="53.5104983" lon="14.7401433"><ele>3.8000000000000003</ele><time>2026-04-06T13:06:12.098Z</time></trkpt><trkpt lat="53.5105267" lon="14.7402883"><ele>3.6000000000000005</ele><time>2026-04-06T13:06:13.074Z</time></trkpt><trkpt lat="53.51056" lon="14.7404383"><ele>3.4</ele><time>2026-04-06T13:06:14.087Z</time></trkpt><trkpt lat="53.5105967" lon="14.740585"><ele>3.2</ele><time>2026-04-06T13:06:15.084Z</time></trkpt><trkpt lat="53.51064" lon="14.7407267"><ele>3.0</ele><time>2026-04-06T13:06:16.106Z</time></trkpt><trkpt lat="53.5106967" lon="14.7408583"><ele>3.0</ele><time>2026-04-06T13:06:17.075Z</time></trkpt><trkpt lat="53.5107633" lon="14.7409733"><ele>3.0</ele><time>2026-04-06T13:06:18.074Z</time></trkpt><trkpt lat="53.51084" lon="14.74108"><ele>3.0</ele><time>2026-04-06T13:06:19.075Z</time></trkpt><trkpt lat="53.5109167" lon="14.7411833"><ele>3.0</ele><time>2026-04-06T13:06:20.074Z</time></trkpt><trkpt lat="53.51099" lon="14.7412833"><ele>3.0</ele><time>2026-04-06T13:06:21.092Z</time></trkpt><trkpt lat="53.511065" lon="14.7413783"><ele>3.2</ele><time>2026-04-06T13:06:22.067Z</time></trkpt><trkpt lat="53.51114" lon="14.741475"><ele>3.4</ele><time>2026-04-06T13:06:23.106Z</time></trkpt><trkpt lat="53.5112233" lon="14.741575"><ele>3.6000000000000005</ele><time>2026-04-06T13:06:24.074Z</time></trkpt><trkpt lat="53.5113133" lon="14.7416767"><ele>3.8000000000000003</ele><time>2026-04-06T13:06:25.085Z</time></trkpt><trkpt lat="53.5114067" lon="14.74179"><ele>4.0</ele><time>2026-04-06T13:06:26.078Z</time></trkpt><trkpt lat="53.5115067" lon="14.7419233"><ele>4.25</ele><time>2026-04-06T13:06:27.076Z</time></trkpt><trkpt lat="53.5116183" lon="14.7420633"><ele>4.5</ele><time>2026-04-06T13:06:28.078Z</time></trkpt><trkpt lat="53.511735" lon="14.742205"><ele>4.75</ele><time>2026-04-06T13:06:29.085Z</time></trkpt><trkpt lat="53.5118517" lon="14.7423417"><ele>5.0</ele><time>2026-04-06T13:06:30.104Z</time></trkpt><trkpt lat="53.511965" lon="14.7424733"><ele>5.0</ele><time>2026-04-06T13:06:31.077Z</time></trkpt><trkpt lat="53.512065" lon="14.742595"><ele>5.0</ele><time>2026-04-06T13:06:32.076Z</time></trkpt><trkpt lat="53.5121583" lon="14.74271"><ele>5.0</ele><time>2026-04-06T13:06:33.071Z</time></trkpt><trkpt lat="53.5122467" lon="14.7428183"><ele>5.0</ele><time>2026-04-06T13:06:34.082Z</time></trkpt><trkpt lat="53.5123367" lon="14.742925"><ele>4.75</ele><time>2026-04-06T13:06:35.111Z</time></trkpt><trkpt lat="53.5124267" lon="14.7430433"><ele>4.5</ele><time>2026-04-06T13:06:36.097Z</time></trkpt><trkpt lat="53.512525" lon="14.7431633"><ele>4.25</ele><time>2026-04-06T13:06:37.078Z</time></trkpt><trkpt lat="53.5126283" lon="14.743285"><ele>4.0</ele><time>2026-04-06T13:06:38.079Z</time></trkpt><trkpt lat="53.5127322" lon="14.7434085"><ele>4.0</ele><time>2026-04-06T13:06:39.081Z</time></trkpt><trkpt lat="53.5128362" lon="14.7435312"><ele>4.0</ele><time>2026-04-06T13:06:40.081Z</time></trkpt><trkpt lat="53.5129381" lon="14.7436437"><ele>4.0</ele><time>2026-04-06T13:06:41.093Z</time></trkpt><trkpt lat="53.5130314" lon="14.7437453"><ele>4.0</ele><time>2026-04-06T13:06:42.126Z</time></trkpt><trkpt lat="53.5131151" lon="14.7438372"><ele>3.9999999999999996</ele><time>2026-04-06T13:06:43.114Z</time></trkpt><trkpt lat="53.5131925" lon="14.7439162"><ele>4.0</ele><time>2026-04-06T13:06:44.084Z</time></trkpt><trkpt lat="53.5132621" lon="14.7439889"><ele>4.0</ele><time>2026-04-06T13:06:45.099Z</time></trkpt><trkpt lat="53.5133233" lon="14.7440579"><ele>4.0</ele><time>2026-04-06T13:06:46.072Z</time></trkpt><trkpt lat="53.5133838" lon="14.7441197"><ele>3.9999999999999996</ele><time>2026-04-06T13:06:47.085Z</time></trkpt><trkpt lat="53.5134783" lon="14.7441925"><ele>4.0</ele><time>2026-04-06T13:06:49.071Z</time></trkpt><trkpt lat="53.5135444" lon="14.7441996"><ele>3.9999999999999996</ele><time>2026-04-06T13:06:51.082Z</time></trkpt><trkpt lat="53.5136334" lon="14.7441446"><ele>4.0</ele><time>2026-04-06T13:06:54.071Z</time></trkpt><trkpt lat="53.5137037" lon="14.7441137"><ele>4.0</ele><time>2026-04-06T13:06:57.073Z</time></trkpt><trkpt lat="53.513768" lon="14.7440916"><ele>4.0</ele><time>2026-04-06T13:06:59.032Z</time></trkpt><trkpt lat="53.5138553" lon="14.7440883"><ele>3.9999999999999996</ele><time>2026-04-06T13:07:01.072Z</time></trkpt><trkpt lat="53.5139548" lon="14.7440669"><ele>4.0</ele><time>2026-04-06T13:07:03.088Z</time></trkpt><trkpt lat="53.5140188" lon="14.7440617"><ele>4.4</ele><time>2026-04-06T13:07:04.081Z</time></trkpt><trkpt lat="53.514097" lon="14.7440469"><ele>4.800000000000001</ele><time>2026-04-06T13:07:05.086Z</time></trkpt><trkpt lat="53.5141853" lon="14.7440369"><ele>5.199999999999999</ele><time>2026-04-06T13:07:06.076Z</time></trkpt><trkpt lat="53.5142831" lon="14.7440309"><ele>5.6</ele><time>2026-04-06T13:07:07.083Z</time></trkpt><trkpt lat="53.5143862" lon="14.74402"><ele>6.0</ele><time>2026-04-06T13:07:08.075Z</time></trkpt><trkpt lat="53.5144969" lon="14.7440076"><ele>6.0</ele><time>2026-04-06T13:07:09.076Z</time></trkpt><trkpt lat="53.5146112" lon="14.7439946"><ele>6.0</ele><time>2026-04-06T13:07:10.07Z</time></trkpt><trkpt lat="53.5147248" lon="14.7439822"><ele>6.0</ele><time>2026-04-06T13:07:11.078Z</time></trkpt><trkpt lat="53.5148327" lon="14.7439726"><ele>6.0</ele><time>2026-04-06T13:07:12.074Z</time></trkpt><trkpt lat="53.5149417" lon="14.7439618"><ele>6.0</ele><time>2026-04-06T13:07:13.075Z</time></trkpt><trkpt lat="53.5150476" lon="14.7439553"><ele>6.0</ele><time>2026-04-06T13:07:14.074Z</time></trkpt><trkpt lat="53.5151514" lon="14.7439386"><ele>6.0</ele><time>2026-04-06T13:07:15.079Z</time></trkpt><trkpt lat="53.5152513" lon="14.7439156"><ele>6.0</ele><time>2026-04-06T13:07:16.069Z</time></trkpt><trkpt lat="53.5153457" lon="14.7439035"><ele>6.0</ele><time>2026-04-06T13:07:17.071Z</time></trkpt><trkpt lat="53.5154409" lon="14.7438977"><ele>6.0</ele><time>2026-04-06T13:07:18.077Z</time></trkpt><trkpt lat="53.515531" lon="14.7438912"><ele>5.666666666666667</ele><time>2026-04-06T13:07:19.079Z</time></trkpt><trkpt lat="53.5156176" lon="14.7438893"><ele>5.333333333333333</ele><time>2026-04-06T13:07:20.081Z</time></trkpt><trkpt lat="53.5157062" lon="14.7438833"><ele>5.0</ele><time>2026-04-06T13:07:21.084Z</time></trkpt><trkpt lat="53.5157983" lon="14.7438762"><ele>4.666666666666666</ele><time>2026-04-06T13:07:22.076Z</time></trkpt><trkpt lat="53.51589" lon="14.7438708"><ele>4.333333333333333</ele><time>2026-04-06T13:07:23.074Z</time></trkpt><trkpt lat="53.5159791" lon="14.7438636"><ele>4.0</ele><time>2026-04-06T13:07:24.07Z</time></trkpt><trkpt lat="53.5160721" lon="14.7438583"><ele>3.9999999999999996</ele><time>2026-04-06T13:07:25.087Z</time></trkpt><trkpt lat="53.5161624" lon="14.7438531"><ele>4.0</ele><time>2026-04-06T13:07:26.077Z</time></trkpt><trkpt lat="53.5162433" lon="14.7438449"><ele>4.0</ele><time>2026-04-06T13:07:27.089Z</time></trkpt><trkpt lat="53.5163208" lon="14.7438496"><ele>4.0</ele><time>2026-04-06T13:07:28.081Z</time></trkpt><trkpt lat="53.5163982" lon="14.7438694"><ele>3.9999999999999996</ele><time>2026-04-06T13:07:29.092Z</time></trkpt><trkpt lat="53.5164738" lon="14.7439051"><ele>4.0</ele><time>2026-04-06T13:07:30.077Z</time></trkpt><trkpt lat="53.516549" lon="14.7439547"><ele>3.9999999999999996</ele><time>2026-04-06T13:07:31.085Z</time></trkpt><trkpt lat="53.5166212" lon="14.7440034"><ele>4.0</ele><time>2026-04-06T13:07:32.076Z</time></trkpt><trkpt lat="53.5167016" lon="14.7440493"><ele>4.0</ele><time>2026-04-06T13:07:33.086Z</time></trkpt><trkpt lat="53.5167883" lon="14.7440896"><ele>4.0</ele><time>2026-04-06T13:07:34.077Z</time></trkpt><trkpt lat="53.516877" lon="14.7441279"><ele>3.9999999999999996</ele><time>2026-04-06T13:07:35.09Z</time></trkpt><trkpt lat="53.5169644" lon="14.7441663"><ele>4.0</ele><time>2026-04-06T13:07:36.078Z</time></trkpt><trkpt lat="53.5170512" lon="14.7442056"><ele>4.4</ele><time>2026-04-06T13:07:37.075Z</time></trkpt><trkpt lat="53.5171398" lon="14.7442398"><ele>4.800000000000001</ele><time>2026-04-06T13:07:38.075Z</time></trkpt><trkpt lat="53.5172285" lon="14.7442836"><ele>5.199999999999999</ele><time>2026-04-06T13:07:39.074Z</time></trkpt><trkpt lat="53.5173188" lon="14.7443278"><ele>5.6</ele><time>2026-04-06T13:07:40.07Z</time></trkpt><trkpt lat="53.5174215" lon="14.7443717"><ele>6.0</ele><time>2026-04-06T13:07:41.07Z</time></trkpt><trkpt lat="53.5175402" lon="14.7444222"><ele>6.25</ele><time>2026-04-06T13:07:42.071Z</time></trkpt><trkpt lat="53.5176693" lon="14.7444731"><ele>6.5</ele><time>2026-04-06T13:07:43.078Z</time></trkpt><trkpt lat="53.5178037" lon="14.7445235"><ele>6.75</ele><time>2026-04-06T13:07:44.074Z</time></trkpt><trkpt lat="53.5179302" lon="14.7445713"><ele>7.0</ele><time>2026-04-06T13:07:45.072Z</time></trkpt><trkpt lat="53.5180482" lon="14.7446175"><ele>7.0</ele><time>2026-04-06T13:07:46.074Z</time></trkpt><trkpt lat="53.5181544" lon="14.7446589"><ele>6.999999999999999</ele><time>2026-04-06T13:07:47.072Z</time></trkpt><trkpt lat="53.518256" lon="14.7447087"><ele>6.999999999999999</ele><time>2026-04-06T13:07:48.073Z</time></trkpt><trkpt lat="53.5183526" lon="14.7447635"><ele>7.0</ele><time>2026-04-06T13:07:49.078Z</time></trkpt><trkpt lat="53.5184495" lon="14.7448088"><ele>7.0</ele><time>2026-04-06T13:07:50.075Z</time></trkpt><trkpt lat="53.5185462" lon="14.7448538"><ele>7.0</ele><time>2026-04-06T13:07:51.08Z</time></trkpt><trkpt lat="53.5186466" lon="14.7448897"><ele>6.999999999999999</ele><time>2026-04-06T13:07:52.08Z</time></trkpt><trkpt lat="53.5187478" lon="14.7449197"><ele>6.999999999999999</ele><time>2026-04-06T13:07:53.072Z</time></trkpt><trkpt lat="53.5188448" lon="14.7449451"><ele>7.0</ele><time>2026-04-06T13:07:54.08Z</time></trkpt><trkpt lat="53.5189385" lon="14.7449608"><ele>7.0</ele><time>2026-04-06T13:07:55.08Z</time></trkpt><trkpt lat="53.5190339" lon="14.7449748"><ele>6.8</ele><time>2026-04-06T13:07:56.08Z</time></trkpt><trkpt lat="53.5191295" lon="14.7450087"><ele>6.6</ele><time>2026-04-06T13:07:57.077Z</time></trkpt><trkpt lat="53.5192229" lon="14.7450609"><ele>6.3999999999999995</ele><time>2026-04-06T13:07:58.075Z</time></trkpt><trkpt lat="53.5193168" lon="14.7451236"><ele>6.199999999999999</ele><time>2026-04-06T13:07:59.091Z</time></trkpt><trkpt lat="53.5194115" lon="14.745178"><ele>6.0</ele><time>2026-04-06T13:08:00.079Z</time></trkpt><trkpt lat="53.5195106" lon="14.745227"><ele>7.0</ele><time>2026-04-06T13:08:01.078Z</time></trkpt><trkpt lat="53.5196154" lon="14.7452736"><ele>8.0</ele><time>2026-04-06T13:08:02.077Z</time></trkpt><trkpt lat="53.5197235" lon="14.7453279"><ele>9.0</ele><time>2026-04-06T13:08:03.082Z</time></trkpt><trkpt lat="53.5198366" lon="14.7453755"><ele>10.0</ele><time>2026-04-06T13:08:04.066Z</time></trkpt><trkpt lat="53.5199545" lon="14.7454159"><ele>10.0</ele><time>2026-04-06T13:08:05.07Z</time></trkpt><trkpt lat="53.520075" lon="14.7454652"><ele>10.0</ele><time>2026-04-06T13:08:06.074Z</time></trkpt><trkpt lat="53.5201944" lon="14.7455168"><ele>10.0</ele><time>2026-04-06T13:08:07.074Z</time></trkpt><trkpt lat="53.5203166" lon="14.7455636"><ele>10.0</ele><time>2026-04-06T13:08:08.082Z</time></trkpt><trkpt lat="53.5204428" lon="14.7456107"><ele>9.0</ele><time>2026-04-06T13:08:09.084Z</time></trkpt><trkpt lat="53.520574" lon="14.7456575"><ele>8.0</ele><time>2026-04-06T13:08:10.066Z</time></trkpt><trkpt lat="53.5207108" lon="14.7457106"><ele>7.0</ele><time>2026-04-06T13:08:11.067Z</time></trkpt><trkpt lat="53.5208478" lon="14.7457669"><ele>6.0</ele><time>2026-04-06T13:08:12.083Z</time></trkpt><trkpt lat="53.5209841" lon="14.7458265"><ele>6.0</ele><time>2026-04-06T13:08:13.074Z</time></trkpt><trkpt lat="53.5211204" lon="14.7458859"><ele>6.0</ele><time>2026-04-06T13:08:14.073Z</time></trkpt><trkpt lat="53.5212481" lon="14.745942"><ele>6.0</ele><time>2026-04-06T13:08:15.075Z</time></trkpt><trkpt lat="53.5213639" lon="14.7459886"><ele>6.0</ele><time>2026-04-06T13:08:16.069Z</time></trkpt><trkpt lat="53.5214722" lon="14.7460304"><ele>7.0</ele><time>2026-04-06T13:08:17.078Z</time></trkpt><trkpt lat="53.5215805" lon="14.7460646"><ele>8.0</ele><time>2026-04-06T13:08:18.075Z</time></trkpt><trkpt lat="53.5216903" lon="14.7461071"><ele>9.0</ele><time>2026-04-06T13:08:19.095Z</time></trkpt><trkpt lat="53.5217952" lon="14.7461587"><ele>10.0</ele><time>2026-04-06T13:08:20.074Z</time></trkpt><trkpt lat="53.5219104" lon="14.7462121"><ele>10.0</ele><time>2026-04-06T13:08:21.077Z</time></trkpt><trkpt lat="53.522031" lon="14.7462653"><ele>10.0</ele><time>2026-04-06T13:08:22.079Z</time></trkpt><trkpt lat="53.5221482" lon="14.7463201"><ele>10.0</ele><time>2026-04-06T13:08:23.075Z</time></trkpt><trkpt lat="53.5222527" lon="14.7463721"><ele>10.0</ele><time>2026-04-06T13:08:24.077Z</time></trkpt><trkpt lat="53.5223554" lon="14.7464202"><ele>9.6</ele><time>2026-04-06T13:08:25.075Z</time></trkpt><trkpt lat="53.5224583" lon="14.7464636"><ele>9.2</ele><time>2026-04-06T13:08:26.08Z</time></trkpt><trkpt lat="53.522563" lon="14.7465106"><ele>8.8</ele><time>2026-04-06T13:08:27.069Z</time></trkpt><trkpt lat="53.5226682" lon="14.7465692"><ele>8.4</ele><time>2026-04-06T13:08:28.073Z</time></trkpt><trkpt lat="53.5227744" lon="14.7466344"><ele>8.0</ele><time>2026-04-06T13:08:29.074Z</time></trkpt><trkpt lat="53.5228829" lon="14.7467011"><ele>7.2</ele><time>2026-04-06T13:08:30.075Z</time></trkpt><trkpt lat="53.5229957" lon="14.7467567"><ele>6.4</ele><time>2026-04-06T13:08:31.073Z</time></trkpt><trkpt lat="53.5231055" lon="14.7467958"><ele>5.6000000000000005</ele><time>2026-04-06T13:08:32.073Z</time></trkpt><trkpt lat="53.5232067" lon="14.7468265"><ele>4.800000000000001</ele><time>2026-04-06T13:08:33.078Z</time></trkpt><trkpt lat="53.5233032" lon="14.7468516"><ele>4.0</ele><time>2026-04-06T13:08:34.074Z</time></trkpt><trkpt lat="53.5233973" lon="14.7468754"><ele>4.333333333333333</ele><time>2026-04-06T13:08:35.077Z</time></trkpt><trkpt lat="53.5234933" lon="14.7468961"><ele>4.666666666666666</ele><time>2026-04-06T13:08:36.069Z</time></trkpt><trkpt lat="53.5235914" lon="14.7469184"><ele>5.0</ele><time>2026-04-06T13:08:37.081Z</time></trkpt><trkpt lat="53.5236805" lon="14.7469409"><ele>5.333333333333333</ele><time>2026-04-06T13:08:38.073Z</time></trkpt><trkpt lat="53.5237595" lon="14.7469645"><ele>5.666666666666667</ele><time>2026-04-06T13:08:39.075Z</time></trkpt><trkpt lat="53.5238344" lon="14.7469941"><ele>6.0</ele><time>2026-04-06T13:08:40.069Z</time></trkpt><trkpt lat="53.5239062" lon="14.7470227"><ele>6.0</ele><time>2026-04-06T13:08:41.077Z</time></trkpt><trkpt lat="53.523977" lon="14.7470502"><ele>6.0</ele><time>2026-04-06T13:08:42.072Z</time></trkpt><trkpt lat="53.5240509" lon="14.7470794"><ele>6.0</ele><time>2026-04-06T13:08:43.073Z</time></trkpt><trkpt lat="53.5241303" lon="14.7471044"><ele>6.0</ele><time>2026-04-06T13:08:44.071Z</time></trkpt><trkpt lat="53.5242139" lon="14.7471303"><ele>6.0</ele><time>2026-04-06T13:08:45.069Z</time></trkpt><trkpt lat="53.5243007" lon="14.7471529"><ele>6.0</ele><time>2026-04-06T13:08:46.078Z</time></trkpt><trkpt lat="53.5243839" lon="14.7471734"><ele>6.0</ele><time>2026-04-06T13:08:47.085Z</time></trkpt><trkpt lat="53.5244619" lon="14.7471996"><ele>6.0</ele><time>2026-04-06T13:08:48.084Z</time></trkpt><trkpt lat="53.5245428" lon="14.7472342"><ele>6.0</ele><time>2026-04-06T13:08:49.085Z</time></trkpt><trkpt lat="53.5246238" lon="14.7472636"><ele>6.0</ele><time>2026-04-06T13:08:50.078Z</time></trkpt><trkpt lat="53.5247054" lon="14.7472824"><ele>6.0</ele><time>2026-04-06T13:08:51.095Z</time></trkpt><trkpt lat="53.5247808" lon="14.7473059"><ele>6.0</ele><time>2026-04-06T13:08:52.081Z</time></trkpt><trkpt lat="53.5248551" lon="14.7473309"><ele>6.428571428571428</ele><time>2026-04-06T13:08:53.082Z</time></trkpt><trkpt lat="53.5249253" lon="14.7473552"><ele>6.857142857142858</ele><time>2026-04-06T13:08:54.076Z</time></trkpt><trkpt lat="53.5249936" lon="14.7473808"><ele>7.2857142857142865</ele><time>2026-04-06T13:08:55.081Z</time></trkpt><trkpt lat="53.5250644" lon="14.7473998"><ele>7.714285714285714</ele><time>2026-04-06T13:08:56.093Z</time></trkpt><trkpt lat="53.5251402" lon="14.7474162"><ele>8.142857142857142</ele><time>2026-04-06T13:08:57.085Z</time></trkpt><trkpt lat="53.5252168" lon="14.7474382"><ele>8.571428571428573</ele><time>2026-04-06T13:08:58.082Z</time></trkpt><trkpt lat="53.5252945" lon="14.7474586"><ele>9.0</ele><time>2026-04-06T13:08:59.104Z</time></trkpt><trkpt lat="53.5253697" lon="14.74748"><ele>8.666666666666666</ele><time>2026-04-06T13:09:00.083Z</time></trkpt><trkpt lat="53.5254481" lon="14.7475023"><ele>8.333333333333334</ele><time>2026-04-06T13:09:01.089Z</time></trkpt><trkpt lat="53.525528" lon="14.7475261"><ele>8.0</ele><time>2026-04-06T13:09:02.077Z</time></trkpt><trkpt lat="53.525613" lon="14.7475534"><ele>7.666666666666667</ele><time>2026-04-06T13:09:03.099Z</time></trkpt><trkpt lat="53.5256971" lon="14.7475823"><ele>7.333333333333334</ele><time>2026-04-06T13:09:04.087Z</time></trkpt><trkpt lat="53.5257748" lon="14.7476117"><ele>7.0</ele><time>2026-04-06T13:09:05.081Z</time></trkpt><trkpt lat="53.5258437" lon="14.7476376"><ele>7.0</ele><time>2026-04-06T13:09:06.075Z</time></trkpt><trkpt lat="53.5259491" lon="14.7476839"><ele>6.999999999999999</ele><time>2026-04-06T13:09:08.078Z</time></trkpt><trkpt lat="53.5260317" lon="14.7477069"><ele>6.999999999999999</ele><time>2026-04-06T13:09:10.075Z</time></trkpt><trkpt lat="53.5261059" lon="14.7477228"><ele>7.0</ele><time>2026-04-06T13:09:12.079Z</time></trkpt><trkpt lat="53.5261836" lon="14.7477388"><ele>7.0</ele><time>2026-04-06T13:09:15.08Z</time></trkpt><trkpt lat="53.52629" lon="14.7478133"><ele>6.000000000000001</ele><time>2026-04-06T13:09:44.07Z</time></trkpt><trkpt lat="53.5263883" lon="14.747855"><ele>5.0</ele><time>2026-04-06T13:09:46.07Z</time></trkpt><trkpt lat="53.5264883" lon="14.7478933"><ele>4.0</ele><time>2026-04-06T13:09:48.072Z</time></trkpt><trkpt lat="53.52656" lon="14.74792"><ele>3.0</ele><time>2026-04-06T13:09:49.074Z</time></trkpt><trkpt lat="53.5266317" lon="14.7479533"><ele>2.0</ele><time>2026-04-06T13:09:50.079Z</time></trkpt><trkpt lat="53.5267046" lon="14.7479969"><ele>1.0</ele><time>2026-04-06T13:09:51.072Z</time></trkpt><trkpt lat="53.5267762" lon="14.7480519"><ele>0.9999999999999999</ele><time>2026-04-06T13:09:52.07Z</time></trkpt><trkpt lat="53.5268423" lon="14.7481151"><ele>1.0</ele><time>2026-04-06T13:09:53.075Z</time></trkpt><trkpt lat="53.5269026" lon="14.7481856"><ele>1.0</ele><time>2026-04-06T13:09:54.077Z</time></trkpt><trkpt lat="53.526962" lon="14.748256"><ele>1.0</ele><time>2026-04-06T13:09:55.073Z</time></trkpt><trkpt lat="53.5270245" lon="14.7483299"><ele>0.9999999999999999</ele><time>2026-04-06T13:09:56.071Z</time></trkpt><trkpt lat="53.5270874" lon="14.748409"><ele>1.0</ele><time>2026-04-06T13:09:57.079Z</time></trkpt><trkpt lat="53.5271485" lon="14.7484887"><ele>0.9999999999999999</ele><time>2026-04-06T13:09:58.077Z</time></trkpt><trkpt lat="53.527206" lon="14.7485594"><ele>1.0</ele><time>2026-04-06T13:09:59.08Z</time></trkpt><trkpt lat="53.5272989" lon="14.7486801"><ele>1.0</ele><time>2026-04-06T13:10:01.071Z</time></trkpt><trkpt lat="53.5273659" lon="14.7487519"><ele>1.0</ele><time>2026-04-06T13:10:03.079Z</time></trkpt><trkpt lat="53.527436" lon="14.7486914"><ele>0.9999999999999999</ele><time>2026-04-06T13:10:07.079Z</time></trkpt><trkpt lat="53.5275" lon="14.7485904"><ele>1.0</ele><time>2026-04-06T13:10:15.083Z</time></trkpt><trkpt lat="53.527565" lon="14.7485167"><ele>1.2000000000000002</ele><time>2026-04-06T13:10:23.077Z</time></trkpt><trkpt lat="53.527565" lon="14.74838"><ele>1.4000000000000001</ele><time>2026-04-06T13:10:25.077Z</time></trkpt><trkpt lat="53.5275667" lon="14.7481967"><ele>1.6</ele><time>2026-04-06T13:10:27.077Z</time></trkpt><trkpt lat="53.52759" lon="14.747995"><ele>1.8</ele><time>2026-04-06T13:10:29.102Z</time></trkpt><trkpt lat="53.5276067" lon="14.7478917"><ele>2.0</ele><time>2026-04-06T13:10:30.072Z</time></trkpt><trkpt lat="53.5276367" lon="14.7477083"><ele>1.6666666666666665</ele><time>2026-04-06T13:10:32.077Z</time></trkpt><trkpt lat="53.5276467" lon="14.7475717"><ele>1.3333333333333333</ele><time>2026-04-06T13:10:34.077Z</time></trkpt><trkpt lat="53.5276653" lon="14.7474039"><ele>1.0</ele><time>2026-04-06T13:10:36.078Z</time></trkpt><trkpt lat="53.5276743" lon="14.7472874"><ele>0.6666666666666666</ele><time>2026-04-06T13:10:37.082Z</time></trkpt><trkpt lat="53.5276874" lon="14.7471599"><ele>0.3333333333333333</ele><time>2026-04-06T13:10:38.077Z</time></trkpt><trkpt lat="53.5277014" lon="14.7470204"><ele>0.0</ele><time>2026-04-06T13:10:39.092Z</time></trkpt><trkpt lat="53.5277107" lon="14.7468721"><ele>-0.16666666666666666</ele><time>2026-04-06T13:10:40.078Z</time></trkpt><trkpt lat="53.5277196" lon="14.7467276"><ele>-0.3333333333333333</ele><time>2026-04-06T13:10:41.091Z</time></trkpt><trkpt lat="53.5277285" lon="14.746589"><ele>-0.5</ele><time>2026-04-06T13:10:42.07Z</time></trkpt><trkpt lat="53.5277394" lon="14.7464346"><ele>-0.6666666666666666</ele><time>2026-04-06T13:10:43.091Z</time></trkpt><trkpt lat="53.5277497" lon="14.7462765"><ele>-0.8333333333333333</ele><time>2026-04-06T13:10:44.075Z</time></trkpt><trkpt lat="53.5277615" lon="14.7461218"><ele>-1.0</ele><time>2026-04-06T13:10:45.085Z</time></trkpt><trkpt lat="53.5277724" lon="14.7459772"><ele>-0.9999999999999999</ele><time>2026-04-06T13:10:46.08Z</time></trkpt><trkpt lat="53.527781" lon="14.7458309"><ele>-1.0</ele><time>2026-04-06T13:10:47.083Z</time></trkpt><trkpt lat="53.5277836" lon="14.7456896"><ele>-1.0</ele><time>2026-04-06T13:10:48.08Z</time></trkpt><trkpt lat="53.5277862" lon="14.7455635"><ele>-1.0</ele><time>2026-04-06T13:10:49.083Z</time></trkpt><trkpt lat="53.5278037" lon="14.7454112"><ele>-0.9999999999999999</ele><time>2026-04-06T13:10:51.078Z</time></trkpt><trkpt lat="53.5278803" lon="14.7453633"><ele>-1.0</ele><time>2026-04-06T13:10:54.081Z</time></trkpt><trkpt lat="53.5279596" lon="14.7453185"><ele>-1.0</ele><time>2026-04-06T13:10:56.079Z</time></trkpt><trkpt lat="53.5280808" lon="14.7452166"><ele>-1.0</ele><time>2026-04-06T13:11:00.084Z</time></trkpt><trkpt lat="53.5281733" lon="14.7451779"><ele>-1.0</ele><time>2026-04-06T13:11:02.101Z</time></trkpt><trkpt lat="53.5282522" lon="14.7451146"><ele>-1.0</ele><time>2026-04-06T13:11:04.075Z</time></trkpt><trkpt lat="53.5283228" lon="14.7450579"><ele>-1.0</ele><time>2026-04-06T13:11:06.075Z</time></trkpt><trkpt lat="53.5284288" lon="14.7449735"><ele>-0.9999999999999999</ele><time>2026-04-06T13:11:08.073Z</time></trkpt><trkpt lat="53.5284894" lon="14.7449276"><ele>-1.0</ele><time>2026-04-06T13:11:09.09Z</time></trkpt><trkpt lat="53.5285817" lon="14.7448612"><ele>-1.0</ele><time>2026-04-06T13:11:11.066Z</time></trkpt><trkpt lat="53.5286863" lon="14.744788"><ele>-1.0</ele><time>2026-04-06T13:11:13.086Z</time></trkpt><trkpt lat="53.5287557" lon="14.7447378"><ele>-0.9999999999999999</ele><time>2026-04-06T13:11:15.082Z</time></trkpt><trkpt lat="53.528815" lon="14.744695"><ele>-1.0</ele><time>2026-04-06T13:11:32.085Z</time></trkpt><trkpt lat="53.5289033" lon="14.7446283"><ele>-1.0</ele><time>2026-04-06T13:11:34.072Z</time></trkpt><trkpt lat="53.52897" lon="14.7445317"><ele>-1.0</ele><time>2026-04-06T13:11:36.08Z</time></trkpt><trkpt lat="53.5290033" lon="14.7443517"><ele>-1.0</ele><time>2026-04-06T13:11:38.073Z</time></trkpt><trkpt lat="53.52904" lon="14.7441683"><ele>-1.0</ele><time>2026-04-06T13:11:40.076Z</time></trkpt><trkpt lat="53.5290667" lon="14.744055"><ele>-1.0</ele><time>2026-04-06T13:11:41.081Z</time></trkpt><trkpt lat="53.5290917" lon="14.7439333"><ele>-1.1666666666666665</ele><time>2026-04-06T13:11:42.077Z</time></trkpt><trkpt lat="53.52912" lon="14.7438067"><ele>-1.3333333333333333</ele><time>2026-04-06T13:11:43.076Z</time></trkpt><trkpt lat="53.5291533" lon="14.74367"><ele>-1.5</ele><time>2026-04-06T13:11:44.094Z</time></trkpt><trkpt lat="53.52919" lon="14.7435317"><ele>-1.6666666666666665</ele><time>2026-04-06T13:11:45.084Z</time></trkpt><trkpt lat="53.5292233" lon="14.7433967"><ele>-1.8333333333333333</ele><time>2026-04-06T13:11:46.077Z</time></trkpt><trkpt lat="53.5292567" lon="14.7432567"><ele>-2.0</ele><time>2026-04-06T13:11:47.083Z</time></trkpt><trkpt lat="53.5292883" lon="14.743115"><ele>-1.9999999999999998</ele><time>2026-04-06T13:11:48.081Z</time></trkpt><trkpt lat="53.5293217" lon="14.742975"><ele>-2.0</ele><time>2026-04-06T13:11:49.074Z</time></trkpt><trkpt lat="53.5293517" lon="14.7428367"><ele>-2.0</ele><time>2026-04-06T13:11:50.087Z</time></trkpt><trkpt lat="53.52938" lon="14.74271"><ele>-2.0</ele><time>2026-04-06T13:11:51.09Z</time></trkpt><trkpt lat="53.52941" lon="14.7425933"><ele>-1.9999999999999998</ele><time>2026-04-06T13:11:52.087Z</time></trkpt><trkpt lat="53.5294433" lon="14.7424783"><ele>-2.0</ele><time>2026-04-06T13:11:53.089Z</time></trkpt><trkpt lat="53.529475" lon="14.7423617"><ele>-1.9999999999999998</ele><time>2026-04-06T13:11:54.077Z</time></trkpt><trkpt lat="53.5295083" lon="14.7422333"><ele>-2.0</ele><time>2026-04-06T13:11:55.092Z</time></trkpt><trkpt lat="53.5295367" lon="14.7420967"><ele>-2.0</ele><time>2026-04-06T13:11:56.076Z</time></trkpt><trkpt lat="53.5295633" lon="14.7419633"><ele>-2.0</ele><time>2026-04-06T13:11:57.084Z</time></trkpt><trkpt lat="53.5295883" lon="14.7418417"><ele>-1.9999999999999998</ele><time>2026-04-06T13:11:58.077Z</time></trkpt><trkpt lat="53.52961" lon="14.74173"><ele>-2.0</ele><time>2026-04-06T13:11:59.087Z</time></trkpt><trkpt lat="53.5296367" lon="14.7416133"><ele>-2.0</ele><time>2026-04-06T13:12:00.08Z</time></trkpt><trkpt lat="53.5296683" lon="14.74148"><ele>-2.0</ele><time>2026-04-06T13:12:01.094Z</time></trkpt><trkpt lat="53.5297033" lon="14.741335"><ele>-2.0</ele><time>2026-04-06T13:12:02.079Z</time></trkpt><trkpt lat="53.5297383" lon="14.7411767"><ele>-2.0</ele><time>2026-04-06T13:12:03.088Z</time></trkpt><trkpt lat="53.529775" lon="14.7410083"><ele>-2.0</ele><time>2026-04-06T13:12:04.085Z</time></trkpt><trkpt lat="53.52981" lon="14.7408367"><ele>-2.0</ele><time>2026-04-06T13:12:05.09Z</time></trkpt><trkpt lat="53.5298483" lon="14.7406617"><ele>-2.0</ele><time>2026-04-06T13:12:06.081Z</time></trkpt><trkpt lat="53.5298833" lon="14.740485"><ele>-2.0</ele><time>2026-04-06T13:12:07.085Z</time></trkpt><trkpt lat="53.52992" lon="14.7403167"><ele>-2.0</ele><time>2026-04-06T13:12:08.087Z</time></trkpt><trkpt lat="53.5299567" lon="14.7401583"><ele>-2.0</ele><time>2026-04-06T13:12:09.094Z</time></trkpt><trkpt lat="53.5299883" lon="14.7399983"><ele>-2.0</ele><time>2026-04-06T13:12:10.091Z</time></trkpt><trkpt lat="53.5300233" lon="14.7398433"><ele>-2.0</ele><time>2026-04-06T13:12:11.103Z</time></trkpt><trkpt lat="53.53006" lon="14.73969"><ele>-2.0</ele><time>2026-04-06T13:12:12.096Z</time></trkpt><trkpt lat="53.5300933" lon="14.7395367"><ele>-2.0</ele><time>2026-04-06T13:12:13.095Z</time></trkpt><trkpt lat="53.5301267" lon="14.73938"><ele>-2.0</ele><time>2026-04-06T13:12:14.081Z</time></trkpt><trkpt lat="53.5301633" lon="14.73922"><ele>-2.0</ele><time>2026-04-06T13:12:15.086Z</time></trkpt><trkpt lat="53.530195" lon="14.7390583"><ele>-2.0</ele><time>2026-04-06T13:12:16.079Z</time></trkpt><trkpt lat="53.53023" lon="14.7389"><ele>-2.0</ele><time>2026-04-06T13:12:17.083Z</time></trkpt><trkpt lat="53.53027" lon="14.7387433"><ele>-2.0</ele><time>2026-04-06T13:12:18.073Z</time></trkpt><trkpt lat="53.5303117" lon="14.738585"><ele>-2.0</ele><time>2026-04-06T13:12:19.085Z</time></trkpt><trkpt lat="53.5303517" lon="14.738425"><ele>-2.0</ele><time>2026-04-06T13:12:20.076Z</time></trkpt><trkpt lat="53.5303833" lon="14.7382583"><ele>-2.0</ele><time>2026-04-06T13:12:21.094Z</time></trkpt><trkpt lat="53.5304167" lon="14.73809"><ele>-2.0</ele><time>2026-04-06T13:12:22.076Z</time></trkpt><trkpt lat="53.5304517" lon="14.7379117"><ele>-2.0</ele><time>2026-04-06T13:12:23.082Z</time></trkpt><trkpt lat="53.53049" lon="14.7377167"><ele>-2.0</ele><time>2026-04-06T13:12:24.08Z</time></trkpt><trkpt lat="53.530535" lon="14.7375133"><ele>-2.25</ele><time>2026-04-06T13:12:25.091Z</time></trkpt><trkpt lat="53.530585" lon="14.7373133"><ele>-2.5</ele><time>2026-04-06T13:12:26.079Z</time></trkpt><trkpt lat="53.53063" lon="14.73711"><ele>-2.75</ele><time>2026-04-06T13:12:27.091Z</time></trkpt><trkpt lat="53.5306733" lon="14.73691"><ele>-3.0</ele><time>2026-04-06T13:12:28.091Z</time></trkpt><trkpt lat="53.5307133" lon="14.73672"><ele>-3.0</ele><time>2026-04-06T13:12:29.096Z</time></trkpt><trkpt lat="53.530745" lon="14.7365383"><ele>-3.0</ele><time>2026-04-06T13:12:30.093Z</time></trkpt><trkpt lat="53.5307783" lon="14.7363533"><ele>-3.0</ele><time>2026-04-06T13:12:31.082Z</time></trkpt><trkpt lat="53.5308133" lon="14.7361617"><ele>-3.0</ele><time>2026-04-06T13:12:32.078Z</time></trkpt><trkpt lat="53.5308583" lon="14.7359717"><ele>-3.0</ele><time>2026-04-06T13:12:33.078Z</time></trkpt><trkpt lat="53.530905" lon="14.735785"><ele>-3.0</ele><time>2026-04-06T13:12:34.076Z</time></trkpt><trkpt lat="53.5309483" lon="14.7355917"><ele>-3.0</ele><time>2026-04-06T13:12:35.077Z</time></trkpt><trkpt lat="53.53099" lon="14.7353933"><ele>-3.0</ele><time>2026-04-06T13:12:36.086Z</time></trkpt><trkpt lat="53.5310333" lon="14.7352"><ele>-3.0</ele><time>2026-04-06T13:12:37.08Z</time></trkpt><trkpt lat="53.5310733" lon="14.73502"><ele>-3.0</ele><time>2026-04-06T13:12:38.086Z</time></trkpt><trkpt lat="53.5311167" lon="14.7348417"><ele>-3.0</ele><time>2026-04-06T13:12:39.087Z</time></trkpt><trkpt lat="53.5311583" lon="14.7346583"><ele>-3.0</ele><time>2026-04-06T13:12:40.09Z</time></trkpt><trkpt lat="53.5312017" lon="14.7344666"><ele>-3.0</ele><time>2026-04-06T13:12:41.083Z</time></trkpt><trkpt lat="53.5312423" lon="14.7342783"><ele>-3.0</ele><time>2026-04-06T13:12:42.077Z</time></trkpt><trkpt lat="53.5312804" lon="14.734109"><ele>-3.0</ele><time>2026-04-06T13:12:43.097Z</time></trkpt><trkpt lat="53.5313171" lon="14.7339583"><ele>-3.0</ele><time>2026-04-06T13:12:44.086Z</time></trkpt><trkpt lat="53.5313515" lon="14.7338023"><ele>-3.0</ele><time>2026-04-06T13:12:45.091Z</time></trkpt><trkpt lat="53.5313842" lon="14.7336436"><ele>-2.8</ele><time>2026-04-06T13:12:46.083Z</time></trkpt><trkpt lat="53.5314172" lon="14.7334876"><ele>-2.5999999999999996</ele><time>2026-04-06T13:12:47.086Z</time></trkpt><trkpt lat="53.5314501" lon="14.7333359"><ele>-2.4000000000000004</ele><time>2026-04-06T13:12:48.079Z</time></trkpt><trkpt lat="53.5314837" lon="14.7331765"><ele>-2.2</ele><time>2026-04-06T13:12:49.083Z</time></trkpt><trkpt lat="53.5315212" lon="14.7330058"><ele>-2.0</ele><time>2026-04-06T13:12:50.08Z</time></trkpt><trkpt lat="53.5315624" lon="14.7328261"><ele>-2.25</ele><time>2026-04-06T13:12:51.096Z</time></trkpt><trkpt lat="53.5316038" lon="14.7326461"><ele>-2.5</ele><time>2026-04-06T13:12:52.08Z</time></trkpt><trkpt lat="53.5316506" lon="14.7324569"><ele>-2.75</ele><time>2026-04-06T13:12:53.093Z</time></trkpt><trkpt lat="53.531694" lon="14.7322648"><ele>-3.0</ele><time>2026-04-06T13:12:54.075Z</time></trkpt><trkpt lat="53.531739" lon="14.7320715"><ele>-3.25</ele><time>2026-04-06T13:12:55.091Z</time></trkpt><trkpt lat="53.531783" lon="14.7318826"><ele>-3.5</ele><time>2026-04-06T13:12:56.08Z</time></trkpt><trkpt lat="53.5318281" lon="14.7316865"><ele>-3.75</ele><time>2026-04-06T13:12:57.094Z</time></trkpt><trkpt lat="53.5318713" lon="14.7314891"><ele>-4.0</ele><time>2026-04-06T13:12:58.082Z</time></trkpt><trkpt lat="53.531913" lon="14.731289"><ele>-4.0</ele><time>2026-04-06T13:12:59.076Z</time></trkpt><trkpt lat="53.5319577" lon="14.7310843"><ele>-4.0</ele><time>2026-04-06T13:13:00.078Z</time></trkpt><trkpt lat="53.5320024" lon="14.7308743"><ele>-4.0</ele><time>2026-04-06T13:13:01.078Z</time></trkpt><trkpt lat="53.5320518" lon="14.7306619"><ele>-4.0</ele><time>2026-04-06T13:13:02.079Z</time></trkpt><trkpt lat="53.532104" lon="14.7304463"><ele>-3.75</ele><time>2026-04-06T13:13:03.086Z</time></trkpt><trkpt lat="53.5321525" lon="14.730229"><ele>-3.5</ele><time>2026-04-06T13:13:04.08Z</time></trkpt><trkpt lat="53.5321981" lon="14.7300123"><ele>-3.25</ele><time>2026-04-06T13:13:05.093Z</time></trkpt><trkpt lat="53.5322461" lon="14.729799"><ele>-3.0</ele><time>2026-04-06T13:13:06.08Z</time></trkpt><trkpt lat="53.5322934" lon="14.72959"><ele>-3.0</ele><time>2026-04-06T13:13:07.077Z</time></trkpt><trkpt lat="53.5323392" lon="14.72939"><ele>-3.0</ele><time>2026-04-06T13:13:08.085Z</time></trkpt><trkpt lat="53.5323832" lon="14.7292017"><ele>-3.0</ele><time>2026-04-06T13:13:09.081Z</time></trkpt><trkpt lat="53.5324266" lon="14.7290245"><ele>-3.0</ele><time>2026-04-06T13:13:10.077Z</time></trkpt><trkpt lat="53.5324697" lon="14.7288475"><ele>-3.0</ele><time>2026-04-06T13:13:11.087Z</time></trkpt><trkpt lat="53.5325113" lon="14.7286803"><ele>-3.0</ele><time>2026-04-06T13:13:12.086Z</time></trkpt><trkpt lat="53.5325499" lon="14.728526"><ele>-3.0</ele><time>2026-04-06T13:13:13.09Z</time></trkpt><trkpt lat="53.5325865" lon="14.7283744"><ele>-3.0</ele><time>2026-04-06T13:13:14.087Z</time></trkpt><trkpt lat="53.5326228" lon="14.7282321"><ele>-3.0</ele><time>2026-04-06T13:13:15.089Z</time></trkpt><trkpt lat="53.5326581" lon="14.7281126"><ele>-2.8333333333333335</ele><time>2026-04-06T13:13:16.084Z</time></trkpt><trkpt lat="53.5326961" lon="14.7280211"><ele>-2.6666666666666665</ele><time>2026-04-06T13:13:17.078Z</time></trkpt><trkpt lat="53.5327436" lon="14.7279482"><ele>-2.5</ele><time>2026-04-06T13:13:18.086Z</time></trkpt><trkpt lat="53.5328049" lon="14.7278906"><ele>-2.333333333333333</ele><time>2026-04-06T13:13:19.076Z</time></trkpt><trkpt lat="53.5328815" lon="14.7278444"><ele>-2.1666666666666665</ele><time>2026-04-06T13:13:20.086Z</time></trkpt><trkpt lat="53.5329698" lon="14.7278022"><ele>-2.0</ele><time>2026-04-06T13:13:21.079Z</time></trkpt><trkpt lat="53.5330598" lon="14.7277569"><ele>-1.9999999999999998</ele><time>2026-04-06T13:13:22.078Z</time></trkpt><trkpt lat="53.533143" lon="14.7277139"><ele>-2.0</ele><time>2026-04-06T13:13:23.079Z</time></trkpt><trkpt lat="53.533225" lon="14.727677"><ele>-2.0</ele><time>2026-04-06T13:13:24.088Z</time></trkpt><trkpt lat="53.5333067" lon="14.7276579"><ele>-2.0</ele><time>2026-04-06T13:13:25.094Z</time></trkpt><trkpt lat="53.5333913" lon="14.7276508"><ele>-1.9999999999999998</ele><time>2026-04-06T13:13:26.077Z</time></trkpt><trkpt lat="53.5334814" lon="14.7276422"><ele>-2.0</ele><time>2026-04-06T13:13:27.089Z</time></trkpt><trkpt lat="53.533567" lon="14.7276361"><ele>-1.9999999999999998</ele><time>2026-04-06T13:13:28.082Z</time></trkpt><trkpt lat="53.5336438" lon="14.727643"><ele>-2.0</ele><time>2026-04-06T13:13:29.099Z</time></trkpt><trkpt lat="53.5337173" lon="14.7276736"><ele>-2.0</ele><time>2026-04-06T13:13:30.087Z</time></trkpt><trkpt lat="53.5337961" lon="14.7277291"><ele>-2.0</ele><time>2026-04-06T13:13:31.084Z</time></trkpt><trkpt lat="53.5338767" lon="14.727815"><ele>-1.9999999999999998</ele><time>2026-04-06T13:13:32.086Z</time></trkpt><trkpt lat="53.5339617" lon="14.7279067"><ele>-2.0</ele><time>2026-04-06T13:13:33.089Z</time></trkpt><trkpt lat="53.5340483" lon="14.7279857"><ele>-1.8333333333333333</ele><time>2026-04-06T13:13:34.075Z</time></trkpt><trkpt lat="53.5341296" lon="14.7280541"><ele>-1.6666666666666665</ele><time>2026-04-06T13:13:35.097Z</time></trkpt><trkpt lat="53.5342027" lon="14.7281179"><ele>-1.5</ele><time>2026-04-06T13:13:36.075Z</time></trkpt><trkpt lat="53.5342713" lon="14.7281846"><ele>-1.3333333333333333</ele><time>2026-04-06T13:13:37.077Z</time></trkpt><trkpt lat="53.5343373" lon="14.7282656"><ele>-1.1666666666666665</ele><time>2026-04-06T13:13:38.074Z</time></trkpt><trkpt lat="53.5344098" lon="14.7283689"><ele>-1.0</ele><time>2026-04-06T13:13:39.077Z</time></trkpt><trkpt lat="53.5344848" lon="14.7284854"><ele>-1.0</ele><time>2026-04-06T13:13:40.078Z</time></trkpt><trkpt lat="53.5345581" lon="14.728603"><ele>-1.0</ele><time>2026-04-06T13:13:41.099Z</time></trkpt><trkpt lat="53.5346267" lon="14.7287248"><ele>-1.0</ele><time>2026-04-06T13:13:42.078Z</time></trkpt><trkpt lat="53.5346956" lon="14.7288384"><ele>-1.0</ele><time>2026-04-06T13:13:43.081Z</time></trkpt><trkpt lat="53.5347602" lon="14.7289284"><ele>-1.0</ele><time>2026-04-06T13:13:44.084Z</time></trkpt><trkpt lat="53.5348173" lon="14.7289962"><ele>-1.0</ele><time>2026-04-06T13:13:45.093Z</time></trkpt><trkpt lat="53.5349383" lon="14.7290836"><ele>-1.0</ele><time>2026-04-06T13:13:47.078Z</time></trkpt><trkpt lat="53.5350115" lon="14.7291008"><ele>-1.0</ele><time>2026-04-06T13:13:48.077Z</time></trkpt><trkpt lat="53.5350929" lon="14.7290847"><ele>-1.0</ele><time>2026-04-06T13:13:49.08Z</time></trkpt><trkpt lat="53.5351815" lon="14.7290419"><ele>-1.0</ele><time>2026-04-06T13:13:50.08Z</time></trkpt><trkpt lat="53.5352769" lon="14.7289927"><ele>-1.0</ele><time>2026-04-06T13:13:51.083Z</time></trkpt><trkpt lat="53.5353773" lon="14.7289493"><ele>-1.0</ele><time>2026-04-06T13:13:52.079Z</time></trkpt><trkpt lat="53.5354816" lon="14.7289097"><ele>-1.0</ele><time>2026-04-06T13:13:53.067Z</time></trkpt><trkpt lat="53.5355906" lon="14.7288661"><ele>-1.0</ele><time>2026-04-06T13:13:54.082Z</time></trkpt><trkpt lat="53.535692" lon="14.7288264"><ele>-1.0</ele><time>2026-04-06T13:13:55.086Z</time></trkpt><trkpt lat="53.5357842" lon="14.7287919"><ele>-0.9999999999999999</ele><time>2026-04-06T13:13:56.089Z</time></trkpt><trkpt lat="53.5358664" lon="14.7287577"><ele>-1.0</ele><time>2026-04-06T13:13:57.095Z</time></trkpt><trkpt lat="53.5359391" lon="14.7287284"><ele>-1.0</ele><time>2026-04-06T13:13:58.085Z</time></trkpt><trkpt lat="53.5360052" lon="14.7287003"><ele>-1.0</ele><time>2026-04-06T13:13:59.084Z</time></trkpt><trkpt lat="53.536125" lon="14.7286584"><ele>-0.9999999999999999</ele><time>2026-04-06T13:14:01.091Z</time></trkpt><trkpt lat="53.5362005" lon="14.728631"><ele>-1.0</ele><time>2026-04-06T13:14:02.076Z</time></trkpt><trkpt lat="53.5362943" lon="14.728594"><ele>-1.0</ele><time>2026-04-06T13:14:03.096Z</time></trkpt><trkpt lat="53.5363899" lon="14.7285558"><ele>-1.0</ele><time>2026-04-06T13:14:04.084Z</time></trkpt><trkpt lat="53.5364828" lon="14.7285174"><ele>-1.0</ele><time>2026-04-06T13:14:05.079Z</time></trkpt><trkpt lat="53.5365765" lon="14.728486"><ele>-1.0</ele><time>2026-04-06T13:14:06.08Z</time></trkpt><trkpt lat="53.5366662" lon="14.7284589"><ele>-1.0</ele><time>2026-04-06T13:14:07.088Z</time></trkpt><trkpt lat="53.5367491" lon="14.7284279"><ele>-0.9999999999999999</ele><time>2026-04-06T13:14:08.08Z</time></trkpt><trkpt lat="53.5368349" lon="14.7283898"><ele>-1.0</ele><time>2026-04-06T13:14:09.096Z</time></trkpt><trkpt lat="53.5369213" lon="14.7283562"><ele>-1.0</ele><time>2026-04-06T13:14:10.08Z</time></trkpt><trkpt lat="53.5370008" lon="14.7283238"><ele>-1.0</ele><time>2026-04-06T13:14:11.089Z</time></trkpt><trkpt lat="53.5370793" lon="14.7282925"><ele>-0.9999999999999999</ele><time>2026-04-06T13:14:12.088Z</time></trkpt><trkpt lat="53.5371681" lon="14.7282568"><ele>-1.0</ele><time>2026-04-06T13:14:13.088Z</time></trkpt><trkpt lat="53.5372632" lon="14.7282171"><ele>-1.4</ele><time>2026-04-06T13:14:14.078Z</time></trkpt><trkpt lat="53.5373615" lon="14.7281745"><ele>-1.8</ele><time>2026-04-06T13:14:15.077Z</time></trkpt><trkpt lat="53.5374638" lon="14.7281375"><ele>-2.1999999999999997</ele><time>2026-04-06T13:14:16.088Z</time></trkpt><trkpt lat="53.5375732" lon="14.7280975"><ele>-2.6</ele><time>2026-04-06T13:14:17.086Z</time></trkpt><trkpt lat="53.537686" lon="14.7280526"><ele>-3.0</ele><time>2026-04-06T13:14:18.089Z</time></trkpt><trkpt lat="53.5378006" lon="14.7280091"><ele>-3.0</ele><time>2026-04-06T13:14:19.102Z</time></trkpt><trkpt lat="53.5379145" lon="14.7279618"><ele>-3.0</ele><time>2026-04-06T13:14:20.086Z</time></trkpt><trkpt lat="53.5380311" lon="14.7279111"><ele>-3.0</ele><time>2026-04-06T13:14:21.089Z</time></trkpt><trkpt lat="53.5381401" lon="14.7278707"><ele>-3.0</ele><time>2026-04-06T13:14:22.08Z</time></trkpt><trkpt lat="53.5382408" lon="14.7278372"><ele>-3.0</ele><time>2026-04-06T13:14:23.087Z</time></trkpt><trkpt lat="53.5383384" lon="14.7278041"><ele>-3.0</ele><time>2026-04-06T13:14:24.076Z</time></trkpt><trkpt lat="53.5384402" lon="14.7277671"><ele>-3.0</ele><time>2026-04-06T13:14:25.099Z</time></trkpt><trkpt lat="53.5385392" lon="14.7277315"><ele>-3.0</ele><time>2026-04-06T13:14:26.088Z</time></trkpt><trkpt lat="53.5386316" lon="14.727697"><ele>-3.0</ele><time>2026-04-06T13:14:27.092Z</time></trkpt><trkpt lat="53.5387137" lon="14.7276657"><ele>-2.8333333333333335</ele><time>2026-04-06T13:14:28.078Z</time></trkpt><trkpt lat="53.5387904" lon="14.7276366"><ele>-2.6666666666666665</ele><time>2026-04-06T13:14:29.093Z</time></trkpt><trkpt lat="53.5388666" lon="14.7276073"><ele>-2.5</ele><time>2026-04-06T13:14:30.082Z</time></trkpt><trkpt lat="53.5389466" lon="14.7275779"><ele>-2.333333333333333</ele><time>2026-04-06T13:14:31.095Z</time></trkpt><trkpt lat="53.5390213" lon="14.7275515"><ele>-2.1666666666666665</ele><time>2026-04-06T13:14:32.078Z</time></trkpt><trkpt lat="53.5390947" lon="14.7275259"><ele>-2.0</ele><time>2026-04-06T13:14:33.09Z</time></trkpt><trkpt lat="53.5391663" lon="14.7274901"><ele>-2.0</ele><time>2026-04-06T13:14:34.084Z</time></trkpt><trkpt lat="53.5392421" lon="14.7274532"><ele>-2.0</ele><time>2026-04-06T13:14:35.085Z</time></trkpt><trkpt lat="53.5393251" lon="14.7274204"><ele>-2.0</ele><time>2026-04-06T13:14:36.09Z</time></trkpt><trkpt lat="53.5394194" lon="14.7273863"><ele>-2.0</ele><time>2026-04-06T13:14:37.085Z</time></trkpt><trkpt lat="53.5395196" lon="14.7273486"><ele>-2.0</ele><time>2026-04-06T13:14:38.077Z</time></trkpt><trkpt lat="53.5396244" lon="14.7273072"><ele>-2.0</ele><time>2026-04-06T13:14:39.104Z</time></trkpt><trkpt lat="53.5397283" lon="14.7272639"><ele>-2.0</ele><time>2026-04-06T13:14:40.079Z</time></trkpt><trkpt lat="53.5398318" lon="14.7272224"><ele>-2.0</ele><time>2026-04-06T13:14:41.09Z</time></trkpt><trkpt lat="53.5399264" lon="14.7271894"><ele>-2.0</ele><time>2026-04-06T13:14:42.082Z</time></trkpt><trkpt lat="53.5400074" lon="14.727164"><ele>-2.0</ele><time>2026-04-06T13:14:43.083Z</time></trkpt><trkpt lat="53.540077" lon="14.7271316"><ele>-2.0</ele><time>2026-04-06T13:14:44.083Z</time></trkpt><trkpt lat="53.5401896" lon="14.7270793"><ele>-2.0</ele><time>2026-04-06T13:14:46.086Z</time></trkpt><trkpt lat="53.5402895" lon="14.7270366"><ele>-2.0</ele><time>2026-04-06T13:14:48.085Z</time></trkpt><trkpt lat="53.5404131" lon="14.7269895"><ele>-2.0</ele><time>2026-04-06T13:14:50.093Z</time></trkpt><trkpt lat="53.5404817" lon="14.7269653"><ele>-2.0</ele><time>2026-04-06T13:14:51.083Z</time></trkpt><trkpt lat="53.5405567" lon="14.7269399"><ele>-2.1666666666666665</ele><time>2026-04-06T13:14:52.081Z</time></trkpt><trkpt lat="53.5406398" lon="14.7269123"><ele>-2.333333333333333</ele><time>2026-04-06T13:14:53.076Z</time></trkpt><trkpt lat="53.5407263" lon="14.7268809"><ele>-2.5</ele><time>2026-04-06T13:14:54.089Z</time></trkpt><trkpt lat="53.5408101" lon="14.7268506"><ele>-2.6666666666666665</ele><time>2026-04-06T13:14:55.08Z</time></trkpt><trkpt lat="53.5408906" lon="14.7268196"><ele>-2.8333333333333335</ele><time>2026-04-06T13:14:56.081Z</time></trkpt><trkpt lat="53.5409738" lon="14.7267883"><ele>-3.0</ele><time>2026-04-06T13:14:57.087Z</time></trkpt><trkpt lat="53.5410551" lon="14.726765"><ele>-3.0</ele><time>2026-04-06T13:14:58.079Z</time></trkpt><trkpt lat="53.5411357" lon="14.7267459"><ele>-3.0</ele><time>2026-04-06T13:14:59.079Z</time></trkpt><trkpt lat="53.5412123" lon="14.7267279"><ele>-3.0</ele><time>2026-04-06T13:15:00.075Z</time></trkpt><trkpt lat="53.5412857" lon="14.7267052"><ele>-3.0</ele><time>2026-04-06T13:15:01.076Z</time></trkpt><trkpt lat="53.5413623" lon="14.7266678"><ele>-3.0</ele><time>2026-04-06T13:15:02.083Z</time></trkpt><trkpt lat="53.5414405" lon="14.7266195"><ele>-3.0</ele><time>2026-04-06T13:15:03.079Z</time></trkpt><trkpt lat="53.5415197" lon="14.7265688"><ele>-2.8333333333333335</ele><time>2026-04-06T13:15:04.079Z</time></trkpt><trkpt lat="53.5416035" lon="14.7265292"><ele>-2.6666666666666665</ele><time>2026-04-06T13:15:05.085Z</time></trkpt><trkpt lat="53.5416851" lon="14.7264987"><ele>-2.5</ele><time>2026-04-06T13:15:06.073Z</time></trkpt><trkpt lat="53.5417657" lon="14.7264717"><ele>-2.333333333333333</ele><time>2026-04-06T13:15:07.106Z</time></trkpt><trkpt lat="53.5418438" lon="14.7264448"><ele>-2.1666666666666665</ele><time>2026-04-06T13:15:08.081Z</time></trkpt><trkpt lat="53.5419315" lon="14.7264154"><ele>-2.0</ele><time>2026-04-06T13:15:09.087Z</time></trkpt><trkpt lat="53.5420255" lon="14.7263819"><ele>-2.2</ele><time>2026-04-06T13:15:10.085Z</time></trkpt><trkpt lat="53.5421197" lon="14.7263407"><ele>-2.4000000000000004</ele><time>2026-04-06T13:15:11.084Z</time></trkpt><trkpt lat="53.5422122" lon="14.7262973"><ele>-2.5999999999999996</ele><time>2026-04-06T13:15:12.073Z</time></trkpt><trkpt lat="53.5423069" lon="14.7262529"><ele>-2.8</ele><time>2026-04-06T13:15:13.084Z</time></trkpt><trkpt lat="53.542395" lon="14.7262199"><ele>-3.0</ele><time>2026-04-06T13:15:14.074Z</time></trkpt><trkpt lat="53.5424844" lon="14.7261883"><ele>-3.0</ele><time>2026-04-06T13:15:15.079Z</time></trkpt><trkpt lat="53.5425779" lon="14.7261565"><ele>-3.0</ele><time>2026-04-06T13:15:16.081Z</time></trkpt><trkpt lat="53.5426676" lon="14.7261358"><ele>-3.0</ele><time>2026-04-06T13:15:17.071Z</time></trkpt><trkpt lat="53.5427525" lon="14.7261288"><ele>-3.0</ele><time>2026-04-06T13:15:18.079Z</time></trkpt><trkpt lat="53.5428403" lon="14.7261256"><ele>-3.0</ele><time>2026-04-06T13:15:19.082Z</time></trkpt><trkpt lat="53.5429258" lon="14.7261248"><ele>-3.0</ele><time>2026-04-06T13:15:20.075Z</time></trkpt><trkpt lat="53.5430097" lon="14.726132"><ele>-3.0</ele><time>2026-04-06T13:15:21.082Z</time></trkpt><trkpt lat="53.5431006" lon="14.7261289"><ele>-3.0</ele><time>2026-04-06T13:15:22.085Z</time></trkpt><trkpt lat="53.5432007" lon="14.726106"><ele>-3.0</ele><time>2026-04-06T13:15:23.094Z</time></trkpt><trkpt lat="53.5432983" lon="14.7260735"><ele>-3.0</ele><time>2026-04-06T13:15:24.084Z</time></trkpt><trkpt lat="53.5433925" lon="14.7260387"><ele>-3.0</ele><time>2026-04-06T13:15:25.087Z</time></trkpt><trkpt lat="53.5434822" lon="14.7260076"><ele>-3.0</ele><time>2026-04-06T13:15:26.076Z</time></trkpt><trkpt lat="53.543574" lon="14.7259747"><ele>-3.0</ele><time>2026-04-06T13:15:27.085Z</time></trkpt><trkpt lat="53.5436571" lon="14.7259442"><ele>-3.0</ele><time>2026-04-06T13:15:28.072Z</time></trkpt><trkpt lat="53.5437344" lon="14.7259194"><ele>-3.0</ele><time>2026-04-06T13:15:29.081Z</time></trkpt><trkpt lat="53.5438079" lon="14.7258936"><ele>-3.0</ele><time>2026-04-06T13:15:30.073Z</time></trkpt><trkpt lat="53.5438859" lon="14.7258595"><ele>-3.0</ele><time>2026-04-06T13:15:31.075Z</time></trkpt><trkpt lat="53.5439666" lon="14.725828"><ele>-3.0</ele><time>2026-04-06T13:15:32.075Z</time></trkpt><trkpt lat="53.5440426" lon="14.7258063"><ele>-3.0</ele><time>2026-04-06T13:15:33.078Z</time></trkpt><trkpt lat="53.5441148" lon="14.7257861"><ele>-3.0</ele><time>2026-04-06T13:15:34.084Z</time></trkpt><trkpt lat="53.5441938" lon="14.7257632"><ele>-3.0</ele><time>2026-04-06T13:15:35.079Z</time></trkpt><trkpt lat="53.5442803" lon="14.7257406"><ele>-3.0</ele><time>2026-04-06T13:15:36.08Z</time></trkpt><trkpt lat="53.5443682" lon="14.7257179"><ele>-3.0</ele><time>2026-04-06T13:15:37.079Z</time></trkpt><trkpt lat="53.5444563" lon="14.7257015"><ele>-3.0</ele><time>2026-04-06T13:15:38.083Z</time></trkpt><trkpt lat="53.544546" lon="14.7256917"><ele>-3.0</ele><time>2026-04-06T13:15:39.078Z</time></trkpt><trkpt lat="53.5446391" lon="14.725686"><ele>-3.0</ele><time>2026-04-06T13:15:40.074Z</time></trkpt><trkpt lat="53.5447375" lon="14.7256866"><ele>-3.0</ele><time>2026-04-06T13:15:41.076Z</time></trkpt><trkpt lat="53.5448377" lon="14.7256845"><ele>-3.0</ele><time>2026-04-06T13:15:42.075Z</time></trkpt><trkpt lat="53.5449348" lon="14.7256809"><ele>-3.0</ele><time>2026-04-06T13:15:43.087Z</time></trkpt><trkpt lat="53.5450285" lon="14.7256797"><ele>-3.0</ele><time>2026-04-06T13:15:44.08Z</time></trkpt><trkpt lat="53.5451226" lon="14.7256824"><ele>-3.0</ele><time>2026-04-06T13:15:45.083Z</time></trkpt><trkpt lat="53.5452121" lon="14.7256829"><ele>-3.0</ele><time>2026-04-06T13:15:46.073Z</time></trkpt><trkpt lat="53.545306" lon="14.7256816"><ele>-3.0</ele><time>2026-04-06T13:15:47.084Z</time></trkpt><trkpt lat="53.5454025" lon="14.7256807"><ele>-2.8</ele><time>2026-04-06T13:15:48.068Z</time></trkpt><trkpt lat="53.5455024" lon="14.7256761"><ele>-2.5999999999999996</ele><time>2026-04-06T13:15:49.1Z</time></trkpt><trkpt lat="53.5455984" lon="14.7256736"><ele>-2.4000000000000004</ele><time>2026-04-06T13:15:50.073Z</time></trkpt><trkpt lat="53.5457" lon="14.7256713"><ele>-2.2</ele><time>2026-04-06T13:15:51.09Z</time></trkpt><trkpt lat="53.5458" lon="14.7256663"><ele>-2.0</ele><time>2026-04-06T13:15:52.079Z</time></trkpt><trkpt lat="53.5459017" lon="14.7256624"><ele>-2.0</ele><time>2026-04-06T13:15:53.08Z</time></trkpt><trkpt lat="53.5460026" lon="14.7256589"><ele>-2.0</ele><time>2026-04-06T13:15:54.096Z</time></trkpt><trkpt lat="53.5461032" lon="14.7256551"><ele>-2.0</ele><time>2026-04-06T13:15:55.078Z</time></trkpt><trkpt lat="53.5462048" lon="14.7256445"><ele>-2.0</ele><time>2026-04-06T13:15:56.069Z</time></trkpt><trkpt lat="53.5462968" lon="14.725636"><ele>-2.0</ele><time>2026-04-06T13:15:57.079Z</time></trkpt><trkpt lat="53.5463829" lon="14.7256354"><ele>-2.2</ele><time>2026-04-06T13:15:58.075Z</time></trkpt><trkpt lat="53.5464713" lon="14.7256354"><ele>-2.4000000000000004</ele><time>2026-04-06T13:15:59.095Z</time></trkpt><trkpt lat="53.54656" lon="14.7256355"><ele>-2.5999999999999996</ele><time>2026-04-06T13:16:00.079Z</time></trkpt><trkpt lat="53.5466515" lon="14.725637"><ele>-2.8</ele><time>2026-04-06T13:16:01.076Z</time></trkpt><trkpt lat="53.5467427" lon="14.7256326"><ele>-3.0</ele><time>2026-04-06T13:16:02.068Z</time></trkpt><trkpt lat="53.5468351" lon="14.7256269"><ele>-3.0</ele><time>2026-04-06T13:16:03.073Z</time></trkpt><trkpt lat="53.5469254" lon="14.7256182"><ele>-3.0</ele><time>2026-04-06T13:16:04.075Z</time></trkpt><trkpt lat="53.5470119" lon="14.7256002"><ele>-3.0</ele><time>2026-04-06T13:16:05.071Z</time></trkpt><trkpt lat="53.5470964" lon="14.7255707"><ele>-3.0</ele><time>2026-04-06T13:16:06.067Z</time></trkpt><trkpt lat="53.5471839" lon="14.7255403"><ele>-3.0</ele><time>2026-04-06T13:16:07.076Z</time></trkpt><trkpt lat="53.5472764" lon="14.7255142"><ele>-3.0</ele><time>2026-04-06T13:16:08.08Z</time></trkpt><trkpt lat="53.5473711" lon="14.7254902"><ele>-3.0</ele><time>2026-04-06T13:16:09.082Z</time></trkpt><trkpt lat="53.5474673" lon="14.7254667"><ele>-3.0</ele><time>2026-04-06T13:16:10.097Z</time></trkpt><trkpt lat="53.5475602" lon="14.7254366"><ele>-3.0</ele><time>2026-04-06T13:16:11.077Z</time></trkpt><trkpt lat="53.5476517" lon="14.7254078"><ele>-3.0</ele><time>2026-04-06T13:16:12.078Z</time></trkpt><trkpt lat="53.5477488" lon="14.7253803"><ele>-3.0</ele><time>2026-04-06T13:16:13.079Z</time></trkpt><trkpt lat="53.5478478" lon="14.7253569"><ele>-2.8</ele><time>2026-04-06T13:16:14.078Z</time></trkpt><trkpt lat="53.5479472" lon="14.7253343"><ele>-2.5999999999999996</ele><time>2026-04-06T13:16:15.08Z</time></trkpt><trkpt lat="53.5480474" lon="14.7253055"><ele>-2.4000000000000004</ele><time>2026-04-06T13:16:16.071Z</time></trkpt><trkpt lat="53.5481497" lon="14.7252794"><ele>-2.2</ele><time>2026-04-06T13:16:17.087Z</time></trkpt><trkpt lat="53.5482481" lon="14.7252533"><ele>-2.0</ele><time>2026-04-06T13:16:18.076Z</time></trkpt><trkpt lat="53.5483477" lon="14.725226"><ele>-2.0</ele><time>2026-04-06T13:16:19.08Z</time></trkpt><trkpt lat="53.548449" lon="14.7252021"><ele>-2.0</ele><time>2026-04-06T13:16:20.079Z</time></trkpt><trkpt lat="53.5485508" lon="14.7251786"><ele>-2.0</ele><time>2026-04-06T13:16:21.073Z</time></trkpt><trkpt lat="53.5486514" lon="14.7251581"><ele>-2.0</ele><time>2026-04-06T13:16:22.072Z</time></trkpt><trkpt lat="53.5487532" lon="14.7251391"><ele>-2.0</ele><time>2026-04-06T13:16:23.081Z</time></trkpt><trkpt lat="53.5488547" lon="14.725125"><ele>-2.2</ele><time>2026-04-06T13:16:24.073Z</time></trkpt><trkpt lat="53.548958" lon="14.7251174"><ele>-2.4000000000000004</ele><time>2026-04-06T13:16:25.077Z</time></trkpt><trkpt lat="53.5490617" lon="14.7251062"><ele>-2.5999999999999996</ele><time>2026-04-06T13:16:26.077Z</time></trkpt><trkpt lat="53.549165" lon="14.7250903"><ele>-2.8</ele><time>2026-04-06T13:16:27.075Z</time></trkpt><trkpt lat="53.5492642" lon="14.7250752"><ele>-3.0</ele><time>2026-04-06T13:16:28.072Z</time></trkpt><trkpt lat="53.5493645" lon="14.7250632"><ele>-3.0</ele><time>2026-04-06T13:16:29.093Z</time></trkpt><trkpt lat="53.549463" lon="14.7250574"><ele>-3.0</ele><time>2026-04-06T13:16:30.086Z</time></trkpt><trkpt lat="53.5495607" lon="14.72505"><ele>-3.0</ele><time>2026-04-06T13:16:31.083Z</time></trkpt><trkpt lat="53.5496588" lon="14.7250427"><ele>-3.0</ele><time>2026-04-06T13:16:32.076Z</time></trkpt><trkpt lat="53.5497568" lon="14.7250338"><ele>-3.0</ele><time>2026-04-06T13:16:33.084Z</time></trkpt><trkpt lat="53.5498518" lon="14.7250243"><ele>-2.8333333333333335</ele><time>2026-04-06T13:16:34.082Z</time></trkpt><trkpt lat="53.5499465" lon="14.7250198"><ele>-2.6666666666666665</ele><time>2026-04-06T13:16:35.102Z</time></trkpt><trkpt lat="53.5500359" lon="14.7250202"><ele>-2.5</ele><time>2026-04-06T13:16:36.075Z</time></trkpt><trkpt lat="53.5501185" lon="14.7250188"><ele>-2.333333333333333</ele><time>2026-04-06T13:16:37.091Z</time></trkpt><trkpt lat="53.5501932" lon="14.7250081"><ele>-2.1666666666666665</ele><time>2026-04-06T13:16:38.079Z</time></trkpt><trkpt lat="53.5502714" lon="14.7249943"><ele>-2.0</ele><time>2026-04-06T13:16:39.093Z</time></trkpt><trkpt lat="53.5503568" lon="14.7249661"><ele>-2.25</ele><time>2026-04-06T13:16:40.075Z</time></trkpt><trkpt lat="53.5504535" lon="14.7249148"><ele>-2.5</ele><time>2026-04-06T13:16:41.087Z</time></trkpt><trkpt lat="53.5505559" lon="14.7248531"><ele>-2.75</ele><time>2026-04-06T13:16:42.077Z</time></trkpt><trkpt lat="53.5506676" lon="14.7247893"><ele>-3.0</ele><time>2026-04-06T13:16:43.084Z</time></trkpt><trkpt lat="53.5507894" lon="14.7247206"><ele>-3.0</ele><time>2026-04-06T13:16:44.082Z</time></trkpt><trkpt lat="53.5509164" lon="14.7246548"><ele>-3.0</ele><time>2026-04-06T13:16:45.087Z</time></trkpt><trkpt lat="53.5510397" lon="14.7245894"><ele>-3.0</ele><time>2026-04-06T13:16:46.081Z</time></trkpt><trkpt lat="53.551171" lon="14.724518"><ele>-3.0</ele><time>2026-04-06T13:16:47.076Z</time></trkpt><trkpt lat="53.5513128" lon="14.7244409"><ele>-3.0</ele><time>2026-04-06T13:16:48.078Z</time></trkpt><trkpt lat="53.5514603" lon="14.7243619"><ele>-3.0</ele><time>2026-04-06T13:16:49.081Z</time></trkpt><trkpt lat="53.5516117" lon="14.7242857"><ele>-3.0</ele><time>2026-04-06T13:16:50.094Z</time></trkpt><trkpt lat="53.5517627" lon="14.7242083"><ele>-3.0</ele><time>2026-04-06T13:16:51.076Z</time></trkpt><trkpt lat="53.5519141" lon="14.7241308"><ele>-3.0</ele><time>2026-04-06T13:16:52.079Z</time></trkpt><trkpt lat="53.5520615" lon="14.7240558"><ele>-3.0</ele><time>2026-04-06T13:16:53.081Z</time></trkpt><trkpt lat="53.5521989" lon="14.7239854"><ele>-3.0</ele><time>2026-04-06T13:16:54.073Z</time></trkpt><trkpt lat="53.5523264" lon="14.7239164"><ele>-3.0</ele><time>2026-04-06T13:16:55.094Z</time></trkpt><trkpt lat="53.5524377" lon="14.7238587"><ele>-3.0</ele><time>2026-04-06T13:16:56.084Z</time></trkpt><trkpt lat="53.5525365" lon="14.7238084"><ele>-3.0</ele><time>2026-04-06T13:16:57.093Z</time></trkpt><trkpt lat="53.5526204" lon="14.7237651"><ele>-3.0</ele><time>2026-04-06T13:16:58.077Z</time></trkpt><trkpt lat="53.5526878" lon="14.7237299"><ele>-3.0</ele><time>2026-04-06T13:16:59.077Z</time></trkpt><trkpt lat="53.552778" lon="14.7236677"><ele>-3.0</ele><time>2026-04-06T13:17:01.076Z</time></trkpt><trkpt lat="53.5527667" lon="14.7235533"><ele>-3.0</ele><time>2026-04-06T13:19:02.073Z</time></trkpt><trkpt lat="53.552725" lon="14.7233817"><ele>-3.0</ele><time>2026-04-06T13:19:04.083Z</time></trkpt><trkpt lat="53.552695" lon="14.72328"><ele>-3.0</ele><time>2026-04-06T13:19:05.076Z</time></trkpt><trkpt lat="53.5526633" lon="14.7231733"><ele>-3.0</ele><time>2026-04-06T13:19:06.076Z</time></trkpt><trkpt lat="53.5526283" lon="14.7230517"><ele>-2.8</ele><time>2026-04-06T13:19:07.079Z</time></trkpt><trkpt lat="53.5525867" lon="14.7229117"><ele>-2.5999999999999996</ele><time>2026-04-06T13:19:08.075Z</time></trkpt><trkpt lat="53.5525433" lon="14.7227567"><ele>-2.4000000000000004</ele><time>2026-04-06T13:19:09.079Z</time></trkpt><trkpt lat="53.5524967" lon="14.7225917"><ele>-2.2</ele><time>2026-04-06T13:19:10.079Z</time></trkpt><trkpt lat="53.5524483" lon="14.7224233"><ele>-2.0</ele><time>2026-04-06T13:19:11.081Z</time></trkpt><trkpt lat="53.5524" lon="14.7222433"><ele>-2.0</ele><time>2026-04-06T13:19:12.073Z</time></trkpt><trkpt lat="53.55235" lon="14.7220667"><ele>-2.0</ele><time>2026-04-06T13:19:13.074Z</time></trkpt><trkpt lat="53.5522983" lon="14.7218833"><ele>-2.0</ele><time>2026-04-06T13:19:14.076Z</time></trkpt><trkpt lat="53.5522467" lon="14.7217021"><ele>-2.0</ele><time>2026-04-06T13:19:15.074Z</time></trkpt><trkpt lat="53.5521988" lon="14.721519"><ele>-2.0</ele><time>2026-04-06T13:19:16.088Z</time></trkpt><trkpt lat="53.5521569" lon="14.7213346"><ele>-2.0</ele><time>2026-04-06T13:19:17.082Z</time></trkpt><trkpt lat="53.5521155" lon="14.7211471"><ele>-2.0</ele><time>2026-04-06T13:19:18.083Z</time></trkpt><trkpt lat="53.5520737" lon="14.7209578"><ele>-2.0</ele><time>2026-04-06T13:19:19.094Z</time></trkpt><trkpt lat="53.5520332" lon="14.7207659"><ele>-2.0</ele><time>2026-04-06T13:19:20.079Z</time></trkpt><trkpt lat="53.5519935" lon="14.7205767"><ele>-2.0</ele><time>2026-04-06T13:19:21.075Z</time></trkpt><trkpt lat="53.5519558" lon="14.7203872"><ele>-2.0</ele><time>2026-04-06T13:19:22.077Z</time></trkpt><trkpt lat="53.551917" lon="14.7201958"><ele>-2.0</ele><time>2026-04-06T13:19:23.081Z</time></trkpt><trkpt lat="53.5518793" lon="14.7200063"><ele>-2.0</ele><time>2026-04-06T13:19:24.078Z</time></trkpt><trkpt lat="53.5518409" lon="14.7198268"><ele>-2.0</ele><time>2026-04-06T13:19:25.09Z</time></trkpt><trkpt lat="53.5518069" lon="14.7196709"><ele>-2.0</ele><time>2026-04-06T13:19:26.068Z</time></trkpt><trkpt lat="53.5517732" lon="14.7195221"><ele>-2.0</ele><time>2026-04-06T13:19:27.069Z</time></trkpt><trkpt lat="53.5517381" lon="14.7193667"><ele>-2.0</ele><time>2026-04-06T13:19:28.074Z</time></trkpt><trkpt lat="53.5517005" lon="14.7192003"><ele>-2.0</ele><time>2026-04-06T13:19:29.078Z</time></trkpt><trkpt lat="53.5516602" lon="14.7190191"><ele>-2.0</ele><time>2026-04-06T13:19:30.083Z</time></trkpt><trkpt lat="53.5516187" lon="14.7188295"><ele>-2.0</ele><time>2026-04-06T13:19:31.079Z</time></trkpt><trkpt lat="53.5515743" lon="14.7186316"><ele>-2.0</ele><time>2026-04-06T13:19:32.074Z</time></trkpt><trkpt lat="53.5515315" lon="14.7184308"><ele>-2.0</ele><time>2026-04-06T13:19:33.074Z</time></trkpt><trkpt lat="53.5514888" lon="14.7182352"><ele>-2.0</ele><time>2026-04-06T13:19:34.081Z</time></trkpt><trkpt lat="53.55145" lon="14.7180555"><ele>-2.0</ele><time>2026-04-06T13:19:35.072Z</time></trkpt><trkpt lat="53.5514177" lon="14.7178987"><ele>-2.0</ele><time>2026-04-06T13:19:36.075Z</time></trkpt><trkpt lat="53.5513892" lon="14.7177467"><ele>-2.0</ele><time>2026-04-06T13:19:37.084Z</time></trkpt><trkpt lat="53.5513599" lon="14.7175872"><ele>-2.0</ele><time>2026-04-06T13:19:38.075Z</time></trkpt><trkpt lat="53.5513313" lon="14.7174098"><ele>-2.0</ele><time>2026-04-06T13:19:39.103Z</time></trkpt><trkpt lat="53.5513053" lon="14.7172208"><ele>-2.0</ele><time>2026-04-06T13:19:40.092Z</time></trkpt><trkpt lat="53.5512802" lon="14.7170219"><ele>-2.0</ele><time>2026-04-06T13:19:41.072Z</time></trkpt><trkpt lat="53.5512522" lon="14.716819"><ele>-2.0</ele><time>2026-04-06T13:19:42.071Z</time></trkpt><trkpt lat="53.5512249" lon="14.7166199"><ele>-2.0</ele><time>2026-04-06T13:19:43.085Z</time></trkpt><trkpt lat="53.5512049" lon="14.7164315"><ele>-2.0</ele><time>2026-04-06T13:19:44.068Z</time></trkpt><trkpt lat="53.5511956" lon="14.7162468"><ele>-2.0</ele><time>2026-04-06T13:19:45.086Z</time></trkpt><trkpt lat="53.5511985" lon="14.71606"><ele>-1.75</ele><time>2026-04-06T13:19:46.08Z</time></trkpt><trkpt lat="53.5512164" lon="14.715865"><ele>-1.5</ele><time>2026-04-06T13:19:47.086Z</time></trkpt><trkpt lat="53.5512482" lon="14.7156743"><ele>-1.25</ele><time>2026-04-06T13:19:48.079Z</time></trkpt><trkpt lat="53.5512946" lon="14.7154935"><ele>-1.0</ele><time>2026-04-06T13:19:49.083Z</time></trkpt><trkpt lat="53.551346" lon="14.7153138"><ele>-1.25</ele><time>2026-04-06T13:19:50.081Z</time></trkpt><trkpt lat="53.5513994" lon="14.7151292"><ele>-1.5</ele><time>2026-04-06T13:19:51.075Z</time></trkpt><trkpt lat="53.5514528" lon="14.7149362"><ele>-1.75</ele><time>2026-04-06T13:19:52.084Z</time></trkpt><trkpt lat="53.5515047" lon="14.7147431"><ele>-2.0</ele><time>2026-04-06T13:19:53.082Z</time></trkpt><trkpt lat="53.5515558" lon="14.7145506"><ele>-2.25</ele><time>2026-04-06T13:19:54.075Z</time></trkpt><trkpt lat="53.5516077" lon="14.714351"><ele>-2.5</ele><time>2026-04-06T13:19:55.077Z</time></trkpt><trkpt lat="53.5516593" lon="14.7141422"><ele>-2.75</ele><time>2026-04-06T13:19:56.074Z</time></trkpt><trkpt lat="53.5517169" lon="14.7139329"><ele>-3.0</ele><time>2026-04-06T13:19:57.082Z</time></trkpt><trkpt lat="53.5517806" lon="14.7137256"><ele>-2.75</ele><time>2026-04-06T13:19:58.071Z</time></trkpt><trkpt lat="53.5518474" lon="14.7135164"><ele>-2.5</ele><time>2026-04-06T13:19:59.081Z</time></trkpt><trkpt lat="53.5519153" lon="14.713315"><ele>-2.25</ele><time>2026-04-06T13:20:00.073Z</time></trkpt><trkpt lat="53.5519843" lon="14.7131131"><ele>-2.0</ele><time>2026-04-06T13:20:01.078Z</time></trkpt><trkpt lat="53.552053" lon="14.7129064"><ele>-2.0</ele><time>2026-04-06T13:20:02.075Z</time></trkpt><trkpt lat="53.5521182" lon="14.7126959"><ele>-2.0</ele><time>2026-04-06T13:20:03.079Z</time></trkpt><trkpt lat="53.5521837" lon="14.7124852"><ele>-2.0</ele><time>2026-04-06T13:20:04.073Z</time></trkpt><trkpt lat="53.552252" lon="14.7122736"><ele>-2.0</ele><time>2026-04-06T13:20:05.076Z</time></trkpt><trkpt lat="53.5523212" lon="14.7120608"><ele>-2.0</ele><time>2026-04-06T13:20:06.077Z</time></trkpt><trkpt lat="53.552393" lon="14.7118469"><ele>-2.0</ele><time>2026-04-06T13:20:07.082Z</time></trkpt><trkpt lat="53.552467" lon="14.7116304"><ele>-2.0</ele><time>2026-04-06T13:20:08.067Z</time></trkpt><trkpt lat="53.552546" lon="14.7114084"><ele>-2.0</ele><time>2026-04-06T13:20:09.094Z</time></trkpt><trkpt lat="53.5526256" lon="14.7111917"><ele>-2.0</ele><time>2026-04-06T13:20:10.07Z</time></trkpt><trkpt lat="53.5527087" lon="14.710975"><ele>-2.0</ele><time>2026-04-06T13:20:11.086Z</time></trkpt><trkpt lat="53.5527911" lon="14.7107672"><ele>-2.0</ele><time>2026-04-06T13:20:12.074Z</time></trkpt><trkpt lat="53.552871" lon="14.71056"><ele>-2.0</ele><time>2026-04-06T13:20:13.087Z</time></trkpt><trkpt lat="53.5529474" lon="14.7103645"><ele>-2.0</ele><time>2026-04-06T13:20:14.074Z</time></trkpt><trkpt lat="53.5530249" lon="14.7101714"><ele>-2.0</ele><time>2026-04-06T13:20:15.096Z</time></trkpt><trkpt lat="53.5530951" lon="14.7099838"><ele>-2.0</ele><time>2026-04-06T13:20:16.081Z</time></trkpt><trkpt lat="53.5531612" lon="14.7097933"><ele>-2.0</ele><time>2026-04-06T13:20:17.07Z</time></trkpt><trkpt lat="53.5532216" lon="14.7095962"><ele>-2.0</ele><time>2026-04-06T13:20:18.07Z</time></trkpt><trkpt lat="53.5532736" lon="14.7093941"><ele>-2.0</ele><time>2026-04-06T13:20:19.088Z</time></trkpt><trkpt lat="53.5533127" lon="14.7091851"><ele>-2.0</ele><time>2026-04-06T13:20:20.088Z</time></trkpt><trkpt lat="53.5533362" lon="14.7089721"><ele>-2.0</ele><time>2026-04-06T13:20:21.094Z</time></trkpt><trkpt lat="53.5533432" lon="14.7087551"><ele>-2.0</ele><time>2026-04-06T13:20:22.075Z</time></trkpt><trkpt lat="53.5533473" lon="14.7085294"><ele>-2.0</ele><time>2026-04-06T13:20:23.088Z</time></trkpt><trkpt lat="53.5533506" lon="14.7083093"><ele>-2.0</ele><time>2026-04-06T13:20:24.077Z</time></trkpt><trkpt lat="53.5533473" lon="14.7081034"><ele>-2.0</ele><time>2026-04-06T13:20:25.093Z</time></trkpt><trkpt lat="53.5533341" lon="14.7079201"><ele>-2.25</ele><time>2026-04-06T13:20:26.075Z</time></trkpt><trkpt lat="53.5533095" lon="14.7077374"><ele>-2.5</ele><time>2026-04-06T13:20:27.081Z</time></trkpt><trkpt lat="53.5532809" lon="14.7075426"><ele>-2.75</ele><time>2026-04-06T13:20:28.08Z</time></trkpt><trkpt lat="53.5532486" lon="14.7073334"><ele>-3.0</ele><time>2026-04-06T13:20:29.096Z</time></trkpt><trkpt lat="53.5532198" lon="14.7071175"><ele>-2.75</ele><time>2026-04-06T13:20:30.081Z</time></trkpt><trkpt lat="53.5531898" lon="14.7068944"><ele>-2.5</ele><time>2026-04-06T13:20:31.085Z</time></trkpt><trkpt lat="53.5531599" lon="14.70667"><ele>-2.25</ele><time>2026-04-06T13:20:32.078Z</time></trkpt><trkpt lat="53.5531309" lon="14.7064428"><ele>-2.0</ele><time>2026-04-06T13:20:33.074Z</time></trkpt><trkpt lat="53.553102" lon="14.7062108"><ele>-2.25</ele><time>2026-04-06T13:20:34.077Z</time></trkpt><trkpt lat="53.5530723" lon="14.7059738"><ele>-2.5</ele><time>2026-04-06T13:20:35.072Z</time></trkpt><trkpt lat="53.5530423" lon="14.7057354"><ele>-2.75</ele><time>2026-04-06T13:20:36.073Z</time></trkpt><trkpt lat="53.5530128" lon="14.7054963"><ele>-3.0</ele><time>2026-04-06T13:20:37.073Z</time></trkpt><trkpt lat="53.5529844" lon="14.7052624"><ele>-2.75</ele><time>2026-04-06T13:20:38.073Z</time></trkpt><trkpt lat="53.552956" lon="14.7050284"><ele>-2.5</ele><time>2026-04-06T13:20:39.072Z</time></trkpt><trkpt lat="53.5529271" lon="14.704798"><ele>-2.25</ele><time>2026-04-06T13:20:40.076Z</time></trkpt><trkpt lat="53.5529019" lon="14.7045743"><ele>-2.0</ele><time>2026-04-06T13:20:41.074Z</time></trkpt><trkpt lat="53.5528775" lon="14.7043554"><ele>-2.0</ele><time>2026-04-06T13:20:42.072Z</time></trkpt><trkpt lat="53.5528538" lon="14.7041523"><ele>-2.0</ele><time>2026-04-06T13:20:43.075Z</time></trkpt><trkpt lat="53.5528307" lon="14.7039748"><ele>-2.0</ele><time>2026-04-06T13:20:44.073Z</time></trkpt><trkpt lat="53.5528129" lon="14.7038228"><ele>-2.0</ele><time>2026-04-06T13:20:45.075Z</time></trkpt><trkpt lat="53.5527973" lon="14.7036942"><ele>-2.0</ele><time>2026-04-06T13:20:46.076Z</time></trkpt><trkpt lat="53.552784" lon="14.7035844"><ele>-1.9999999999999998</ele><time>2026-04-06T13:20:47.078Z</time></trkpt><trkpt lat="53.5527748" lon="14.7034171"><ele>-2.0</ele><time>2026-04-06T13:20:49.073Z</time></trkpt><trkpt lat="53.55282" lon="14.7033149"><ele>-2.0</ele><time>2026-04-06T13:20:52.081Z</time></trkpt><trkpt lat="53.5528937" lon="14.7032848"><ele>-2.0</ele><time>2026-04-06T13:20:54.075Z</time></trkpt><trkpt lat="53.5529916" lon="14.7032283"><ele>-1.9999999999999998</ele><time>2026-04-06T13:20:56.075Z</time></trkpt><trkpt lat="53.553057" lon="14.7031916"><ele>-2.0</ele><time>2026-04-06T13:20:57.08Z</time></trkpt><trkpt lat="53.5531296" lon="14.703151"><ele>-2.0</ele><time>2026-04-06T13:20:58.074Z</time></trkpt><trkpt lat="53.5532086" lon="14.7031068"><ele>-2.0</ele><time>2026-04-06T13:20:59.068Z</time></trkpt><trkpt lat="53.5533006" lon="14.7030584"><ele>-2.0</ele><time>2026-04-06T13:21:00.067Z</time></trkpt><trkpt lat="53.5533989" lon="14.7030048"><ele>-2.0</ele><time>2026-04-06T13:21:01.075Z</time></trkpt><trkpt lat="53.5534944" lon="14.7029512"><ele>-2.0</ele><time>2026-04-06T13:21:02.07Z</time></trkpt><trkpt lat="53.5535749" lon="14.7029033"><ele>-1.9999999999999998</ele><time>2026-04-06T13:21:03.071Z</time></trkpt><trkpt lat="53.5536378" lon="14.7028684"><ele>-2.0</ele><time>2026-04-06T13:21:04.076Z</time></trkpt><trkpt lat="53.5537145" lon="14.7028323"><ele>-2.0</ele><time>2026-04-06T13:21:06.075Z</time></trkpt><trkpt lat="53.5537933" lon="14.7027933"><ele>-2.0</ele><time>2026-04-06T13:22:21.077Z</time></trkpt><trkpt lat="53.5538633" lon="14.7027483"><ele>-1.9999999999999998</ele><time>2026-04-06T13:22:23.069Z</time></trkpt><trkpt lat="53.5539667" lon="14.7026833"><ele>-2.0</ele><time>2026-04-06T13:22:25.075Z</time></trkpt><trkpt lat="53.5540867" lon="14.70261"><ele>-2.1666666666666665</ele><time>2026-04-06T13:22:27.064Z</time></trkpt><trkpt lat="53.5541467" lon="14.7025733"><ele>-2.333333333333333</ele><time>2026-04-06T13:22:28.071Z</time></trkpt><trkpt lat="53.5542567" lon="14.7025033"><ele>-2.5</ele><time>2026-04-06T13:22:30.074Z</time></trkpt><trkpt lat="53.55434" lon="14.70245"><ele>-2.6666666666666665</ele><time>2026-04-06T13:22:32.073Z</time></trkpt><trkpt lat="53.554385" lon="14.7023317"><ele>-2.8333333333333335</ele><time>2026-04-06T13:22:35.076Z</time></trkpt><trkpt lat="53.554388" lon="14.7021918"><ele>-3.0</ele><time>2026-04-06T13:22:43.077Z</time></trkpt><trkpt lat="53.5543831" lon="14.7020629"><ele>-3.0</ele><time>2026-04-06T13:22:44.077Z</time></trkpt><trkpt lat="53.5543841" lon="14.7019197"><ele>-3.0</ele><time>2026-04-06T13:22:45.082Z</time></trkpt><trkpt lat="53.5543872" lon="14.7017628"><ele>-3.0</ele><time>2026-04-06T13:22:46.074Z</time></trkpt><trkpt lat="53.5543904" lon="14.7015882"><ele>-3.0</ele><time>2026-04-06T13:22:47.073Z</time></trkpt><trkpt lat="53.5543952" lon="14.7013915"><ele>-3.0</ele><time>2026-04-06T13:22:48.065Z</time></trkpt><trkpt lat="53.5544021" lon="14.7011492"><ele>-3.0</ele><time>2026-04-06T13:22:49.077Z</time></trkpt><trkpt lat="53.5544094" lon="14.7008654"><ele>-3.0</ele><time>2026-04-06T13:22:50.079Z</time></trkpt><trkpt lat="53.5544179" lon="14.7005709"><ele>-3.0</ele><time>2026-04-06T13:22:51.075Z</time></trkpt><trkpt lat="53.5544222" lon="14.7002824"><ele>-2.6666666666666665</ele><time>2026-04-06T13:22:52.071Z</time></trkpt><trkpt lat="53.5544263" lon="14.7000004"><ele>-2.333333333333333</ele><time>2026-04-06T13:22:53.084Z</time></trkpt><trkpt lat="53.5544278" lon="14.6997282"><ele>-2.0</ele><time>2026-04-06T13:22:54.078Z</time></trkpt><trkpt lat="53.5544279" lon="14.6994654"><ele>-1.75</ele><time>2026-04-06T13:22:55.081Z</time></trkpt><trkpt lat="53.5544308" lon="14.6992241"><ele>-1.5</ele><time>2026-04-06T13:22:56.08Z</time></trkpt><trkpt lat="53.5544359" lon="14.69899"><ele>-1.25</ele><time>2026-04-06T13:22:57.078Z</time></trkpt><trkpt lat="53.5544382" lon="14.6987463"><ele>-1.0</ele><time>2026-04-06T13:22:58.075Z</time></trkpt><trkpt lat="53.5544409" lon="14.6984969"><ele>-1.0</ele><time>2026-04-06T13:22:59.089Z</time></trkpt><trkpt lat="53.5544454" lon="14.6982485"><ele>-1.0</ele><time>2026-04-06T13:23:00.074Z</time></trkpt><trkpt lat="53.5544506" lon="14.6979844"><ele>-1.0</ele><time>2026-04-06T13:23:01.086Z</time></trkpt><trkpt lat="53.5544557" lon="14.6977116"><ele>-1.0</ele><time>2026-04-06T13:23:02.076Z</time></trkpt><trkpt lat="53.5544593" lon="14.6974347"><ele>-1.0</ele><time>2026-04-06T13:23:03.08Z</time></trkpt><trkpt lat="53.5544594" lon="14.6971633"><ele>-1.0</ele><time>2026-04-06T13:23:04.075Z</time></trkpt><trkpt lat="53.5544593" lon="14.6968934"><ele>-1.0</ele><time>2026-04-06T13:23:05.074Z</time></trkpt><trkpt lat="53.5544598" lon="14.6966221"><ele>-1.0</ele><time>2026-04-06T13:23:06.094Z</time></trkpt><trkpt lat="53.5544628" lon="14.6963546"><ele>-1.0</ele><time>2026-04-06T13:23:07.074Z</time></trkpt><trkpt lat="53.5544622" lon="14.6960794"><ele>-1.0</ele><time>2026-04-06T13:23:08.073Z</time></trkpt><trkpt lat="53.5544619" lon="14.6957952"><ele>-1.0</ele><time>2026-04-06T13:23:09.087Z</time></trkpt><trkpt lat="53.5544603" lon="14.6955114"><ele>-1.0</ele><time>2026-04-06T13:23:10.075Z</time></trkpt><trkpt lat="53.5544611" lon="14.695229"><ele>-1.0</ele><time>2026-04-06T13:23:11.099Z</time></trkpt><trkpt lat="53.5544634" lon="14.69496"><ele>-1.0</ele><time>2026-04-06T13:23:12.074Z</time></trkpt><trkpt lat="53.5544657" lon="14.6946996"><ele>-1.0</ele><time>2026-04-06T13:23:13.074Z</time></trkpt><trkpt lat="53.5544636" lon="14.6944478"><ele>-1.0</ele><time>2026-04-06T13:23:14.072Z</time></trkpt><trkpt lat="53.5544634" lon="14.6941834"><ele>-1.0</ele><time>2026-04-06T13:23:15.082Z</time></trkpt><trkpt lat="53.5544676" lon="14.6939048"><ele>-1.0</ele><time>2026-04-06T13:23:16.075Z</time></trkpt><trkpt lat="53.5544748" lon="14.6936272"><ele>-1.0</ele><time>2026-04-06T13:23:17.073Z</time></trkpt><trkpt lat="53.5544847" lon="14.6933723"><ele>-1.0</ele><time>2026-04-06T13:23:18.076Z</time></trkpt><trkpt lat="53.5544979" lon="14.6931307"><ele>-1.0</ele><time>2026-04-06T13:23:19.081Z</time></trkpt><trkpt lat="53.5545134" lon="14.6929065"><ele>-1.0</ele><time>2026-04-06T13:23:20.083Z</time></trkpt><trkpt lat="53.5545315" lon="14.6926899"><ele>-1.25</ele><time>2026-04-06T13:23:21.081Z</time></trkpt><trkpt lat="53.554552" lon="14.6924662"><ele>-1.5</ele><time>2026-04-06T13:23:22.068Z</time></trkpt><trkpt lat="53.5545729" lon="14.6922333"><ele>-1.75</ele><time>2026-04-06T13:23:23.072Z</time></trkpt><trkpt lat="53.554595" lon="14.6919788"><ele>-2.0</ele><time>2026-04-06T13:23:24.078Z</time></trkpt><trkpt lat="53.5546164" lon="14.6917136"><ele>-2.0</ele><time>2026-04-06T13:23:25.075Z</time></trkpt><trkpt lat="53.5546346" lon="14.6914491"><ele>-2.0</ele><time>2026-04-06T13:23:26.075Z</time></trkpt><trkpt lat="53.5546514" lon="14.6911991"><ele>-2.0</ele><time>2026-04-06T13:23:27.081Z</time></trkpt><trkpt lat="53.5546677" lon="14.6909652"><ele>-2.0</ele><time>2026-04-06T13:23:28.072Z</time></trkpt><trkpt lat="53.5546819" lon="14.6907336"><ele>-2.25</ele><time>2026-04-06T13:23:29.091Z</time></trkpt><trkpt lat="53.5546898" lon="14.6904965"><ele>-2.5</ele><time>2026-04-06T13:23:30.077Z</time></trkpt><trkpt lat="53.5546811" lon="14.6902522"><ele>-2.75</ele><time>2026-04-06T13:23:31.082Z</time></trkpt><trkpt lat="53.5546602" lon="14.6900051"><ele>-3.0</ele><time>2026-04-06T13:23:32.078Z</time></trkpt><trkpt lat="53.5546307" lon="14.6897502"><ele>-3.0</ele><time>2026-04-06T13:23:33.08Z</time></trkpt><trkpt lat="53.5545984" lon="14.6894859"><ele>-3.0</ele><time>2026-04-06T13:23:34.074Z</time></trkpt><trkpt lat="53.5545646" lon="14.6892145"><ele>-3.0</ele><time>2026-04-06T13:23:35.081Z</time></trkpt><trkpt lat="53.5545269" lon="14.688943"><ele>-3.0</ele><time>2026-04-06T13:23:36.075Z</time></trkpt><trkpt lat="53.5544901" lon="14.6886771"><ele>-3.0</ele><time>2026-04-06T13:23:37.084Z</time></trkpt><trkpt lat="53.5544578" lon="14.6884324"><ele>-3.0</ele><time>2026-04-06T13:23:38.069Z</time></trkpt><trkpt lat="53.5544318" lon="14.6882113"><ele>-3.0</ele><time>2026-04-06T13:23:39.103Z</time></trkpt><trkpt lat="53.5544121" lon="14.6880146"><ele>-3.0</ele><time>2026-04-06T13:23:40.081Z</time></trkpt><trkpt lat="53.5543919" lon="14.6878202"><ele>-3.0</ele><time>2026-04-06T13:23:41.069Z</time></trkpt><trkpt lat="53.5543721" lon="14.6876209"><ele>-3.0</ele><time>2026-04-06T13:23:42.073Z</time></trkpt><trkpt lat="53.5543452" lon="14.6874148"><ele>-3.0</ele><time>2026-04-06T13:23:43.076Z</time></trkpt><trkpt lat="53.5543121" lon="14.6872043"><ele>-2.75</ele><time>2026-04-06T13:23:44.079Z</time></trkpt><trkpt lat="53.5542807" lon="14.6869909"><ele>-2.5</ele><time>2026-04-06T13:23:45.077Z</time></trkpt><trkpt lat="53.554252" lon="14.6867738"><ele>-2.25</ele><time>2026-04-06T13:23:46.075Z</time></trkpt><trkpt lat="53.5542281" lon="14.6865506"><ele>-2.0</ele><time>2026-04-06T13:23:47.086Z</time></trkpt><trkpt lat="53.5542027" lon="14.6863336"><ele>-2.0</ele><time>2026-04-06T13:23:48.081Z</time></trkpt><trkpt lat="53.5541776" lon="14.6861244"><ele>-2.0</ele><time>2026-04-06T13:23:49.077Z</time></trkpt><trkpt lat="53.5541517" lon="14.6859233"><ele>-2.0</ele><time>2026-04-06T13:23:50.075Z</time></trkpt><trkpt lat="53.5541254" lon="14.6857291"><ele>-2.0</ele><time>2026-04-06T13:23:51.081Z</time></trkpt><trkpt lat="53.5540998" lon="14.6855403"><ele>-2.0</ele><time>2026-04-06T13:23:52.079Z</time></trkpt><trkpt lat="53.5540734" lon="14.6853527"><ele>-2.0</ele><time>2026-04-06T13:23:53.072Z</time></trkpt><trkpt lat="53.5540437" lon="14.685172"><ele>-2.0</ele><time>2026-04-06T13:23:54.08Z</time></trkpt><trkpt lat="53.5540085" lon="14.6850091"><ele>-2.0</ele><time>2026-04-06T13:23:55.083Z</time></trkpt><trkpt lat="53.5539716" lon="14.6848711"><ele>-2.0</ele><time>2026-04-06T13:23:56.085Z</time></trkpt><trkpt lat="53.5539291" lon="14.6847442"><ele>-2.0</ele><time>2026-04-06T13:23:57.081Z</time></trkpt><trkpt lat="53.5538794" lon="14.6846168"><ele>-2.0</ele><time>2026-04-06T13:23:58.079Z</time></trkpt><trkpt lat="53.5538248" lon="14.6844775"><ele>-2.0</ele><time>2026-04-06T13:23:59.075Z</time></trkpt><trkpt lat="53.5537619" lon="14.6843267"><ele>-2.0</ele><time>2026-04-06T13:24:00.074Z</time></trkpt><trkpt lat="53.5536956" lon="14.6841666"><ele>-2.0</ele><time>2026-04-06T13:24:01.075Z</time></trkpt><trkpt lat="53.5536254" lon="14.6839977"><ele>-2.0</ele><time>2026-04-06T13:24:02.072Z</time></trkpt><trkpt lat="53.553557" lon="14.683831"><ele>-2.0</ele><time>2026-04-06T13:24:03.066Z</time></trkpt><trkpt lat="53.5534903" lon="14.6836741"><ele>-2.0</ele><time>2026-04-06T13:24:04.076Z</time></trkpt><trkpt lat="53.5534225" lon="14.6835121"><ele>-2.0</ele><time>2026-04-06T13:24:05.078Z</time></trkpt><trkpt lat="53.5533508" lon="14.68333"><ele>-2.0</ele><time>2026-04-06T13:24:06.08Z</time></trkpt><trkpt lat="53.5532699" lon="14.6831165"><ele>-2.0</ele><time>2026-04-06T13:24:07.076Z</time></trkpt><trkpt lat="53.5531837" lon="14.6828838"><ele>-2.0</ele><time>2026-04-06T13:24:08.072Z</time></trkpt><trkpt lat="53.5530903" lon="14.6826365"><ele>-2.0</ele><time>2026-04-06T13:24:09.088Z</time></trkpt><trkpt lat="53.552994" lon="14.682385"><ele>-2.0</ele><time>2026-04-06T13:24:10.074Z</time></trkpt><trkpt lat="53.552892" lon="14.6821202"><ele>-2.0</ele><time>2026-04-06T13:24:11.109Z</time></trkpt><trkpt lat="53.552791" lon="14.6818557"><ele>-2.0</ele><time>2026-04-06T13:24:12.076Z</time></trkpt><trkpt lat="53.5526853" lon="14.6815754"><ele>-2.0</ele><time>2026-04-06T13:24:13.074Z</time></trkpt><trkpt lat="53.5525796" lon="14.6813"><ele>-2.0</ele><time>2026-04-06T13:24:14.076Z</time></trkpt><trkpt lat="53.552481" lon="14.6810473"><ele>-2.0</ele><time>2026-04-06T13:24:15.071Z</time></trkpt><trkpt lat="53.5523959" lon="14.6808238"><ele>-2.0</ele><time>2026-04-06T13:24:16.076Z</time></trkpt><trkpt lat="53.5523149" lon="14.6806192"><ele>-2.0</ele><time>2026-04-06T13:24:17.099Z</time></trkpt><trkpt lat="53.5522367" lon="14.6804268"><ele>-2.0</ele><time>2026-04-06T13:24:18.074Z</time></trkpt><trkpt lat="53.5521656" lon="14.6802335"><ele>-2.0</ele><time>2026-04-06T13:24:19.092Z</time></trkpt><trkpt lat="53.5521088" lon="14.6800394"><ele>-2.0</ele><time>2026-04-06T13:24:20.075Z</time></trkpt><trkpt lat="53.5520588" lon="14.6798328"><ele>-2.0</ele><time>2026-04-06T13:24:21.083Z</time></trkpt><trkpt lat="53.5520183" lon="14.6796182"><ele>-2.0</ele><time>2026-04-06T13:24:22.077Z</time></trkpt><trkpt lat="53.5519762" lon="14.6793932"><ele>-2.0</ele><time>2026-04-06T13:24:23.083Z</time></trkpt><trkpt lat="53.551933" lon="14.6791555"><ele>-2.0</ele><time>2026-04-06T13:24:24.096Z</time></trkpt><trkpt lat="53.5518872" lon="14.6789141"><ele>-2.0</ele><time>2026-04-06T13:24:25.078Z</time></trkpt><trkpt lat="53.5518422" lon="14.6786688"><ele>-2.333333333333333</ele><time>2026-04-06T13:24:26.076Z</time></trkpt><trkpt lat="53.5517972" lon="14.6784228"><ele>-2.6666666666666665</ele><time>2026-04-06T13:24:27.08Z</time></trkpt><trkpt lat="53.5517539" lon="14.6781735"><ele>-3.0</ele><time>2026-04-06T13:24:28.072Z</time></trkpt><trkpt lat="53.5517097" lon="14.6779233"><ele>-3.0</ele><time>2026-04-06T13:24:29.086Z</time></trkpt><trkpt lat="53.5516659" lon="14.6776768"><ele>-3.0</ele><time>2026-04-06T13:24:30.078Z</time></trkpt><trkpt lat="53.5516186" lon="14.6774296"><ele>-3.0</ele><time>2026-04-06T13:24:31.081Z</time></trkpt><trkpt lat="53.5515733" lon="14.6771899"><ele>-3.0</ele><time>2026-04-06T13:24:32.072Z</time></trkpt><trkpt lat="53.5515269" lon="14.6769545"><ele>-3.0</ele><time>2026-04-06T13:24:33.081Z</time></trkpt><trkpt lat="53.5514839" lon="14.6767363"><ele>-3.0</ele><time>2026-04-06T13:24:34.074Z</time></trkpt><trkpt lat="53.5514422" lon="14.6765273"><ele>-3.0</ele><time>2026-04-06T13:24:35.084Z</time></trkpt><trkpt lat="53.5514021" lon="14.676329"><ele>-2.75</ele><time>2026-04-06T13:24:36.076Z</time></trkpt><trkpt lat="53.551364" lon="14.6761316"><ele>-2.5</ele><time>2026-04-06T13:24:37.082Z</time></trkpt><trkpt lat="53.551325" lon="14.67594"><ele>-2.25</ele><time>2026-04-06T13:24:38.082Z</time></trkpt><trkpt lat="53.5512795" lon="14.6757548"><ele>-2.0</ele><time>2026-04-06T13:24:39.077Z</time></trkpt><trkpt lat="53.5512365" lon="14.6755807"><ele>-1.9999999999999998</ele><time>2026-04-06T13:24:40.073Z</time></trkpt><trkpt lat="53.5512014" lon="14.6754196"><ele>-2.0</ele><time>2026-04-06T13:24:41.083Z</time></trkpt><trkpt lat="53.5511711" lon="14.6752769"><ele>-2.0</ele><time>2026-04-06T13:24:42.069Z</time></trkpt><trkpt lat="53.5511442" lon="14.6751467"><ele>-2.0</ele><time>2026-04-06T13:24:43.079Z</time></trkpt><trkpt lat="53.5511166" lon="14.6750246"><ele>-1.9999999999999998</ele><time>2026-04-06T13:24:44.076Z</time></trkpt><trkpt lat="53.55109" lon="14.6749096"><ele>-2.0</ele><time>2026-04-06T13:24:45.082Z</time></trkpt><trkpt lat="53.5510649" lon="14.6748051"><ele>-1.9999999999999998</ele><time>2026-04-06T13:24:46.073Z</time></trkpt><trkpt lat="53.5510363" lon="14.674701"><ele>-2.0</ele><time>2026-04-06T13:24:47.077Z</time></trkpt><trkpt lat="53.5510102" lon="14.6745959"><ele>-2.0</ele><time>2026-04-06T13:24:48.082Z</time></trkpt><trkpt lat="53.5509696" lon="14.6744166"><ele>-2.0</ele><time>2026-04-06T13:24:50.082Z</time></trkpt><trkpt lat="53.5509204" lon="14.6742198"><ele>-1.9999999999999998</ele><time>2026-04-06T13:24:52.074Z</time></trkpt><trkpt lat="53.5508977" lon="14.6741039"><ele>-2.0</ele><time>2026-04-06T13:24:53.082Z</time></trkpt><trkpt lat="53.5508762" lon="14.6739898"><ele>-1.9999999999999998</ele><time>2026-04-06T13:24:54.07Z</time></trkpt><trkpt lat="53.55085" lon="14.6738761"><ele>-2.0</ele><time>2026-04-06T13:24:55.072Z</time></trkpt><trkpt lat="53.5508214" lon="14.6737609"><ele>-2.0</ele><time>2026-04-06T13:24:56.079Z</time></trkpt><trkpt lat="53.5507928" lon="14.6736418"><ele>-2.0</ele><time>2026-04-06T13:24:57.077Z</time></trkpt><trkpt lat="53.5507657" lon="14.673519"><ele>-1.9999999999999998</ele><time>2026-04-06T13:24:58.074Z</time></trkpt><trkpt lat="53.5507367" lon="14.673392"><ele>-2.0</ele><time>2026-04-06T13:24:59.083Z</time></trkpt><trkpt lat="53.5507079" lon="14.6732597"><ele>-1.9999999999999998</ele><time>2026-04-06T13:25:00.075Z</time></trkpt><trkpt lat="53.5506797" lon="14.6731257"><ele>-2.0</ele><time>2026-04-06T13:25:01.102Z</time></trkpt><trkpt lat="53.5506552" lon="14.673009"><ele>-2.0</ele><time>2026-04-06T13:25:02.072Z</time></trkpt><trkpt lat="53.5506296" lon="14.672906"><ele>-2.0</ele><time>2026-04-06T13:25:03.077Z</time></trkpt><trkpt lat="53.5505916" lon="14.672729"><ele>-1.9999999999999998</ele><time>2026-04-06T13:25:05.074Z</time></trkpt><trkpt lat="53.5505592" lon="14.672577"><ele>-2.0</ele><time>2026-04-06T13:25:07.069Z</time></trkpt><trkpt lat="53.5505278" lon="14.6724712"><ele>-2.0</ele><time>2026-04-06T13:25:09.075Z</time></trkpt><trkpt lat="53.5504507" lon="14.6723766"><ele>-2.0</ele><time>2026-04-06T13:25:12.076Z</time></trkpt><trkpt lat="53.5503669" lon="14.6723111"><ele>-2.0</ele><time>2026-04-06T13:25:14.073Z</time></trkpt><trkpt lat="53.5502537" lon="14.6722508"><ele>-2.0</ele><time>2026-04-06T13:25:16.075Z</time></trkpt><trkpt lat="53.5501382" lon="14.6722165"><ele>-2.0</ele><time>2026-04-06T13:25:18.077Z</time></trkpt><trkpt lat="53.550021" lon="14.6722008"><ele>-2.0</ele><time>2026-04-06T13:25:20.078Z</time></trkpt><trkpt lat="53.5499581" lon="14.6721883"><ele>-1.9999999999999998</ele><time>2026-04-06T13:25:21.087Z</time></trkpt><trkpt lat="53.5498934" lon="14.6721735"><ele>-2.0</ele><time>2026-04-06T13:25:22.078Z</time></trkpt><trkpt lat="53.5498263" lon="14.6721549"><ele>-2.0</ele><time>2026-04-06T13:25:23.091Z</time></trkpt><trkpt lat="53.5497592" lon="14.6721386"><ele>-1.9999999999999998</ele><time>2026-04-06T13:25:24.07Z</time></trkpt><trkpt lat="53.5496935" lon="14.6721209"><ele>-2.0</ele><time>2026-04-06T13:25:25.069Z</time></trkpt><trkpt lat="53.549626" lon="14.6721008"><ele>-2.0</ele><time>2026-04-06T13:25:26.072Z</time></trkpt><trkpt lat="53.5495529" lon="14.6720812"><ele>-2.0</ele><time>2026-04-06T13:25:27.073Z</time></trkpt><trkpt lat="53.5494683" lon="14.672058"><ele>-2.0</ele><time>2026-04-06T13:25:28.086Z</time></trkpt><trkpt lat="53.5493585" lon="14.6720286"><ele>-2.0</ele><time>2026-04-06T13:25:29.071Z</time></trkpt><trkpt lat="53.549219" lon="14.6719923"><ele>-2.0</ele><time>2026-04-06T13:25:30.071Z</time></trkpt><trkpt lat="53.549054" lon="14.6719493"><ele>-2.0</ele><time>2026-04-06T13:25:31.075Z</time></trkpt><trkpt lat="53.5488886" lon="14.6719045"><ele>-2.0</ele><time>2026-04-06T13:25:32.079Z</time></trkpt><trkpt lat="53.5487241" lon="14.6718585"><ele>-2.0</ele><time>2026-04-06T13:25:33.076Z</time></trkpt><trkpt lat="53.548548" lon="14.6718112"><ele>-2.0</ele><time>2026-04-06T13:25:34.085Z</time></trkpt><trkpt lat="53.5483655" lon="14.6717562"><ele>-2.0</ele><time>2026-04-06T13:25:35.088Z</time></trkpt><trkpt lat="53.5481886" lon="14.6717024"><ele>-2.0</ele><time>2026-04-06T13:25:36.085Z</time></trkpt><trkpt lat="53.548019" lon="14.671653"><ele>-2.0</ele><time>2026-04-06T13:25:37.095Z</time></trkpt><trkpt lat="53.5478455" lon="14.6715985"><ele>-2.0</ele><time>2026-04-06T13:25:38.086Z</time></trkpt><trkpt lat="53.547669" lon="14.6715441"><ele>-2.0</ele><time>2026-04-06T13:25:39.078Z</time></trkpt><trkpt lat="53.5475032" lon="14.6714887"><ele>-2.0</ele><time>2026-04-06T13:25:40.082Z</time></trkpt><trkpt lat="53.5473519" lon="14.6714331"><ele>-2.0</ele><time>2026-04-06T13:25:41.09Z</time></trkpt><trkpt lat="53.5472115" lon="14.6713828"><ele>-2.0</ele><time>2026-04-06T13:25:42.087Z</time></trkpt><trkpt lat="53.5470782" lon="14.6713331"><ele>-2.0</ele><time>2026-04-06T13:25:43.089Z</time></trkpt><trkpt lat="53.546951" lon="14.6712645"><ele>-2.0</ele><time>2026-04-06T13:25:44.076Z</time></trkpt><trkpt lat="53.5468291" lon="14.671175"><ele>-2.0</ele><time>2026-04-06T13:25:45.097Z</time></trkpt><trkpt lat="53.5467143" lon="14.6710719"><ele>-2.0</ele><time>2026-04-06T13:25:46.075Z</time></trkpt><trkpt lat="53.5466029" lon="14.6709508"><ele>-2.0</ele><time>2026-04-06T13:25:47.086Z</time></trkpt><trkpt lat="53.5464939" lon="14.6708264"><ele>-2.0</ele><time>2026-04-06T13:25:48.072Z</time></trkpt><trkpt lat="53.5463872" lon="14.6706912"><ele>-2.0</ele><time>2026-04-06T13:25:49.07Z</time></trkpt><trkpt lat="53.5462881" lon="14.6705411"><ele>-2.0</ele><time>2026-04-06T13:25:50.068Z</time></trkpt><trkpt lat="53.5461927" lon="14.6703742"><ele>-2.0</ele><time>2026-04-06T13:25:51.075Z</time></trkpt><trkpt lat="53.5461041" lon="14.6701956"><ele>-2.25</ele><time>2026-04-06T13:25:52.082Z</time></trkpt><trkpt lat="53.5460244" lon="14.6700097"><ele>-2.5</ele><time>2026-04-06T13:25:53.075Z</time></trkpt><trkpt lat="53.5459512" lon="14.6698167"><ele>-2.75</ele><time>2026-04-06T13:25:54.077Z</time></trkpt><trkpt lat="53.5458765" lon="14.6696154"><ele>-3.0</ele><time>2026-04-06T13:25:55.079Z</time></trkpt><trkpt lat="53.5458001" lon="14.6694107"><ele>-3.0</ele><time>2026-04-06T13:25:56.077Z</time></trkpt><trkpt lat="53.5457234" lon="14.669194"><ele>-3.0</ele><time>2026-04-06T13:25:57.096Z</time></trkpt><trkpt lat="53.5456442" lon="14.6689795"><ele>-3.0</ele><time>2026-04-06T13:25:58.075Z</time></trkpt><trkpt lat="53.5455663" lon="14.6687618"><ele>-3.0</ele><time>2026-04-06T13:25:59.085Z</time></trkpt><trkpt lat="53.5454944" lon="14.6685451"><ele>-3.0</ele><time>2026-04-06T13:26:00.074Z</time></trkpt><trkpt lat="53.5454259" lon="14.6683368"><ele>-3.0</ele><time>2026-04-06T13:26:01.079Z</time></trkpt><trkpt lat="53.5453616" lon="14.6681533"><ele>-3.0</ele><time>2026-04-06T13:26:02.07Z</time></trkpt><trkpt lat="53.5453029" lon="14.6679912"><ele>-3.0</ele><time>2026-04-06T13:26:03.072Z</time></trkpt><trkpt lat="53.5452464" lon="14.6678464"><ele>-3.0</ele><time>2026-04-06T13:26:04.071Z</time></trkpt><trkpt lat="53.5451934" lon="14.6677071"><ele>-3.0</ele><time>2026-04-06T13:26:05.071Z</time></trkpt><trkpt lat="53.5451413" lon="14.6675602"><ele>-3.0</ele><time>2026-04-06T13:26:06.075Z</time></trkpt><trkpt lat="53.5450865" lon="14.6673992"><ele>-3.0</ele><time>2026-04-06T13:26:07.085Z</time></trkpt><trkpt lat="53.545023" lon="14.6672346"><ele>-3.0</ele><time>2026-04-06T13:26:08.071Z</time></trkpt><trkpt lat="53.5449457" lon="14.6670708"><ele>-3.0</ele><time>2026-04-06T13:26:09.085Z</time></trkpt><trkpt lat="53.5448517" lon="14.6669045"><ele>-3.0</ele><time>2026-04-06T13:26:10.073Z</time></trkpt><trkpt lat="53.5447458" lon="14.6667312"><ele>-3.0</ele><time>2026-04-06T13:26:11.074Z</time></trkpt><trkpt lat="53.5446412" lon="14.6665594"><ele>-3.0</ele><time>2026-04-06T13:26:12.074Z</time></trkpt><trkpt lat="53.5445409" lon="14.6663886"><ele>-3.0</ele><time>2026-04-06T13:26:13.075Z</time></trkpt><trkpt lat="53.5444542" lon="14.6662228"><ele>-3.0</ele><time>2026-04-06T13:26:14.075Z</time></trkpt><trkpt lat="53.5443856" lon="14.6660656"><ele>-3.0</ele><time>2026-04-06T13:26:15.081Z</time></trkpt><trkpt lat="53.5443285" lon="14.6658976"><ele>-2.75</ele><time>2026-04-06T13:26:16.068Z</time></trkpt><trkpt lat="53.5442804" lon="14.6657104"><ele>-2.5</ele><time>2026-04-06T13:26:17.105Z</time></trkpt><trkpt lat="53.5442363" lon="14.6655156"><ele>-2.25</ele><time>2026-04-06T13:26:18.074Z</time></trkpt><trkpt lat="53.5441935" lon="14.665307"><ele>-2.0</ele><time>2026-04-06T13:26:19.08Z</time></trkpt><trkpt lat="53.5441502" lon="14.6650937"><ele>-2.0</ele><time>2026-04-06T13:26:20.077Z</time></trkpt><trkpt lat="53.5441089" lon="14.6648733"><ele>-2.0</ele><time>2026-04-06T13:26:21.078Z</time></trkpt><trkpt lat="53.5440732" lon="14.6646471"><ele>-2.0</ele><time>2026-04-06T13:26:22.076Z</time></trkpt><trkpt lat="53.5440391" lon="14.6644176"><ele>-2.0</ele><time>2026-04-06T13:26:23.081Z</time></trkpt><trkpt lat="53.5440074" lon="14.6641932"><ele>-2.5</ele><time>2026-04-06T13:26:24.069Z</time></trkpt><trkpt lat="53.5439716" lon="14.6639795"><ele>-3.0</ele><time>2026-04-06T13:26:25.076Z</time></trkpt><trkpt lat="53.5439146" lon="14.6637827"><ele>-3.5</ele><time>2026-04-06T13:26:26.075Z</time></trkpt><trkpt lat="53.5438348" lon="14.6636001"><ele>-4.0</ele><time>2026-04-06T13:26:27.08Z</time></trkpt><trkpt lat="53.5437372" lon="14.6634283"><ele>-3.75</ele><time>2026-04-06T13:26:28.07Z</time></trkpt><trkpt lat="53.5436353" lon="14.6632539"><ele>-3.5</ele><time>2026-04-06T13:26:29.08Z</time></trkpt><trkpt lat="53.5435353" lon="14.6630766"><ele>-3.25</ele><time>2026-04-06T13:26:30.08Z</time></trkpt><trkpt lat="53.5434343" lon="14.6628919"><ele>-3.0</ele><time>2026-04-06T13:26:31.084Z</time></trkpt><trkpt lat="53.5433302" lon="14.6627068"><ele>-3.0</ele><time>2026-04-06T13:26:32.073Z</time></trkpt><trkpt lat="53.5432269" lon="14.662523"><ele>-3.0</ele><time>2026-04-06T13:26:33.083Z</time></trkpt><trkpt lat="53.54313" lon="14.6623425"><ele>-3.0</ele><time>2026-04-06T13:26:34.071Z</time></trkpt><trkpt lat="53.5430281" lon="14.6621622"><ele>-3.0</ele><time>2026-04-06T13:26:35.084Z</time></trkpt><trkpt lat="53.5429248" lon="14.661973"><ele>-2.6666666666666665</ele><time>2026-04-06T13:26:36.078Z</time></trkpt><trkpt lat="53.5428181" lon="14.6617677"><ele>-2.333333333333333</ele><time>2026-04-06T13:26:37.082Z</time></trkpt><trkpt lat="53.5427115" lon="14.661556"><ele>-2.0</ele><time>2026-04-06T13:26:38.069Z</time></trkpt><trkpt lat="53.5426067" lon="14.6613463"><ele>-2.0</ele><time>2026-04-06T13:26:39.085Z</time></trkpt><trkpt lat="53.5425099" lon="14.6611475"><ele>-2.0</ele><time>2026-04-06T13:26:40.072Z</time></trkpt><trkpt lat="53.5424065" lon="14.6609514"><ele>-2.0</ele><time>2026-04-06T13:26:41.081Z</time></trkpt><trkpt lat="53.5423045" lon="14.6607534"><ele>-2.0</ele><time>2026-04-06T13:26:42.071Z</time></trkpt><trkpt lat="53.542203" lon="14.6605482"><ele>-2.0</ele><time>2026-04-06T13:26:43.082Z</time></trkpt><trkpt lat="53.5421013" lon="14.6603411"><ele>-2.0</ele><time>2026-04-06T13:26:44.071Z</time></trkpt><trkpt lat="53.5419988" lon="14.6601286"><ele>-2.0</ele><time>2026-04-06T13:26:45.082Z</time></trkpt><trkpt lat="53.5418994" lon="14.6599178"><ele>-2.0</ele><time>2026-04-06T13:26:46.074Z</time></trkpt><trkpt lat="53.5417978" lon="14.6597051"><ele>-2.0</ele><time>2026-04-06T13:26:47.083Z</time></trkpt><trkpt lat="53.5416994" lon="14.6595029"><ele>-2.0</ele><time>2026-04-06T13:26:48.076Z</time></trkpt><trkpt lat="53.5416064" lon="14.6593114"><ele>-2.0</ele><time>2026-04-06T13:26:49.082Z</time></trkpt><trkpt lat="53.5415196" lon="14.6591248"><ele>-2.0</ele><time>2026-04-06T13:26:50.072Z</time></trkpt><trkpt lat="53.541436" lon="14.6589376"><ele>-2.0</ele><time>2026-04-06T13:26:51.07Z</time></trkpt><trkpt lat="53.5413568" lon="14.6587554"><ele>-2.0</ele><time>2026-04-06T13:26:52.066Z</time></trkpt><trkpt lat="53.541281" lon="14.6585809"><ele>-2.0</ele><time>2026-04-06T13:26:53.089Z</time></trkpt><trkpt lat="53.541215" lon="14.6584239"><ele>-2.0</ele><time>2026-04-06T13:26:54.075Z</time></trkpt><trkpt lat="53.5411553" lon="14.658276"><ele>-2.0</ele><time>2026-04-06T13:26:55.084Z</time></trkpt><trkpt lat="53.5411006" lon="14.65814"><ele>-2.0</ele><time>2026-04-06T13:26:56.075Z</time></trkpt><trkpt lat="53.5410454" lon="14.6580146"><ele>-2.0</ele><time>2026-04-06T13:26:57.082Z</time></trkpt><trkpt lat="53.5409871" lon="14.6578949"><ele>-2.0</ele><time>2026-04-06T13:26:58.069Z</time></trkpt><trkpt lat="53.5409236" lon="14.6577742"><ele>-2.0</ele><time>2026-04-06T13:26:59.081Z</time></trkpt><trkpt lat="53.5408574" lon="14.6576568"><ele>-2.0</ele><time>2026-04-06T13:27:00.069Z</time></trkpt><trkpt lat="53.54079" lon="14.6575429"><ele>-2.0</ele><time>2026-04-06T13:27:01.084Z</time></trkpt><trkpt lat="53.5407273" lon="14.6574322"><ele>-1.9999999999999998</ele><time>2026-04-06T13:27:02.078Z</time></trkpt><trkpt lat="53.5406706" lon="14.6573322"><ele>-2.0</ele><time>2026-04-06T13:27:03.08Z</time></trkpt><trkpt lat="53.5406255" lon="14.6572494"><ele>-2.0</ele><time>2026-04-06T13:27:04.07Z</time></trkpt><trkpt lat="53.5405487" lon="14.6571188"><ele>-2.0</ele><time>2026-04-06T13:27:06.07Z</time></trkpt><trkpt lat="53.5405046" lon="14.6570409"><ele>-1.9999999999999998</ele><time>2026-04-06T13:27:07.079Z</time></trkpt><trkpt lat="53.5404586" lon="14.6569519"><ele>-2.0</ele><time>2026-04-06T13:27:08.074Z</time></trkpt><trkpt lat="53.5404117" lon="14.656856"><ele>-2.142857142857143</ele><time>2026-04-06T13:27:09.089Z</time></trkpt><trkpt lat="53.5403639" lon="14.6567599"><ele>-2.2857142857142856</ele><time>2026-04-06T13:27:10.075Z</time></trkpt><trkpt lat="53.5403151" lon="14.6566639"><ele>-2.4285714285714284</ele><time>2026-04-06T13:27:11.078Z</time></trkpt><trkpt lat="53.5402682" lon="14.6565757"><ele>-2.571428571428571</ele><time>2026-04-06T13:27:12.075Z</time></trkpt><trkpt lat="53.5402182" lon="14.6564923"><ele>-2.7142857142857144</ele><time>2026-04-06T13:27:13.074Z</time></trkpt><trkpt lat="53.5401654" lon="14.6564071"><ele>-2.8571428571428568</ele><time>2026-04-06T13:27:14.076Z</time></trkpt><trkpt lat="53.5401127" lon="14.6563229"><ele>-3.0</ele><time>2026-04-06T13:27:15.076Z</time></trkpt><trkpt lat="53.5400588" lon="14.6562424"><ele>-3.0</ele><time>2026-04-06T13:27:16.075Z</time></trkpt><trkpt lat="53.5400073" lon="14.6561564"><ele>-3.0</ele><time>2026-04-06T13:27:17.074Z</time></trkpt><trkpt lat="53.5399531" lon="14.6560496"><ele>-3.0</ele><time>2026-04-06T13:27:18.069Z</time></trkpt><trkpt lat="53.5398984" lon="14.6559167"><ele>-3.0</ele><time>2026-04-06T13:27:19.074Z</time></trkpt><trkpt lat="53.5398531" lon="14.6557168"><ele>-3.0</ele><time>2026-04-06T13:27:20.082Z</time></trkpt><trkpt lat="53.5398209" lon="14.6554437"><ele>-3.333333333333333</ele><time>2026-04-06T13:27:21.074Z</time></trkpt><trkpt lat="53.539799" lon="14.6551431"><ele>-3.6666666666666665</ele><time>2026-04-06T13:27:22.068Z</time></trkpt><trkpt lat="53.5397839" lon="14.6548513"><ele>-4.0</ele><time>2026-04-06T13:27:23.08Z</time></trkpt><trkpt lat="53.5397732" lon="14.6546031"><ele>-3.8000000000000003</ele><time>2026-04-06T13:27:24.078Z</time></trkpt><trkpt lat="53.539766" lon="14.6543869"><ele>-3.6000000000000005</ele><time>2026-04-06T13:27:25.081Z</time></trkpt><trkpt lat="53.5397574" lon="14.6541998"><ele>-3.4</ele><time>2026-04-06T13:27:26.075Z</time></trkpt><trkpt lat="53.5397439" lon="14.6540283"><ele>-3.2</ele><time>2026-04-06T13:27:27.081Z</time></trkpt><trkpt lat="53.5397281" lon="14.6538544"><ele>-3.0</ele><time>2026-04-06T13:27:28.068Z</time></trkpt><trkpt lat="53.5397033" lon="14.653661"><ele>-3.0</ele><time>2026-04-06T13:27:29.07Z</time></trkpt><trkpt lat="53.5396685" lon="14.6534653"><ele>-3.0</ele><time>2026-04-06T13:27:30.08Z</time></trkpt><trkpt lat="53.539624" lon="14.6532794"><ele>-3.0</ele><time>2026-04-06T13:27:31.08Z</time></trkpt><trkpt lat="53.5395724" lon="14.6530982"><ele>-3.0</ele><time>2026-04-06T13:27:32.076Z</time></trkpt><trkpt lat="53.5395176" lon="14.6529244"><ele>-2.6666666666666665</ele><time>2026-04-06T13:27:33.075Z</time></trkpt><trkpt lat="53.5394642" lon="14.6527647"><ele>-2.3333333333333335</ele><time>2026-04-06T13:27:34.078Z</time></trkpt><trkpt lat="53.5394142" lon="14.6526272"><ele>-2.0</ele><time>2026-04-06T13:27:35.078Z</time></trkpt><trkpt lat="53.5393723" lon="14.6525243"><ele>-1.6666666666666665</ele><time>2026-04-06T13:27:36.072Z</time></trkpt><trkpt lat="53.5393256" lon="14.6524243"><ele>-1.3333333333333333</ele><time>2026-04-06T13:27:38.078Z</time></trkpt><trkpt lat="53.539255" lon="14.6523883"><ele>-1.0</ele><time>2026-04-06T13:30:07.067Z</time></trkpt><trkpt lat="53.5391933" lon="14.6523233"><ele>-1.0</ele><time>2026-04-06T13:30:08.069Z</time></trkpt><trkpt lat="53.5391017" lon="14.6522567"><ele>-1.0</ele><time>2026-04-06T13:30:09.075Z</time></trkpt><trkpt lat="53.538985" lon="14.652195"><ele>-1.0</ele><time>2026-04-06T13:30:10.064Z</time></trkpt><trkpt lat="53.538855" lon="14.652135"><ele>-1.0</ele><time>2026-04-06T13:30:11.084Z</time></trkpt><trkpt lat="53.5387233" lon="14.6520767"><ele>-1.25</ele><time>2026-04-06T13:30:12.059Z</time></trkpt><trkpt lat="53.5385972" lon="14.6520182"><ele>-1.5</ele><time>2026-04-06T13:30:13.072Z</time></trkpt><trkpt lat="53.5384797" lon="14.6519586"><ele>-1.75</ele><time>2026-04-06T13:30:14.072Z</time></trkpt><trkpt lat="53.5383656" lon="14.6518999"><ele>-2.0</ele><time>2026-04-06T13:30:15.072Z</time></trkpt><trkpt lat="53.5382549" lon="14.6518402"><ele>-2.2</ele><time>2026-04-06T13:30:16.07Z</time></trkpt><trkpt lat="53.538154" lon="14.6517771"><ele>-2.4000000000000004</ele><time>2026-04-06T13:30:17.075Z</time></trkpt><trkpt lat="53.5380622" lon="14.6517129"><ele>-2.5999999999999996</ele><time>2026-04-06T13:30:18.075Z</time></trkpt><trkpt lat="53.5379736" lon="14.6516429"><ele>-2.8</ele><time>2026-04-06T13:30:19.082Z</time></trkpt><trkpt lat="53.5378837" lon="14.6515664"><ele>-3.0</ele><time>2026-04-06T13:30:20.083Z</time></trkpt><trkpt lat="53.5378004" lon="14.6514813"><ele>-3.0</ele><time>2026-04-06T13:30:21.077Z</time></trkpt><trkpt lat="53.5377262" lon="14.651391"><ele>-3.0</ele><time>2026-04-06T13:30:22.076Z</time></trkpt><trkpt lat="53.537661" lon="14.651281"><ele>-3.0</ele><time>2026-04-06T13:30:23.076Z</time></trkpt><trkpt lat="53.5376021" lon="14.6511513"><ele>-3.0</ele><time>2026-04-06T13:30:24.072Z</time></trkpt><trkpt lat="53.5375486" lon="14.6510086"><ele>-3.0</ele><time>2026-04-06T13:30:25.074Z</time></trkpt><trkpt lat="53.5374971" lon="14.650859"><ele>-3.0</ele><time>2026-04-06T13:30:26.075Z</time></trkpt><trkpt lat="53.5374473" lon="14.6507001"><ele>-3.0</ele><time>2026-04-06T13:30:27.076Z</time></trkpt><trkpt lat="53.537398" lon="14.650536"><ele>-3.0</ele><time>2026-04-06T13:30:28.074Z</time></trkpt><trkpt lat="53.5373494" lon="14.6503556"><ele>-3.0</ele><time>2026-04-06T13:30:29.076Z</time></trkpt><trkpt lat="53.5373004" lon="14.6501542"><ele>-3.0</ele><time>2026-04-06T13:30:30.074Z</time></trkpt><trkpt lat="53.5372519" lon="14.6499262"><ele>-3.0</ele><time>2026-04-06T13:30:31.088Z</time></trkpt><trkpt lat="53.5372042" lon="14.6496812"><ele>-3.0</ele><time>2026-04-06T13:30:32.069Z</time></trkpt><trkpt lat="53.5371541" lon="14.6494173"><ele>-3.0</ele><time>2026-04-06T13:30:33.073Z</time></trkpt><trkpt lat="53.5370978" lon="14.649145"><ele>-3.0</ele><time>2026-04-06T13:30:34.069Z</time></trkpt><trkpt lat="53.5370379" lon="14.6488698"><ele>-3.0</ele><time>2026-04-06T13:30:35.078Z</time></trkpt><trkpt lat="53.5369786" lon="14.6486075"><ele>-2.3333333333333335</ele><time>2026-04-06T13:30:36.075Z</time></trkpt><trkpt lat="53.5369173" lon="14.6483672"><ele>-1.6666666666666665</ele><time>2026-04-06T13:30:37.075Z</time></trkpt><trkpt lat="53.5368503" lon="14.6481283"><ele>-1.0</ele><time>2026-04-06T13:30:38.077Z</time></trkpt><trkpt lat="53.5367854" lon="14.6478965"><ele>-1.0</ele><time>2026-04-06T13:30:39.069Z</time></trkpt><trkpt lat="53.536729" lon="14.6476802"><ele>-1.0</ele><time>2026-04-06T13:30:40.068Z</time></trkpt><trkpt lat="53.5366751" lon="14.6474708"><ele>-1.0</ele><time>2026-04-06T13:30:41.067Z</time></trkpt><trkpt lat="53.536628" lon="14.6472485"><ele>-1.0</ele><time>2026-04-06T13:30:42.071Z</time></trkpt><trkpt lat="53.536592" lon="14.6470089"><ele>-1.25</ele><time>2026-04-06T13:30:43.069Z</time></trkpt><trkpt lat="53.5365676" lon="14.6467604"><ele>-1.5</ele><time>2026-04-06T13:30:44.077Z</time></trkpt><trkpt lat="53.5365475" lon="14.6465115"><ele>-1.75</ele><time>2026-04-06T13:30:45.067Z</time></trkpt><trkpt lat="53.5365342" lon="14.6462644"><ele>-2.0</ele><time>2026-04-06T13:30:46.07Z</time></trkpt><trkpt lat="53.536526" lon="14.6460406"><ele>-2.0</ele><time>2026-04-06T13:30:47.07Z</time></trkpt><trkpt lat="53.5365216" lon="14.6458487"><ele>-2.0</ele><time>2026-04-06T13:30:48.074Z</time></trkpt><trkpt lat="53.5365111" lon="14.6456747"><ele>-2.0</ele><time>2026-04-06T13:30:49.064Z</time></trkpt><trkpt lat="53.5364946" lon="14.6455084"><ele>-2.0</ele><time>2026-04-06T13:30:50.07Z</time></trkpt><trkpt lat="53.5364749" lon="14.6453414"><ele>-2.0</ele><time>2026-04-06T13:30:51.077Z</time></trkpt><trkpt lat="53.5364468" lon="14.6451641"><ele>-2.0</ele><time>2026-04-06T13:30:52.072Z</time></trkpt><trkpt lat="53.5364001" lon="14.6449569"><ele>-2.0</ele><time>2026-04-06T13:30:53.073Z</time></trkpt><trkpt lat="53.5363312" lon="14.6447246"><ele>-2.0</ele><time>2026-04-06T13:30:54.069Z</time></trkpt><trkpt lat="53.5362571" lon="14.644502"><ele>-2.0</ele><time>2026-04-06T13:30:55.072Z</time></trkpt><trkpt lat="53.5362035" lon="14.6442963"><ele>-2.0</ele><time>2026-04-06T13:30:56.071Z</time></trkpt><trkpt lat="53.5361693" lon="14.6440762"><ele>-2.0</ele><time>2026-04-06T13:30:57.072Z</time></trkpt><trkpt lat="53.5361466" lon="14.6438209"><ele>-2.0</ele><time>2026-04-06T13:30:58.071Z</time></trkpt><trkpt lat="53.5361297" lon="14.6435352"><ele>-2.333333333333333</ele><time>2026-04-06T13:30:59.072Z</time></trkpt><trkpt lat="53.536108" lon="14.6432311"><ele>-2.6666666666666665</ele><time>2026-04-06T13:31:00.08Z</time></trkpt><trkpt lat="53.5360641" lon="14.6428954"><ele>-3.0</ele><time>2026-04-06T13:31:01.076Z</time></trkpt><trkpt lat="53.5360072" lon="14.642557"><ele>-3.0</ele><time>2026-04-06T13:31:02.079Z</time></trkpt><trkpt lat="53.5359519" lon="14.6422414"><ele>-3.0</ele><time>2026-04-06T13:31:03.087Z</time></trkpt><trkpt lat="53.5359031" lon="14.6419632"><ele>-3.0</ele><time>2026-04-06T13:31:04.075Z</time></trkpt><trkpt lat="53.5358595" lon="14.6417023"><ele>-2.6666666666666665</ele><time>2026-04-06T13:31:05.076Z</time></trkpt><trkpt lat="53.5358131" lon="14.6414311"><ele>-2.333333333333333</ele><time>2026-04-06T13:31:06.079Z</time></trkpt><trkpt lat="53.5357643" lon="14.6411481"><ele>-2.0</ele><time>2026-04-06T13:31:07.082Z</time></trkpt><trkpt lat="53.5357203" lon="14.6408608"><ele>-2.0</ele><time>2026-04-06T13:31:08.08Z</time></trkpt><trkpt lat="53.5356783" lon="14.6405677"><ele>-2.0</ele><time>2026-04-06T13:31:09.076Z</time></trkpt><trkpt lat="53.5356378" lon="14.6402823"><ele>-2.0</ele><time>2026-04-06T13:31:10.073Z</time></trkpt><trkpt lat="53.5356003" lon="14.6400174"><ele>-2.25</ele><time>2026-04-06T13:31:11.083Z</time></trkpt><trkpt lat="53.5355636" lon="14.6397761"><ele>-2.5</ele><time>2026-04-06T13:31:12.08Z</time></trkpt><trkpt lat="53.5355328" lon="14.6395665"><ele>-2.75</ele><time>2026-04-06T13:31:13.079Z</time></trkpt><trkpt lat="53.5355014" lon="14.6393832"><ele>-3.0</ele><time>2026-04-06T13:31:14.074Z</time></trkpt><trkpt lat="53.5354682" lon="14.6392199"><ele>-3.0</ele><time>2026-04-06T13:31:15.074Z</time></trkpt><trkpt lat="53.5354345" lon="14.6390776"><ele>-3.0</ele><time>2026-04-06T13:31:16.083Z</time></trkpt><trkpt lat="53.5354013" lon="14.6389511"><ele>-3.0</ele><time>2026-04-06T13:31:17.075Z</time></trkpt><trkpt lat="53.5353681" lon="14.6388464"><ele>-3.0</ele><time>2026-04-06T13:31:18.079Z</time></trkpt><trkpt lat="53.5353039" lon="14.6386794"><ele>-3.0</ele><time>2026-04-06T13:31:20.072Z</time></trkpt><trkpt lat="53.5352356" lon="14.6385048"><ele>-3.0</ele><time>2026-04-06T13:31:22.073Z</time></trkpt><trkpt lat="53.535171" lon="14.6383585"><ele>-3.0</ele><time>2026-04-06T13:31:24.077Z</time></trkpt><trkpt lat="53.5351432" lon="14.6382586"><ele>-3.0</ele><time>2026-04-06T13:31:26.075Z</time></trkpt><trkpt lat="53.535104" lon="14.6381482"><ele>-3.0</ele><time>2026-04-06T13:31:29.072Z</time></trkpt><trkpt lat="53.5350392" lon="14.6379769"><ele>-3.0</ele><time>2026-04-06T13:31:31.081Z</time></trkpt><trkpt lat="53.534995" lon="14.6378535"><ele>-3.0</ele><time>2026-04-06T13:31:32.082Z</time></trkpt><trkpt lat="53.5349416" lon="14.6377125"><ele>-3.0</ele><time>2026-04-06T13:31:33.076Z</time></trkpt><trkpt lat="53.534888" lon="14.6375693"><ele>-3.0</ele><time>2026-04-06T13:31:34.08Z</time></trkpt><trkpt lat="53.5348367" lon="14.6374271"><ele>-3.0</ele><time>2026-04-06T13:31:35.08Z</time></trkpt><trkpt lat="53.5347873" lon="14.6372979"><ele>-3.0</ele><time>2026-04-06T13:31:36.082Z</time></trkpt><trkpt lat="53.5347422" lon="14.6371819"><ele>-3.0</ele><time>2026-04-06T13:31:37.081Z</time></trkpt><trkpt lat="53.5346977" lon="14.637062"><ele>-3.0</ele><time>2026-04-06T13:31:38.083Z</time></trkpt><trkpt lat="53.5346568" lon="14.6369454"><ele>-3.0</ele><time>2026-04-06T13:31:39.084Z</time></trkpt><trkpt lat="53.5346218" lon="14.6368416"><ele>-3.0</ele><time>2026-04-06T13:31:40.095Z</time></trkpt><trkpt lat="53.53459" lon="14.6367485"><ele>-3.0</ele><time>2026-04-06T13:31:41.089Z</time></trkpt><trkpt lat="53.5345458" lon="14.63657"><ele>-3.0</ele><time>2026-04-06T13:31:43.098Z</time></trkpt><trkpt lat="53.534539" lon="14.636416"><ele>-2.6666666666666665</ele><time>2026-04-06T13:31:45.083Z</time></trkpt><trkpt lat="53.5345378" lon="14.6363073"><ele>-2.3333333333333335</ele><time>2026-04-06T13:31:48.081Z</time></trkpt><trkpt lat="53.5345467" lon="14.6361833"><ele>-2.0</ele><time>2026-04-06T13:32:30.073Z</time></trkpt><trkpt lat="53.5345533" lon="14.6360717"><ele>-1.6666666666666665</ele><time>2026-04-06T13:32:33.077Z</time></trkpt><trkpt lat="53.53448" lon="14.6359717"><ele>-1.3333333333333333</ele><time>2026-04-06T13:33:34.08Z</time></trkpt><trkpt lat="53.5344717" lon="14.6361767"><ele>-1.0</ele><time>2026-04-06T13:48:09.068Z</time></trkpt><trkpt lat="53.5344883" lon="14.6363317"><ele>-1.0</ele><time>2026-04-06T13:48:11.068Z</time></trkpt><trkpt lat="53.5345083" lon="14.6365333"><ele>-1.0</ele><time>2026-04-06T13:48:13.094Z</time></trkpt><trkpt lat="53.5345283" lon="14.6366517"><ele>-1.0</ele><time>2026-04-06T13:48:14.076Z</time></trkpt><trkpt lat="53.5345633" lon="14.6367767"><ele>-1.0</ele><time>2026-04-06T13:48:15.084Z</time></trkpt><trkpt lat="53.53461" lon="14.6369183"><ele>-1.0</ele><time>2026-04-06T13:48:16.093Z</time></trkpt><trkpt lat="53.5346667" lon="14.63707"><ele>-1.4</ele><time>2026-04-06T13:48:17.079Z</time></trkpt><trkpt lat="53.5347283" lon="14.6372283"><ele>-1.8</ele><time>2026-04-06T13:48:18.065Z</time></trkpt><trkpt lat="53.5347917" lon="14.6373867"><ele>-2.1999999999999997</ele><time>2026-04-06T13:48:19.094Z</time></trkpt><trkpt lat="53.5348517" lon="14.6375417"><ele>-2.6</ele><time>2026-04-06T13:48:20.068Z</time></trkpt><trkpt lat="53.5349083" lon="14.6376867"><ele>-3.0</ele><time>2026-04-06T13:48:21.074Z</time></trkpt><trkpt lat="53.5349633" lon="14.637825"><ele>-3.0</ele><time>2026-04-06T13:48:22.086Z</time></trkpt><trkpt lat="53.5350167" lon="14.6379575"><ele>-3.0</ele><time>2026-04-06T13:48:23.071Z</time></trkpt><trkpt lat="53.53507" lon="14.6380929"><ele>-3.0</ele><time>2026-04-06T13:48:24.083Z</time></trkpt><trkpt lat="53.5351201" lon="14.6382267"><ele>-3.0</ele><time>2026-04-06T13:48:25.078Z</time></trkpt><trkpt lat="53.5351693" lon="14.6383613"><ele>-3.0</ele><time>2026-04-06T13:48:26.09Z</time></trkpt><trkpt lat="53.5352172" lon="14.6384979"><ele>-3.0</ele><time>2026-04-06T13:48:27.078Z</time></trkpt><trkpt lat="53.5352672" lon="14.6386408"><ele>-3.0</ele><time>2026-04-06T13:48:28.069Z</time></trkpt><trkpt lat="53.535319" lon="14.6387909"><ele>-3.0</ele><time>2026-04-06T13:48:29.077Z</time></trkpt><trkpt lat="53.5353687" lon="14.6389479"><ele>-3.0</ele><time>2026-04-06T13:48:30.07Z</time></trkpt><trkpt lat="53.5354177" lon="14.6391124"><ele>-3.0</ele><time>2026-04-06T13:48:31.083Z</time></trkpt><trkpt lat="53.5354603" lon="14.6392773"><ele>-3.0</ele><time>2026-04-06T13:48:32.075Z</time></trkpt><trkpt lat="53.5354938" lon="14.6394465"><ele>-3.0</ele><time>2026-04-06T13:48:33.065Z</time></trkpt><trkpt lat="53.5355246" lon="14.6396205"><ele>-3.0</ele><time>2026-04-06T13:48:34.063Z</time></trkpt><trkpt lat="53.5355539" lon="14.6397962"><ele>-3.0</ele><time>2026-04-06T13:48:35.095Z</time></trkpt><trkpt lat="53.5355792" lon="14.6399678"><ele>-3.0</ele><time>2026-04-06T13:48:36.073Z</time></trkpt><trkpt lat="53.5356027" lon="14.6401386"><ele>-2.75</ele><time>2026-04-06T13:48:37.082Z</time></trkpt><trkpt lat="53.5356283" lon="14.6403129"><ele>-2.5</ele><time>2026-04-06T13:48:38.079Z</time></trkpt><trkpt lat="53.5356572" lon="14.6404955"><ele>-2.25</ele><time>2026-04-06T13:48:39.083Z</time></trkpt><trkpt lat="53.5356873" lon="14.6406856"><ele>-2.0</ele><time>2026-04-06T13:48:40.081Z</time></trkpt><trkpt lat="53.5357179" lon="14.6408772"><ele>-2.0</ele><time>2026-04-06T13:48:41.074Z</time></trkpt><trkpt lat="53.5357481" lon="14.6410777"><ele>-2.0</ele><time>2026-04-06T13:48:42.089Z</time></trkpt><trkpt lat="53.5357786" lon="14.6412793"><ele>-2.0</ele><time>2026-04-06T13:48:43.078Z</time></trkpt><trkpt lat="53.535809" lon="14.6414805"><ele>-2.0</ele><time>2026-04-06T13:48:44.075Z</time></trkpt><trkpt lat="53.5358394" lon="14.6416685"><ele>-2.0</ele><time>2026-04-06T13:48:45.081Z</time></trkpt><trkpt lat="53.5358668" lon="14.6418428"><ele>-2.0</ele><time>2026-04-06T13:48:46.076Z</time></trkpt><trkpt lat="53.5358947" lon="14.642018"><ele>-2.0</ele><time>2026-04-06T13:48:47.089Z</time></trkpt><trkpt lat="53.5359248" lon="14.6421984"><ele>-2.0</ele><time>2026-04-06T13:48:48.073Z</time></trkpt><trkpt lat="53.5359551" lon="14.6423905"><ele>-2.0</ele><time>2026-04-06T13:48:49.078Z</time></trkpt><trkpt lat="53.5359864" lon="14.6425832"><ele>-2.2</ele><time>2026-04-06T13:48:50.078Z</time></trkpt><trkpt lat="53.5360152" lon="14.642776"><ele>-2.4000000000000004</ele><time>2026-04-06T13:48:51.102Z</time></trkpt><trkpt lat="53.5360425" lon="14.6429608"><ele>-2.5999999999999996</ele><time>2026-04-06T13:48:52.073Z</time></trkpt><trkpt lat="53.5360693" lon="14.6431388"><ele>-2.8</ele><time>2026-04-06T13:48:53.082Z</time></trkpt><trkpt lat="53.536092" lon="14.6433113"><ele>-3.0</ele><time>2026-04-06T13:48:54.078Z</time></trkpt><trkpt lat="53.5361109" lon="14.6434938"><ele>-2.75</ele><time>2026-04-06T13:48:55.08Z</time></trkpt><trkpt lat="53.5361243" lon="14.6436839"><ele>-2.5</ele><time>2026-04-06T13:48:56.072Z</time></trkpt><trkpt lat="53.536138" lon="14.6438867"><ele>-2.25</ele><time>2026-04-06T13:48:57.103Z</time></trkpt><trkpt lat="53.5361575" lon="14.6440833"><ele>-2.0</ele><time>2026-04-06T13:48:58.067Z</time></trkpt><trkpt lat="53.5361858" lon="14.644284"><ele>-2.0</ele><time>2026-04-06T13:48:59.074Z</time></trkpt><trkpt lat="53.5362269" lon="14.644483"><ele>-2.0</ele><time>2026-04-06T13:49:00.07Z</time></trkpt><trkpt lat="53.536285" lon="14.6446725"><ele>-2.0</ele><time>2026-04-06T13:49:01.09Z</time></trkpt><trkpt lat="53.5363453" lon="14.6448485"><ele>-2.0</ele><time>2026-04-06T13:49:02.073Z</time></trkpt><trkpt lat="53.5364034" lon="14.645019"><ele>-2.0</ele><time>2026-04-06T13:49:03.082Z</time></trkpt><trkpt lat="53.5364554" lon="14.6452012"><ele>-2.0</ele><time>2026-04-06T13:49:04.075Z</time></trkpt><trkpt lat="53.5364875" lon="14.6453752"><ele>-2.0</ele><time>2026-04-06T13:49:05.091Z</time></trkpt><trkpt lat="53.5365085" lon="14.6455451"><ele>-2.0</ele><time>2026-04-06T13:49:06.076Z</time></trkpt><trkpt lat="53.5365253" lon="14.6457119"><ele>-2.0</ele><time>2026-04-06T13:49:07.078Z</time></trkpt><trkpt lat="53.5365396" lon="14.6458806"><ele>-2.0</ele><time>2026-04-06T13:49:08.075Z</time></trkpt><trkpt lat="53.5365438" lon="14.6460457"><ele>-2.0</ele><time>2026-04-06T13:49:09.099Z</time></trkpt><trkpt lat="53.536543" lon="14.6462162"><ele>-2.0</ele><time>2026-04-06T13:49:10.079Z</time></trkpt><trkpt lat="53.5365462" lon="14.6464019"><ele>-2.0</ele><time>2026-04-06T13:49:11.075Z</time></trkpt><trkpt lat="53.5365542" lon="14.6466017"><ele>-2.0</ele><time>2026-04-06T13:49:12.07Z</time></trkpt><trkpt lat="53.5365719" lon="14.6468202"><ele>-1.75</ele><time>2026-04-06T13:49:13.097Z</time></trkpt><trkpt lat="53.5365975" lon="14.6470341"><ele>-1.5</ele><time>2026-04-06T13:49:14.075Z</time></trkpt><trkpt lat="53.5366257" lon="14.64725"><ele>-1.25</ele><time>2026-04-06T13:49:15.075Z</time></trkpt><trkpt lat="53.53666" lon="14.6474597"><ele>-1.0</ele><time>2026-04-06T13:49:16.075Z</time></trkpt><trkpt lat="53.5367049" lon="14.6476612"><ele>-1.0</ele><time>2026-04-06T13:49:17.094Z</time></trkpt><trkpt lat="53.5367527" lon="14.6478472"><ele>-1.0</ele><time>2026-04-06T13:49:18.071Z</time></trkpt><trkpt lat="53.536801" lon="14.6480277"><ele>-1.0</ele><time>2026-04-06T13:49:19.07Z</time></trkpt><trkpt lat="53.5368524" lon="14.6482102"><ele>-1.0</ele><time>2026-04-06T13:49:20.072Z</time></trkpt><trkpt lat="53.5369032" lon="14.6483983"><ele>-1.0</ele><time>2026-04-06T13:49:21.087Z</time></trkpt><trkpt lat="53.5369508" lon="14.6485905"><ele>-1.0</ele><time>2026-04-06T13:49:22.068Z</time></trkpt><trkpt lat="53.5369961" lon="14.6487855"><ele>-1.0</ele><time>2026-04-06T13:49:23.076Z</time></trkpt><trkpt lat="53.5370367" lon="14.648973"><ele>-1.0</ele><time>2026-04-06T13:49:24.068Z</time></trkpt><trkpt lat="53.5370742" lon="14.6491688"><ele>-1.25</ele><time>2026-04-06T13:49:25.098Z</time></trkpt><trkpt lat="53.5371118" lon="14.6493636"><ele>-1.5</ele><time>2026-04-06T13:49:26.072Z</time></trkpt><trkpt lat="53.5371511" lon="14.6495654"><ele>-1.75</ele><time>2026-04-06T13:49:27.085Z</time></trkpt><trkpt lat="53.5371926" lon="14.6497596"><ele>-2.0</ele><time>2026-04-06T13:49:28.062Z</time></trkpt><trkpt lat="53.5372369" lon="14.6499553"><ele>-2.0</ele><time>2026-04-06T13:49:29.096Z</time></trkpt><trkpt lat="53.5372779" lon="14.6501467"><ele>-2.0</ele><time>2026-04-06T13:49:30.077Z</time></trkpt><trkpt lat="53.5373229" lon="14.6503365"><ele>-2.0</ele><time>2026-04-06T13:49:31.075Z</time></trkpt><trkpt lat="53.5373713" lon="14.6505228"><ele>-2.0</ele><time>2026-04-06T13:49:32.076Z</time></trkpt><trkpt lat="53.5374263" lon="14.6507181"><ele>-2.25</ele><time>2026-04-06T13:49:33.095Z</time></trkpt><trkpt lat="53.5374889" lon="14.6509115"><ele>-2.5</ele><time>2026-04-06T13:49:34.077Z</time></trkpt><trkpt lat="53.5375621" lon="14.6511035"><ele>-2.75</ele><time>2026-04-06T13:49:35.082Z</time></trkpt><trkpt lat="53.5376353" lon="14.6512775"><ele>-3.0</ele><time>2026-04-06T13:49:36.076Z</time></trkpt><trkpt lat="53.5377134" lon="14.6514261"><ele>-3.0</ele><time>2026-04-06T13:49:37.089Z</time></trkpt><trkpt lat="53.5378005" lon="14.6515449"><ele>-3.0</ele><time>2026-04-06T13:49:38.071Z</time></trkpt><trkpt lat="53.5379029" lon="14.6516496"><ele>-3.0</ele><time>2026-04-06T13:49:39.074Z</time></trkpt><trkpt lat="53.5380237" lon="14.651743"><ele>-3.0</ele><time>2026-04-06T13:49:40.094Z</time></trkpt><trkpt lat="53.5381524" lon="14.6518305"><ele>-3.0</ele><time>2026-04-06T13:49:41.08Z</time></trkpt><trkpt lat="53.5382821" lon="14.6519131"><ele>-3.0</ele><time>2026-04-06T13:49:42.072Z</time></trkpt><trkpt lat="53.5384114" lon="14.6519834"><ele>-3.0</ele><time>2026-04-06T13:49:43.101Z</time></trkpt><trkpt lat="53.5385338" lon="14.6520407"><ele>-3.0</ele><time>2026-04-06T13:49:44.071Z</time></trkpt><trkpt lat="53.538657" lon="14.6520932"><ele>-2.5</ele><time>2026-04-06T13:49:45.085Z</time></trkpt><trkpt lat="53.5387733" lon="14.6521388"><ele>-2.0</ele><time>2026-04-06T13:49:46.072Z</time></trkpt><trkpt lat="53.5388907" lon="14.6521921"><ele>-1.5</ele><time>2026-04-06T13:49:47.094Z</time></trkpt><trkpt lat="53.5390071" lon="14.6522513"><ele>-1.0</ele><time>2026-04-06T13:49:48.065Z</time></trkpt><trkpt lat="53.539121" lon="14.6523203"><ele>-1.0</ele><time>2026-04-06T13:49:49.089Z</time></trkpt><trkpt lat="53.5392239" lon="14.6524085"><ele>-1.0</ele><time>2026-04-06T13:49:50.072Z</time></trkpt><trkpt lat="53.5393231" lon="14.6525242"><ele>-1.0</ele><time>2026-04-06T13:49:51.1Z</time></trkpt><trkpt lat="53.5394073" lon="14.6526663"><ele>-1.0</ele><time>2026-04-06T13:49:52.082Z</time></trkpt><trkpt lat="53.5394788" lon="14.6528377"><ele>-1.25</ele><time>2026-04-06T13:49:53.083Z</time></trkpt><trkpt lat="53.5395418" lon="14.6530254"><ele>-1.5</ele><time>2026-04-06T13:49:54.076Z</time></trkpt><trkpt lat="53.5396026" lon="14.6532296"><ele>-1.75</ele><time>2026-04-06T13:49:55.095Z</time></trkpt><trkpt lat="53.5396535" lon="14.6534452"><ele>-2.0</ele><time>2026-04-06T13:49:56.08Z</time></trkpt><trkpt lat="53.5396995" lon="14.6536684"><ele>-2.25</ele><time>2026-04-06T13:49:57.079Z</time></trkpt><trkpt lat="53.5397378" lon="14.6538951"><ele>-2.5</ele><time>2026-04-06T13:49:58.095Z</time></trkpt><trkpt lat="53.5397555" lon="14.6541258"><ele>-2.75</ele><time>2026-04-06T13:49:59.073Z</time></trkpt><trkpt lat="53.5397662" lon="14.6543637"><ele>-3.0</ele><time>2026-04-06T13:50:00.076Z</time></trkpt><trkpt lat="53.5397816" lon="14.6545941"><ele>-3.25</ele><time>2026-04-06T13:50:01.092Z</time></trkpt><trkpt lat="53.5397975" lon="14.6548"><ele>-3.5</ele><time>2026-04-06T13:50:02.08Z</time></trkpt><trkpt lat="53.5398107" lon="14.654991"><ele>-3.75</ele><time>2026-04-06T13:50:03.063Z</time></trkpt><trkpt lat="53.5398249" lon="14.655175"><ele>-4.0</ele><time>2026-04-06T13:50:04.086Z</time></trkpt><trkpt lat="53.5398376" lon="14.6553465"><ele>-4.0</ele><time>2026-04-06T13:50:05.074Z</time></trkpt><trkpt lat="53.5398462" lon="14.6555203"><ele>-4.0</ele><time>2026-04-06T13:50:06.07Z</time></trkpt><trkpt lat="53.5398582" lon="14.6556957"><ele>-4.0</ele><time>2026-04-06T13:50:07.11Z</time></trkpt><trkpt lat="53.5398746" lon="14.6558602"><ele>-4.0</ele><time>2026-04-06T13:50:08.07Z</time></trkpt><trkpt lat="53.5399023" lon="14.6560201"><ele>-4.0</ele><time>2026-04-06T13:50:09.072Z</time></trkpt><trkpt lat="53.5399486" lon="14.6561691"><ele>-3.75</ele><time>2026-04-06T13:50:10.069Z</time></trkpt><trkpt lat="53.540019" lon="14.6563191"><ele>-3.5</ele><time>2026-04-06T13:50:11.082Z</time></trkpt><trkpt lat="53.5401067" lon="14.6564642"><ele>-3.25</ele><time>2026-04-06T13:50:12.075Z</time></trkpt><trkpt lat="53.5401996" lon="14.6566049"><ele>-3.0</ele><time>2026-04-06T13:50:13.096Z</time></trkpt><trkpt lat="53.5402822" lon="14.6567349"><ele>-3.0</ele><time>2026-04-06T13:50:14.066Z</time></trkpt><trkpt lat="53.5403553" lon="14.6568637"><ele>-3.0</ele><time>2026-04-06T13:50:15.081Z</time></trkpt><trkpt lat="53.5404239" lon="14.6569877"><ele>-3.0</ele><time>2026-04-06T13:50:16.076Z</time></trkpt><trkpt lat="53.5404997" lon="14.6571179"><ele>-3.0</ele><time>2026-04-06T13:50:17.089Z</time></trkpt><trkpt lat="53.5405784" lon="14.6572501"><ele>-3.0</ele><time>2026-04-06T13:50:18.077Z</time></trkpt><trkpt lat="53.5406534" lon="14.657377"><ele>-2.8333333333333335</ele><time>2026-04-06T13:50:19.082Z</time></trkpt><trkpt lat="53.5407189" lon="14.6574892"><ele>-2.6666666666666665</ele><time>2026-04-06T13:50:20.076Z</time></trkpt><trkpt lat="53.5407793" lon="14.6575969"><ele>-2.5</ele><time>2026-04-06T13:50:21.096Z</time></trkpt><trkpt lat="53.5408358" lon="14.6576995"><ele>-2.333333333333333</ele><time>2026-04-06T13:50:22.066Z</time></trkpt><trkpt lat="53.5408951" lon="14.6578049"><ele>-2.1666666666666665</ele><time>2026-04-06T13:50:23.073Z</time></trkpt><trkpt lat="53.5409532" lon="14.6579142"><ele>-2.0</ele><time>2026-04-06T13:50:24.064Z</time></trkpt><trkpt lat="53.5410108" lon="14.6580244"><ele>-2.0</ele><time>2026-04-06T13:50:25.104Z</time></trkpt><trkpt lat="53.541063" lon="14.6581374"><ele>-2.0</ele><time>2026-04-06T13:50:26.068Z</time></trkpt><trkpt lat="53.5411164" lon="14.6582677"><ele>-2.0</ele><time>2026-04-06T13:50:27.073Z</time></trkpt><trkpt lat="53.5411725" lon="14.6584058"><ele>-2.0</ele><time>2026-04-06T13:50:28.067Z</time></trkpt><trkpt lat="53.541235" lon="14.6585501"><ele>-2.0</ele><time>2026-04-06T13:50:29.069Z</time></trkpt><trkpt lat="53.5412965" lon="14.6586953"><ele>-2.0</ele><time>2026-04-06T13:50:30.074Z</time></trkpt><trkpt lat="53.5413597" lon="14.6588395"><ele>-2.0</ele><time>2026-04-06T13:50:31.089Z</time></trkpt><trkpt lat="53.541428" lon="14.6589871"><ele>-2.0</ele><time>2026-04-06T13:50:32.07Z</time></trkpt><trkpt lat="53.5415033" lon="14.6591463"><ele>-2.0</ele><time>2026-04-06T13:50:33.073Z</time></trkpt><trkpt lat="53.5415876" lon="14.6593227"><ele>-2.0</ele><time>2026-04-06T13:50:34.073Z</time></trkpt><trkpt lat="53.5416833" lon="14.6595214"><ele>-2.0</ele><time>2026-04-06T13:50:35.098Z</time></trkpt><trkpt lat="53.5417762" lon="14.6597092"><ele>-2.0</ele><time>2026-04-06T13:50:36.072Z</time></trkpt><trkpt lat="53.541863" lon="14.6598853"><ele>-2.0</ele><time>2026-04-06T13:50:37.07Z</time></trkpt><trkpt lat="53.5419439" lon="14.6600471"><ele>-2.0</ele><time>2026-04-06T13:50:38.087Z</time></trkpt><trkpt lat="53.542016" lon="14.6602028"><ele>-2.0</ele><time>2026-04-06T13:50:39.074Z</time></trkpt><trkpt lat="53.5420902" lon="14.6603553"><ele>-2.0</ele><time>2026-04-06T13:50:40.06Z</time></trkpt><trkpt lat="53.5421724" lon="14.6605165"><ele>-2.0</ele><time>2026-04-06T13:50:41.089Z</time></trkpt><trkpt lat="53.5422539" lon="14.6606719"><ele>-2.0</ele><time>2026-04-06T13:50:42.069Z</time></trkpt><trkpt lat="53.5423343" lon="14.6608259"><ele>-2.0</ele><time>2026-04-06T13:50:43.072Z</time></trkpt><trkpt lat="53.542412" lon="14.660975"><ele>-2.0</ele><time>2026-04-06T13:50:44.075Z</time></trkpt><trkpt lat="53.5424882" lon="14.6611259"><ele>-2.0</ele><time>2026-04-06T13:50:45.092Z</time></trkpt><trkpt lat="53.542568" lon="14.6612796"><ele>-2.0</ele><time>2026-04-06T13:50:46.071Z</time></trkpt><trkpt lat="53.5426479" lon="14.6614401"><ele>-2.0</ele><time>2026-04-06T13:50:47.074Z</time></trkpt><trkpt lat="53.5427286" lon="14.6615961"><ele>-2.0</ele><time>2026-04-06T13:50:48.073Z</time></trkpt><trkpt lat="53.5428078" lon="14.6617528"><ele>-2.0</ele><time>2026-04-06T13:50:49.079Z</time></trkpt><trkpt lat="53.5428875" lon="14.6619053"><ele>-2.2</ele><time>2026-04-06T13:50:50.065Z</time></trkpt><trkpt lat="53.5429658" lon="14.6620481"><ele>-2.4000000000000004</ele><time>2026-04-06T13:50:51.104Z</time></trkpt><trkpt lat="53.5430381" lon="14.6621815"><ele>-2.5999999999999996</ele><time>2026-04-06T13:50:52.067Z</time></trkpt><trkpt lat="53.5431089" lon="14.6623129"><ele>-2.8</ele><time>2026-04-06T13:50:53.073Z</time></trkpt><trkpt lat="53.5431812" lon="14.6624461"><ele>-3.0</ele><time>2026-04-06T13:50:54.075Z</time></trkpt><trkpt lat="53.5432546" lon="14.6625824"><ele>-3.0</ele><time>2026-04-06T13:50:55.077Z</time></trkpt><trkpt lat="53.5433279" lon="14.6627227"><ele>-3.0</ele><time>2026-04-06T13:50:56.062Z</time></trkpt><trkpt lat="53.5434036" lon="14.6628721"><ele>-3.0</ele><time>2026-04-06T13:50:57.087Z</time></trkpt><trkpt lat="53.5434773" lon="14.6630157"><ele>-3.0</ele><time>2026-04-06T13:50:58.068Z</time></trkpt><trkpt lat="53.5435517" lon="14.6631619"><ele>-2.75</ele><time>2026-04-06T13:50:59.07Z</time></trkpt><trkpt lat="53.5436297" lon="14.66331"><ele>-2.5</ele><time>2026-04-06T13:51:00.072Z</time></trkpt><trkpt lat="53.5437096" lon="14.6634538"><ele>-2.25</ele><time>2026-04-06T13:51:01.104Z</time></trkpt><trkpt lat="53.5437863" lon="14.6635847"><ele>-2.0</ele><time>2026-04-06T13:51:02.065Z</time></trkpt><trkpt lat="53.5438625" lon="14.6637216"><ele>-2.0</ele><time>2026-04-06T13:51:03.074Z</time></trkpt><trkpt lat="53.5439314" lon="14.6638628"><ele>-2.0</ele><time>2026-04-06T13:51:04.064Z</time></trkpt><trkpt lat="53.5439918" lon="14.6640302"><ele>-2.0</ele><time>2026-04-06T13:51:05.088Z</time></trkpt><trkpt lat="53.5440376" lon="14.664236"><ele>-2.0</ele><time>2026-04-06T13:51:06.077Z</time></trkpt><trkpt lat="53.5440666" lon="14.6644605"><ele>-2.0</ele><time>2026-04-06T13:51:07.077Z</time></trkpt><trkpt lat="53.544093" lon="14.6646724"><ele>-2.0</ele><time>2026-04-06T13:51:08.068Z</time></trkpt><trkpt lat="53.5441218" lon="14.6648649"><ele>-2.0</ele><time>2026-04-06T13:51:09.092Z</time></trkpt><trkpt lat="53.5441525" lon="14.6650484"><ele>-2.0</ele><time>2026-04-06T13:51:10.073Z</time></trkpt><trkpt lat="53.5441872" lon="14.6652377"><ele>-2.0</ele><time>2026-04-06T13:51:11.075Z</time></trkpt><trkpt lat="53.5442255" lon="14.6654298"><ele>-2.0</ele><time>2026-04-06T13:51:12.074Z</time></trkpt><trkpt lat="53.5442667" lon="14.6656222"><ele>-2.0</ele><time>2026-04-06T13:51:13.097Z</time></trkpt><trkpt lat="53.5443056" lon="14.6657947"><ele>-2.0</ele><time>2026-04-06T13:51:14.069Z</time></trkpt><trkpt lat="53.5443449" lon="14.6659576"><ele>-2.0</ele><time>2026-04-06T13:51:15.08Z</time></trkpt><trkpt lat="53.5443918" lon="14.666107"><ele>-2.0</ele><time>2026-04-06T13:51:16.075Z</time></trkpt><trkpt lat="53.5444562" lon="14.6662628"><ele>-2.0</ele><time>2026-04-06T13:51:17.093Z</time></trkpt><trkpt lat="53.5445388" lon="14.6664272"><ele>-2.0</ele><time>2026-04-06T13:51:18.074Z</time></trkpt><trkpt lat="53.5446354" lon="14.6666"><ele>-2.25</ele><time>2026-04-06T13:51:19.079Z</time></trkpt><trkpt lat="53.5447362" lon="14.6667733"><ele>-2.5</ele><time>2026-04-06T13:51:20.077Z</time></trkpt><trkpt lat="53.5448334" lon="14.6669401"><ele>-2.75</ele><time>2026-04-06T13:51:21.102Z</time></trkpt><trkpt lat="53.5449228" lon="14.6670901"><ele>-3.0</ele><time>2026-04-06T13:51:22.071Z</time></trkpt><trkpt lat="53.5450105" lon="14.6672514"><ele>-3.0</ele><time>2026-04-06T13:51:23.074Z</time></trkpt><trkpt lat="53.5450862" lon="14.6674329"><ele>-3.0</ele><time>2026-04-06T13:51:24.067Z</time></trkpt><trkpt lat="53.545158" lon="14.6676333"><ele>-3.0</ele><time>2026-04-06T13:51:25.097Z</time></trkpt><trkpt lat="53.5452308" lon="14.667834"><ele>-3.0</ele><time>2026-04-06T13:51:26.068Z</time></trkpt><trkpt lat="53.5453041" lon="14.6680401"><ele>-3.0</ele><time>2026-04-06T13:51:27.086Z</time></trkpt><trkpt lat="53.5453781" lon="14.6682515"><ele>-3.0</ele><time>2026-04-06T13:51:28.065Z</time></trkpt><trkpt lat="53.5454524" lon="14.6684659"><ele>-3.0</ele><time>2026-04-06T13:51:29.083Z</time></trkpt><trkpt lat="53.545527" lon="14.6686836"><ele>-3.0</ele><time>2026-04-06T13:51:30.071Z</time></trkpt><trkpt lat="53.5456025" lon="14.6689091"><ele>-3.0</ele><time>2026-04-06T13:51:31.083Z</time></trkpt><trkpt lat="53.5456791" lon="14.669127"><ele>-3.0</ele><time>2026-04-06T13:51:32.077Z</time></trkpt><trkpt lat="53.5457536" lon="14.6693319"><ele>-3.0</ele><time>2026-04-06T13:51:33.097Z</time></trkpt><trkpt lat="53.5458212" lon="14.6695203"><ele>-3.0</ele><time>2026-04-06T13:51:34.073Z</time></trkpt><trkpt lat="53.5458874" lon="14.6697017"><ele>-3.0</ele><time>2026-04-06T13:51:35.071Z</time></trkpt><trkpt lat="53.5459584" lon="14.6698813"><ele>-3.0</ele><time>2026-04-06T13:51:36.068Z</time></trkpt><trkpt lat="53.5460331" lon="14.6700663"><ele>-3.0</ele><time>2026-04-06T13:51:37.072Z</time></trkpt><trkpt lat="53.546115" lon="14.6702515"><ele>-3.0</ele><time>2026-04-06T13:51:38.085Z</time></trkpt><trkpt lat="53.546202" lon="14.6704258"><ele>-2.75</ele><time>2026-04-06T13:51:39.079Z</time></trkpt><trkpt lat="53.5462965" lon="14.6705916"><ele>-2.5</ele><time>2026-04-06T13:51:40.085Z</time></trkpt><trkpt lat="53.5464023" lon="14.6707423"><ele>-2.25</ele><time>2026-04-06T13:51:41.078Z</time></trkpt><trkpt lat="53.5465201" lon="14.6708841"><ele>-2.0</ele><time>2026-04-06T13:51:42.092Z</time></trkpt><trkpt lat="53.5466435" lon="14.6710168"><ele>-2.0</ele><time>2026-04-06T13:51:43.087Z</time></trkpt><trkpt lat="53.5467685" lon="14.6711403"><ele>-2.0</ele><time>2026-04-06T13:51:44.078Z</time></trkpt><trkpt lat="53.5468932" lon="14.6712483"><ele>-2.0</ele><time>2026-04-06T13:51:45.08Z</time></trkpt><trkpt lat="53.5470167" lon="14.6713311"><ele>-2.0</ele><time>2026-04-06T13:51:46.072Z</time></trkpt><trkpt lat="53.5471452" lon="14.6713949"><ele>-2.0</ele><time>2026-04-06T13:51:47.083Z</time></trkpt><trkpt lat="53.5472805" lon="14.6714448"><ele>-2.0</ele><time>2026-04-06T13:51:48.077Z</time></trkpt><trkpt lat="53.5474192" lon="14.6714925"><ele>-2.0</ele><time>2026-04-06T13:51:49.088Z</time></trkpt><trkpt lat="53.547556" lon="14.6715403"><ele>-2.0</ele><time>2026-04-06T13:51:50.071Z</time></trkpt><trkpt lat="53.5476918" lon="14.6715848"><ele>-2.0</ele><time>2026-04-06T13:51:51.08Z</time></trkpt><trkpt lat="53.5478237" lon="14.6716215"><ele>-2.0</ele><time>2026-04-06T13:51:52.081Z</time></trkpt><trkpt lat="53.5479564" lon="14.6716567"><ele>-2.0</ele><time>2026-04-06T13:51:53.071Z</time></trkpt><trkpt lat="53.548089" lon="14.6716946"><ele>-2.0</ele><time>2026-04-06T13:51:54.092Z</time></trkpt><trkpt lat="53.5482204" lon="14.6717338"><ele>-2.0</ele><time>2026-04-06T13:51:55.075Z</time></trkpt><trkpt lat="53.5483498" lon="14.6717685"><ele>-2.0</ele><time>2026-04-06T13:51:56.069Z</time></trkpt><trkpt lat="53.5484713" lon="14.6718015"><ele>-2.0</ele><time>2026-04-06T13:51:57.079Z</time></trkpt><trkpt lat="53.5485921" lon="14.6718347"><ele>-2.0</ele><time>2026-04-06T13:51:58.074Z</time></trkpt><trkpt lat="53.5487146" lon="14.6718682"><ele>-2.0</ele><time>2026-04-06T13:51:59.091Z</time></trkpt><trkpt lat="53.5488393" lon="14.6719003"><ele>-2.0</ele><time>2026-04-06T13:52:00.068Z</time></trkpt><trkpt lat="53.5489694" lon="14.6719337"><ele>-2.0</ele><time>2026-04-06T13:52:01.081Z</time></trkpt><trkpt lat="53.5491009" lon="14.6719671"><ele>-2.0</ele><time>2026-04-06T13:52:02.074Z</time></trkpt><trkpt lat="53.5492371" lon="14.6720045"><ele>-2.0</ele><time>2026-04-06T13:52:03.1Z</time></trkpt><trkpt lat="53.5493708" lon="14.6720422"><ele>-2.0</ele><time>2026-04-06T13:52:04.078Z</time></trkpt><trkpt lat="53.5495074" lon="14.6720853"><ele>-2.0</ele><time>2026-04-06T13:52:05.073Z</time></trkpt><trkpt lat="53.5496464" lon="14.672131"><ele>-2.0</ele><time>2026-04-06T13:52:06.086Z</time></trkpt><trkpt lat="53.5497819" lon="14.6721727"><ele>-2.0</ele><time>2026-04-06T13:52:07.074Z</time></trkpt><trkpt lat="53.5499146" lon="14.6722098"><ele>-2.0</ele><time>2026-04-06T13:52:08.075Z</time></trkpt><trkpt lat="53.5500382" lon="14.6722426"><ele>-2.0</ele><time>2026-04-06T13:52:09.082Z</time></trkpt><trkpt lat="53.5501516" lon="14.6722718"><ele>-2.0</ele><time>2026-04-06T13:52:10.093Z</time></trkpt><trkpt lat="53.5502597" lon="14.6723116"><ele>-2.0</ele><time>2026-04-06T13:52:11.09Z</time></trkpt><trkpt lat="53.5503599" lon="14.6723632"><ele>-2.0</ele><time>2026-04-06T13:52:12.075Z</time></trkpt><trkpt lat="53.5504472" lon="14.6724318"><ele>-2.0</ele><time>2026-04-06T13:52:13.071Z</time></trkpt><trkpt lat="53.5505214" lon="14.6725268"><ele>-2.0</ele><time>2026-04-06T13:52:14.094Z</time></trkpt><trkpt lat="53.55058" lon="14.6726761"><ele>-2.0</ele><time>2026-04-06T13:52:15.08Z</time></trkpt><trkpt lat="53.5506412" lon="14.6728883"><ele>-2.0</ele><time>2026-04-06T13:52:16.083Z</time></trkpt><trkpt lat="53.5507015" lon="14.6731418"><ele>-2.0</ele><time>2026-04-06T13:52:17.077Z</time></trkpt><trkpt lat="53.5507547" lon="14.6734011"><ele>-2.0</ele><time>2026-04-06T13:52:18.088Z</time></trkpt><trkpt lat="53.550804" lon="14.6736323"><ele>-2.0</ele><time>2026-04-06T13:52:19.081Z</time></trkpt><trkpt lat="53.5508502" lon="14.6738437"><ele>-2.0</ele><time>2026-04-06T13:52:20.067Z</time></trkpt><trkpt lat="53.5508958" lon="14.6740495"><ele>-2.0</ele><time>2026-04-06T13:52:21.083Z</time></trkpt><trkpt lat="53.5509428" lon="14.6742573"><ele>-2.0</ele><time>2026-04-06T13:52:22.07Z</time></trkpt><trkpt lat="53.5509927" lon="14.6744816"><ele>-2.0</ele><time>2026-04-06T13:52:23.083Z</time></trkpt><trkpt lat="53.5510434" lon="14.6747033"><ele>-2.0</ele><time>2026-04-06T13:52:24.063Z</time></trkpt><trkpt lat="53.5510943" lon="14.6749132"><ele>-2.0</ele><time>2026-04-06T13:52:25.073Z</time></trkpt><trkpt lat="53.5511427" lon="14.6751053"><ele>-2.0</ele><time>2026-04-06T13:52:26.071Z</time></trkpt><trkpt lat="53.5511883" lon="14.675284"><ele>-2.0</ele><time>2026-04-06T13:52:27.091Z</time></trkpt><trkpt lat="53.5512302" lon="14.6754626"><ele>-2.0</ele><time>2026-04-06T13:52:28.073Z</time></trkpt><trkpt lat="53.5512686" lon="14.6756529"><ele>-2.0</ele><time>2026-04-06T13:52:29.075Z</time></trkpt><trkpt lat="53.5513091" lon="14.6758535"><ele>-2.0</ele><time>2026-04-06T13:52:30.072Z</time></trkpt><trkpt lat="53.5513514" lon="14.6760593"><ele>-2.0</ele><time>2026-04-06T13:52:31.072Z</time></trkpt><trkpt lat="53.5513954" lon="14.6762739"><ele>-2.0</ele><time>2026-04-06T13:52:32.085Z</time></trkpt><trkpt lat="53.5514368" lon="14.6764841"><ele>-2.0</ele><time>2026-04-06T13:52:33.081Z</time></trkpt><trkpt lat="53.5514823" lon="14.6766981"><ele>-2.0</ele><time>2026-04-06T13:52:34.064Z</time></trkpt><trkpt lat="53.55153" lon="14.6769248"><ele>-2.25</ele><time>2026-04-06T13:52:35.091Z</time></trkpt><trkpt lat="53.551571" lon="14.6771439"><ele>-2.5</ele><time>2026-04-06T13:52:36.065Z</time></trkpt><trkpt lat="53.5516094" lon="14.6773702"><ele>-2.75</ele><time>2026-04-06T13:52:37.073Z</time></trkpt><trkpt lat="53.5516487" lon="14.6775934"><ele>-3.0</ele><time>2026-04-06T13:52:38.076Z</time></trkpt><trkpt lat="53.5516856" lon="14.6778038"><ele>-3.0</ele><time>2026-04-06T13:52:39.083Z</time></trkpt><trkpt lat="53.5517225" lon="14.6780058"><ele>-3.0</ele><time>2026-04-06T13:52:40.074Z</time></trkpt><trkpt lat="53.5517591" lon="14.678218"><ele>-3.0</ele><time>2026-04-06T13:52:41.078Z</time></trkpt><trkpt lat="53.5517967" lon="14.6784402"><ele>-3.0</ele><time>2026-04-06T13:52:42.073Z</time></trkpt><trkpt lat="53.5518376" lon="14.6786671"><ele>-3.0</ele><time>2026-04-06T13:52:43.078Z</time></trkpt><trkpt lat="53.5518825" lon="14.6788881"><ele>-3.0</ele><time>2026-04-06T13:52:44.07Z</time></trkpt><trkpt lat="53.5519261" lon="14.6791008"><ele>-3.0</ele><time>2026-04-06T13:52:45.092Z</time></trkpt><trkpt lat="53.5519694" lon="14.6793067"><ele>-3.0</ele><time>2026-04-06T13:52:46.069Z</time></trkpt><trkpt lat="53.5520083" lon="14.679509"><ele>-3.0</ele><time>2026-04-06T13:52:47.084Z</time></trkpt><trkpt lat="53.5520441" lon="14.6797017"><ele>-3.0</ele><time>2026-04-06T13:52:48.067Z</time></trkpt><trkpt lat="53.5520813" lon="14.6798962"><ele>-3.0</ele><time>2026-04-06T13:52:49.091Z</time></trkpt><trkpt lat="53.552123" lon="14.6800849"><ele>-3.0</ele><time>2026-04-06T13:52:50.071Z</time></trkpt><trkpt lat="53.5521762" lon="14.6802768"><ele>-2.75</ele><time>2026-04-06T13:52:51.074Z</time></trkpt><trkpt lat="53.552242" lon="14.6804714"><ele>-2.5</ele><time>2026-04-06T13:52:52.065Z</time></trkpt><trkpt lat="53.5523173" lon="14.6806645"><ele>-2.25</ele><time>2026-04-06T13:52:53.091Z</time></trkpt><trkpt lat="53.5523983" lon="14.6808591"><ele>-2.0</ele><time>2026-04-06T13:52:54.071Z</time></trkpt><trkpt lat="53.552482" lon="14.6810548"><ele>-2.0</ele><time>2026-04-06T13:52:55.076Z</time></trkpt><trkpt lat="53.5525598" lon="14.6812429"><ele>-2.0</ele><time>2026-04-06T13:52:56.067Z</time></trkpt><trkpt lat="53.552635" lon="14.6814317"><ele>-2.0</ele><time>2026-04-06T13:52:57.088Z</time></trkpt><trkpt lat="53.5527067" lon="14.6816155"><ele>-2.0</ele><time>2026-04-06T13:52:58.072Z</time></trkpt><trkpt lat="53.5527768" lon="14.6817977"><ele>-2.0</ele><time>2026-04-06T13:52:59.072Z</time></trkpt><trkpt lat="53.5528441" lon="14.6819742"><ele>-2.0</ele><time>2026-04-06T13:53:00.069Z</time></trkpt><trkpt lat="53.5529087" lon="14.6821583"><ele>-2.0</ele><time>2026-04-06T13:53:01.077Z</time></trkpt><trkpt lat="53.5529755" lon="14.6823503"><ele>-2.0</ele><time>2026-04-06T13:53:02.064Z</time></trkpt><trkpt lat="53.5530528" lon="14.682552"><ele>-2.0</ele><time>2026-04-06T13:53:03.09Z</time></trkpt><trkpt lat="53.5531282" lon="14.682753"><ele>-2.0</ele><time>2026-04-06T13:53:04.074Z</time></trkpt><trkpt lat="53.5532007" lon="14.6829517"><ele>-2.0</ele><time>2026-04-06T13:53:05.081Z</time></trkpt><trkpt lat="53.5532709" lon="14.6831346"><ele>-2.0</ele><time>2026-04-06T13:53:06.072Z</time></trkpt><trkpt lat="53.5533334" lon="14.6833035"><ele>-2.0</ele><time>2026-04-06T13:53:07.096Z</time></trkpt><trkpt lat="53.5533922" lon="14.6834564"><ele>-2.0</ele><time>2026-04-06T13:53:08.076Z</time></trkpt><trkpt lat="53.5534525" lon="14.6836144"><ele>-2.0</ele><time>2026-04-06T13:53:09.075Z</time></trkpt><trkpt lat="53.5535132" lon="14.6837775"><ele>-2.0</ele><time>2026-04-06T13:53:10.09Z</time></trkpt><trkpt lat="53.5535763" lon="14.6839442"><ele>-2.0</ele><time>2026-04-06T13:53:11.077Z</time></trkpt><trkpt lat="53.5536476" lon="14.6841253"><ele>-2.0</ele><time>2026-04-06T13:53:12.072Z</time></trkpt><trkpt lat="53.5537195" lon="14.6843125"><ele>-2.0</ele><time>2026-04-06T13:53:13.092Z</time></trkpt><trkpt lat="53.5537867" lon="14.6844887"><ele>-2.0</ele><time>2026-04-06T13:53:14.075Z</time></trkpt><trkpt lat="53.5538541" lon="14.6846659"><ele>-2.0</ele><time>2026-04-06T13:53:15.085Z</time></trkpt><trkpt lat="53.5539138" lon="14.6848401"><ele>-2.0</ele><time>2026-04-06T13:53:16.073Z</time></trkpt><trkpt lat="53.553969" lon="14.6850261"><ele>-2.0</ele><time>2026-04-06T13:53:17.085Z</time></trkpt><trkpt lat="53.5540155" lon="14.6852139"><ele>-2.0</ele><time>2026-04-06T13:53:18.07Z</time></trkpt><trkpt lat="53.5540506" lon="14.6854048"><ele>-2.0</ele><time>2026-04-06T13:53:19.064Z</time></trkpt><trkpt lat="53.5540799" lon="14.6856116"><ele>-2.0</ele><time>2026-04-06T13:53:20.068Z</time></trkpt><trkpt lat="53.5541088" lon="14.6858342"><ele>-2.0</ele><time>2026-04-06T13:53:21.076Z</time></trkpt><trkpt lat="53.55414" lon="14.686061"><ele>-2.0</ele><time>2026-04-06T13:53:22.088Z</time></trkpt><trkpt lat="53.55417" lon="14.6862812"><ele>-2.0</ele><time>2026-04-06T13:53:23.075Z</time></trkpt><trkpt lat="53.5542012" lon="14.6864974"><ele>-2.0</ele><time>2026-04-06T13:53:24.071Z</time></trkpt><trkpt lat="53.5542321" lon="14.6867084"><ele>-2.0</ele><time>2026-04-06T13:53:25.095Z</time></trkpt><trkpt lat="53.5542569" lon="14.6869048"><ele>-2.0</ele><time>2026-04-06T13:53:26.07Z</time></trkpt><trkpt lat="53.55428" lon="14.6870984"><ele>-2.0</ele><time>2026-04-06T13:53:27.068Z</time></trkpt><trkpt lat="53.5543072" lon="14.6872918"><ele>-2.0</ele><time>2026-04-06T13:53:28.069Z</time></trkpt><trkpt lat="53.5543393" lon="14.6874876"><ele>-2.0</ele><time>2026-04-06T13:53:29.064Z</time></trkpt><trkpt lat="53.5543722" lon="14.6876925"><ele>-2.0</ele><time>2026-04-06T13:53:30.086Z</time></trkpt><trkpt lat="53.5544002" lon="14.6878994"><ele>-2.25</ele><time>2026-04-06T13:53:31.076Z</time></trkpt><trkpt lat="53.5544275" lon="14.6881126"><ele>-2.5</ele><time>2026-04-06T13:53:32.067Z</time></trkpt><trkpt lat="53.5544559" lon="14.6883306"><ele>-2.75</ele><time>2026-04-06T13:53:33.08Z</time></trkpt><trkpt lat="53.5544842" lon="14.6885461"><ele>-3.0</ele><time>2026-04-06T13:53:34.071Z</time></trkpt><trkpt lat="53.5545132" lon="14.6887571"><ele>-3.0</ele><time>2026-04-06T13:53:35.095Z</time></trkpt><trkpt lat="53.5545395" lon="14.6889594"><ele>-3.0</ele><time>2026-04-06T13:53:36.078Z</time></trkpt><trkpt lat="53.5545666" lon="14.6891583"><ele>-3.0</ele><time>2026-04-06T13:53:37.071Z</time></trkpt><trkpt lat="53.5545907" lon="14.6893524"><ele>-3.0</ele><time>2026-04-06T13:53:38.071Z</time></trkpt><trkpt lat="53.5546165" lon="14.6895527"><ele>-3.0</ele><time>2026-04-06T13:53:39.078Z</time></trkpt><trkpt lat="53.5546395" lon="14.6897528"><ele>-3.0</ele><time>2026-04-06T13:53:40.071Z</time></trkpt><trkpt lat="53.5546604" lon="14.6899596"><ele>-3.0</ele><time>2026-04-06T13:53:41.097Z</time></trkpt><trkpt lat="53.5546783" lon="14.6901667"><ele>-3.0</ele><time>2026-04-06T13:53:42.077Z</time></trkpt><trkpt lat="53.554693" lon="14.6903792"><ele>-3.0</ele><time>2026-04-06T13:53:43.072Z</time></trkpt><trkpt lat="53.5547019" lon="14.6905973"><ele>-3.0</ele><time>2026-04-06T13:53:44.077Z</time></trkpt><trkpt lat="53.5547" lon="14.6908183"><ele>-3.0</ele><time>2026-04-06T13:53:45.066Z</time></trkpt><trkpt lat="53.5546835" lon="14.6910443"><ele>-3.0</ele><time>2026-04-06T13:53:46.082Z</time></trkpt><trkpt lat="53.5546654" lon="14.6912728"><ele>-3.0</ele><time>2026-04-06T13:53:47.077Z</time></trkpt><trkpt lat="53.5546514" lon="14.6915114"><ele>-3.0</ele><time>2026-04-06T13:53:48.071Z</time></trkpt><trkpt lat="53.5546361" lon="14.691744"><ele>-3.0</ele><time>2026-04-06T13:53:49.096Z</time></trkpt><trkpt lat="53.554619" lon="14.6919588"><ele>-3.0</ele><time>2026-04-06T13:53:50.09Z</time></trkpt><trkpt lat="53.5545975" lon="14.6921722"><ele>-3.0</ele><time>2026-04-06T13:53:51.078Z</time></trkpt><trkpt lat="53.5545772" lon="14.6923913"><ele>-3.0</ele><time>2026-04-06T13:53:52.084Z</time></trkpt><trkpt lat="53.5545608" lon="14.6926173"><ele>-3.0</ele><time>2026-04-06T13:53:53.086Z</time></trkpt><trkpt lat="53.5545414" lon="14.6928422"><ele>-3.0</ele><time>2026-04-06T13:53:54.077Z</time></trkpt><trkpt lat="53.5545211" lon="14.69306"><ele>-2.5</ele><time>2026-04-06T13:53:55.066Z</time></trkpt><trkpt lat="53.5545046" lon="14.6932729"><ele>-2.0</ele><time>2026-04-06T13:53:56.064Z</time></trkpt><trkpt lat="53.5544967" lon="14.6934878"><ele>-1.5</ele><time>2026-04-06T13:53:57.063Z</time></trkpt><trkpt lat="53.5544944" lon="14.693715"><ele>-1.0</ele><time>2026-04-06T13:53:58.083Z</time></trkpt><trkpt lat="53.5544933" lon="14.6939504"><ele>-1.0</ele><time>2026-04-06T13:53:59.073Z</time></trkpt><trkpt lat="53.5544902" lon="14.6941947"><ele>-1.0</ele><time>2026-04-06T13:54:00.063Z</time></trkpt><trkpt lat="53.554487" lon="14.6944475"><ele>-1.0</ele><time>2026-04-06T13:54:01.091Z</time></trkpt><trkpt lat="53.5544822" lon="14.6946994"><ele>-1.0</ele><time>2026-04-06T13:54:02.068Z</time></trkpt><trkpt lat="53.5544777" lon="14.6949594"><ele>-1.0</ele><time>2026-04-06T13:54:03.069Z</time></trkpt><trkpt lat="53.5544758" lon="14.6952208"><ele>-1.0</ele><time>2026-04-06T13:54:04.07Z</time></trkpt><trkpt lat="53.5544722" lon="14.6954848"><ele>-1.0</ele><time>2026-04-06T13:54:05.08Z</time></trkpt><trkpt lat="53.5544676" lon="14.6957613"><ele>-1.0</ele><time>2026-04-06T13:54:06.076Z</time></trkpt><trkpt lat="53.5544658" lon="14.6960507"><ele>-1.0</ele><time>2026-04-06T13:54:07.097Z</time></trkpt><trkpt lat="53.554464" lon="14.6963298"><ele>-1.0</ele><time>2026-04-06T13:54:08.067Z</time></trkpt><trkpt lat="53.5544592" lon="14.6966045"><ele>-1.0</ele><time>2026-04-06T13:54:09.068Z</time></trkpt><trkpt lat="53.5544554" lon="14.69687"><ele>-1.0</ele><time>2026-04-06T13:54:10.087Z</time></trkpt><trkpt lat="53.5544531" lon="14.6971145"><ele>-1.0</ele><time>2026-04-06T13:54:11.082Z</time></trkpt><trkpt lat="53.554449" lon="14.6973585"><ele>-1.0</ele><time>2026-04-06T13:54:12.075Z</time></trkpt><trkpt lat="53.5544447" lon="14.6976071"><ele>-1.0</ele><time>2026-04-06T13:54:13.085Z</time></trkpt><trkpt lat="53.5544399" lon="14.6978539"><ele>-1.0</ele><time>2026-04-06T13:54:14.073Z</time></trkpt><trkpt lat="53.5544356" lon="14.6981016"><ele>-1.0</ele><time>2026-04-06T13:54:15.082Z</time></trkpt><trkpt lat="53.5544314" lon="14.6983503"><ele>-1.0</ele><time>2026-04-06T13:54:16.091Z</time></trkpt><trkpt lat="53.5544284" lon="14.6985889"><ele>-1.0</ele><time>2026-04-06T13:54:17.078Z</time></trkpt><trkpt lat="53.5544253" lon="14.6988149"><ele>-1.0</ele><time>2026-04-06T13:54:18.082Z</time></trkpt><trkpt lat="53.5544232" lon="14.6990288"><ele>-1.0</ele><time>2026-04-06T13:54:19.078Z</time></trkpt><trkpt lat="53.5544204" lon="14.6992281"><ele>-1.0</ele><time>2026-04-06T13:54:20.069Z</time></trkpt><trkpt lat="53.5544189" lon="14.6994194"><ele>-1.2000000000000002</ele><time>2026-04-06T13:54:21.07Z</time></trkpt><trkpt lat="53.5544162" lon="14.6996058"><ele>-1.4000000000000001</ele><time>2026-04-06T13:54:22.081Z</time></trkpt><trkpt lat="53.554412" lon="14.6997889"><ele>-1.6</ele><time>2026-04-06T13:54:23.072Z</time></trkpt><trkpt lat="53.5544106" lon="14.6999737"><ele>-1.8</ele><time>2026-04-06T13:54:24.075Z</time></trkpt><trkpt lat="53.554409" lon="14.7001638"><ele>-2.0</ele><time>2026-04-06T13:54:25.105Z</time></trkpt><trkpt lat="53.5544085" lon="14.7003468"><ele>-2.25</ele><time>2026-04-06T13:54:26.065Z</time></trkpt><trkpt lat="53.5544072" lon="14.7005338"><ele>-2.5</ele><time>2026-04-06T13:54:27.078Z</time></trkpt><trkpt lat="53.5544039" lon="14.7007137"><ele>-2.75</ele><time>2026-04-06T13:54:28.074Z</time></trkpt><trkpt lat="53.5543972" lon="14.7009053"><ele>-3.0</ele><time>2026-04-06T13:54:29.075Z</time></trkpt><trkpt lat="53.5543921" lon="14.7011131"><ele>-3.0</ele><time>2026-04-06T13:54:30.067Z</time></trkpt><trkpt lat="53.5543887" lon="14.7013313"><ele>-3.0</ele><time>2026-04-06T13:54:31.101Z</time></trkpt><trkpt lat="53.5543849" lon="14.7015381"><ele>-3.0</ele><time>2026-04-06T13:54:32.068Z</time></trkpt><trkpt lat="53.5543855" lon="14.7017329"><ele>-3.0</ele><time>2026-04-06T13:54:33.078Z</time></trkpt><trkpt lat="53.5543868" lon="14.7018975"><ele>-3.0</ele><time>2026-04-06T13:54:34.066Z</time></trkpt><trkpt lat="53.5543879" lon="14.7020236"><ele>-3.0</ele><time>2026-04-06T13:54:35.079Z</time></trkpt><trkpt lat="53.5543929" lon="14.7022034"><ele>-3.0</ele><time>2026-04-06T13:54:37.092Z</time></trkpt><trkpt lat="53.5543915" lon="14.7023438"><ele>-3.0</ele><time>2026-04-06T13:54:39.076Z</time></trkpt><trkpt lat="53.5543625" lon="14.7024546"><ele>-3.0</ele><time>2026-04-06T13:54:41.093Z</time></trkpt><trkpt lat="53.5542731" lon="14.7025282"><ele>-3.0</ele><time>2026-04-06T13:54:43.076Z</time></trkpt><trkpt lat="53.5542041" lon="14.7025659"><ele>-3.0</ele><time>2026-04-06T13:54:44.08Z</time></trkpt><trkpt lat="53.5541161" lon="14.7026151"><ele>-3.0</ele><time>2026-04-06T13:54:45.073Z</time></trkpt><trkpt lat="53.5540056" lon="14.7026773"><ele>-3.0</ele><time>2026-04-06T13:54:46.075Z</time></trkpt><trkpt lat="53.5538752" lon="14.7027525"><ele>-3.0</ele><time>2026-04-06T13:54:47.08Z</time></trkpt><trkpt lat="53.5537237" lon="14.7028404"><ele>-2.75</ele><time>2026-04-06T13:54:48.078Z</time></trkpt><trkpt lat="53.5535657" lon="14.7029294"><ele>-2.5</ele><time>2026-04-06T13:54:49.072Z</time></trkpt><trkpt lat="53.5534248" lon="14.703015"><ele>-2.25</ele><time>2026-04-06T13:54:50.081Z</time></trkpt><trkpt lat="53.5533026" lon="14.7030865"><ele>-2.0</ele><time>2026-04-06T13:54:51.081Z</time></trkpt><trkpt lat="53.5532028" lon="14.7031417"><ele>-1.9999999999999998</ele><time>2026-04-06T13:54:52.086Z</time></trkpt><trkpt lat="53.5531243" lon="14.7031889"><ele>-2.0</ele><time>2026-04-06T13:54:53.079Z</time></trkpt><trkpt lat="53.5530643" lon="14.7032261"><ele>-2.0</ele><time>2026-04-06T13:54:54.064Z</time></trkpt><trkpt lat="53.5529916" lon="14.703366"><ele>-2.0</ele><time>2026-04-06T13:54:56.075Z</time></trkpt><trkpt lat="53.5529816" lon="14.7034899"><ele>-1.9999999999999998</ele><time>2026-04-06T13:54:57.091Z</time></trkpt><trkpt lat="53.5529863" lon="14.703661"><ele>-2.0</ele><time>2026-04-06T13:54:58.065Z</time></trkpt><trkpt lat="53.5530183" lon="14.7039126"><ele>-2.0</ele><time>2026-04-06T13:54:59.07Z</time></trkpt><trkpt lat="53.5530559" lon="14.7041838"><ele>-2.0</ele><time>2026-04-06T13:55:00.071Z</time></trkpt><trkpt lat="53.5530964" lon="14.7044608"><ele>-2.0</ele><time>2026-04-06T13:55:01.074Z</time></trkpt><trkpt lat="53.5531373" lon="14.7047482"><ele>-2.0</ele><time>2026-04-06T13:55:02.087Z</time></trkpt><trkpt lat="53.5531794" lon="14.7050393"><ele>-2.0</ele><time>2026-04-06T13:55:03.073Z</time></trkpt><trkpt lat="53.553216" lon="14.7053208"><ele>-2.0</ele><time>2026-04-06T13:55:04.072Z</time></trkpt><trkpt lat="53.5532504" lon="14.7055972"><ele>-2.0</ele><time>2026-04-06T13:55:05.086Z</time></trkpt><trkpt lat="53.5532867" lon="14.7058734"><ele>-2.0</ele><time>2026-04-06T13:55:06.07Z</time></trkpt><trkpt lat="53.5533201" lon="14.7061499"><ele>-2.0</ele><time>2026-04-06T13:55:07.095Z</time></trkpt><trkpt lat="53.5533522" lon="14.7064"><ele>-2.0</ele><time>2026-04-06T13:55:08.07Z</time></trkpt><trkpt lat="53.5533795" lon="14.7066228"><ele>-2.0</ele><time>2026-04-06T13:55:09.078Z</time></trkpt><trkpt lat="53.553406" lon="14.7068313"><ele>-2.0</ele><time>2026-04-06T13:55:10.069Z</time></trkpt><trkpt lat="53.5534292" lon="14.7070405"><ele>-2.0</ele><time>2026-04-06T13:55:11.092Z</time></trkpt><trkpt lat="53.5534561" lon="14.7072467"><ele>-2.0</ele><time>2026-04-06T13:55:12.065Z</time></trkpt><trkpt lat="53.5534863" lon="14.7074696"><ele>-2.0</ele><time>2026-04-06T13:55:13.073Z</time></trkpt><trkpt lat="53.5535152" lon="14.7077008"><ele>-2.0</ele><time>2026-04-06T13:55:14.074Z</time></trkpt><trkpt lat="53.5535425" lon="14.7079381"><ele>-2.0</ele><time>2026-04-06T13:55:15.094Z</time></trkpt><trkpt lat="53.553562" lon="14.7081789"><ele>-2.0</ele><time>2026-04-06T13:55:16.069Z</time></trkpt><trkpt lat="53.5535795" lon="14.7084245"><ele>-2.0</ele><time>2026-04-06T13:55:17.079Z</time></trkpt><trkpt lat="53.5535872" lon="14.7086634"><ele>-2.0</ele><time>2026-04-06T13:55:18.069Z</time></trkpt><trkpt lat="53.5535852" lon="14.7088981"><ele>-2.0</ele><time>2026-04-06T13:55:19.089Z</time></trkpt><trkpt lat="53.5535706" lon="14.7091362"><ele>-2.0</ele><time>2026-04-06T13:55:20.073Z</time></trkpt><trkpt lat="53.5535432" lon="14.7093737"><ele>-2.0</ele><time>2026-04-06T13:55:21.083Z</time></trkpt><trkpt lat="53.553498" lon="14.7096031"><ele>-2.0</ele><time>2026-04-06T13:55:22.077Z</time></trkpt><trkpt lat="53.5534355" lon="14.7098246"><ele>-2.0</ele><time>2026-04-06T13:55:23.09Z</time></trkpt><trkpt lat="53.5533605" lon="14.7100361"><ele>-1.6666666666666665</ele><time>2026-04-06T13:55:24.071Z</time></trkpt><trkpt lat="53.5532771" lon="14.7102443"><ele>-1.3333333333333333</ele><time>2026-04-06T13:55:25.087Z</time></trkpt><trkpt lat="53.5531889" lon="14.7104478"><ele>-1.0</ele><time>2026-04-06T13:55:26.068Z</time></trkpt><trkpt lat="53.553099" lon="14.7106568"><ele>-1.0</ele><time>2026-04-06T13:55:27.089Z</time></trkpt><trkpt lat="53.5530197" lon="14.7108614"><ele>-1.0</ele><time>2026-04-06T13:55:28.07Z</time></trkpt><trkpt lat="53.55294" lon="14.7110722"><ele>-1.0</ele><time>2026-04-06T13:55:29.074Z</time></trkpt><trkpt lat="53.5528586" lon="14.711286"><ele>-1.0</ele><time>2026-04-06T13:55:30.074Z</time></trkpt><trkpt lat="53.5527773" lon="14.7115044"><ele>-1.3333333333333333</ele><time>2026-04-06T13:55:31.094Z</time></trkpt><trkpt lat="53.5526967" lon="14.7117225"><ele>-1.6666666666666665</ele><time>2026-04-06T13:55:32.066Z</time></trkpt><trkpt lat="53.5526136" lon="14.7119494"><ele>-2.0</ele><time>2026-04-06T13:55:33.072Z</time></trkpt><trkpt lat="53.5525295" lon="14.7121797"><ele>-2.0</ele><time>2026-04-06T13:55:34.087Z</time></trkpt><trkpt lat="53.5524487" lon="14.7124113"><ele>-2.0</ele><time>2026-04-06T13:55:35.091Z</time></trkpt><trkpt lat="53.5523709" lon="14.7126401"><ele>-2.0</ele><time>2026-04-06T13:55:36.064Z</time></trkpt><trkpt lat="53.5522898" lon="14.7128694"><ele>-1.6666666666666665</ele><time>2026-04-06T13:55:37.077Z</time></trkpt><trkpt lat="53.5522069" lon="14.7131004"><ele>-1.3333333333333333</ele><time>2026-04-06T13:55:38.069Z</time></trkpt><trkpt lat="53.5521268" lon="14.7133387"><ele>-1.0</ele><time>2026-04-06T13:55:39.093Z</time></trkpt><trkpt lat="53.5520511" lon="14.7135701"><ele>-1.6666666666666665</ele><time>2026-04-06T13:55:40.066Z</time></trkpt><trkpt lat="53.5519738" lon="14.7138062"><ele>-2.3333333333333335</ele><time>2026-04-06T13:55:41.082Z</time></trkpt><trkpt lat="53.5518993" lon="14.7140435"><ele>-3.0</ele><time>2026-04-06T13:55:42.068Z</time></trkpt><trkpt lat="53.5518218" lon="14.7142902"><ele>-2.6666666666666665</ele><time>2026-04-06T13:55:43.098Z</time></trkpt><trkpt lat="53.5517462" lon="14.7145256"><ele>-2.333333333333333</ele><time>2026-04-06T13:55:44.077Z</time></trkpt><trkpt lat="53.551668" lon="14.7147553"><ele>-2.0</ele><time>2026-04-06T13:55:45.067Z</time></trkpt><trkpt lat="53.55159" lon="14.714985"><ele>-2.0</ele><time>2026-04-06T13:55:46.086Z</time></trkpt><trkpt lat="53.5515251" lon="14.7152089"><ele>-2.0</ele><time>2026-04-06T13:55:47.066Z</time></trkpt><trkpt lat="53.5514701" lon="14.7154469"><ele>-2.0</ele><time>2026-04-06T13:55:48.071Z</time></trkpt><trkpt lat="53.5514266" lon="14.7157046"><ele>-1.6666666666666665</ele><time>2026-04-06T13:55:49.079Z</time></trkpt><trkpt lat="53.551395" lon="14.7159733"><ele>-1.3333333333333333</ele><time>2026-04-06T13:55:50.089Z</time></trkpt><trkpt lat="53.5513811" lon="14.7162526"><ele>-1.0</ele><time>2026-04-06T13:55:51.082Z</time></trkpt><trkpt lat="53.5513874" lon="14.7165417"><ele>-1.3333333333333333</ele><time>2026-04-06T13:55:52.065Z</time></trkpt><trkpt lat="53.5514084" lon="14.716838"><ele>-1.6666666666666665</ele><time>2026-04-06T13:55:53.096Z</time></trkpt><trkpt lat="53.5514459" lon="14.7171286"><ele>-2.0</ele><time>2026-04-06T13:55:54.076Z</time></trkpt><trkpt lat="53.5514979" lon="14.7174179"><ele>-2.0</ele><time>2026-04-06T13:55:55.077Z</time></trkpt><trkpt lat="53.5515595" lon="14.7177003"><ele>-2.0</ele><time>2026-04-06T13:55:56.072Z</time></trkpt><trkpt lat="53.551622" lon="14.7179753"><ele>-2.0</ele><time>2026-04-06T13:55:57.093Z</time></trkpt><trkpt lat="53.5516821" lon="14.7182403"><ele>-2.0</ele><time>2026-04-06T13:55:58.069Z</time></trkpt><trkpt lat="53.551738" lon="14.7185097"><ele>-2.0</ele><time>2026-04-06T13:55:59.081Z</time></trkpt><trkpt lat="53.551791" lon="14.7187779"><ele>-2.0</ele><time>2026-04-06T13:56:00.074Z</time></trkpt><trkpt lat="53.5518444" lon="14.719048"><ele>-2.0</ele><time>2026-04-06T13:56:01.091Z</time></trkpt><trkpt lat="53.5518999" lon="14.7193172"><ele>-2.0</ele><time>2026-04-06T13:56:02.074Z</time></trkpt><trkpt lat="53.5519582" lon="14.7195898"><ele>-2.0</ele><time>2026-04-06T13:56:03.076Z</time></trkpt><trkpt lat="53.552015" lon="14.7198609"><ele>-2.0</ele><time>2026-04-06T13:56:04.066Z</time></trkpt><trkpt lat="53.5520661" lon="14.7201277"><ele>-2.0</ele><time>2026-04-06T13:56:05.093Z</time></trkpt><trkpt lat="53.5521185" lon="14.7203794"><ele>-2.0</ele><time>2026-04-06T13:56:06.066Z</time></trkpt><trkpt lat="53.5521717" lon="14.720621"><ele>-2.0</ele><time>2026-04-06T13:56:07.083Z</time></trkpt><trkpt lat="53.5522236" lon="14.7208548"><ele>-2.0</ele><time>2026-04-06T13:56:08.073Z</time></trkpt><trkpt lat="53.5522754" lon="14.7210766"><ele>-2.0</ele><time>2026-04-06T13:56:09.073Z</time></trkpt><trkpt lat="53.5523242" lon="14.7212763"><ele>-2.0</ele><time>2026-04-06T13:56:10.076Z</time></trkpt><trkpt lat="53.5523696" lon="14.7214573"><ele>-2.0</ele><time>2026-04-06T13:56:11.075Z</time></trkpt><trkpt lat="53.5524172" lon="14.7216248"><ele>-2.0</ele><time>2026-04-06T13:56:12.076Z</time></trkpt><trkpt lat="53.5524616" lon="14.7217797"><ele>-2.0</ele><time>2026-04-06T13:56:13.091Z</time></trkpt><trkpt lat="53.5525" lon="14.7219173"><ele>-2.0</ele><time>2026-04-06T13:56:14.077Z</time></trkpt><trkpt lat="53.5525337" lon="14.7220422"><ele>-2.0</ele><time>2026-04-06T13:56:15.074Z</time></trkpt><trkpt lat="53.5525635" lon="14.7221577"><ele>-1.9999999999999998</ele><time>2026-04-06T13:56:16.069Z</time></trkpt><trkpt lat="53.5525924" lon="14.72226"><ele>-2.0</ele><time>2026-04-06T13:56:17.093Z</time></trkpt><trkpt lat="53.5526219" lon="14.7223555"><ele>-2.0</ele><time>2026-04-06T13:56:18.075Z</time></trkpt><trkpt lat="53.5526506" lon="14.7224504"><ele>-2.0</ele><time>2026-04-06T13:56:19.073Z</time></trkpt><trkpt lat="53.5527023" lon="14.7226287"><ele>-1.9999999999999998</ele><time>2026-04-06T13:56:21.106Z</time></trkpt><trkpt lat="53.5527552" lon="14.7228105"><ele>-2.0</ele><time>2026-04-06T13:56:23.081Z</time></trkpt><trkpt lat="53.5527874" lon="14.7229159"><ele>-2.0</ele><time>2026-04-06T13:56:24.081Z</time></trkpt><trkpt lat="53.5528225" lon="14.7230292"><ele>-1.9999999999999998</ele><time>2026-04-06T13:56:25.08Z</time></trkpt><trkpt lat="53.5528578" lon="14.7231375"><ele>-2.0</ele><time>2026-04-06T13:56:26.069Z</time></trkpt><trkpt lat="53.5528931" lon="14.7232435"><ele>-2.0</ele><time>2026-04-06T13:56:27.09Z</time></trkpt><trkpt lat="53.552921" lon="14.7233422"><ele>-1.9999999999999998</ele><time>2026-04-06T13:56:28.069Z</time></trkpt><trkpt lat="53.552957" lon="14.7234689"><ele>-2.0</ele><time>2026-04-06T13:56:30.068Z</time></trkpt><trkpt lat="53.5529159" lon="14.7235675"><ele>-2.0</ele><time>2026-04-06T13:56:34.072Z</time></trkpt><trkpt lat="53.5528478" lon="14.7236079"><ele>-2.0</ele><time>2026-04-06T13:56:36.074Z</time></trkpt><trkpt lat="53.5527871" lon="14.7236497"><ele>-2.0</ele><time>2026-04-06T13:56:39.068Z</time></trkpt><trkpt lat="53.55287" lon="14.7238033"><ele>-2.0</ele><time>2026-04-06T13:56:53.066Z</time></trkpt><trkpt lat="53.55292" lon="14.7239333"><ele>-2.0</ele><time>2026-04-06T13:56:54.072Z</time></trkpt><trkpt lat="53.5529767" lon="14.7241183"><ele>-2.0</ele><time>2026-04-06T13:56:55.073Z</time></trkpt><trkpt lat="53.5530383" lon="14.7243233"><ele>-2.0</ele><time>2026-04-06T13:56:56.074Z</time></trkpt><trkpt lat="53.5531017" lon="14.7245433"><ele>-2.0</ele><time>2026-04-06T13:56:57.076Z</time></trkpt><trkpt lat="53.55317" lon="14.7247667"><ele>-2.0</ele><time>2026-04-06T13:56:58.071Z</time></trkpt><trkpt lat="53.5532317" lon="14.7249767"><ele>-2.0</ele><time>2026-04-06T13:56:59.093Z</time></trkpt><trkpt lat="53.5532933" lon="14.7251767"><ele>-2.0</ele><time>2026-04-06T13:57:00.067Z</time></trkpt><trkpt lat="53.5533483" lon="14.72537"><ele>-2.0</ele><time>2026-04-06T13:57:01.076Z</time></trkpt><trkpt lat="53.5533983" lon="14.7255567"><ele>-2.0</ele><time>2026-04-06T13:57:02.067Z</time></trkpt><trkpt lat="53.55344" lon="14.725725"><ele>-2.0</ele><time>2026-04-06T13:57:03.088Z</time></trkpt><trkpt lat="53.553475" lon="14.725875"><ele>-1.9999999999999998</ele><time>2026-04-06T13:57:04.069Z</time></trkpt><trkpt lat="53.5534967" lon="14.726"><ele>-2.0</ele><time>2026-04-06T13:57:05.072Z</time></trkpt><trkpt lat="53.5535083" lon="14.7261467"><ele>-2.0</ele><time>2026-04-06T13:57:07.095Z</time></trkpt><trkpt lat="53.55352" lon="14.7262717"><ele>-2.0</ele><time>2026-04-06T13:57:09.072Z</time></trkpt><trkpt lat="53.55353" lon="14.726415"><ele>-1.9999999999999998</ele><time>2026-04-06T13:57:11.082Z</time></trkpt><trkpt lat="53.55354" lon="14.726575"><ele>-2.0</ele><time>2026-04-06T13:57:13.078Z</time></trkpt><trkpt lat="53.55355" lon="14.726765"><ele>-1.9999999999999998</ele><time>2026-04-06T13:57:15.072Z</time></trkpt><trkpt lat="53.5535483" lon="14.7268867"><ele>-2.0</ele><time>2026-04-06T13:57:16.068Z</time></trkpt><trkpt lat="53.5535467" lon="14.7270333"><ele>-2.0</ele><time>2026-04-06T13:57:17.088Z</time></trkpt><trkpt lat="53.553545" lon="14.7271867"><ele>-2.0</ele><time>2026-04-06T13:57:18.067Z</time></trkpt><trkpt lat="53.5535383" lon="14.727335"><ele>-1.9999999999999998</ele><time>2026-04-06T13:57:19.075Z</time></trkpt><trkpt lat="53.5535267" lon="14.7274783"><ele>-2.0</ele><time>2026-04-06T13:57:20.066Z</time></trkpt><trkpt lat="53.5535133" lon="14.7276"><ele>-1.9999999999999998</ele><time>2026-04-06T13:57:21.074Z</time></trkpt><trkpt lat="53.5535017" lon="14.7277183"><ele>-2.0</ele><time>2026-04-06T13:57:22.064Z</time></trkpt><trkpt lat="53.5534917" lon="14.72783"><ele>-2.0</ele><time>2026-04-06T13:57:23.09Z</time></trkpt><trkpt lat="53.5534767" lon="14.728015"><ele>-2.0</ele><time>2026-04-06T13:57:25.069Z</time></trkpt><trkpt lat="53.553465" lon="14.7281317"><ele>-1.9999999999999998</ele><time>2026-04-06T13:57:27.078Z</time></trkpt><trkpt lat="53.5534517" lon="14.7282483"><ele>-2.0</ele><time>2026-04-06T13:57:29.086Z</time></trkpt><trkpt lat="53.5534533" lon="14.728365"><ele>-2.0</ele><time>2026-04-06T13:57:31.078Z</time></trkpt><trkpt lat="53.55343" lon="14.7285383"><ele>-2.0</ele><time>2026-04-06T13:57:34.067Z</time></trkpt><trkpt lat="53.553415" lon="14.72869"><ele>-2.0</ele><time>2026-04-06T13:57:36.066Z</time></trkpt><trkpt lat="53.5534117" lon="14.7288933"><ele>-2.0</ele><time>2026-04-06T13:57:38.071Z</time></trkpt><trkpt lat="53.5534067" lon="14.7290083"><ele>-2.0</ele><time>2026-04-06T13:57:39.091Z</time></trkpt><trkpt lat="53.5533933" lon="14.72919"><ele>-1.9999999999999998</ele><time>2026-04-06T13:57:41.081Z</time></trkpt><trkpt lat="53.5534117" lon="14.7293"><ele>-2.0</ele><time>2026-04-06T13:57:44.077Z</time></trkpt><trkpt lat="53.5534761" lon="14.7293687"><ele>-2.0</ele><time>2026-04-06T13:57:46.069Z</time></trkpt><trkpt lat="53.5535372" lon="14.7294684"><ele>-2.0</ele><time>2026-04-06T13:57:48.065Z</time></trkpt><trkpt lat="53.5535366" lon="14.7296147"><ele>-1.9999999999999998</ele><time>2026-04-06T13:57:50.069Z</time></trkpt><trkpt lat="53.5535253" lon="14.7297578"><ele>-2.0</ele><time>2026-04-06T13:57:51.081Z</time></trkpt><trkpt lat="53.5535152" lon="14.7299287"><ele>-1.75</ele><time>2026-04-06T13:57:52.071Z</time></trkpt><trkpt lat="53.5535015" lon="14.7301583"><ele>-1.5</ele><time>2026-04-06T13:57:53.093Z</time></trkpt><trkpt lat="53.553496" lon="14.730404"><ele>-1.25</ele><time>2026-04-06T13:57:54.079Z</time></trkpt><trkpt lat="53.5535077" lon="14.7306595"><ele>-1.0</ele><time>2026-04-06T13:57:55.075Z</time></trkpt><trkpt lat="53.5535283" lon="14.7309191"><ele>-1.0</ele><time>2026-04-06T13:57:56.081Z</time></trkpt><trkpt lat="53.5535539" lon="14.7311714"><ele>-1.0</ele><time>2026-04-06T13:57:57.105Z</time></trkpt><trkpt lat="53.5535895" lon="14.7314063"><ele>-1.0</ele><time>2026-04-06T13:57:58.065Z</time></trkpt><trkpt lat="53.5536309" lon="14.731647"><ele>-1.0</ele><time>2026-04-06T13:57:59.076Z</time></trkpt><trkpt lat="53.5536776" lon="14.7318772"><ele>-0.75</ele><time>2026-04-06T13:58:00.069Z</time></trkpt><trkpt lat="53.5537323" lon="14.7320887"><ele>-0.5</ele><time>2026-04-06T13:58:01.082Z</time></trkpt><trkpt lat="53.553795" lon="14.732293"><ele>-0.25</ele><time>2026-04-06T13:58:02.077Z</time></trkpt><trkpt lat="53.5538584" lon="14.7324931"><ele>0.0</ele><time>2026-04-06T13:58:03.085Z</time></trkpt><trkpt lat="53.553919" lon="14.7326724"><ele>-0.2</ele><time>2026-04-06T13:58:04.066Z</time></trkpt><trkpt lat="53.5539778" lon="14.7328287"><ele>-0.4</ele><time>2026-04-06T13:58:05.072Z</time></trkpt><trkpt lat="53.5540288" lon="14.7329621"><ele>-0.6000000000000001</ele><time>2026-04-06T13:58:06.067Z</time></trkpt><trkpt lat="53.5540731" lon="14.7330763"><ele>-0.8</ele><time>2026-04-06T13:58:07.096Z</time></trkpt><trkpt lat="53.5541124" lon="14.7331691"><ele>-1.0</ele><time>2026-04-06T13:58:08.074Z</time></trkpt><trkpt lat="53.5541858" lon="14.7333415"><ele>-0.9999999999999999</ele><time>2026-04-06T13:58:10.075Z</time></trkpt><trkpt lat="53.5542312" lon="14.7334327"><ele>-1.0</ele><time>2026-04-06T13:58:11.092Z</time></trkpt><trkpt lat="53.554281" lon="14.7335309"><ele>-1.0</ele><time>2026-04-06T13:58:12.082Z</time></trkpt><trkpt lat="53.5543343" lon="14.7336354"><ele>-1.0</ele><time>2026-04-06T13:58:13.084Z</time></trkpt><trkpt lat="53.554384" lon="14.7337336"><ele>-0.9999999999999999</ele><time>2026-04-06T13:58:14.075Z</time></trkpt><trkpt lat="53.5544281" lon="14.733826"><ele>-1.0</ele><time>2026-04-06T13:58:15.09Z</time></trkpt><trkpt lat="53.5544985" lon="14.7339915"><ele>-1.4</ele><time>2026-04-06T13:58:17.071Z</time></trkpt><trkpt lat="53.5545681" lon="14.7341377"><ele>-1.8</ele><time>2026-04-06T13:58:19.082Z</time></trkpt><trkpt lat="53.5546279" lon="14.7342509"><ele>-2.1999999999999997</ele><time>2026-04-06T13:58:21.077Z</time></trkpt><trkpt lat="53.5547" lon="14.7344063"><ele>-2.6</ele><time>2026-04-06T13:58:29.075Z</time></trkpt><trkpt lat="53.5547806" lon="14.7345591"><ele>-3.0</ele><time>2026-04-06T13:58:30.078Z</time></trkpt><trkpt lat="53.554827" lon="14.7346544"><ele>-3.0</ele><time>2026-04-06T13:58:30.992Z</time></trkpt><trkpt lat="53.5549862" lon="14.7350124"><ele>-3.0</ele><time>2026-04-06T13:58:32.079Z</time></trkpt><trkpt lat="53.555091" lon="14.7352947"><ele>-2.6666666666666665</ele><time>2026-04-06T13:58:33.075Z</time></trkpt><trkpt lat="53.5551865" lon="14.7355447"><ele>-2.333333333333333</ele><time>2026-04-06T13:58:34.061Z</time></trkpt><trkpt lat="53.5552822" lon="14.7357953"><ele>-2.0</ele><time>2026-04-06T13:58:35.093Z</time></trkpt><trkpt lat="53.5553786" lon="14.7360552"><ele>-2.0</ele><time>2026-04-06T13:58:36.069Z</time></trkpt><trkpt lat="53.5554704" lon="14.7363262"><ele>-2.0</ele><time>2026-04-06T13:58:37.078Z</time></trkpt><trkpt lat="53.5555602" lon="14.7365977"><ele>-2.0</ele><time>2026-04-06T13:58:38.072Z</time></trkpt><trkpt lat="53.5556456" lon="14.7368756"><ele>-1.6666666666666665</ele><time>2026-04-06T13:58:39.096Z</time></trkpt><trkpt lat="53.555723" lon="14.7371432"><ele>-1.3333333333333333</ele><time>2026-04-06T13:58:40.069Z</time></trkpt><trkpt lat="53.555793" lon="14.7373998"><ele>-1.0</ele><time>2026-04-06T13:58:41.084Z</time></trkpt><trkpt lat="53.5558591" lon="14.7376474"><ele>-1.0</ele><time>2026-04-06T13:58:42.077Z</time></trkpt><trkpt lat="53.5559251" lon="14.7379041"><ele>-1.0</ele><time>2026-04-06T13:58:43.087Z</time></trkpt><trkpt lat="53.5559875" lon="14.7381645"><ele>-1.0</ele><time>2026-04-06T13:58:44.07Z</time></trkpt><trkpt lat="53.556045" lon="14.7384197"><ele>-1.0</ele><time>2026-04-06T13:58:45.079Z</time></trkpt><trkpt lat="53.5560993" lon="14.738664"><ele>-1.0</ele><time>2026-04-06T13:58:46.063Z</time></trkpt><trkpt lat="53.5561482" lon="14.7389093"><ele>-1.0</ele><time>2026-04-06T13:58:47.097Z</time></trkpt><trkpt lat="53.5561881" lon="14.7391496"><ele>-1.0</ele><time>2026-04-06T13:58:48.069Z</time></trkpt><trkpt lat="53.5562246" lon="14.7393908"><ele>-1.0</ele><time>2026-04-06T13:58:49.071Z</time></trkpt><trkpt lat="53.5562618" lon="14.7396257"><ele>-1.0</ele><time>2026-04-06T13:58:50.063Z</time></trkpt><trkpt lat="53.5562987" lon="14.7398643"><ele>-1.0</ele><time>2026-04-06T13:58:51.093Z</time></trkpt><trkpt lat="53.5563373" lon="14.7401008"><ele>-0.6666666666666666</ele><time>2026-04-06T13:58:52.073Z</time></trkpt><trkpt lat="53.5563783" lon="14.7403483"><ele>-0.3333333333333333</ele><time>2026-04-06T13:58:53.09Z</time></trkpt><trkpt lat="53.556418" lon="14.7405982"><ele>0.0</ele><time>2026-04-06T13:58:54.068Z</time></trkpt><trkpt lat="53.5564586" lon="14.7408438"><ele>0.25</ele><time>2026-04-06T13:58:55.097Z</time></trkpt><trkpt lat="53.5564955" lon="14.7410643"><ele>0.5</ele><time>2026-04-06T13:58:56.066Z</time></trkpt><trkpt lat="53.5565332" lon="14.7412788"><ele>0.75</ele><time>2026-04-06T13:58:57.079Z</time></trkpt><trkpt lat="53.5565688" lon="14.7414683"><ele>1.0</ele><time>2026-04-06T13:58:58.063Z</time></trkpt><trkpt lat="53.5566006" lon="14.7416493"><ele>1.0</ele><time>2026-04-06T13:58:59.088Z</time></trkpt><trkpt lat="53.5566354" lon="14.7418299"><ele>1.0</ele><time>2026-04-06T13:59:00.07Z</time></trkpt><trkpt lat="53.5566752" lon="14.7420209"><ele>1.0</ele><time>2026-04-06T13:59:01.073Z</time></trkpt><trkpt lat="53.5567247" lon="14.7422051"><ele>1.0</ele><time>2026-04-06T13:59:02.064Z</time></trkpt><trkpt lat="53.5567776" lon="14.7423735"><ele>0.9999999999999999</ele><time>2026-04-06T13:59:03.09Z</time></trkpt><trkpt lat="53.5568278" lon="14.7425176"><ele>1.0</ele><time>2026-04-06T13:59:04.07Z</time></trkpt><trkpt lat="53.5568757" lon="14.7426402"><ele>1.0</ele><time>2026-04-06T13:59:05.074Z</time></trkpt><trkpt lat="53.5569195" lon="14.7427452"><ele>1.0</ele><time>2026-04-06T13:59:06.067Z</time></trkpt><trkpt lat="53.5569571" lon="14.7428319"><ele>0.9999999999999999</ele><time>2026-04-06T13:59:07.088Z</time></trkpt><trkpt lat="53.5570054" lon="14.7429171"><ele>1.0</ele><time>2026-04-06T13:59:09.073Z</time></trkpt><trkpt lat="53.5570592" lon="14.7430186"><ele>0.75</ele><time>2026-04-06T13:59:27.069Z</time></trkpt><trkpt lat="53.5571314" lon="14.743143"><ele>0.5</ele><time>2026-04-06T13:59:28.072Z</time></trkpt><trkpt lat="53.5572164" lon="14.7432751"><ele>0.25</ele><time>2026-04-06T13:59:29.07Z</time></trkpt><trkpt lat="53.5573083" lon="14.74341"><ele>0.0</ele><time>2026-04-06T13:59:30.067Z</time></trkpt><trkpt lat="53.5573933" lon="14.743525"><ele>-0.25</ele><time>2026-04-06T13:59:31.092Z</time></trkpt><trkpt lat="53.5574817" lon="14.743635"><ele>-0.5</ele><time>2026-04-06T13:59:32.076Z</time></trkpt><trkpt lat="53.5575783" lon="14.7437517"><ele>-0.75</ele><time>2026-04-06T13:59:33.083Z</time></trkpt><trkpt lat="53.557675" lon="14.7438717"><ele>-1.0</ele><time>2026-04-06T13:59:34.067Z</time></trkpt><trkpt lat="53.5577783" lon="14.7439967"><ele>-1.0</ele><time>2026-04-06T13:59:35.089Z</time></trkpt><trkpt lat="53.5578933" lon="14.7441367"><ele>-1.0</ele><time>2026-04-06T13:59:36.062Z</time></trkpt><trkpt lat="53.5580183" lon="14.7442783"><ele>-1.0</ele><time>2026-04-06T13:59:37.07Z</time></trkpt><trkpt lat="53.5581433" lon="14.7444267"><ele>-1.0</ele><time>2026-04-06T13:59:38.066Z</time></trkpt><trkpt lat="53.558265" lon="14.7445733"><ele>-1.0</ele><time>2026-04-06T13:59:39.097Z</time></trkpt><trkpt lat="53.5583867" lon="14.7447233"><ele>-1.0</ele><time>2026-04-06T13:59:40.069Z</time></trkpt><trkpt lat="53.5585133" lon="14.7448833"><ele>-1.0</ele><time>2026-04-06T13:59:41.073Z</time></trkpt><trkpt lat="53.5586483" lon="14.7450567"><ele>-1.0</ele><time>2026-04-06T13:59:42.07Z</time></trkpt><trkpt lat="53.5587933" lon="14.74524"><ele>-1.0</ele><time>2026-04-06T13:59:43.087Z</time></trkpt><trkpt lat="53.5589333" lon="14.7454233"><ele>-1.0</ele><time>2026-04-06T13:59:44.072Z</time></trkpt><trkpt lat="53.5590667" lon="14.7455933"><ele>-1.0</ele><time>2026-04-06T13:59:45.073Z</time></trkpt><trkpt lat="53.559205" lon="14.74578"><ele>-1.0</ele><time>2026-04-06T13:59:46.068Z</time></trkpt><trkpt lat="53.5593517" lon="14.74597"><ele>-1.0</ele><time>2026-04-06T13:59:47.078Z</time></trkpt><trkpt lat="53.5594983" lon="14.74616"><ele>-0.6666666666666666</ele><time>2026-04-06T13:59:48.077Z</time></trkpt><trkpt lat="53.5596367" lon="14.74635"><ele>-0.3333333333333333</ele><time>2026-04-06T13:59:49.093Z</time></trkpt><trkpt lat="53.5597683" lon="14.7465317"><ele>0.0</ele><time>2026-04-06T13:59:50.069Z</time></trkpt><trkpt lat="53.55989" lon="14.7467083"><ele>0.0</ele><time>2026-04-06T13:59:51.076Z</time></trkpt><trkpt lat="53.560005" lon="14.7468883"><ele>0.0</ele><time>2026-04-06T13:59:52.065Z</time></trkpt><trkpt lat="53.5601083" lon="14.7470817"><ele>0.0</ele><time>2026-04-06T13:59:53.094Z</time></trkpt><trkpt lat="53.5601917" lon="14.7473083"><ele>0.0</ele><time>2026-04-06T13:59:54.071Z</time></trkpt><trkpt lat="53.56024" lon="14.74757"><ele>0.0</ele><time>2026-04-06T13:59:55.07Z</time></trkpt><trkpt lat="53.56026" lon="14.7478433"><ele>0.0</ele><time>2026-04-06T13:59:56.082Z</time></trkpt><trkpt lat="53.5602583" lon="14.7481067"><ele>0.0</ele><time>2026-04-06T13:59:57.08Z</time></trkpt><trkpt lat="53.5602467" lon="14.7483517"><ele>0.0</ele><time>2026-04-06T13:59:58.068Z</time></trkpt><trkpt lat="53.5602333" lon="14.7485767"><ele>0.0</ele><time>2026-04-06T13:59:59.089Z</time></trkpt><trkpt lat="53.5602283" lon="14.7487817"><ele>0.0</ele><time>2026-04-06T14:00:00.07Z</time></trkpt><trkpt lat="53.5602217" lon="14.7489617"><ele>0.16666666666666666</ele><time>2026-04-06T14:00:01.063Z</time></trkpt><trkpt lat="53.5602117" lon="14.74913"><ele>0.3333333333333333</ele><time>2026-04-06T14:00:02.069Z</time></trkpt><trkpt lat="53.5601983" lon="14.7492767"><ele>0.5</ele><time>2026-04-06T14:00:03.061Z</time></trkpt><trkpt lat="53.5601833" lon="14.7494083"><ele>0.6666666666666666</ele><time>2026-04-06T14:00:04.076Z</time></trkpt><trkpt lat="53.5601717" lon="14.7495217"><ele>0.8333333333333333</ele><time>2026-04-06T14:00:05.062Z</time></trkpt><trkpt lat="53.56016" lon="14.7496983"><ele>1.0</ele><time>2026-04-06T14:00:07.071Z</time></trkpt><trkpt lat="53.5601567" lon="14.7498433"><ele>1.5</ele><time>2026-04-06T14:00:09.082Z</time></trkpt><trkpt lat="53.5601567" lon="14.7499783"><ele>2.0</ele><time>2026-04-06T14:00:11.071Z</time></trkpt><trkpt lat="53.56015" lon="14.750095"><ele>2.5</ele><time>2026-04-06T14:00:13.075Z</time></trkpt><trkpt lat="53.5601508" lon="14.7502473"><ele>3.0</ele><time>2026-04-06T14:00:16.069Z</time></trkpt><trkpt lat="53.560135" lon="14.750395"><ele>3.4999999999999996</ele><time>2026-04-06T14:00:36.074Z</time></trkpt><trkpt lat="53.5601283" lon="14.7505167"><ele>4.0</ele><time>2026-04-06T14:00:37.071Z</time></trkpt><trkpt lat="53.5601133" lon="14.750685"><ele>5.5</ele><time>2026-04-06T14:00:38.065Z</time></trkpt><trkpt lat="53.56009" lon="14.75087"><ele>7.0</ele><time>2026-04-06T14:00:39.096Z</time></trkpt><trkpt lat="53.5600767" lon="14.7510917"><ele>8.5</ele><time>2026-04-06T14:00:40.071Z</time></trkpt><trkpt lat="53.56007" lon="14.7513833"><ele>10.0</ele><time>2026-04-06T14:00:41.07Z</time></trkpt><trkpt lat="53.5600717" lon="14.7517017"><ele>10.666666666666668</ele><time>2026-04-06T14:00:42.07Z</time></trkpt><trkpt lat="53.5600833" lon="14.7520033"><ele>11.333333333333334</ele><time>2026-04-06T14:00:43.092Z</time></trkpt><trkpt lat="53.5600967" lon="14.752275"><ele>12.0</ele><time>2026-04-06T14:00:44.078Z</time></trkpt><trkpt lat="53.5601117" lon="14.752525"><ele>12.0</ele><time>2026-04-06T14:00:45.077Z</time></trkpt><trkpt lat="53.5601167" lon="14.752755"><ele>12.0</ele><time>2026-04-06T14:00:46.075Z</time></trkpt><trkpt lat="53.560115" lon="14.7529783"><ele>12.0</ele><time>2026-04-06T14:00:47.077Z</time></trkpt><trkpt lat="53.5601083" lon="14.753195"><ele>12.0</ele><time>2026-04-06T14:00:48.088Z</time></trkpt><trkpt lat="53.5601067" lon="14.7534117"><ele>11.5</ele><time>2026-04-06T14:00:49.084Z</time></trkpt><trkpt lat="53.5601033" lon="14.75362"><ele>11.0</ele><time>2026-04-06T14:00:50.065Z</time></trkpt><trkpt lat="53.560105" lon="14.7538267"><ele>10.5</ele><time>2026-04-06T14:00:51.101Z</time></trkpt><trkpt lat="53.5601" lon="14.754025"><ele>10.0</ele><time>2026-04-06T14:00:52.068Z</time></trkpt><trkpt lat="53.5600933" lon="14.75423"><ele>10.0</ele><time>2026-04-06T14:00:53.077Z</time></trkpt><trkpt lat="53.56009" lon="14.754445"><ele>10.0</ele><time>2026-04-06T14:00:54.088Z</time></trkpt><trkpt lat="53.5600917" lon="14.7546617"><ele>10.0</ele><time>2026-04-06T14:00:55.097Z</time></trkpt><trkpt lat="53.5600917" lon="14.7548767"><ele>10.0</ele><time>2026-04-06T14:00:56.072Z</time></trkpt><trkpt lat="53.5600933" lon="14.7550867"><ele>9.75</ele><time>2026-04-06T14:00:57.079Z</time></trkpt><trkpt lat="53.5600983" lon="14.755295"><ele>9.5</ele><time>2026-04-06T14:00:58.065Z</time></trkpt><trkpt lat="53.5600933" lon="14.7554967"><ele>9.25</ele><time>2026-04-06T14:00:59.089Z</time></trkpt><trkpt lat="53.5600783" lon="14.7557"><ele>9.0</ele><time>2026-04-06T14:01:00.072Z</time></trkpt><trkpt lat="53.5600583" lon="14.7559067"><ele>9.0</ele><time>2026-04-06T14:01:01.076Z</time></trkpt><trkpt lat="53.5600367" lon="14.75612"><ele>9.0</ele><time>2026-04-06T14:01:02.071Z</time></trkpt><trkpt lat="53.5600117" lon="14.756325"><ele>9.0</ele><time>2026-04-06T14:01:03.073Z</time></trkpt><trkpt lat="53.5599917" lon="14.756525"><ele>9.0</ele><time>2026-04-06T14:01:04.064Z</time></trkpt><trkpt lat="53.5599767" lon="14.7567317"><ele>8.5</ele><time>2026-04-06T14:01:05.097Z</time></trkpt><trkpt lat="53.5599683" lon="14.756945"><ele>8.0</ele><time>2026-04-06T14:01:06.067Z</time></trkpt><trkpt lat="53.559955" lon="14.7571533"><ele>7.5</ele><time>2026-04-06T14:01:07.08Z</time></trkpt><trkpt lat="53.559935" lon="14.7573533"><ele>7.0</ele><time>2026-04-06T14:01:08.072Z</time></trkpt><trkpt lat="53.5599183" lon="14.7575333"><ele>7.000000000000001</ele><time>2026-04-06T14:01:09.101Z</time></trkpt><trkpt lat="53.559905" lon="14.7577067"><ele>7.0</ele><time>2026-04-06T14:01:10.067Z</time></trkpt><trkpt lat="53.5598917" lon="14.7578667"><ele>7.0</ele><time>2026-04-06T14:01:11.073Z</time></trkpt><trkpt lat="53.5598717" lon="14.75801"><ele>7.0</ele><time>2026-04-06T14:01:12.073Z</time></trkpt><trkpt lat="53.5598517" lon="14.7581417"><ele>7.000000000000001</ele><time>2026-04-06T14:01:13.126Z</time></trkpt><trkpt lat="53.559835" lon="14.7582733"><ele>7.0</ele><time>2026-04-06T14:01:14.073Z</time></trkpt><trkpt lat="53.5598217" lon="14.7584117"><ele>7.000000000000001</ele><time>2026-04-06T14:01:15.086Z</time></trkpt><trkpt lat="53.5598133" lon="14.7585533"><ele>7.0</ele><time>2026-04-06T14:01:16.082Z</time></trkpt><trkpt lat="53.5598067" lon="14.7586917"><ele>7.0</ele><time>2026-04-06T14:01:17.072Z</time></trkpt><trkpt lat="53.5598033" lon="14.758835"><ele>7.0</ele><time>2026-04-06T14:01:18.063Z</time></trkpt><trkpt lat="53.5598" lon="14.758985"><ele>7.000000000000001</ele><time>2026-04-06T14:01:19.092Z</time></trkpt><trkpt lat="53.5597883" lon="14.7591517"><ele>7.0</ele><time>2026-04-06T14:01:20.065Z</time></trkpt><trkpt lat="53.5597717" lon="14.7593267"><ele>7.25</ele><time>2026-04-06T14:01:21.074Z</time></trkpt><trkpt lat="53.5597583" lon="14.7595133"><ele>7.5</ele><time>2026-04-06T14:01:22.068Z</time></trkpt><trkpt lat="53.5597417" lon="14.7597133"><ele>7.75</ele><time>2026-04-06T14:01:23.092Z</time></trkpt><trkpt lat="53.5597217" lon="14.759925"><ele>8.0</ele><time>2026-04-06T14:01:24.074Z</time></trkpt><trkpt lat="53.5596983" lon="14.760145"><ele>8.0</ele><time>2026-04-06T14:01:25.082Z</time></trkpt><trkpt lat="53.5596717" lon="14.7603667"><ele>8.0</ele><time>2026-04-06T14:01:26.069Z</time></trkpt><trkpt lat="53.5596467" lon="14.7605767"><ele>8.0</ele><time>2026-04-06T14:01:27.093Z</time></trkpt><trkpt lat="53.559625" lon="14.760775"><ele>8.0</ele><time>2026-04-06T14:01:28.068Z</time></trkpt><trkpt lat="53.5596033" lon="14.760955"><ele>8.166666666666666</ele><time>2026-04-06T14:01:29.073Z</time></trkpt><trkpt lat="53.55958" lon="14.7611217"><ele>8.333333333333332</ele><time>2026-04-06T14:01:30.072Z</time></trkpt><trkpt lat="53.5595567" lon="14.761265"><ele>8.5</ele><time>2026-04-06T14:01:31.076Z</time></trkpt><trkpt lat="53.5595333" lon="14.7613833"><ele>8.666666666666666</ele><time>2026-04-06T14:01:32.07Z</time></trkpt><trkpt lat="53.5595183" lon="14.76149"><ele>8.833333333333334</ele><time>2026-04-06T14:01:33.073Z</time></trkpt><trkpt lat="53.5595067" lon="14.7616183"><ele>9.0</ele><time>2026-04-06T14:01:34.088Z</time></trkpt><trkpt lat="53.5594917" lon="14.761745"><ele>8.5</ele><time>2026-04-06T14:01:35.082Z</time></trkpt><trkpt lat="53.5594817" lon="14.7618767"><ele>8.0</ele><time>2026-04-06T14:01:36.078Z</time></trkpt><trkpt lat="53.559475" lon="14.7620017"><ele>7.5</ele><time>2026-04-06T14:01:37.079Z</time></trkpt><trkpt lat="53.5594633" lon="14.762115"><ele>7.0</ele><time>2026-04-06T14:01:38.073Z</time></trkpt><trkpt lat="53.5594383" lon="14.7623033"><ele>6.5</ele><time>2026-04-06T14:01:40.074Z</time></trkpt><trkpt lat="53.5594267" lon="14.7624083"><ele>6.0</ele><time>2026-04-06T14:01:42.069Z</time></trkpt><trkpt lat="53.55941" lon="14.7625467"><ele>6.0</ele><time>2026-04-06T14:02:09.069Z</time></trkpt><trkpt lat="53.5593833" lon="14.7626433"><ele>6.0</ele><time>2026-04-06T14:02:10.072Z</time></trkpt><trkpt lat="53.559345" lon="14.76274"><ele>6.0</ele><time>2026-04-06T14:02:11.082Z</time></trkpt><trkpt lat="53.5592917" lon="14.76283"><ele>6.0</ele><time>2026-04-06T14:02:12.072Z</time></trkpt><trkpt lat="53.5592167" lon="14.762905"><ele>6.0</ele><time>2026-04-06T14:02:13.073Z</time></trkpt><trkpt lat="53.559125" lon="14.7629767"><ele>6.0</ele><time>2026-04-06T14:02:14.073Z</time></trkpt><trkpt lat="53.559015" lon="14.763065"><ele>7.0</ele><time>2026-04-06T14:02:15.075Z</time></trkpt><trkpt lat="53.5588917" lon="14.7631633"><ele>8.0</ele><time>2026-04-06T14:02:16.073Z</time></trkpt><trkpt lat="53.5587617" lon="14.76327"><ele>9.0</ele><time>2026-04-06T14:02:17.074Z</time></trkpt><trkpt lat="53.55864" lon="14.7633783"><ele>10.0</ele><time>2026-04-06T14:02:18.067Z</time></trkpt><trkpt lat="53.55852" lon="14.7634833"><ele>9.75</ele><time>2026-04-06T14:02:19.081Z</time></trkpt><trkpt lat="53.558395" lon="14.76358"><ele>9.5</ele><time>2026-04-06T14:02:20.072Z</time></trkpt><trkpt lat="53.5582683" lon="14.7636733"><ele>9.25</ele><time>2026-04-06T14:02:21.086Z</time></trkpt><trkpt lat="53.5581448" lon="14.7637646"><ele>9.0</ele><time>2026-04-06T14:02:22.065Z</time></trkpt><trkpt lat="53.5580178" lon="14.7638556"><ele>9.0</ele><time>2026-04-06T14:02:23.081Z</time></trkpt><trkpt lat="53.5578873" lon="14.763943"><ele>9.0</ele><time>2026-04-06T14:02:24.069Z</time></trkpt><trkpt lat="53.5577449" lon="14.764038"><ele>9.0</ele><time>2026-04-06T14:02:25.094Z</time></trkpt><trkpt lat="53.5576025" lon="14.7641339"><ele>9.0</ele><time>2026-04-06T14:02:26.071Z</time></trkpt><trkpt lat="53.5574524" lon="14.7642308"><ele>10.333333333333332</ele><time>2026-04-06T14:02:27.068Z</time></trkpt><trkpt lat="53.5573013" lon="14.7643329"><ele>11.666666666666666</ele><time>2026-04-06T14:02:28.064Z</time></trkpt><trkpt lat="53.5571522" lon="14.7644377"><ele>13.0</ele><time>2026-04-06T14:02:29.094Z</time></trkpt><trkpt lat="53.5570167" lon="14.7645474"><ele>13.666666666666666</ele><time>2026-04-06T14:02:30.068Z</time></trkpt><trkpt lat="53.5568834" lon="14.764678"><ele>14.333333333333332</ele><time>2026-04-06T14:02:31.083Z</time></trkpt><trkpt lat="53.5567572" lon="14.7648248"><ele>15.0</ele><time>2026-04-06T14:02:32.066Z</time></trkpt><trkpt lat="53.5566298" lon="14.7649891"><ele>15.0</ele><time>2026-04-06T14:02:33.089Z</time></trkpt><trkpt lat="53.5565074" lon="14.7651606"><ele>15.0</ele><time>2026-04-06T14:02:34.074Z</time></trkpt><trkpt lat="53.5563886" lon="14.7653266"><ele>15.0</ele><time>2026-04-06T14:02:35.071Z</time></trkpt><trkpt lat="53.5562702" lon="14.7654925"><ele>12.0</ele><time>2026-04-06T14:02:36.074Z</time></trkpt><trkpt lat="53.5561566" lon="14.765673"><ele>9.0</ele><time>2026-04-06T14:02:37.087Z</time></trkpt><trkpt lat="53.556056" lon="14.7658711"><ele>6.0</ele><time>2026-04-06T14:02:38.068Z</time></trkpt><trkpt lat="53.5559648" lon="14.7660835"><ele>6.0</ele><time>2026-04-06T14:02:39.076Z</time></trkpt><trkpt lat="53.5558813" lon="14.7662905"><ele>6.0</ele><time>2026-04-06T14:02:40.063Z</time></trkpt><trkpt lat="53.555799" lon="14.7664935"><ele>6.0</ele><time>2026-04-06T14:02:41.088Z</time></trkpt><trkpt lat="53.5557227" lon="14.7666908"><ele>6.0</ele><time>2026-04-06T14:02:42.074Z</time></trkpt><trkpt lat="53.5556551" lon="14.7669035"><ele>6.333333333333334</ele><time>2026-04-06T14:02:43.067Z</time></trkpt><trkpt lat="53.5555993" lon="14.7671362"><ele>6.666666666666667</ele><time>2026-04-06T14:02:44.072Z</time></trkpt><trkpt lat="53.555549" lon="14.7673829"><ele>7.0</ele><time>2026-04-06T14:02:45.075Z</time></trkpt><trkpt lat="53.5555001" lon="14.7676283"><ele>8.333333333333334</ele><time>2026-04-06T14:02:46.067Z</time></trkpt><trkpt lat="53.5554434" lon="14.7678665"><ele>9.666666666666666</ele><time>2026-04-06T14:02:47.082Z</time></trkpt><trkpt lat="53.5553687" lon="14.7680864"><ele>11.0</ele><time>2026-04-06T14:02:48.072Z</time></trkpt><trkpt lat="53.5552713" lon="14.7682948"><ele>11.0</ele><time>2026-04-06T14:02:49.095Z</time></trkpt><trkpt lat="53.5551592" lon="14.7684785"><ele>11.0</ele><time>2026-04-06T14:02:50.078Z</time></trkpt><trkpt lat="53.5550358" lon="14.7686568"><ele>11.0</ele><time>2026-04-06T14:02:51.077Z</time></trkpt><trkpt lat="53.5549136" lon="14.7688422"><ele>11.0</ele><time>2026-04-06T14:02:52.071Z</time></trkpt><trkpt lat="53.5547887" lon="14.7690372"><ele>11.0</ele><time>2026-04-06T14:02:53.074Z</time></trkpt><trkpt lat="53.554665" lon="14.7692356"><ele>11.0</ele><time>2026-04-06T14:02:54.087Z</time></trkpt><trkpt lat="53.5545382" lon="14.7694378"><ele>11.333333333333332</ele><time>2026-04-06T14:02:55.076Z</time></trkpt><trkpt lat="53.554402" lon="14.7696449"><ele>11.666666666666666</ele><time>2026-04-06T14:02:56.078Z</time></trkpt><trkpt lat="53.5542587" lon="14.7698586"><ele>12.0</ele><time>2026-04-06T14:02:57.068Z</time></trkpt><trkpt lat="53.554113" lon="14.7700841"><ele>12.333333333333332</ele><time>2026-04-06T14:02:58.079Z</time></trkpt><trkpt lat="53.5539762" lon="14.7702941"><ele>12.666666666666666</ele><time>2026-04-06T14:02:59.077Z</time></trkpt><trkpt lat="53.5538585" lon="14.7704806"><ele>13.0</ele><time>2026-04-06T14:03:00.065Z</time></trkpt><trkpt lat="53.5537605" lon="14.7706623"><ele>13.0</ele><time>2026-04-06T14:03:01.078Z</time></trkpt><trkpt lat="53.5536738" lon="14.770852"><ele>13.0</ele><time>2026-04-06T14:03:02.073Z</time></trkpt><trkpt lat="53.5535764" lon="14.7710581"><ele>13.0</ele><time>2026-04-06T14:03:03.085Z</time></trkpt><trkpt lat="53.5534639" lon="14.7712691"><ele>13.333333333333332</ele><time>2026-04-06T14:03:04.085Z</time></trkpt><trkpt lat="53.5533438" lon="14.7714873"><ele>13.666666666666668</ele><time>2026-04-06T14:03:05.072Z</time></trkpt><trkpt lat="53.5532202" lon="14.7717115"><ele>14.0</ele><time>2026-04-06T14:03:06.084Z</time></trkpt><trkpt lat="53.5530946" lon="14.7719345"><ele>14.0</ele><time>2026-04-06T14:03:07.073Z</time></trkpt><trkpt lat="53.552967" lon="14.7721544"><ele>14.0</ele><time>2026-04-06T14:03:08.074Z</time></trkpt><trkpt lat="53.5528382" lon="14.7723681"><ele>14.0</ele><time>2026-04-06T14:03:09.08Z</time></trkpt><trkpt lat="53.5527121" lon="14.7725809"><ele>14.0</ele><time>2026-04-06T14:03:10.074Z</time></trkpt><trkpt lat="53.5525856" lon="14.7727951"><ele>14.0</ele><time>2026-04-06T14:03:11.08Z</time></trkpt><trkpt lat="53.5524571" lon="14.7730149"><ele>14.0</ele><time>2026-04-06T14:03:12.063Z</time></trkpt><trkpt lat="53.5523239" lon="14.7732396"><ele>14.0</ele><time>2026-04-06T14:03:13.073Z</time></trkpt><trkpt lat="53.5521911" lon="14.7734695"><ele>14.0</ele><time>2026-04-06T14:03:14.071Z</time></trkpt><trkpt lat="53.5520569" lon="14.7737003"><ele>14.0</ele><time>2026-04-06T14:03:15.059Z</time></trkpt><trkpt lat="53.5519189" lon="14.7739365"><ele>14.0</ele><time>2026-04-06T14:03:16.071Z</time></trkpt><trkpt lat="53.5517828" lon="14.7741746"><ele>14.0</ele><time>2026-04-06T14:03:17.078Z</time></trkpt><trkpt lat="53.5516492" lon="14.7744094"><ele>14.0</ele><time>2026-04-06T14:03:18.07Z</time></trkpt><trkpt lat="53.5515243" lon="14.7746274"><ele>14.25</ele><time>2026-04-06T14:03:19.077Z</time></trkpt><trkpt lat="53.5514175" lon="14.7748175"><ele>14.5</ele><time>2026-04-06T14:03:20.065Z</time></trkpt><trkpt lat="53.5513168" lon="14.774994"><ele>14.75</ele><time>2026-04-06T14:03:21.084Z</time></trkpt><trkpt lat="53.5512263" lon="14.7751559"><ele>15.0</ele><time>2026-04-06T14:03:22.066Z</time></trkpt><trkpt lat="53.5511428" lon="14.7753023"><ele>14.0</ele><time>2026-04-06T14:03:23.077Z</time></trkpt><trkpt lat="53.5510692" lon="14.7754305"><ele>13.0</ele><time>2026-04-06T14:03:24.073Z</time></trkpt><trkpt lat="53.5510109" lon="14.7755361"><ele>12.0</ele><time>2026-04-06T14:03:25.09Z</time></trkpt><trkpt lat="53.5509452" lon="14.775669"><ele>11.0</ele><time>2026-04-06T14:03:27.076Z</time></trkpt><trkpt lat="53.5508813" lon="14.7756913"><ele>10.0</ele><time>2026-04-06T14:03:30.068Z</time></trkpt><trkpt lat="53.5507764" lon="14.7755672"><ele>10.0</ele><time>2026-04-06T14:03:32.067Z</time></trkpt><trkpt lat="53.5506915" lon="14.7754697"><ele>10.0</ele><time>2026-04-06T14:03:33.096Z</time></trkpt><trkpt lat="53.5505853" lon="14.7753644"><ele>10.0</ele><time>2026-04-06T14:03:34.076Z</time></trkpt><trkpt lat="53.550458" lon="14.7752665"><ele>10.0</ele><time>2026-04-06T14:03:35.08Z</time></trkpt><trkpt lat="53.5503209" lon="14.7751897"><ele>10.25</ele><time>2026-04-06T14:03:36.071Z</time></trkpt><trkpt lat="53.5501809" lon="14.7751219"><ele>10.5</ele><time>2026-04-06T14:03:37.092Z</time></trkpt><trkpt lat="53.5500475" lon="14.7750674"><ele>10.75</ele><time>2026-04-06T14:03:38.07Z</time></trkpt><trkpt lat="53.5499219" lon="14.7750247"><ele>11.0</ele><time>2026-04-06T14:03:39.073Z</time></trkpt><trkpt lat="53.5498081" lon="14.774983"><ele>11.0</ele><time>2026-04-06T14:03:40.088Z</time></trkpt><trkpt lat="53.5497077" lon="14.7749472"><ele>11.0</ele><time>2026-04-06T14:03:41.078Z</time></trkpt><trkpt lat="53.5496207" lon="14.7749234"><ele>11.0</ele><time>2026-04-06T14:03:42.073Z</time></trkpt><trkpt lat="53.5495408" lon="14.7749231"><ele>11.0</ele><time>2026-04-06T14:03:43.08Z</time></trkpt><trkpt lat="53.5494682" lon="14.7749485"><ele>11.0</ele><time>2026-04-06T14:03:44.07Z</time></trkpt><trkpt lat="53.5493927" lon="14.7750086"><ele>11.0</ele><time>2026-04-06T14:03:45.099Z</time></trkpt><trkpt lat="53.5493238" lon="14.7751077"><ele>11.25</ele><time>2026-04-06T14:03:46.069Z</time></trkpt><trkpt lat="53.54926" lon="14.7752753"><ele>11.5</ele><time>2026-04-06T14:03:47.078Z</time></trkpt><trkpt lat="53.5492114" lon="14.7755436"><ele>11.75</ele><time>2026-04-06T14:03:48.068Z</time></trkpt><trkpt lat="53.5491609" lon="14.775786"><ele>12.0</ele><time>2026-04-06T14:03:49.095Z</time></trkpt><trkpt lat="53.5491177" lon="14.7759935"><ele>12.0</ele><time>2026-04-06T14:03:50.07Z</time></trkpt><trkpt lat="53.5490838" lon="14.7761668"><ele>12.0</ele><time>2026-04-06T14:03:51.078Z</time></trkpt><trkpt lat="53.5490561" lon="14.7763128"><ele>12.0</ele><time>2026-04-06T14:03:52.069Z</time></trkpt><trkpt lat="53.5490342" lon="14.7764418"><ele>12.0</ele><time>2026-04-06T14:03:53.092Z</time></trkpt><trkpt lat="53.549018" lon="14.7765512"><ele>12.0</ele><time>2026-04-06T14:03:54.069Z</time></trkpt><trkpt lat="53.5489884" lon="14.7767376"><ele>12.0</ele><time>2026-04-06T14:03:56.07Z</time></trkpt><trkpt lat="53.5489576" lon="14.7768993"><ele>12.0</ele><time>2026-04-06T14:03:58.066Z</time></trkpt><trkpt lat="53.548897" lon="14.7770545"><ele>12.0</ele><time>2026-04-06T14:04:00.07Z</time></trkpt><trkpt lat="53.548846" lon="14.7771225"><ele>12.0</ele><time>2026-04-06T14:04:01.096Z</time></trkpt><trkpt lat="53.5487878" lon="14.7771865"><ele>12.0</ele><time>2026-04-06T14:04:02.073Z</time></trkpt><trkpt lat="53.5487194" lon="14.777265"><ele>12.0</ele><time>2026-04-06T14:04:03.078Z</time></trkpt><trkpt lat="53.5486428" lon="14.7773556"><ele>12.0</ele><time>2026-04-06T14:04:04.068Z</time></trkpt><trkpt lat="53.5485571" lon="14.7774652"><ele>12.0</ele><time>2026-04-06T14:04:05.101Z</time></trkpt><trkpt lat="53.5484722" lon="14.7775767"><ele>12.0</ele><time>2026-04-06T14:04:06.07Z</time></trkpt><trkpt lat="53.5483904" lon="14.7776743"><ele>12.0</ele><time>2026-04-06T14:04:07.082Z</time></trkpt><trkpt lat="53.5483164" lon="14.7777623"><ele>12.0</ele><time>2026-04-06T14:04:08.071Z</time></trkpt><trkpt lat="53.5482476" lon="14.7778488"><ele>11.5</ele><time>2026-04-06T14:04:09.093Z</time></trkpt><trkpt lat="53.5481918" lon="14.7779329"><ele>11.0</ele><time>2026-04-06T14:04:10.066Z</time></trkpt><trkpt lat="53.5481444" lon="14.7780252"><ele>10.5</ele><time>2026-04-06T14:04:11.078Z</time></trkpt><trkpt lat="53.5481043" lon="14.7781344"><ele>10.0</ele><time>2026-04-06T14:04:12.073Z</time></trkpt><trkpt lat="53.5480711" lon="14.7782756"><ele>9.5</ele><time>2026-04-06T14:04:13.093Z</time></trkpt><trkpt lat="53.548056" lon="14.7784651"><ele>9.0</ele><time>2026-04-06T14:04:14.074Z</time></trkpt><trkpt lat="53.5480417" lon="14.7786673"><ele>9.0</ele><time>2026-04-06T14:04:15.083Z</time></trkpt><trkpt lat="53.5480195" lon="14.7788556"><ele>9.0</ele><time>2026-04-06T14:04:16.068Z</time></trkpt><trkpt lat="53.5479805" lon="14.7790373"><ele>9.0</ele><time>2026-04-06T14:04:17.084Z</time></trkpt><trkpt lat="53.5479201" lon="14.7792123"><ele>9.0</ele><time>2026-04-06T14:04:18.07Z</time></trkpt><trkpt lat="53.5478326" lon="14.7793815"><ele>10.75</ele><time>2026-04-06T14:04:19.081Z</time></trkpt><trkpt lat="53.5477268" lon="14.7795236"><ele>12.5</ele><time>2026-04-06T14:04:20.07Z</time></trkpt><trkpt lat="53.5476044" lon="14.7796391"><ele>14.25</ele><time>2026-04-06T14:04:21.095Z</time></trkpt><trkpt lat="53.5474773" lon="14.7797432"><ele>16.0</ele><time>2026-04-06T14:04:22.072Z</time></trkpt><trkpt lat="53.5473583" lon="14.7798483"><ele>16.0</ele><time>2026-04-06T14:04:23.082Z</time></trkpt><trkpt lat="53.547248" lon="14.7799421"><ele>16.0</ele><time>2026-04-06T14:04:24.074Z</time></trkpt><trkpt lat="53.547141" lon="14.7800226"><ele>16.0</ele><time>2026-04-06T14:04:25.097Z</time></trkpt><trkpt lat="53.5470388" lon="14.7801046"><ele>16.0</ele><time>2026-04-06T14:04:26.071Z</time></trkpt><trkpt lat="53.5469312" lon="14.7801978"><ele>16.0</ele><time>2026-04-06T14:04:27.07Z</time></trkpt><trkpt lat="53.5468167" lon="14.7802904"><ele>16.0</ele><time>2026-04-06T14:04:28.081Z</time></trkpt><trkpt lat="53.5466963" lon="14.7803777"><ele>16.0</ele><time>2026-04-06T14:04:29.076Z</time></trkpt><trkpt lat="53.5465673" lon="14.7804609"><ele>16.0</ele><time>2026-04-06T14:04:30.076Z</time></trkpt><trkpt lat="53.546429" lon="14.7805379"><ele>16.0</ele><time>2026-04-06T14:04:31.086Z</time></trkpt><trkpt lat="53.5462869" lon="14.780611"><ele>16.0</ele><time>2026-04-06T14:04:32.083Z</time></trkpt><trkpt lat="53.5461422" lon="14.7806831"><ele>16.0</ele><time>2026-04-06T14:04:33.086Z</time></trkpt><trkpt lat="53.5459968" lon="14.7807457"><ele>15.5</ele><time>2026-04-06T14:04:34.075Z</time></trkpt><trkpt lat="53.5458506" lon="14.7808013"><ele>15.0</ele><time>2026-04-06T14:04:35.068Z</time></trkpt><trkpt lat="53.5457112" lon="14.7808574"><ele>14.5</ele><time>2026-04-06T14:04:36.08Z</time></trkpt><trkpt lat="53.5455808" lon="14.7809129"><ele>14.0</ele><time>2026-04-06T14:04:37.077Z</time></trkpt><trkpt lat="53.5454496" lon="14.7809679"><ele>14.0</ele><time>2026-04-06T14:04:38.072Z</time></trkpt><trkpt lat="53.5453136" lon="14.7810275"><ele>14.0</ele><time>2026-04-06T14:04:39.076Z</time></trkpt><trkpt lat="53.5451746" lon="14.7810875"><ele>14.0</ele><time>2026-04-06T14:04:40.086Z</time></trkpt><trkpt lat="53.5450319" lon="14.7811495"><ele>14.0</ele><time>2026-04-06T14:04:41.078Z</time></trkpt><trkpt lat="53.5448785" lon="14.7812114"><ele>14.0</ele><time>2026-04-06T14:04:42.07Z</time></trkpt><trkpt lat="53.5447099" lon="14.7812776"><ele>14.0</ele><time>2026-04-06T14:04:43.086Z</time></trkpt><trkpt lat="53.5445348" lon="14.7813467"><ele>14.0</ele><time>2026-04-06T14:04:44.063Z</time></trkpt><trkpt lat="53.5443565" lon="14.7814205"><ele>13.333333333333334</ele><time>2026-04-06T14:04:45.076Z</time></trkpt><trkpt lat="53.5441825" lon="14.7814961"><ele>12.666666666666668</ele><time>2026-04-06T14:04:46.078Z</time></trkpt><trkpt lat="53.5440075" lon="14.7815715"><ele>12.0</ele><time>2026-04-06T14:04:47.088Z</time></trkpt><trkpt lat="53.5438326" lon="14.7816527"><ele>12.0</ele><time>2026-04-06T14:04:48.072Z</time></trkpt><trkpt lat="53.5436535" lon="14.7817374"><ele>12.0</ele><time>2026-04-06T14:04:49.079Z</time></trkpt><trkpt lat="53.5434756" lon="14.7818256"><ele>12.0</ele><time>2026-04-06T14:04:50.072Z</time></trkpt><trkpt lat="53.5432961" lon="14.7819134"><ele>12.0</ele><time>2026-04-06T14:04:51.089Z</time></trkpt><trkpt lat="53.5431192" lon="14.7819938"><ele>12.0</ele><time>2026-04-06T14:04:52.073Z</time></trkpt><trkpt lat="53.5429401" lon="14.7820709"><ele>12.0</ele><time>2026-04-06T14:04:53.076Z</time></trkpt><trkpt lat="53.5427604" lon="14.7821501"><ele>11.666666666666666</ele><time>2026-04-06T14:04:54.073Z</time></trkpt><trkpt lat="53.5425816" lon="14.7822355"><ele>11.333333333333332</ele><time>2026-04-06T14:04:55.095Z</time></trkpt><trkpt lat="53.542412" lon="14.7823181"><ele>11.0</ele><time>2026-04-06T14:04:56.073Z</time></trkpt><trkpt lat="53.5422494" lon="14.7823947"><ele>11.0</ele><time>2026-04-06T14:04:57.085Z</time></trkpt><trkpt lat="53.5420999" lon="14.7824627"><ele>11.0</ele><time>2026-04-06T14:04:58.064Z</time></trkpt><trkpt lat="53.5419505" lon="14.7825374"><ele>11.0</ele><time>2026-04-06T14:04:59.082Z</time></trkpt><trkpt lat="53.5418047" lon="14.7826081"><ele>11.0</ele><time>2026-04-06T14:05:00.07Z</time></trkpt><trkpt lat="53.5416587" lon="14.7826709"><ele>11.0</ele><time>2026-04-06T14:05:01.081Z</time></trkpt><trkpt lat="53.541516" lon="14.7827305"><ele>11.0</ele><time>2026-04-06T14:05:02.077Z</time></trkpt><trkpt lat="53.5413691" lon="14.7827939"><ele>11.0</ele><time>2026-04-06T14:05:03.092Z</time></trkpt><trkpt lat="53.5412181" lon="14.7828625"><ele>11.0</ele><time>2026-04-06T14:05:04.073Z</time></trkpt><trkpt lat="53.5410683" lon="14.7829285"><ele>11.0</ele><time>2026-04-06T14:05:05.083Z</time></trkpt><trkpt lat="53.5409281" lon="14.7829864"><ele>11.0</ele><time>2026-04-06T14:05:06.063Z</time></trkpt><trkpt lat="53.5408002" lon="14.7830335"><ele>11.0</ele><time>2026-04-06T14:05:07.097Z</time></trkpt><trkpt lat="53.5406876" lon="14.7830773"><ele>11.0</ele><time>2026-04-06T14:05:08.062Z</time></trkpt><trkpt lat="53.5405829" lon="14.7831176"><ele>11.0</ele><time>2026-04-06T14:05:09.076Z</time></trkpt><trkpt lat="53.5404939" lon="14.7831653"><ele>11.0</ele><time>2026-04-06T14:05:10.07Z</time></trkpt><trkpt lat="53.5404206" lon="14.783219"><ele>11.0</ele><time>2026-04-06T14:05:11.088Z</time></trkpt><trkpt lat="53.5403594" lon="14.7832652"><ele>11.0</ele><time>2026-04-06T14:05:12.072Z</time></trkpt><trkpt lat="53.5402749" lon="14.7833122"><ele>11.0</ele><time>2026-04-06T14:05:14.073Z</time></trkpt><trkpt lat="53.5401918" lon="14.7833256"><ele>10.600000000000001</ele><time>2026-04-06T14:05:18.07Z</time></trkpt><trkpt lat="53.5401233" lon="14.78333"><ele>10.200000000000001</ele><time>2026-04-06T14:05:31.076Z</time></trkpt><trkpt lat="53.54001" lon="14.7833817"><ele>9.8</ele><time>2026-04-06T14:05:33.072Z</time></trkpt><trkpt lat="53.53992" lon="14.7834217"><ele>9.4</ele><time>2026-04-06T14:05:34.065Z</time></trkpt><trkpt lat="53.5398133" lon="14.7834683"><ele>9.0</ele><time>2026-04-06T14:05:35.063Z</time></trkpt><trkpt lat="53.5396967" lon="14.7835167"><ele>8.6</ele><time>2026-04-06T14:05:36.067Z</time></trkpt><trkpt lat="53.539575" lon="14.7835683"><ele>8.2</ele><time>2026-04-06T14:05:37.072Z</time></trkpt><trkpt lat="53.5394683" lon="14.78361"><ele>7.799999999999999</ele><time>2026-04-06T14:05:38.061Z</time></trkpt><trkpt lat="53.5393733" lon="14.78364"><ele>7.3999999999999995</ele><time>2026-04-06T14:05:39.077Z</time></trkpt><trkpt lat="53.5393" lon="14.7836667"><ele>7.0</ele><time>2026-04-06T14:05:40.062Z</time></trkpt><trkpt lat="53.5392383" lon="14.783695"><ele>7.0</ele><time>2026-04-06T14:05:41.075Z</time></trkpt><trkpt lat="53.539135" lon="14.7837383"><ele>6.999999999999999</ele><time>2026-04-06T14:05:43.074Z</time></trkpt><trkpt lat="53.5390767" lon="14.78379"><ele>6.999999999999999</ele><time>2026-04-06T14:05:45.069Z</time></trkpt><trkpt lat="53.53899" lon="14.7838483"><ele>7.0</ele><time>2026-04-06T14:05:49.08Z</time></trkpt><trkpt lat="53.5388667" lon="14.783875"><ele>7.0</ele><time>2026-04-06T14:05:51.065Z</time></trkpt><trkpt lat="53.53878" lon="14.7839033"><ele>7.5</ele><time>2026-04-06T14:05:52.071Z</time></trkpt><trkpt lat="53.5386717" lon="14.7839483"><ele>8.0</ele><time>2026-04-06T14:05:53.068Z</time></trkpt><trkpt lat="53.5385517" lon="14.784"><ele>8.5</ele><time>2026-04-06T14:05:54.063Z</time></trkpt><trkpt lat="53.5384333" lon="14.784045"><ele>9.0</ele><time>2026-04-06T14:05:55.059Z</time></trkpt><trkpt lat="53.538335" lon="14.7840883"><ele>9.0</ele><time>2026-04-06T14:05:56.068Z</time></trkpt><trkpt lat="53.538255" lon="14.78414"><ele>9.0</ele><time>2026-04-06T14:05:57.067Z</time></trkpt><trkpt lat="53.5381967" lon="14.784235"><ele>9.0</ele><time>2026-04-06T14:05:58.069Z</time></trkpt><trkpt lat="53.538165" lon="14.7843667"><ele>9.0</ele><time>2026-04-06T14:05:59.064Z</time></trkpt><trkpt lat="53.538155" lon="14.78453"><ele>9.0</ele><time>2026-04-06T14:06:00.068Z</time></trkpt><trkpt lat="53.53817" lon="14.7847233"><ele>7.666666666666667</ele><time>2026-04-06T14:06:01.071Z</time></trkpt><trkpt lat="53.5382183" lon="14.7849583"><ele>6.333333333333334</ele><time>2026-04-06T14:06:02.071Z</time></trkpt><trkpt lat="53.5382667" lon="14.7852083"><ele>5.0</ele><time>2026-04-06T14:06:03.074Z</time></trkpt><trkpt lat="53.538315" lon="14.7854767"><ele>5.0</ele><time>2026-04-06T14:06:04.07Z</time></trkpt><trkpt lat="53.538365" lon="14.7857633"><ele>5.0</ele><time>2026-04-06T14:06:05.068Z</time></trkpt><trkpt lat="53.5384133" lon="14.7860533"><ele>5.0</ele><time>2026-04-06T14:06:06.063Z</time></trkpt><trkpt lat="53.5384633" lon="14.7863433"><ele>4.666666666666667</ele><time>2026-04-06T14:06:07.072Z</time></trkpt><trkpt lat="53.5385146" lon="14.7866309"><ele>4.333333333333333</ele><time>2026-04-06T14:06:08.071Z</time></trkpt><trkpt lat="53.5385621" lon="14.7869171"><ele>4.0</ele><time>2026-04-06T14:06:09.073Z</time></trkpt><trkpt lat="53.5386106" lon="14.7871955"><ele>3.6666666666666665</ele><time>2026-04-06T14:06:10.072Z</time></trkpt><trkpt lat="53.5386593" lon="14.787468"><ele>3.333333333333333</ele><time>2026-04-06T14:06:11.074Z</time></trkpt><trkpt lat="53.5387094" lon="14.7877309"><ele>3.0</ele><time>2026-04-06T14:06:12.071Z</time></trkpt><trkpt lat="53.5387573" lon="14.7879826"><ele>2.6666666666666665</ele><time>2026-04-06T14:06:13.073Z</time></trkpt><trkpt lat="53.5388022" lon="14.7882314"><ele>2.333333333333333</ele><time>2026-04-06T14:06:14.07Z</time></trkpt><trkpt lat="53.5388493" lon="14.7884818"><ele>2.0</ele><time>2026-04-06T14:06:15.073Z</time></trkpt><trkpt lat="53.5389013" lon="14.7887421"><ele>2.0</ele><time>2026-04-06T14:06:16.071Z</time></trkpt><trkpt lat="53.5389586" lon="14.7890275"><ele>2.0</ele><time>2026-04-06T14:06:17.076Z</time></trkpt><trkpt lat="53.539019" lon="14.789353"><ele>2.0</ele><time>2026-04-06T14:06:18.068Z</time></trkpt><trkpt lat="53.5390783" lon="14.7896915"><ele>2.333333333333333</ele><time>2026-04-06T14:06:19.064Z</time></trkpt><trkpt lat="53.539136" lon="14.7900214"><ele>2.6666666666666665</ele><time>2026-04-06T14:06:20.066Z</time></trkpt><trkpt lat="53.5391911" lon="14.7903347"><ele>3.0</ele><time>2026-04-06T14:06:21.07Z</time></trkpt><trkpt lat="53.539243" lon="14.7906332"><ele>3.0</ele><time>2026-04-06T14:06:22.073Z</time></trkpt><trkpt lat="53.5392918" lon="14.7909227"><ele>3.0</ele><time>2026-04-06T14:06:23.072Z</time></trkpt><trkpt lat="53.5393366" lon="14.7912078"><ele>3.0</ele><time>2026-04-06T14:06:24.067Z</time></trkpt><trkpt lat="53.5393821" lon="14.7914978"><ele>3.0</ele><time>2026-04-06T14:06:25.075Z</time></trkpt><trkpt lat="53.5394303" lon="14.7917914"><ele>3.0</ele><time>2026-04-06T14:06:26.067Z</time></trkpt><trkpt lat="53.5394818" lon="14.7920915"><ele>3.0</ele><time>2026-04-06T14:06:27.061Z</time></trkpt><trkpt lat="53.5395367" lon="14.7924003"><ele>3.0</ele><time>2026-04-06T14:06:28.063Z</time></trkpt><trkpt lat="53.5395896" lon="14.7927066"><ele>3.0</ele><time>2026-04-06T14:06:29.07Z</time></trkpt><trkpt lat="53.539645" lon="14.7930103"><ele>3.0</ele><time>2026-04-06T14:06:30.074Z</time></trkpt><trkpt lat="53.5397021" lon="14.7933177"><ele>3.0</ele><time>2026-04-06T14:06:31.064Z</time></trkpt><trkpt lat="53.5397569" lon="14.7936318"><ele>3.0</ele><time>2026-04-06T14:06:32.06Z</time></trkpt><trkpt lat="53.5398094" lon="14.7939508"><ele>3.0</ele><time>2026-04-06T14:06:33.067Z</time></trkpt><trkpt lat="53.5398643" lon="14.7942654"><ele>3.0</ele><time>2026-04-06T14:06:34.063Z</time></trkpt><trkpt lat="53.5399171" lon="14.794571"><ele>3.0</ele><time>2026-04-06T14:06:35.059Z</time></trkpt><trkpt lat="53.5399679" lon="14.7948553"><ele>3.0</ele><time>2026-04-06T14:06:36.065Z</time></trkpt><trkpt lat="53.540014" lon="14.7951041"><ele>3.25</ele><time>2026-04-06T14:06:37.066Z</time></trkpt><trkpt lat="53.540057" lon="14.795335"><ele>3.5</ele><time>2026-04-06T14:06:38.065Z</time></trkpt><trkpt lat="53.540098" lon="14.7955557"><ele>3.75</ele><time>2026-04-06T14:06:39.068Z</time></trkpt><trkpt lat="53.5401375" lon="14.7957748"><ele>4.0</ele><time>2026-04-06T14:06:40.064Z</time></trkpt><trkpt lat="53.5401746" lon="14.7959836"><ele>4.0</ele><time>2026-04-06T14:06:41.074Z</time></trkpt><trkpt lat="53.5402075" lon="14.7961735"><ele>4.0</ele><time>2026-04-06T14:06:42.074Z</time></trkpt><trkpt lat="53.5402395" lon="14.7963533"><ele>4.0</ele><time>2026-04-06T14:06:43.075Z</time></trkpt><trkpt lat="53.5402683" lon="14.7965196"><ele>4.0</ele><time>2026-04-06T14:06:44.065Z</time></trkpt><trkpt lat="53.5402947" lon="14.7966727"><ele>4.0</ele><time>2026-04-06T14:06:45.062Z</time></trkpt><trkpt lat="53.5403166" lon="14.7968138"><ele>3.833333333333333</ele><time>2026-04-06T14:06:46.056Z</time></trkpt><trkpt lat="53.540334" lon="14.796941"><ele>3.6666666666666665</ele><time>2026-04-06T14:06:47.073Z</time></trkpt><trkpt lat="53.540346" lon="14.7970503"><ele>3.5</ele><time>2026-04-06T14:06:48.07Z</time></trkpt><trkpt lat="53.5403649" lon="14.7971923"><ele>3.333333333333333</ele><time>2026-04-06T14:06:50.066Z</time></trkpt><trkpt lat="53.5404226" lon="14.7972386"><ele>3.1666666666666665</ele><time>2026-04-06T14:06:56.065Z</time></trkpt><trkpt lat="53.5404183" lon="14.79742"><ele>3.0</ele><time>2026-04-06T14:07:05.061Z</time></trkpt><trkpt lat="53.540435" lon="14.797535"><ele>3.0</ele><time>2026-04-06T14:07:06.076Z</time></trkpt><trkpt lat="53.5404617" lon="14.79767"><ele>3.0</ele><time>2026-04-06T14:07:07.081Z</time></trkpt><trkpt lat="53.5404867" lon="14.7978233"><ele>3.0</ele><time>2026-04-06T14:07:08.067Z</time></trkpt><trkpt lat="53.5405117" lon="14.7979883"><ele>3.0</ele><time>2026-04-06T14:07:09.08Z</time></trkpt><trkpt lat="53.5405467" lon="14.7981617"><ele>3.0</ele><time>2026-04-06T14:07:10.062Z</time></trkpt><trkpt lat="53.540585" lon="14.79835"><ele>3.25</ele><time>2026-04-06T14:07:11.084Z</time></trkpt><trkpt lat="53.5406233" lon="14.7985633"><ele>3.5</ele><time>2026-04-06T14:07:12.069Z</time></trkpt><trkpt lat="53.5406667" lon="14.7988"><ele>3.75</ele><time>2026-04-06T14:07:13.082Z</time></trkpt><trkpt lat="53.5407083" lon="14.7990533"><ele>4.0</ele><time>2026-04-06T14:07:14.065Z</time></trkpt><trkpt lat="53.5407533" lon="14.799325"><ele>4.0</ele><time>2026-04-06T14:07:15.077Z</time></trkpt><trkpt lat="53.5407983" lon="14.7995967"><ele>4.0</ele><time>2026-04-06T14:07:16.067Z</time></trkpt><trkpt lat="53.5408383" lon="14.7998683"><ele>4.0</ele><time>2026-04-06T14:07:17.077Z</time></trkpt><trkpt lat="53.540885" lon="14.8001383"><ele>4.0</ele><time>2026-04-06T14:07:18.069Z</time></trkpt><trkpt lat="53.5409333" lon="14.8004083"><ele>4.0</ele><time>2026-04-06T14:07:19.095Z</time></trkpt><trkpt lat="53.54098" lon="14.8006717"><ele>4.0</ele><time>2026-04-06T14:07:20.073Z</time></trkpt><trkpt lat="53.541025" lon="14.800935"><ele>4.0</ele><time>2026-04-06T14:07:21.079Z</time></trkpt><trkpt lat="53.5410683" lon="14.8011933"><ele>4.0</ele><time>2026-04-06T14:07:22.067Z</time></trkpt><trkpt lat="53.5411117" lon="14.8014467"><ele>4.0</ele><time>2026-04-06T14:07:23.092Z</time></trkpt><trkpt lat="53.5411567" lon="14.801695"><ele>4.0</ele><time>2026-04-06T14:07:24.07Z</time></trkpt><trkpt lat="53.5411967" lon="14.8019283"><ele>4.0</ele><time>2026-04-06T14:07:25.073Z</time></trkpt><trkpt lat="53.5412317" lon="14.8021433"><ele>4.0</ele><time>2026-04-06T14:07:26.063Z</time></trkpt><trkpt lat="53.541265" lon="14.8023433"><ele>4.0</ele><time>2026-04-06T14:07:27.087Z</time></trkpt><trkpt lat="53.5412917" lon="14.80252"><ele>4.166666666666666</ele><time>2026-04-06T14:07:28.07Z</time></trkpt><trkpt lat="53.5413167" lon="14.802665"><ele>4.333333333333333</ele><time>2026-04-06T14:07:29.076Z</time></trkpt><trkpt lat="53.541345" lon="14.802785"><ele>4.5</ele><time>2026-04-06T14:07:30.081Z</time></trkpt><trkpt lat="53.5413783" lon="14.8028833"><ele>4.666666666666667</ele><time>2026-04-06T14:07:31.076Z</time></trkpt><trkpt lat="53.5414467" lon="14.8029883"><ele>4.833333333333334</ele><time>2026-04-06T14:07:33.07Z</time></trkpt><trkpt lat="53.5415183" lon="14.8029717"><ele>5.0</ele><time>2026-04-06T14:07:36.072Z</time></trkpt><trkpt lat="53.5415833" lon="14.8028733"><ele>5.0</ele><time>2026-04-06T14:07:40.068Z</time></trkpt><trkpt lat="53.5416717" lon="14.80282"><ele>5.0</ele><time>2026-04-06T14:07:42.064Z</time></trkpt><trkpt lat="53.541795" lon="14.8027467"><ele>5.0</ele><time>2026-04-06T14:07:44.073Z</time></trkpt><trkpt lat="53.5418667" lon="14.8026983"><ele>5.0</ele><time>2026-04-06T14:07:45.084Z</time></trkpt><trkpt lat="53.54194" lon="14.8026467"><ele>5.0</ele><time>2026-04-06T14:07:46.069Z</time></trkpt><trkpt lat="53.5420083" lon="14.80259"><ele>4.833333333333334</ele><time>2026-04-06T14:07:47.09Z</time></trkpt><trkpt lat="53.5420683" lon="14.8025217"><ele>4.666666666666667</ele><time>2026-04-06T14:07:48.07Z</time></trkpt><trkpt lat="53.5421267" lon="14.8024483"><ele>4.5</ele><time>2026-04-06T14:07:49.084Z</time></trkpt><trkpt lat="53.5421867" lon="14.8023833"><ele>4.333333333333333</ele><time>2026-04-06T14:07:50.067Z</time></trkpt><trkpt lat="53.5422567" lon="14.802335"><ele>4.166666666666666</ele><time>2026-04-06T14:07:51.085Z</time></trkpt><trkpt lat="53.5423317" lon="14.80229"><ele>4.0</ele><time>2026-04-06T14:07:52.07Z</time></trkpt><trkpt lat="53.5424083" lon="14.802245"><ele>4.0</ele><time>2026-04-06T14:07:53.071Z</time></trkpt><trkpt lat="53.5424867" lon="14.8022067"><ele>3.9999999999999996</ele><time>2026-04-06T14:07:54.072Z</time></trkpt><trkpt lat="53.5425617" lon="14.8021667"><ele>4.0</ele><time>2026-04-06T14:07:55.075Z</time></trkpt><trkpt lat="53.5426317" lon="14.8021217"><ele>4.0</ele><time>2026-04-06T14:07:56.074Z</time></trkpt><trkpt lat="53.5426933" lon="14.8020667"><ele>3.9999999999999996</ele><time>2026-04-06T14:07:57.082Z</time></trkpt><trkpt lat="53.5427533" lon="14.8020083"><ele>4.0</ele><time>2026-04-06T14:07:58.071Z</time></trkpt><trkpt lat="53.5428167" lon="14.801955"><ele>4.0</ele><time>2026-04-06T14:07:59.079Z</time></trkpt><trkpt lat="53.5428817" lon="14.801905"><ele>3.9999999999999996</ele><time>2026-04-06T14:08:00.069Z</time></trkpt><trkpt lat="53.54295" lon="14.8018583"><ele>4.0</ele><time>2026-04-06T14:08:01.088Z</time></trkpt><trkpt lat="53.5430217" lon="14.8018183"><ele>4.0</ele><time>2026-04-06T14:08:02.062Z</time></trkpt><trkpt lat="53.5430967" lon="14.801785"><ele>4.0</ele><time>2026-04-06T14:08:03.076Z</time></trkpt><trkpt lat="53.5431733" lon="14.8017533"><ele>3.9999999999999996</ele><time>2026-04-06T14:08:04.073Z</time></trkpt><trkpt lat="53.543255" lon="14.8017233"><ele>4.0</ele><time>2026-04-06T14:08:05.092Z</time></trkpt><trkpt lat="53.543345" lon="14.8016883"><ele>4.0</ele><time>2026-04-06T14:08:06.067Z</time></trkpt><trkpt lat="53.5434467" lon="14.8016533"><ele>4.0</ele><time>2026-04-06T14:08:07.072Z</time></trkpt><trkpt lat="53.5435567" lon="14.8016183"><ele>4.0</ele><time>2026-04-06T14:08:08.073Z</time></trkpt><trkpt lat="53.543665" lon="14.8015917"><ele>4.0</ele><time>2026-04-06T14:08:09.095Z</time></trkpt><trkpt lat="53.5437667" lon="14.8015633"><ele>4.0</ele><time>2026-04-06T14:08:10.072Z</time></trkpt><trkpt lat="53.543865" lon="14.80153"><ele>4.25</ele><time>2026-04-06T14:08:11.076Z</time></trkpt><trkpt lat="53.5439633" lon="14.80149"><ele>4.5</ele><time>2026-04-06T14:08:12.072Z</time></trkpt><trkpt lat="53.5440733" lon="14.8014583"><ele>4.75</ele><time>2026-04-06T14:08:13.095Z</time></trkpt><trkpt lat="53.5441917" lon="14.8014283"><ele>5.0</ele><time>2026-04-06T14:08:14.073Z</time></trkpt><trkpt lat="53.5443133" lon="14.80139"><ele>5.0</ele><time>2026-04-06T14:08:15.068Z</time></trkpt><trkpt lat="53.544435" lon="14.801335"><ele>5.0</ele><time>2026-04-06T14:08:16.073Z</time></trkpt><trkpt lat="53.5445517" lon="14.80127"><ele>5.0</ele><time>2026-04-06T14:08:17.074Z</time></trkpt><trkpt lat="53.5446563" lon="14.8012104"><ele>5.0</ele><time>2026-04-06T14:08:18.073Z</time></trkpt><trkpt lat="53.5447408" lon="14.8011653"><ele>5.0</ele><time>2026-04-06T14:08:19.069Z</time></trkpt><trkpt lat="53.5448096" lon="14.8011267"><ele>5.0</ele><time>2026-04-06T14:08:20.087Z</time></trkpt><trkpt lat="53.5449122" lon="14.8010749"><ele>5.0</ele><time>2026-04-06T14:08:22.074Z</time></trkpt><trkpt lat="53.5449778" lon="14.8010422"><ele>5.0</ele><time>2026-04-06T14:08:25.069Z</time></trkpt><trkpt lat="53.5450371" lon="14.8010058"><ele>5.0</ele><time>2026-04-06T14:08:29.07Z</time></trkpt><trkpt lat="53.5451233" lon="14.8010183"><ele>5.0</ele><time>2026-04-06T14:10:14.064Z</time></trkpt><trkpt lat="53.5451617" lon="14.80112"><ele>5.0</ele><time>2026-04-06T14:10:16.07Z</time></trkpt><trkpt lat="53.54518" lon="14.8012433"><ele>5.0</ele><time>2026-04-06T14:10:18.072Z</time></trkpt><trkpt lat="53.5452207" lon="14.8013685"><ele>5.0</ele><time>2026-04-06T14:10:20.07Z</time></trkpt><trkpt lat="53.54524" lon="14.8014846"><ele>5.0</ele><time>2026-04-06T14:10:22.069Z</time></trkpt><trkpt lat="53.545254" lon="14.8016102"><ele>5.0</ele><time>2026-04-06T14:10:25.084Z</time></trkpt><trkpt lat="53.5451757" lon="14.8016424"><ele>5.0</ele><time>2026-04-06T14:10:30.071Z</time></trkpt><trkpt lat="53.5450187" lon="14.8016412"><ele>5.0</ele><time>2026-04-06T14:10:32.079Z</time></trkpt><trkpt lat="53.5449034" lon="14.8016447"><ele>5.0</ele><time>2026-04-06T14:10:33.071Z</time></trkpt><trkpt lat="53.5447872" lon="14.8016485"><ele>5.0</ele><time>2026-04-06T14:10:34.076Z</time></trkpt><trkpt lat="53.5446815" lon="14.80165"><ele>5.0</ele><time>2026-04-06T14:10:35.078Z</time></trkpt><trkpt lat="53.5445924" lon="14.8016369"><ele>5.0</ele><time>2026-04-06T14:10:36.069Z</time></trkpt><trkpt lat="53.5445104" lon="14.8016125"><ele>5.0</ele><time>2026-04-06T14:10:37.093Z</time></trkpt><trkpt lat="53.5444273" lon="14.8015892"><ele>5.0</ele><time>2026-04-06T14:10:38.075Z</time></trkpt><trkpt lat="53.5443402" lon="14.8015744"><ele>5.0</ele><time>2026-04-06T14:10:39.079Z</time></trkpt><trkpt lat="53.5442434" lon="14.8015774"><ele>5.0</ele><time>2026-04-06T14:10:40.079Z</time></trkpt><trkpt lat="53.5441318" lon="14.8015933"><ele>5.0</ele><time>2026-04-06T14:10:41.076Z</time></trkpt><trkpt lat="53.5440186" lon="14.8016259"><ele>5.0</ele><time>2026-04-06T14:10:42.072Z</time></trkpt><trkpt lat="53.543908" lon="14.8016753"><ele>5.0</ele><time>2026-04-06T14:10:43.07Z</time></trkpt><trkpt lat="53.5437947" lon="14.8017248"><ele>5.0</ele><time>2026-04-06T14:10:44.083Z</time></trkpt><trkpt lat="53.5436773" lon="14.8017659"><ele>5.0</ele><time>2026-04-06T14:10:45.076Z</time></trkpt><trkpt lat="53.5435604" lon="14.8017955"><ele>4.8</ele><time>2026-04-06T14:10:46.062Z</time></trkpt><trkpt lat="53.5434459" lon="14.8018221"><ele>4.6</ele><time>2026-04-06T14:10:47.09Z</time></trkpt><trkpt lat="53.5433416" lon="14.8018396"><ele>4.4</ele><time>2026-04-06T14:10:48.072Z</time></trkpt><trkpt lat="53.5432311" lon="14.8018489"><ele>4.2</ele><time>2026-04-06T14:10:49.079Z</time></trkpt><trkpt lat="53.5431169" lon="14.8018631"><ele>4.0</ele><time>2026-04-06T14:10:50.075Z</time></trkpt><trkpt lat="53.5430106" lon="14.8018896"><ele>4.0</ele><time>2026-04-06T14:10:51.097Z</time></trkpt><trkpt lat="53.5429099" lon="14.8019402"><ele>4.0</ele><time>2026-04-06T14:10:52.072Z</time></trkpt><trkpt lat="53.5428062" lon="14.8020071"><ele>4.0</ele><time>2026-04-06T14:10:53.082Z</time></trkpt><trkpt lat="53.5427061" lon="14.8020842"><ele>4.0</ele><time>2026-04-06T14:10:54.074Z</time></trkpt><trkpt lat="53.5426094" lon="14.8021553"><ele>4.0</ele><time>2026-04-06T14:10:55.084Z</time></trkpt><trkpt lat="53.5425107" lon="14.8022168"><ele>4.0</ele><time>2026-04-06T14:10:56.074Z</time></trkpt><trkpt lat="53.5424082" lon="14.8022681"><ele>4.0</ele><time>2026-04-06T14:10:57.083Z</time></trkpt><trkpt lat="53.5423111" lon="14.8023171"><ele>4.0</ele><time>2026-04-06T14:10:58.068Z</time></trkpt><trkpt lat="53.5422191" lon="14.8023625"><ele>4.0</ele><time>2026-04-06T14:10:59.098Z</time></trkpt><trkpt lat="53.5421371" lon="14.8024048"><ele>4.0</ele><time>2026-04-06T14:11:00.063Z</time></trkpt><trkpt lat="53.542053" lon="14.8024404"><ele>3.9999999999999996</ele><time>2026-04-06T14:11:01.071Z</time></trkpt><trkpt lat="53.5419651" lon="14.8024715"><ele>4.0</ele><time>2026-04-06T14:11:02.073Z</time></trkpt><trkpt lat="53.5418791" lon="14.8025004"><ele>4.0</ele><time>2026-04-06T14:11:03.078Z</time></trkpt><trkpt lat="53.5417996" lon="14.8025387"><ele>4.0</ele><time>2026-04-06T14:11:04.084Z</time></trkpt><trkpt lat="53.5417312" lon="14.8025746"><ele>3.9999999999999996</ele><time>2026-04-06T14:11:05.08Z</time></trkpt><trkpt lat="53.5416677" lon="14.8026006"><ele>4.0</ele><time>2026-04-06T14:11:06.066Z</time></trkpt><trkpt lat="53.5416007" lon="14.8026306"><ele>4.0</ele><time>2026-04-06T14:11:07.094Z</time></trkpt><trkpt lat="53.5415348" lon="14.8026679"><ele>4.0</ele><time>2026-04-06T14:11:08.07Z</time></trkpt><trkpt lat="53.5414249" lon="14.8027154"><ele>4.0</ele><time>2026-04-06T14:11:10.075Z</time></trkpt><trkpt lat="53.5413548" lon="14.8027339"><ele>4.0</ele><time>2026-04-06T14:11:12.027Z</time></trkpt><trkpt lat="53.541291" lon="14.8026012"><ele>4.0</ele><time>2026-04-06T14:11:16.08Z</time></trkpt><trkpt lat="53.5412548" lon="14.8023827"><ele>4.0</ele><time>2026-04-06T14:11:18.077Z</time></trkpt><trkpt lat="53.5412349" lon="14.8022241"><ele>4.0</ele><time>2026-04-06T14:11:19.074Z</time></trkpt><trkpt lat="53.5412105" lon="14.8020309"><ele>4.0</ele><time>2026-04-06T14:11:20.088Z</time></trkpt><trkpt lat="53.5411784" lon="14.8018172"><ele>4.0</ele><time>2026-04-06T14:11:21.081Z</time></trkpt><trkpt lat="53.5411373" lon="14.8015978"><ele>4.0</ele><time>2026-04-06T14:11:22.073Z</time></trkpt><trkpt lat="53.5410945" lon="14.8013812"><ele>4.0</ele><time>2026-04-06T14:11:23.071Z</time></trkpt><trkpt lat="53.5410536" lon="14.8011667"><ele>4.0</ele><time>2026-04-06T14:11:24.086Z</time></trkpt><trkpt lat="53.5410152" lon="14.8009498"><ele>4.0</ele><time>2026-04-06T14:11:25.075Z</time></trkpt><trkpt lat="53.540978" lon="14.8007279"><ele>4.0</ele><time>2026-04-06T14:11:26.065Z</time></trkpt><trkpt lat="53.5409422" lon="14.8005025"><ele>4.0</ele><time>2026-04-06T14:11:27.085Z</time></trkpt><trkpt lat="53.5409058" lon="14.8002866"><ele>4.0</ele><time>2026-04-06T14:11:28.071Z</time></trkpt><trkpt lat="53.5408717" lon="14.8000832"><ele>4.0</ele><time>2026-04-06T14:11:29.073Z</time></trkpt><trkpt lat="53.5408401" lon="14.799895"><ele>4.0</ele><time>2026-04-06T14:11:30.08Z</time></trkpt><trkpt lat="53.5408074" lon="14.7997116"><ele>4.0</ele><time>2026-04-06T14:11:31.074Z</time></trkpt><trkpt lat="53.5407788" lon="14.7995294"><ele>4.0</ele><time>2026-04-06T14:11:32.071Z</time></trkpt><trkpt lat="53.5407534" lon="14.7993532"><ele>4.0</ele><time>2026-04-06T14:11:33.079Z</time></trkpt><trkpt lat="53.5407261" lon="14.7991726"><ele>4.0</ele><time>2026-04-06T14:11:34.064Z</time></trkpt><trkpt lat="53.5406946" lon="14.7989819"><ele>4.0</ele><time>2026-04-06T14:11:35.089Z</time></trkpt><trkpt lat="53.5406616" lon="14.79879"><ele>4.0</ele><time>2026-04-06T14:11:36.076Z</time></trkpt><trkpt lat="53.5406273" lon="14.7985904"><ele>4.0</ele><time>2026-04-06T14:11:37.078Z</time></trkpt><trkpt lat="53.540592" lon="14.7983903"><ele>4.0</ele><time>2026-04-06T14:11:38.072Z</time></trkpt><trkpt lat="53.5405512" lon="14.7981888"><ele>3.8000000000000003</ele><time>2026-04-06T14:11:39.086Z</time></trkpt><trkpt lat="53.5405137" lon="14.797997"><ele>3.6000000000000005</ele><time>2026-04-06T14:11:40.074Z</time></trkpt><trkpt lat="53.5404797" lon="14.7978241"><ele>3.4</ele><time>2026-04-06T14:11:41.082Z</time></trkpt><trkpt lat="53.540451" lon="14.7976811"><ele>3.2</ele><time>2026-04-06T14:11:42.074Z</time></trkpt><trkpt lat="53.5404274" lon="14.7975545"><ele>3.0</ele><time>2026-04-06T14:11:43.073Z</time></trkpt><trkpt lat="53.5404147" lon="14.7974342"><ele>3.0</ele><time>2026-04-06T14:11:44.069Z</time></trkpt><trkpt lat="53.5404179" lon="14.7973193"><ele>3.0</ele><time>2026-04-06T14:11:45.086Z</time></trkpt><trkpt lat="53.5404956" lon="14.7971572"><ele>3.0</ele><time>2026-04-06T14:11:47.078Z</time></trkpt><trkpt lat="53.5405736" lon="14.7971107"><ele>3.0</ele><time>2026-04-06T14:11:48.07Z</time></trkpt><trkpt lat="53.5406783" lon="14.7970705"><ele>3.0</ele><time>2026-04-06T14:11:49.086Z</time></trkpt><trkpt lat="53.5407986" lon="14.797022"><ele>3.0</ele><time>2026-04-06T14:11:50.06Z</time></trkpt><trkpt lat="53.5409305" lon="14.7969661"><ele>3.0</ele><time>2026-04-06T14:11:51.071Z</time></trkpt><trkpt lat="53.5410659" lon="14.7969028"><ele>3.0</ele><time>2026-04-06T14:11:52.062Z</time></trkpt><trkpt lat="53.5412121" lon="14.7968337"><ele>3.0</ele><time>2026-04-06T14:11:53.086Z</time></trkpt><trkpt lat="53.5413658" lon="14.7967641"><ele>3.0</ele><time>2026-04-06T14:11:54.068Z</time></trkpt><trkpt lat="53.5415289" lon="14.7966895"><ele>3.0</ele><time>2026-04-06T14:11:55.069Z</time></trkpt><trkpt lat="53.541695" lon="14.7966124"><ele>3.0</ele><time>2026-04-06T14:11:56.073Z</time></trkpt><trkpt lat="53.5418618" lon="14.7965313"><ele>3.0</ele><time>2026-04-06T14:11:57.09Z</time></trkpt><trkpt lat="53.5420288" lon="14.7964508"><ele>3.0</ele><time>2026-04-06T14:11:58.068Z</time></trkpt><trkpt lat="53.542203" lon="14.7963682"><ele>3.0</ele><time>2026-04-06T14:11:59.075Z</time></trkpt><trkpt lat="53.5423776" lon="14.7962851"><ele>2.6666666666666665</ele><time>2026-04-06T14:12:00.064Z</time></trkpt><trkpt lat="53.5425505" lon="14.7961996"><ele>2.333333333333333</ele><time>2026-04-06T14:12:01.092Z</time></trkpt><trkpt lat="53.5427157" lon="14.7961168"><ele>2.0</ele><time>2026-04-06T14:12:02.069Z</time></trkpt><trkpt lat="53.5428802" lon="14.7960336"><ele>1.6666666666666665</ele><time>2026-04-06T14:12:03.077Z</time></trkpt><trkpt lat="53.5430386" lon="14.7959517"><ele>1.3333333333333333</ele><time>2026-04-06T14:12:04.068Z</time></trkpt><trkpt lat="53.5432006" lon="14.7958671"><ele>1.0</ele><time>2026-04-06T14:12:05.088Z</time></trkpt><trkpt lat="53.5433616" lon="14.7957876"><ele>1.0</ele><time>2026-04-06T14:12:06.064Z</time></trkpt><trkpt lat="53.543526" lon="14.7957059"><ele>1.0</ele><time>2026-04-06T14:12:07.081Z</time></trkpt><trkpt lat="53.543683" lon="14.795626"><ele>1.0</ele><time>2026-04-06T14:12:08.069Z</time></trkpt><trkpt lat="53.5438278" lon="14.7955472"><ele>1.5</ele><time>2026-04-06T14:12:09.09Z</time></trkpt><trkpt lat="53.5439614" lon="14.7954795"><ele>2.0</ele><time>2026-04-06T14:12:10.069Z</time></trkpt><trkpt lat="53.5440901" lon="14.7954163"><ele>2.5</ele><time>2026-04-06T14:12:11.077Z</time></trkpt><trkpt lat="53.5442113" lon="14.7953554"><ele>3.0</ele><time>2026-04-06T14:12:12.064Z</time></trkpt><trkpt lat="53.5443317" lon="14.7952947"><ele>3.0</ele><time>2026-04-06T14:12:13.09Z</time></trkpt><trkpt lat="53.5444485" lon="14.7952384"><ele>3.0</ele><time>2026-04-06T14:12:14.068Z</time></trkpt><trkpt lat="53.5445665" lon="14.7951807"><ele>3.0</ele><time>2026-04-06T14:12:15.055Z</time></trkpt><trkpt lat="53.5446852" lon="14.7951211"><ele>3.0</ele><time>2026-04-06T14:12:16.056Z</time></trkpt><trkpt lat="53.5448043" lon="14.7950594"><ele>3.25</ele><time>2026-04-06T14:12:17.076Z</time></trkpt><trkpt lat="53.5449233" lon="14.7949976"><ele>3.5</ele><time>2026-04-06T14:12:18.069Z</time></trkpt><trkpt lat="53.5450448" lon="14.7949347"><ele>3.75</ele><time>2026-04-06T14:12:19.07Z</time></trkpt><trkpt lat="53.5451645" lon="14.7948726"><ele>4.0</ele><time>2026-04-06T14:12:20.057Z</time></trkpt><trkpt lat="53.5452802" lon="14.7948162"><ele>3.75</ele><time>2026-04-06T14:12:21.096Z</time></trkpt><trkpt lat="53.5453915" lon="14.7947658"><ele>3.5</ele><time>2026-04-06T14:12:22.069Z</time></trkpt><trkpt lat="53.5455056" lon="14.7947117"><ele>3.25</ele><time>2026-04-06T14:12:23.08Z</time></trkpt><trkpt lat="53.5456127" lon="14.794655"><ele>3.0</ele><time>2026-04-06T14:12:24.063Z</time></trkpt><trkpt lat="53.5457126" lon="14.7946026"><ele>3.0</ele><time>2026-04-06T14:12:25.085Z</time></trkpt><trkpt lat="53.5458023" lon="14.7945555"><ele>3.0</ele><time>2026-04-06T14:12:26.074Z</time></trkpt><trkpt lat="53.5458845" lon="14.7945118"><ele>3.0</ele><time>2026-04-06T14:12:27.086Z</time></trkpt><trkpt lat="53.5459537" lon="14.7944747"><ele>3.0</ele><time>2026-04-06T14:12:28.065Z</time></trkpt><trkpt lat="53.5460328" lon="14.7944406"><ele>3.0</ele><time>2026-04-06T14:12:30.063Z</time></trkpt><trkpt lat="53.545955" lon="14.7943867"><ele>3.0</ele><time>2026-04-06T14:13:02.071Z</time></trkpt><trkpt lat="53.54585" lon="14.79446"><ele>3.0</ele><time>2026-04-06T14:13:04.064Z</time></trkpt><trkpt lat="53.5457817" lon="14.794505"><ele>3.0</ele><time>2026-04-06T14:13:05.071Z</time></trkpt><trkpt lat="53.545705" lon="14.79455"><ele>3.0</ele><time>2026-04-06T14:13:06.081Z</time></trkpt><trkpt lat="53.545625" lon="14.7945967"><ele>3.0</ele><time>2026-04-06T14:13:07.077Z</time></trkpt><trkpt lat="53.5455383" lon="14.794645"><ele>3.0</ele><time>2026-04-06T14:13:08.072Z</time></trkpt><trkpt lat="53.5454533" lon="14.79469"><ele>3.0</ele><time>2026-04-06T14:13:09.076Z</time></trkpt><trkpt lat="53.545375" lon="14.79473"><ele>3.1666666666666665</ele><time>2026-04-06T14:13:10.071Z</time></trkpt><trkpt lat="53.5453033" lon="14.79477"><ele>3.333333333333333</ele><time>2026-04-06T14:13:11.093Z</time></trkpt><trkpt lat="53.5452383" lon="14.794805"><ele>3.5</ele><time>2026-04-06T14:13:12.061Z</time></trkpt><trkpt lat="53.5451783" lon="14.79484"><ele>3.6666666666666665</ele><time>2026-04-06T14:13:13.066Z</time></trkpt><trkpt lat="53.5450667" lon="14.7949017"><ele>3.833333333333333</ele><time>2026-04-06T14:13:15.067Z</time></trkpt><trkpt lat="53.5449767" lon="14.7949883"><ele>4.0</ele><time>2026-04-06T14:13:17.096Z</time></trkpt><trkpt lat="53.5449433" lon="14.7951383"><ele>3.8000000000000003</ele><time>2026-04-06T14:13:19.071Z</time></trkpt><trkpt lat="53.544965" lon="14.7953617"><ele>3.6000000000000005</ele><time>2026-04-06T14:13:21.072Z</time></trkpt><trkpt lat="53.5449867" lon="14.795495"><ele>3.4</ele><time>2026-04-06T14:13:22.068Z</time></trkpt><trkpt lat="53.5450117" lon="14.7956383"><ele>3.2</ele><time>2026-04-06T14:13:23.081Z</time></trkpt><trkpt lat="53.54504" lon="14.7957817"><ele>3.0</ele><time>2026-04-06T14:13:24.069Z</time></trkpt><trkpt lat="53.54507" lon="14.79593"><ele>3.2</ele><time>2026-04-06T14:13:25.092Z</time></trkpt><trkpt lat="53.5451" lon="14.7960867"><ele>3.4</ele><time>2026-04-06T14:13:26.068Z</time></trkpt><trkpt lat="53.54513" lon="14.7962567"><ele>3.6000000000000005</ele><time>2026-04-06T14:13:27.079Z</time></trkpt><trkpt lat="53.5451633" lon="14.7964367"><ele>3.8000000000000003</ele><time>2026-04-06T14:13:28.067Z</time></trkpt><trkpt lat="53.5451967" lon="14.7966217"><ele>4.0</ele><time>2026-04-06T14:13:29.098Z</time></trkpt><trkpt lat="53.5452333" lon="14.79681"><ele>3.75</ele><time>2026-04-06T14:13:30.065Z</time></trkpt><trkpt lat="53.5452683" lon="14.797"><ele>3.5</ele><time>2026-04-06T14:13:31.083Z</time></trkpt><trkpt lat="53.545305" lon="14.7971867"><ele>3.25</ele><time>2026-04-06T14:13:32.07Z</time></trkpt><trkpt lat="53.54534" lon="14.7973683"><ele>3.0</ele><time>2026-04-06T14:13:33.076Z</time></trkpt><trkpt lat="53.5453717" lon="14.7975383"><ele>2.8</ele><time>2026-04-06T14:13:34.067Z</time></trkpt><trkpt lat="53.5453983" lon="14.79769"><ele>2.5999999999999996</ele><time>2026-04-06T14:13:35.089Z</time></trkpt><trkpt lat="53.5454233" lon="14.797835"><ele>2.4000000000000004</ele><time>2026-04-06T14:13:36.061Z</time></trkpt><trkpt lat="53.5454517" lon="14.797985"><ele>2.2</ele><time>2026-04-06T14:13:37.083Z</time></trkpt><trkpt lat="53.5454817" lon="14.7981367"><ele>2.0</ele><time>2026-04-06T14:13:38.063Z</time></trkpt><trkpt lat="53.54552" lon="14.7982667"><ele>2.0</ele><time>2026-04-06T14:13:39.089Z</time></trkpt><trkpt lat="53.5455617" lon="14.7983617"><ele>2.0</ele><time>2026-04-06T14:13:40.063Z</time></trkpt><trkpt lat="53.5456033" lon="14.798475"><ele>2.0</ele><time>2026-04-06T14:13:42.063Z</time></trkpt><trkpt lat="53.5456483" lon="14.7986367"><ele>2.0</ele><time>2026-04-06T14:13:49.062Z</time></trkpt><trkpt lat="53.545685" lon="14.7988233"><ele>2.0</ele><time>2026-04-06T14:13:51.068Z</time></trkpt><trkpt lat="53.54571" lon="14.7989667"><ele>2.0</ele><time>2026-04-06T14:13:52.088Z</time></trkpt><trkpt lat="53.5457417" lon="14.799115"><ele>2.0</ele><time>2026-04-06T14:13:53.069Z</time></trkpt><trkpt lat="53.5457717" lon="14.7992717"><ele>2.0</ele><time>2026-04-06T14:13:54.07Z</time></trkpt><trkpt lat="53.5458017" lon="14.7994367"><ele>2.0</ele><time>2026-04-06T14:13:55.07Z</time></trkpt><trkpt lat="53.5458333" lon="14.7996017"><ele>2.0</ele><time>2026-04-06T14:13:56.087Z</time></trkpt><trkpt lat="53.5458633" lon="14.799765"><ele>2.1666666666666665</ele><time>2026-04-06T14:13:57.078Z</time></trkpt><trkpt lat="53.5458917" lon="14.79991"><ele>2.333333333333333</ele><time>2026-04-06T14:13:58.066Z</time></trkpt><trkpt lat="53.5459133" lon="14.8000383"><ele>2.5</ele><time>2026-04-06T14:13:59.09Z</time></trkpt><trkpt lat="53.5459433" lon="14.800205"><ele>2.6666666666666665</ele><time>2026-04-06T14:14:01.08Z</time></trkpt><trkpt lat="53.54597" lon="14.8003617"><ele>2.8333333333333335</ele><time>2026-04-06T14:14:30.066Z</time></trkpt><trkpt lat="53.5459667" lon="14.80049"><ele>3.0</ele><time>2026-04-06T14:14:39.075Z</time></trkpt><trkpt lat="53.5459017" lon="14.80043"><ele>3.1666666666666665</ele><time>2026-04-06T14:14:54.064Z</time></trkpt><trkpt lat="53.5458367" lon="14.8004567"><ele>3.333333333333333</ele><time>2026-04-06T14:14:56.063Z</time></trkpt><trkpt lat="53.5457567" lon="14.8004967"><ele>3.5</ele><time>2026-04-06T14:14:58.066Z</time></trkpt><trkpt lat="53.5457017" lon="14.8005717"><ele>3.6666666666666665</ele><time>2026-04-06T14:15:00.064Z</time></trkpt><trkpt lat="53.5456383" lon="14.8006283"><ele>3.833333333333333</ele><time>2026-04-06T14:26:45.073Z</time></trkpt><trkpt lat="53.5455717" lon="14.800695"><ele>4.0</ele><time>2026-04-06T14:26:47.077Z</time></trkpt><trkpt lat="53.54547" lon="14.80078"><ele>4.0</ele><time>2026-04-06T14:26:49.06Z</time></trkpt><trkpt lat="53.5453917" lon="14.8009083"><ele>4.0</ele><time>2026-04-06T14:26:51.066Z</time></trkpt><trkpt lat="53.5453583" lon="14.8010817"><ele>4.0</ele><time>2026-04-06T14:26:53.078Z</time></trkpt><trkpt lat="53.5453633" lon="14.801285"><ele>4.0</ele><time>2026-04-06T14:26:55.088Z</time></trkpt><trkpt lat="53.5453733" lon="14.8013917"><ele>4.0</ele><time>2026-04-06T14:26:56.072Z</time></trkpt><trkpt lat="53.5453917" lon="14.80159"><ele>5.2</ele><time>2026-04-06T14:26:58.066Z</time></trkpt><trkpt lat="53.5453867" lon="14.8017833"><ele>6.4</ele><time>2026-04-06T14:27:00.07Z</time></trkpt><trkpt lat="53.54534" lon="14.8019717"><ele>7.6</ele><time>2026-04-06T14:27:02.069Z</time></trkpt><trkpt lat="53.54525" lon="14.8021167"><ele>8.8</ele><time>2026-04-06T14:27:04.076Z</time></trkpt><trkpt lat="53.5451883" lon="14.80217"><ele>10.0</ele><time>2026-04-06T14:27:05.079Z</time></trkpt><trkpt lat="53.5451167" lon="14.802215"><ele>10.0</ele><time>2026-04-06T14:27:06.072Z</time></trkpt><trkpt lat="53.5450383" lon="14.8022683"><ele>10.0</ele><time>2026-04-06T14:27:07.093Z</time></trkpt><trkpt lat="53.5449567" lon="14.8023267"><ele>10.0</ele><time>2026-04-06T14:27:08.07Z</time></trkpt><trkpt lat="53.54487" lon="14.8023817"><ele>10.0</ele><time>2026-04-06T14:27:09.07Z</time></trkpt><trkpt lat="53.5447783" lon="14.8024467"><ele>10.0</ele><time>2026-04-06T14:27:10.066Z</time></trkpt><trkpt lat="53.54468" lon="14.802515"><ele>10.0</ele><time>2026-04-06T14:27:11.093Z</time></trkpt><trkpt lat="53.5445733" lon="14.80259"><ele>10.0</ele><time>2026-04-06T14:27:12.064Z</time></trkpt><trkpt lat="53.5444633" lon="14.8026683"><ele>10.0</ele><time>2026-04-06T14:27:13.066Z</time></trkpt><trkpt lat="53.5443467" lon="14.8027533"><ele>10.0</ele><time>2026-04-06T14:27:14.067Z</time></trkpt><trkpt lat="53.5442283" lon="14.8028367"><ele>10.5</ele><time>2026-04-06T14:27:15.099Z</time></trkpt><trkpt lat="53.54411" lon="14.8029233"><ele>11.0</ele><time>2026-04-06T14:27:16.062Z</time></trkpt><trkpt lat="53.5439867" lon="14.80301"><ele>11.5</ele><time>2026-04-06T14:27:17.075Z</time></trkpt><trkpt lat="53.5438567" lon="14.8031017"><ele>12.0</ele><time>2026-04-06T14:27:18.061Z</time></trkpt><trkpt lat="53.54372" lon="14.8031983"><ele>11.333333333333334</ele><time>2026-04-06T14:27:19.078Z</time></trkpt><trkpt lat="53.543575" lon="14.8033"><ele>10.666666666666668</ele><time>2026-04-06T14:27:20.064Z</time></trkpt><trkpt lat="53.5434283" lon="14.803405"><ele>10.0</ele><time>2026-04-06T14:27:21.086Z</time></trkpt><trkpt lat="53.5432833" lon="14.8035117"><ele>10.666666666666668</ele><time>2026-04-06T14:27:22.058Z</time></trkpt><trkpt lat="53.5431359" lon="14.8036225"><ele>11.333333333333334</ele><time>2026-04-06T14:27:23.065Z</time></trkpt><trkpt lat="53.5429829" lon="14.8037388"><ele>12.0</ele><time>2026-04-06T14:27:24.063Z</time></trkpt><trkpt lat="53.542823" lon="14.8038542"><ele>12.0</ele><time>2026-04-06T14:27:25.074Z</time></trkpt><trkpt lat="53.542656" lon="14.8039719"><ele>12.0</ele><time>2026-04-06T14:27:26.086Z</time></trkpt><trkpt lat="53.5424877" lon="14.8040915"><ele>12.0</ele><time>2026-04-06T14:27:27.075Z</time></trkpt><trkpt lat="53.5423223" lon="14.8042084"><ele>12.0</ele><time>2026-04-06T14:27:28.068Z</time></trkpt><trkpt lat="53.5421543" lon="14.8043268"><ele>12.0</ele><time>2026-04-06T14:27:29.065Z</time></trkpt><trkpt lat="53.5419836" lon="14.8044449"><ele>12.0</ele><time>2026-04-06T14:27:30.078Z</time></trkpt><trkpt lat="53.5418136" lon="14.8045618"><ele>12.666666666666668</ele><time>2026-04-06T14:27:31.084Z</time></trkpt><trkpt lat="53.5416435" lon="14.804679"><ele>13.333333333333334</ele><time>2026-04-06T14:27:32.07Z</time></trkpt><trkpt lat="53.5414694" lon="14.8048004"><ele>14.0</ele><time>2026-04-06T14:27:33.084Z</time></trkpt><trkpt lat="53.5412964" lon="14.8049195"><ele>14.666666666666668</ele><time>2026-04-06T14:27:34.072Z</time></trkpt><trkpt lat="53.5411232" lon="14.8050411"><ele>15.333333333333332</ele><time>2026-04-06T14:27:35.071Z</time></trkpt><trkpt lat="53.5409503" lon="14.8051613"><ele>16.0</ele><time>2026-04-06T14:27:36.067Z</time></trkpt><trkpt lat="53.5407763" lon="14.805282"><ele>16.0</ele><time>2026-04-06T14:27:37.076Z</time></trkpt><trkpt lat="53.5406038" lon="14.8054001"><ele>16.0</ele><time>2026-04-06T14:27:38.067Z</time></trkpt><trkpt lat="53.5404271" lon="14.8055197"><ele>16.0</ele><time>2026-04-06T14:27:39.099Z</time></trkpt><trkpt lat="53.5402559" lon="14.8056413"><ele>14.666666666666666</ele><time>2026-04-06T14:27:40.071Z</time></trkpt><trkpt lat="53.5400801" lon="14.8057632"><ele>13.333333333333332</ele><time>2026-04-06T14:27:41.079Z</time></trkpt><trkpt lat="53.5399063" lon="14.8058808"><ele>12.0</ele><time>2026-04-06T14:27:42.077Z</time></trkpt><trkpt lat="53.5397289" lon="14.8060027"><ele>12.0</ele><time>2026-04-06T14:27:43.103Z</time></trkpt><trkpt lat="53.5395561" lon="14.8061226"><ele>12.0</ele><time>2026-04-06T14:27:44.07Z</time></trkpt><trkpt lat="53.5393786" lon="14.806245"><ele>12.0</ele><time>2026-04-06T14:27:45.082Z</time></trkpt><trkpt lat="53.5392025" lon="14.8063701"><ele>12.666666666666668</ele><time>2026-04-06T14:27:46.069Z</time></trkpt><trkpt lat="53.5390219" lon="14.8064998"><ele>13.333333333333334</ele><time>2026-04-06T14:27:47.103Z</time></trkpt><trkpt lat="53.5388475" lon="14.8066246"><ele>14.0</ele><time>2026-04-06T14:27:48.07Z</time></trkpt><trkpt lat="53.5386691" lon="14.8067499"><ele>14.333333333333334</ele><time>2026-04-06T14:27:49.082Z</time></trkpt><trkpt lat="53.5384932" lon="14.8068741"><ele>14.666666666666668</ele><time>2026-04-06T14:27:50.068Z</time></trkpt><trkpt lat="53.5383157" lon="14.8069958"><ele>15.0</ele><time>2026-04-06T14:27:51.093Z</time></trkpt><trkpt lat="53.5381423" lon="14.8071128"><ele>15.0</ele><time>2026-04-06T14:27:52.066Z</time></trkpt><trkpt lat="53.537968" lon="14.8072336"><ele>15.0</ele><time>2026-04-06T14:27:53.074Z</time></trkpt><trkpt lat="53.5377966" lon="14.8073531"><ele>15.0</ele><time>2026-04-06T14:27:54.067Z</time></trkpt><trkpt lat="53.5376237" lon="14.8074749"><ele>15.333333333333332</ele><time>2026-04-06T14:27:55.093Z</time></trkpt><trkpt lat="53.5374513" lon="14.807593"><ele>15.666666666666666</ele><time>2026-04-06T14:27:56.067Z</time></trkpt><trkpt lat="53.5372728" lon="14.8077097"><ele>16.0</ele><time>2026-04-06T14:27:57.072Z</time></trkpt><trkpt lat="53.5370931" lon="14.8078242"><ele>15.666666666666666</ele><time>2026-04-06T14:27:58.061Z</time></trkpt><trkpt lat="53.5369112" lon="14.8079363"><ele>15.333333333333332</ele><time>2026-04-06T14:27:59.076Z</time></trkpt><trkpt lat="53.5367307" lon="14.8080508"><ele>15.0</ele><time>2026-04-06T14:28:00.065Z</time></trkpt><trkpt lat="53.536549" lon="14.8081707"><ele>15.0</ele><time>2026-04-06T14:28:01.085Z</time></trkpt><trkpt lat="53.5363758" lon="14.8082905"><ele>15.0</ele><time>2026-04-06T14:28:02.06Z</time></trkpt><trkpt lat="53.5361985" lon="14.808413"><ele>15.0</ele><time>2026-04-06T14:28:03.069Z</time></trkpt><trkpt lat="53.5360274" lon="14.8085312"><ele>14.0</ele><time>2026-04-06T14:28:04.062Z</time></trkpt><trkpt lat="53.5358552" lon="14.8086533"><ele>13.0</ele><time>2026-04-06T14:28:05.087Z</time></trkpt><trkpt lat="53.5356908" lon="14.8087707"><ele>12.0</ele><time>2026-04-06T14:28:06.067Z</time></trkpt><trkpt lat="53.535527" lon="14.8088826"><ele>12.666666666666668</ele><time>2026-04-06T14:28:07.074Z</time></trkpt><trkpt lat="53.5353654" lon="14.808992"><ele>13.333333333333334</ele><time>2026-04-06T14:28:08.057Z</time></trkpt><trkpt lat="53.535209" lon="14.8091"><ele>14.0</ele><time>2026-04-06T14:28:09.103Z</time></trkpt><trkpt lat="53.53507" lon="14.8091954"><ele>14.0</ele><time>2026-04-06T14:28:10.061Z</time></trkpt><trkpt lat="53.5349341" lon="14.8092923"><ele>14.0</ele><time>2026-04-06T14:28:11.074Z</time></trkpt><trkpt lat="53.5348085" lon="14.8093744"><ele>14.0</ele><time>2026-04-06T14:28:12.067Z</time></trkpt><trkpt lat="53.5346903" lon="14.8094388"><ele>14.0</ele><time>2026-04-06T14:28:13.066Z</time></trkpt><trkpt lat="53.5345737" lon="14.8094826"><ele>13.5</ele><time>2026-04-06T14:28:14.065Z</time></trkpt><trkpt lat="53.5344538" lon="14.8094953"><ele>13.0</ele><time>2026-04-06T14:28:15.07Z</time></trkpt><trkpt lat="53.5343298" lon="14.8094545"><ele>12.5</ele><time>2026-04-06T14:28:16.066Z</time></trkpt><trkpt lat="53.5342058" lon="14.8093571"><ele>12.0</ele><time>2026-04-06T14:28:17.089Z</time></trkpt><trkpt lat="53.5340828" lon="14.8092389"><ele>13.0</ele><time>2026-04-06T14:28:18.068Z</time></trkpt><trkpt lat="53.5339566" lon="14.8091205"><ele>14.0</ele><time>2026-04-06T14:28:19.078Z</time></trkpt><trkpt lat="53.5338293" lon="14.8090139"><ele>15.0</ele><time>2026-04-06T14:28:20.071Z</time></trkpt><trkpt lat="53.5337079" lon="14.8089337"><ele>16.0</ele><time>2026-04-06T14:28:21.085Z</time></trkpt><trkpt lat="53.5335976" lon="14.8089008"><ele>16.5</ele><time>2026-04-06T14:28:22.061Z</time></trkpt><trkpt lat="53.5334949" lon="14.8089089"><ele>17.0</ele><time>2026-04-06T14:28:23.07Z</time></trkpt><trkpt lat="53.5334032" lon="14.8089484"><ele>17.5</ele><time>2026-04-06T14:28:24.059Z</time></trkpt><trkpt lat="53.5333199" lon="14.8089966"><ele>18.0</ele><time>2026-04-06T14:28:25.09Z</time></trkpt><trkpt lat="53.5332406" lon="14.8090391"><ele>18.5</ele><time>2026-04-06T14:28:26.061Z</time></trkpt><trkpt lat="53.5331633" lon="14.8090738"><ele>19.0</ele><time>2026-04-06T14:28:27.077Z</time></trkpt><trkpt lat="53.5330866" lon="14.809111"><ele>19.0</ele><time>2026-04-06T14:28:28.064Z</time></trkpt><trkpt lat="53.5330137" lon="14.8091473"><ele>19.0</ele><time>2026-04-06T14:28:29.076Z</time></trkpt><trkpt lat="53.5329501" lon="14.8091777"><ele>19.0</ele><time>2026-04-06T14:28:30.061Z</time></trkpt><trkpt lat="53.5328741" lon="14.8092186"><ele>19.0</ele><time>2026-04-06T14:28:32.069Z</time></trkpt><trkpt lat="53.5327888" lon="14.8092851"><ele>19.0</ele><time>2026-04-06T14:28:35.071Z</time></trkpt><trkpt lat="53.5327226" lon="14.8093247"><ele>19.0</ele><time>2026-04-06T14:28:37.076Z</time></trkpt><trkpt lat="53.5326468" lon="14.809367"><ele>18.5</ele><time>2026-04-06T14:28:40.067Z</time></trkpt><trkpt lat="53.5325715" lon="14.809447"><ele>18.0</ele><time>2026-04-06T14:28:43.093Z</time></trkpt><trkpt lat="53.532494" lon="14.8094768"><ele>17.5</ele><time>2026-04-06T14:28:47.093Z</time></trkpt><trkpt lat="53.53242" lon="14.809515"><ele>17.0</ele><time>2026-04-06T14:28:51.065Z</time></trkpt><trkpt lat="53.532355" lon="14.809555"><ele>16.5</ele><time>2026-04-06T14:28:54.063Z</time></trkpt><trkpt lat="53.5322717" lon="14.8096033"><ele>16.0</ele><time>2026-04-06T14:28:57.068Z</time></trkpt><trkpt lat="53.532185" lon="14.8096583"><ele>16.0</ele><time>2026-04-06T14:28:59.074Z</time></trkpt><trkpt lat="53.5320683" lon="14.80972"><ele>16.0</ele><time>2026-04-06T14:29:01.062Z</time></trkpt><trkpt lat="53.5319667" lon="14.8097767"><ele>12.0</ele><time>2026-04-06T14:29:03.084Z</time></trkpt></trkseg></trk></gpx>